<?xml version="1.0" encoding="UTF-8" standalone="no" ?>
<gpx xmlns="http://www.topografix.com/GPX/1/1" xmlns:xsi="http://www.w3.org/2001/XMLSchema-instance" xsi:schemaLocation="http://www.topografix.com/GPX/1/1 http://www.topografix.com/GPX/1/1/gpx.xsd" version="1.1" creator="VisuGPX - https://www.visugpx.com">
  <metadata>
    <name>VTT la Varenne</name>
  </metadata>
  <trk>
    <name><![CDATA[runtastic_20141116_0924]]></name>
    <trkseg>
      <trkpt lat="47.31152" lon="-1.32003">
        <ele>122</ele>
        <time>2014-11-16T08:24:29.000Z</time>
      </trkpt>
      <trkpt lat="47.31167" lon="-1.32">
        <ele>124</ele>
        <time>2014-11-16T08:24:30.000Z</time>
      </trkpt>
      <trkpt lat="47.31154" lon="-1.32024">
        <ele>117</ele>
        <time>2014-11-16T08:24:42.000Z</time>
      </trkpt>
      <trkpt lat="47.31153" lon="-1.3204">
        <ele>112</ele>
        <time>2014-11-16T08:24:46.000Z</time>
      </trkpt>
      <trkpt lat="47.31153" lon="-1.32053">
        <ele>114</ele>
        <time>2014-11-16T08:24:50.000Z</time>
      </trkpt>
      <trkpt lat="47.31145" lon="-1.32065">
        <ele>113</ele>
        <time>2014-11-16T08:24:54.000Z</time>
      </trkpt>
      <trkpt lat="47.31139" lon="-1.32067">
        <ele>111</ele>
        <time>2014-11-16T08:24:56.000Z</time>
      </trkpt>
      <trkpt lat="47.31132" lon="-1.32061">
        <ele>110</ele>
        <time>2014-11-16T08:24:58.000Z</time>
      </trkpt>
      <trkpt lat="47.31126" lon="-1.32055">
        <ele>112</ele>
        <time>2014-11-16T08:25:00.000Z</time>
      </trkpt>
      <trkpt lat="47.31118" lon="-1.32049">
        <ele>112</ele>
        <time>2014-11-16T08:25:02.000Z</time>
      </trkpt>
      <trkpt lat="47.31113" lon="-1.32042">
        <ele>113</ele>
        <time>2014-11-16T08:25:04.000Z</time>
      </trkpt>
      <trkpt lat="47.31109" lon="-1.32033">
        <ele>113</ele>
        <time>2014-11-16T08:25:06.000Z</time>
      </trkpt>
      <trkpt lat="47.31105" lon="-1.32025">
        <ele>112</ele>
        <time>2014-11-16T08:25:08.000Z</time>
      </trkpt>
      <trkpt lat="47.31099" lon="-1.32016">
        <ele>113</ele>
        <time>2014-11-16T08:25:10.000Z</time>
      </trkpt>
      <trkpt lat="47.31093" lon="-1.32008">
        <ele>112</ele>
        <time>2014-11-16T08:25:12.000Z</time>
      </trkpt>
      <trkpt lat="47.31086" lon="-1.32">
        <ele>110</ele>
        <time>2014-11-16T08:25:14.000Z</time>
      </trkpt>
      <trkpt lat="47.31078" lon="-1.31987">
        <ele>110</ele>
        <time>2014-11-16T08:25:16.000Z</time>
      </trkpt>
      <trkpt lat="47.31071" lon="-1.31982">
        <ele>110</ele>
        <time>2014-11-16T08:25:18.000Z</time>
      </trkpt>
      <trkpt lat="47.31067" lon="-1.31972">
        <ele>110</ele>
        <time>2014-11-16T08:25:20.000Z</time>
      </trkpt>
      <trkpt lat="47.31063" lon="-1.3196">
        <ele>109</ele>
        <time>2014-11-16T08:25:22.000Z</time>
      </trkpt>
      <trkpt lat="47.31059" lon="-1.3195">
        <ele>110</ele>
        <time>2014-11-16T08:25:24.000Z</time>
      </trkpt>
      <trkpt lat="47.31056" lon="-1.31943">
        <ele>111</ele>
        <time>2014-11-16T08:25:26.000Z</time>
      </trkpt>
      <trkpt lat="47.31056" lon="-1.31943">
        <ele>111</ele>
        <time>2014-11-16T08:25:28.000Z</time>
      </trkpt>
      <trkpt lat="47.31044" lon="-1.31944">
        <ele>111</ele>
        <time>2014-11-16T08:25:30.000Z</time>
      </trkpt>
      <trkpt lat="47.31044" lon="-1.31944">
        <ele>111</ele>
        <time>2014-11-16T08:25:31.000Z</time>
      </trkpt>
      <trkpt lat="47.31025" lon="-1.31959">
        <ele>109</ele>
        <time>2014-11-16T08:25:34.000Z</time>
      </trkpt>
      <trkpt lat="47.31018" lon="-1.31964">
        <ele>109</ele>
        <time>2014-11-16T08:25:36.000Z</time>
      </trkpt>
      <trkpt lat="47.3101" lon="-1.31971">
        <ele>108</ele>
        <time>2014-11-16T08:25:38.000Z</time>
      </trkpt>
      <trkpt lat="47.31002" lon="-1.31978">
        <ele>107</ele>
        <time>2014-11-16T08:25:40.000Z</time>
      </trkpt>
      <trkpt lat="47.30994" lon="-1.31986">
        <ele>107</ele>
        <time>2014-11-16T08:25:42.000Z</time>
      </trkpt>
      <trkpt lat="47.30988" lon="-1.31995">
        <ele>106</ele>
        <time>2014-11-16T08:25:44.000Z</time>
      </trkpt>
      <trkpt lat="47.3098" lon="-1.32004">
        <ele>105</ele>
        <time>2014-11-16T08:25:46.000Z</time>
      </trkpt>
      <trkpt lat="47.30972" lon="-1.32015">
        <ele>105</ele>
        <time>2014-11-16T08:25:48.000Z</time>
      </trkpt>
      <trkpt lat="47.30964" lon="-1.32025">
        <ele>105</ele>
        <time>2014-11-16T08:25:50.000Z</time>
      </trkpt>
      <trkpt lat="47.30956" lon="-1.32035">
        <ele>104</ele>
        <time>2014-11-16T08:25:52.000Z</time>
      </trkpt>
      <trkpt lat="47.30946" lon="-1.32039">
        <ele>101</ele>
        <time>2014-11-16T08:25:54.000Z</time>
      </trkpt>
      <trkpt lat="47.30939" lon="-1.32047">
        <ele>99</ele>
        <time>2014-11-16T08:25:56.000Z</time>
      </trkpt>
      <trkpt lat="47.30939" lon="-1.32047">
        <ele>99</ele>
        <time>2014-11-16T08:25:59.000Z</time>
      </trkpt>
      <trkpt lat="47.30939" lon="-1.32047">
        <ele>99</ele>
        <time>2014-11-16T08:26:01.000Z</time>
      </trkpt>
      <trkpt lat="47.30939" lon="-1.32047">
        <ele>99</ele>
        <time>2014-11-16T08:26:03.000Z</time>
      </trkpt>
      <trkpt lat="47.30939" lon="-1.32047">
        <ele>99</ele>
        <time>2014-11-16T08:26:05.000Z</time>
      </trkpt>
      <trkpt lat="47.30939" lon="-1.32047">
        <ele>99</ele>
        <time>2014-11-16T08:26:07.000Z</time>
      </trkpt>
      <trkpt lat="47.30939" lon="-1.32047">
        <ele>99</ele>
        <time>2014-11-16T08:26:09.000Z</time>
      </trkpt>
      <trkpt lat="47.30939" lon="-1.32047">
        <ele>99</ele>
        <time>2014-11-16T08:26:11.000Z</time>
      </trkpt>
      <trkpt lat="47.30939" lon="-1.32047">
        <ele>99</ele>
        <time>2014-11-16T08:26:13.000Z</time>
      </trkpt>
      <trkpt lat="47.30939" lon="-1.32047">
        <ele>99</ele>
        <time>2014-11-16T08:26:15.000Z</time>
      </trkpt>
      <trkpt lat="47.30939" lon="-1.32047">
        <ele>99</ele>
        <time>2014-11-16T08:26:17.000Z</time>
      </trkpt>
      <trkpt lat="47.30939" lon="-1.32047">
        <ele>99</ele>
        <time>2014-11-16T08:26:19.000Z</time>
      </trkpt>
      <trkpt lat="47.30939" lon="-1.32047">
        <ele>99</ele>
        <time>2014-11-16T08:26:21.000Z</time>
      </trkpt>
      <trkpt lat="47.30939" lon="-1.32047">
        <ele>99</ele>
        <time>2014-11-16T08:26:23.000Z</time>
      </trkpt>
      <trkpt lat="47.30939" lon="-1.32047">
        <ele>99</ele>
        <time>2014-11-16T08:26:25.000Z</time>
      </trkpt>
      <trkpt lat="47.30939" lon="-1.32047">
        <ele>99</ele>
        <time>2014-11-16T08:26:27.000Z</time>
      </trkpt>
      <trkpt lat="47.30939" lon="-1.32047">
        <ele>99</ele>
        <time>2014-11-16T08:26:29.000Z</time>
      </trkpt>
      <trkpt lat="47.30939" lon="-1.32047">
        <ele>99</ele>
        <time>2014-11-16T08:26:31.000Z</time>
      </trkpt>
      <trkpt lat="47.30939" lon="-1.32047">
        <ele>99</ele>
        <time>2014-11-16T08:26:33.000Z</time>
      </trkpt>
      <trkpt lat="47.30939" lon="-1.32047">
        <ele>99</ele>
        <time>2014-11-16T08:26:35.000Z</time>
      </trkpt>
      <trkpt lat="47.30939" lon="-1.32047">
        <ele>99</ele>
        <time>2014-11-16T08:26:37.000Z</time>
      </trkpt>
      <trkpt lat="47.30933" lon="-1.32057">
        <ele>99</ele>
        <time>2014-11-16T08:26:41.000Z</time>
      </trkpt>
      <trkpt lat="47.30927" lon="-1.32069">
        <ele>97</ele>
        <time>2014-11-16T08:26:43.000Z</time>
      </trkpt>
      <trkpt lat="47.30921" lon="-1.32082">
        <ele>96</ele>
        <time>2014-11-16T08:26:45.000Z</time>
      </trkpt>
      <trkpt lat="47.30913" lon="-1.32096">
        <ele>96</ele>
        <time>2014-11-16T08:26:47.000Z</time>
      </trkpt>
      <trkpt lat="47.30905" lon="-1.32111">
        <ele>97</ele>
        <time>2014-11-16T08:26:49.000Z</time>
      </trkpt>
      <trkpt lat="47.30896" lon="-1.32127">
        <ele>97</ele>
        <time>2014-11-16T08:26:51.000Z</time>
      </trkpt>
      <trkpt lat="47.30889" lon="-1.32144">
        <ele>96</ele>
        <time>2014-11-16T08:26:53.000Z</time>
      </trkpt>
      <trkpt lat="47.30887" lon="-1.32166">
        <ele>94</ele>
        <time>2014-11-16T08:26:55.000Z</time>
      </trkpt>
      <trkpt lat="47.30891" lon="-1.32189">
        <ele>92</ele>
        <time>2014-11-16T08:26:57.000Z</time>
      </trkpt>
      <trkpt lat="47.30901" lon="-1.32208">
        <ele>89</ele>
        <time>2014-11-16T08:26:59.000Z</time>
      </trkpt>
      <trkpt lat="47.30908" lon="-1.32229">
        <ele>89</ele>
        <time>2014-11-16T08:27:01.000Z</time>
      </trkpt>
      <trkpt lat="47.30906" lon="-1.32253">
        <ele>88</ele>
        <time>2014-11-16T08:27:03.000Z</time>
      </trkpt>
      <trkpt lat="47.30899" lon="-1.32271">
        <ele>86</ele>
        <time>2014-11-16T08:27:05.000Z</time>
      </trkpt>
      <trkpt lat="47.30894" lon="-1.32293">
        <ele>86</ele>
        <time>2014-11-16T08:27:07.000Z</time>
      </trkpt>
      <trkpt lat="47.3089" lon="-1.32313">
        <ele>84</ele>
        <time>2014-11-16T08:27:09.000Z</time>
      </trkpt>
      <trkpt lat="47.30883" lon="-1.32324">
        <ele>84</ele>
        <time>2014-11-16T08:27:11.000Z</time>
      </trkpt>
      <trkpt lat="47.30874" lon="-1.32322">
        <ele>83</ele>
        <time>2014-11-16T08:27:13.000Z</time>
      </trkpt>
      <trkpt lat="47.30865" lon="-1.32313">
        <ele>82</ele>
        <time>2014-11-16T08:27:15.000Z</time>
      </trkpt>
      <trkpt lat="47.30857" lon="-1.32306">
        <ele>80</ele>
        <time>2014-11-16T08:27:17.000Z</time>
      </trkpt>
      <trkpt lat="47.30846" lon="-1.32296">
        <ele>80</ele>
        <time>2014-11-16T08:27:19.000Z</time>
      </trkpt>
      <trkpt lat="47.30835" lon="-1.32286">
        <ele>79</ele>
        <time>2014-11-16T08:27:21.000Z</time>
      </trkpt>
      <trkpt lat="47.30823" lon="-1.32275">
        <ele>77</ele>
        <time>2014-11-16T08:27:23.000Z</time>
      </trkpt>
      <trkpt lat="47.30811" lon="-1.32264">
        <ele>74</ele>
        <time>2014-11-16T08:27:25.000Z</time>
      </trkpt>
      <trkpt lat="47.30798" lon="-1.32253">
        <ele>72</ele>
        <time>2014-11-16T08:27:27.000Z</time>
      </trkpt>
      <trkpt lat="47.30787" lon="-1.32243">
        <ele>70</ele>
        <time>2014-11-16T08:27:29.000Z</time>
      </trkpt>
      <trkpt lat="47.30762" lon="-1.32231">
        <ele>66</ele>
        <time>2014-11-16T08:27:32.000Z</time>
      </trkpt>
      <trkpt lat="47.3074" lon="-1.32227">
        <ele>62</ele>
        <time>2014-11-16T08:27:34.000Z</time>
      </trkpt>
      <trkpt lat="47.30721" lon="-1.32221">
        <ele>60</ele>
        <time>2014-11-16T08:27:36.000Z</time>
      </trkpt>
      <trkpt lat="47.30704" lon="-1.32209">
        <ele>57</ele>
        <time>2014-11-16T08:27:38.000Z</time>
      </trkpt>
      <trkpt lat="47.30686" lon="-1.32196">
        <ele>55</ele>
        <time>2014-11-16T08:27:40.000Z</time>
      </trkpt>
      <trkpt lat="47.30671" lon="-1.32179">
        <ele>54</ele>
        <time>2014-11-16T08:27:42.000Z</time>
      </trkpt>
      <trkpt lat="47.30659" lon="-1.32165">
        <ele>55</ele>
        <time>2014-11-16T08:27:44.000Z</time>
      </trkpt>
      <trkpt lat="47.30651" lon="-1.32155">
        <ele>55</ele>
        <time>2014-11-16T08:27:46.000Z</time>
      </trkpt>
      <trkpt lat="47.30642" lon="-1.32158">
        <ele>56</ele>
        <time>2014-11-16T08:27:48.000Z</time>
      </trkpt>
      <trkpt lat="47.30634" lon="-1.32166">
        <ele>54</ele>
        <time>2014-11-16T08:27:50.000Z</time>
      </trkpt>
      <trkpt lat="47.30623" lon="-1.32171">
        <ele>54</ele>
        <time>2014-11-16T08:27:52.000Z</time>
      </trkpt>
      <trkpt lat="47.30614" lon="-1.32181">
        <ele>53</ele>
        <time>2014-11-16T08:27:54.000Z</time>
      </trkpt>
      <trkpt lat="47.30605" lon="-1.32188">
        <ele>53</ele>
        <time>2014-11-16T08:27:56.000Z</time>
      </trkpt>
      <trkpt lat="47.30596" lon="-1.32197">
        <ele>53</ele>
        <time>2014-11-16T08:27:58.000Z</time>
      </trkpt>
      <trkpt lat="47.30589" lon="-1.32204">
        <ele>55</ele>
        <time>2014-11-16T08:28:00.000Z</time>
      </trkpt>
      <trkpt lat="47.30581" lon="-1.32211">
        <ele>54</ele>
        <time>2014-11-16T08:28:02.000Z</time>
      </trkpt>
      <trkpt lat="47.30572" lon="-1.32218">
        <ele>54</ele>
        <time>2014-11-16T08:28:04.000Z</time>
      </trkpt>
      <trkpt lat="47.30565" lon="-1.32222">
        <ele>57</ele>
        <time>2014-11-16T08:28:06.000Z</time>
      </trkpt>
      <trkpt lat="47.30558" lon="-1.32225">
        <ele>57</ele>
        <time>2014-11-16T08:28:08.000Z</time>
      </trkpt>
      <trkpt lat="47.3055" lon="-1.32227">
        <ele>58</ele>
        <time>2014-11-16T08:28:10.000Z</time>
      </trkpt>
      <trkpt lat="47.30542" lon="-1.3223">
        <ele>58</ele>
        <time>2014-11-16T08:28:12.000Z</time>
      </trkpt>
      <trkpt lat="47.30531" lon="-1.32242">
        <ele>59</ele>
        <time>2014-11-16T08:28:14.000Z</time>
      </trkpt>
      <trkpt lat="47.3052" lon="-1.3225">
        <ele>60</ele>
        <time>2014-11-16T08:28:17.000Z</time>
      </trkpt>
      <trkpt lat="47.30513" lon="-1.32256">
        <ele>60</ele>
        <time>2014-11-16T08:28:19.000Z</time>
      </trkpt>
      <trkpt lat="47.305" lon="-1.32262">
        <ele>58</ele>
        <time>2014-11-16T08:28:21.000Z</time>
      </trkpt>
      <trkpt lat="47.30492" lon="-1.32269">
        <ele>57</ele>
        <time>2014-11-16T08:28:23.000Z</time>
      </trkpt>
      <trkpt lat="47.30484" lon="-1.32275">
        <ele>57</ele>
        <time>2014-11-16T08:28:25.000Z</time>
      </trkpt>
      <trkpt lat="47.30476" lon="-1.32279">
        <ele>59</ele>
        <time>2014-11-16T08:28:27.000Z</time>
      </trkpt>
      <trkpt lat="47.30469" lon="-1.32281">
        <ele>58</ele>
        <time>2014-11-16T08:28:29.000Z</time>
      </trkpt>
      <trkpt lat="47.30469" lon="-1.32281">
        <ele>58</ele>
        <time>2014-11-16T08:28:31.000Z</time>
      </trkpt>
      <trkpt lat="47.30461" lon="-1.32283">
        <ele>57</ele>
        <time>2014-11-16T08:28:33.000Z</time>
      </trkpt>
      <trkpt lat="47.30461" lon="-1.32283">
        <ele>57</ele>
        <time>2014-11-16T08:28:35.000Z</time>
      </trkpt>
      <trkpt lat="47.30449" lon="-1.32288">
        <ele>59</ele>
        <time>2014-11-16T08:28:37.000Z</time>
      </trkpt>
      <trkpt lat="47.30442" lon="-1.32291">
        <ele>60</ele>
        <time>2014-11-16T08:28:39.000Z</time>
      </trkpt>
      <trkpt lat="47.30434" lon="-1.32291">
        <ele>61</ele>
        <time>2014-11-16T08:28:41.000Z</time>
      </trkpt>
      <trkpt lat="47.30426" lon="-1.3229">
        <ele>67</ele>
        <time>2014-11-16T08:28:43.000Z</time>
      </trkpt>
      <trkpt lat="47.30417" lon="-1.32289">
        <ele>66</ele>
        <time>2014-11-16T08:28:45.000Z</time>
      </trkpt>
      <trkpt lat="47.30408" lon="-1.32292">
        <ele>68</ele>
        <time>2014-11-16T08:28:47.000Z</time>
      </trkpt>
      <trkpt lat="47.30398" lon="-1.32297">
        <ele>69</ele>
        <time>2014-11-16T08:28:49.000Z</time>
      </trkpt>
      <trkpt lat="47.30384" lon="-1.32301">
        <ele>73</ele>
        <time>2014-11-16T08:28:51.000Z</time>
      </trkpt>
      <trkpt lat="47.30372" lon="-1.32303">
        <ele>78</ele>
        <time>2014-11-16T08:28:54.000Z</time>
      </trkpt>
      <trkpt lat="47.30365" lon="-1.32305">
        <ele>80</ele>
        <time>2014-11-16T08:28:56.000Z</time>
      </trkpt>
      <trkpt lat="47.30365" lon="-1.32305">
        <ele>80</ele>
        <time>2014-11-16T08:28:58.000Z</time>
      </trkpt>
      <trkpt lat="47.30355" lon="-1.3231">
        <ele>83</ele>
        <time>2014-11-16T08:29:00.000Z</time>
      </trkpt>
      <trkpt lat="47.30342" lon="-1.32323">
        <ele>79</ele>
        <time>2014-11-16T08:29:03.000Z</time>
      </trkpt>
      <trkpt lat="47.30333" lon="-1.32324">
        <ele>88</ele>
        <time>2014-11-16T08:29:06.000Z</time>
      </trkpt>
      <trkpt lat="47.30326" lon="-1.32327">
        <ele>88</ele>
        <time>2014-11-16T08:29:08.000Z</time>
      </trkpt>
      <trkpt lat="47.30322" lon="-1.32334">
        <ele>88</ele>
        <time>2014-11-16T08:29:10.000Z</time>
      </trkpt>
      <trkpt lat="47.30323" lon="-1.32344">
        <ele>85</ele>
        <time>2014-11-16T08:29:12.000Z</time>
      </trkpt>
      <trkpt lat="47.30324" lon="-1.32352">
        <ele>83</ele>
        <time>2014-11-16T08:29:16.000Z</time>
      </trkpt>
      <trkpt lat="47.30326" lon="-1.3236">
        <ele>81</ele>
        <time>2014-11-16T08:29:18.000Z</time>
      </trkpt>
      <trkpt lat="47.30328" lon="-1.32367">
        <ele>78</ele>
        <time>2014-11-16T08:29:20.000Z</time>
      </trkpt>
      <trkpt lat="47.3033" lon="-1.32375">
        <ele>76</ele>
        <time>2014-11-16T08:29:22.000Z</time>
      </trkpt>
      <trkpt lat="47.30332" lon="-1.32383">
        <ele>76</ele>
        <time>2014-11-16T08:29:24.000Z</time>
      </trkpt>
      <trkpt lat="47.30335" lon="-1.32403">
        <ele>77</ele>
        <time>2014-11-16T08:29:26.000Z</time>
      </trkpt>
      <trkpt lat="47.30336" lon="-1.32412">
        <ele>80</ele>
        <time>2014-11-16T08:29:28.000Z</time>
      </trkpt>
      <trkpt lat="47.30337" lon="-1.32421">
        <ele>82</ele>
        <time>2014-11-16T08:29:30.000Z</time>
      </trkpt>
      <trkpt lat="47.30339" lon="-1.3243">
        <ele>82</ele>
        <time>2014-11-16T08:29:32.000Z</time>
      </trkpt>
      <trkpt lat="47.30341" lon="-1.32438">
        <ele>82</ele>
        <time>2014-11-16T08:29:34.000Z</time>
      </trkpt>
      <trkpt lat="47.30341" lon="-1.3245">
        <ele>84</ele>
        <time>2014-11-16T08:29:36.000Z</time>
      </trkpt>
      <trkpt lat="47.30342" lon="-1.32459">
        <ele>87</ele>
        <time>2014-11-16T08:29:38.000Z</time>
      </trkpt>
      <trkpt lat="47.30342" lon="-1.32459">
        <ele>87</ele>
        <time>2014-11-16T08:29:40.000Z</time>
      </trkpt>
      <trkpt lat="47.30344" lon="-1.32476">
        <ele>85</ele>
        <time>2014-11-16T08:29:42.000Z</time>
      </trkpt>
      <trkpt lat="47.30346" lon="-1.32486">
        <ele>82</ele>
        <time>2014-11-16T08:29:44.000Z</time>
      </trkpt>
      <trkpt lat="47.30348" lon="-1.325">
        <ele>80</ele>
        <time>2014-11-16T08:29:46.000Z</time>
      </trkpt>
      <trkpt lat="47.30349" lon="-1.32511">
        <ele>78</ele>
        <time>2014-11-16T08:29:48.000Z</time>
      </trkpt>
      <trkpt lat="47.30349" lon="-1.32522">
        <ele>78</ele>
        <time>2014-11-16T08:29:50.000Z</time>
      </trkpt>
      <trkpt lat="47.30349" lon="-1.32538">
        <ele>72</ele>
        <time>2014-11-16T08:29:52.000Z</time>
      </trkpt>
      <trkpt lat="47.30349" lon="-1.32549">
        <ele>72</ele>
        <time>2014-11-16T08:29:54.000Z</time>
      </trkpt>
      <trkpt lat="47.3035" lon="-1.32562">
        <ele>73</ele>
        <time>2014-11-16T08:29:56.000Z</time>
      </trkpt>
      <trkpt lat="47.3035" lon="-1.32562">
        <ele>73</ele>
        <time>2014-11-16T08:29:58.000Z</time>
      </trkpt>
      <trkpt lat="47.3035" lon="-1.32576">
        <ele>73</ele>
        <time>2014-11-16T08:30:00.000Z</time>
      </trkpt>
      <trkpt lat="47.3035" lon="-1.32576">
        <ele>73</ele>
        <time>2014-11-16T08:30:02.000Z</time>
      </trkpt>
      <trkpt lat="47.3035" lon="-1.32587">
        <ele>78</ele>
        <time>2014-11-16T08:30:04.000Z</time>
      </trkpt>
      <trkpt lat="47.3035" lon="-1.32587">
        <ele>78</ele>
        <time>2014-11-16T08:30:06.000Z</time>
      </trkpt>
      <trkpt lat="47.30347" lon="-1.326">
        <ele>76</ele>
        <time>2014-11-16T08:30:08.000Z</time>
      </trkpt>
      <trkpt lat="47.30346" lon="-1.32609">
        <ele>74</ele>
        <time>2014-11-16T08:30:10.000Z</time>
      </trkpt>
      <trkpt lat="47.30346" lon="-1.32618">
        <ele>75</ele>
        <time>2014-11-16T08:30:12.000Z</time>
      </trkpt>
      <trkpt lat="47.30345" lon="-1.32633">
        <ele>75</ele>
        <time>2014-11-16T08:30:16.000Z</time>
      </trkpt>
      <trkpt lat="47.30345" lon="-1.32633">
        <ele>75</ele>
        <time>2014-11-16T08:30:18.000Z</time>
      </trkpt>
      <trkpt lat="47.30346" lon="-1.32649">
        <ele>73</ele>
        <time>2014-11-16T08:30:20.000Z</time>
      </trkpt>
      <trkpt lat="47.30346" lon="-1.3266">
        <ele>72</ele>
        <time>2014-11-16T08:30:22.000Z</time>
      </trkpt>
      <trkpt lat="47.30346" lon="-1.32673">
        <ele>72</ele>
        <time>2014-11-16T08:30:24.000Z</time>
      </trkpt>
      <trkpt lat="47.30347" lon="-1.32684">
        <ele>73</ele>
        <time>2014-11-16T08:30:26.000Z</time>
      </trkpt>
      <trkpt lat="47.30347" lon="-1.32694">
        <ele>75</ele>
        <time>2014-11-16T08:30:28.000Z</time>
      </trkpt>
      <trkpt lat="47.30347" lon="-1.32704">
        <ele>76</ele>
        <time>2014-11-16T08:30:30.000Z</time>
      </trkpt>
      <trkpt lat="47.30347" lon="-1.32714">
        <ele>75</ele>
        <time>2014-11-16T08:30:32.000Z</time>
      </trkpt>
      <trkpt lat="47.30347" lon="-1.32714">
        <ele>75</ele>
        <time>2014-11-16T08:30:34.000Z</time>
      </trkpt>
      <trkpt lat="47.3035" lon="-1.32728">
        <ele>80</ele>
        <time>2014-11-16T08:30:36.000Z</time>
      </trkpt>
      <trkpt lat="47.3035" lon="-1.32728">
        <ele>80</ele>
        <time>2014-11-16T08:30:38.000Z</time>
      </trkpt>
      <trkpt lat="47.30353" lon="-1.32741">
        <ele>80</ele>
        <time>2014-11-16T08:30:40.000Z</time>
      </trkpt>
      <trkpt lat="47.30353" lon="-1.32751">
        <ele>80</ele>
        <time>2014-11-16T08:30:42.000Z</time>
      </trkpt>
      <trkpt lat="47.30353" lon="-1.32761">
        <ele>81</ele>
        <time>2014-11-16T08:30:44.000Z</time>
      </trkpt>
      <trkpt lat="47.30355" lon="-1.32769">
        <ele>80</ele>
        <time>2014-11-16T08:30:46.000Z</time>
      </trkpt>
      <trkpt lat="47.30355" lon="-1.32769">
        <ele>80</ele>
        <time>2014-11-16T08:30:48.000Z</time>
      </trkpt>
      <trkpt lat="47.3036" lon="-1.32781">
        <ele>78</ele>
        <time>2014-11-16T08:30:50.000Z</time>
      </trkpt>
      <trkpt lat="47.3036" lon="-1.32781">
        <ele>78</ele>
        <time>2014-11-16T08:30:52.000Z</time>
      </trkpt>
      <trkpt lat="47.30367" lon="-1.32788">
        <ele>82</ele>
        <time>2014-11-16T08:30:54.000Z</time>
      </trkpt>
      <trkpt lat="47.30367" lon="-1.32788">
        <ele>82</ele>
        <time>2014-11-16T08:30:56.000Z</time>
      </trkpt>
      <trkpt lat="47.30371" lon="-1.32798">
        <ele>80</ele>
        <time>2014-11-16T08:30:58.000Z</time>
      </trkpt>
      <trkpt lat="47.30374" lon="-1.32809">
        <ele>80</ele>
        <time>2014-11-16T08:31:02.000Z</time>
      </trkpt>
      <trkpt lat="47.30378" lon="-1.32825">
        <ele>80</ele>
        <time>2014-11-16T08:31:06.000Z</time>
      </trkpt>
      <trkpt lat="47.30378" lon="-1.32836">
        <ele>78</ele>
        <time>2014-11-16T08:31:08.000Z</time>
      </trkpt>
      <trkpt lat="47.3038" lon="-1.32851">
        <ele>79</ele>
        <time>2014-11-16T08:31:12.000Z</time>
      </trkpt>
      <trkpt lat="47.3038" lon="-1.32851">
        <ele>79</ele>
        <time>2014-11-16T08:31:14.000Z</time>
      </trkpt>
      <trkpt lat="47.30384" lon="-1.32862">
        <ele>76</ele>
        <time>2014-11-16T08:31:16.000Z</time>
      </trkpt>
      <trkpt lat="47.30386" lon="-1.32871">
        <ele>75</ele>
        <time>2014-11-16T08:31:18.000Z</time>
      </trkpt>
      <trkpt lat="47.30391" lon="-1.32882">
        <ele>75</ele>
        <time>2014-11-16T08:31:22.000Z</time>
      </trkpt>
      <trkpt lat="47.30391" lon="-1.32882">
        <ele>75</ele>
        <time>2014-11-16T08:31:24.000Z</time>
      </trkpt>
      <trkpt lat="47.30399" lon="-1.32891">
        <ele>77</ele>
        <time>2014-11-16T08:31:26.000Z</time>
      </trkpt>
      <trkpt lat="47.30408" lon="-1.32889">
        <ele>74</ele>
        <time>2014-11-16T08:31:30.000Z</time>
      </trkpt>
      <trkpt lat="47.30408" lon="-1.32889">
        <ele>74</ele>
        <time>2014-11-16T08:31:32.000Z</time>
      </trkpt>
      <trkpt lat="47.30408" lon="-1.32889">
        <ele>74</ele>
        <time>2014-11-16T08:31:34.000Z</time>
      </trkpt>
      <trkpt lat="47.30415" lon="-1.32889">
        <ele>71</ele>
        <time>2014-11-16T08:31:36.000Z</time>
      </trkpt>
      <trkpt lat="47.30415" lon="-1.32889">
        <ele>71</ele>
        <time>2014-11-16T08:31:38.000Z</time>
      </trkpt>
      <trkpt lat="47.30415" lon="-1.32889">
        <ele>71</ele>
        <time>2014-11-16T08:31:40.000Z</time>
      </trkpt>
      <trkpt lat="47.3042" lon="-1.32884">
        <ele>77</ele>
        <time>2014-11-16T08:31:42.000Z</time>
      </trkpt>
      <trkpt lat="47.3042" lon="-1.32884">
        <ele>77</ele>
        <time>2014-11-16T08:31:44.000Z</time>
      </trkpt>
      <trkpt lat="47.3042" lon="-1.32884">
        <ele>77</ele>
        <time>2014-11-16T08:31:46.000Z</time>
      </trkpt>
      <trkpt lat="47.3042" lon="-1.32884">
        <ele>77</ele>
        <time>2014-11-16T08:31:48.000Z</time>
      </trkpt>
      <trkpt lat="47.30427" lon="-1.32885">
        <ele>75</ele>
        <time>2014-11-16T08:31:50.000Z</time>
      </trkpt>
      <trkpt lat="47.30431" lon="-1.32878">
        <ele>76</ele>
        <time>2014-11-16T08:31:56.000Z</time>
      </trkpt>
      <trkpt lat="47.30431" lon="-1.32878">
        <ele>76</ele>
        <time>2014-11-16T08:31:58.000Z</time>
      </trkpt>
      <trkpt lat="47.30431" lon="-1.32878">
        <ele>76</ele>
        <time>2014-11-16T08:32:00.000Z</time>
      </trkpt>
      <trkpt lat="47.30431" lon="-1.32878">
        <ele>76</ele>
        <time>2014-11-16T08:32:02.000Z</time>
      </trkpt>
      <trkpt lat="47.30431" lon="-1.32878">
        <ele>76</ele>
        <time>2014-11-16T08:32:04.000Z</time>
      </trkpt>
      <trkpt lat="47.30431" lon="-1.32878">
        <ele>76</ele>
        <time>2014-11-16T08:32:06.000Z</time>
      </trkpt>
      <trkpt lat="47.30433" lon="-1.32875">
        <ele>72</ele>
        <time>2014-11-16T08:32:12.000Z</time>
      </trkpt>
      <trkpt lat="47.30435" lon="-1.32872">
        <ele>73</ele>
        <time>2014-11-16T08:32:14.000Z</time>
      </trkpt>
      <trkpt lat="47.30437" lon="-1.32868">
        <ele>75</ele>
        <time>2014-11-16T08:32:16.000Z</time>
      </trkpt>
      <trkpt lat="47.30441" lon="-1.32864">
        <ele>76</ele>
        <time>2014-11-16T08:32:18.000Z</time>
      </trkpt>
      <trkpt lat="47.30443" lon="-1.3286">
        <ele>76</ele>
        <time>2014-11-16T08:32:20.000Z</time>
      </trkpt>
      <trkpt lat="47.30449" lon="-1.32851">
        <ele>75</ele>
        <time>2014-11-16T08:32:22.000Z</time>
      </trkpt>
      <trkpt lat="47.30456" lon="-1.32843">
        <ele>69</ele>
        <time>2014-11-16T08:32:26.000Z</time>
      </trkpt>
      <trkpt lat="47.30462" lon="-1.32832">
        <ele>66</ele>
        <time>2014-11-16T08:32:30.000Z</time>
      </trkpt>
      <trkpt lat="47.30469" lon="-1.32821">
        <ele>66</ele>
        <time>2014-11-16T08:32:34.000Z</time>
      </trkpt>
      <trkpt lat="47.30469" lon="-1.32821">
        <ele>66</ele>
        <time>2014-11-16T08:32:36.000Z</time>
      </trkpt>
      <trkpt lat="47.30477" lon="-1.32811">
        <ele>69</ele>
        <time>2014-11-16T08:32:38.000Z</time>
      </trkpt>
      <trkpt lat="47.30484" lon="-1.32801">
        <ele>70</ele>
        <time>2014-11-16T08:32:42.000Z</time>
      </trkpt>
      <trkpt lat="47.3049" lon="-1.3279">
        <ele>72</ele>
        <time>2014-11-16T08:32:46.000Z</time>
      </trkpt>
      <trkpt lat="47.3049" lon="-1.3279">
        <ele>72</ele>
        <time>2014-11-16T08:32:48.000Z</time>
      </trkpt>
      <trkpt lat="47.30495" lon="-1.32779">
        <ele>73</ele>
        <time>2014-11-16T08:32:50.000Z</time>
      </trkpt>
      <trkpt lat="47.30495" lon="-1.32779">
        <ele>73</ele>
        <time>2014-11-16T08:32:52.000Z</time>
      </trkpt>
      <trkpt lat="47.30499" lon="-1.32771">
        <ele>74</ele>
        <time>2014-11-16T08:32:54.000Z</time>
      </trkpt>
      <trkpt lat="47.30499" lon="-1.32771">
        <ele>74</ele>
        <time>2014-11-16T08:32:56.000Z</time>
      </trkpt>
      <trkpt lat="47.30499" lon="-1.32771">
        <ele>74</ele>
        <time>2014-11-16T08:32:58.000Z</time>
      </trkpt>
      <trkpt lat="47.30499" lon="-1.32771">
        <ele>74</ele>
        <time>2014-11-16T08:33:00.000Z</time>
      </trkpt>
      <trkpt lat="47.30499" lon="-1.32771">
        <ele>74</ele>
        <time>2014-11-16T08:33:02.000Z</time>
      </trkpt>
      <trkpt lat="47.30499" lon="-1.32771">
        <ele>74</ele>
        <time>2014-11-16T08:33:04.000Z</time>
      </trkpt>
      <trkpt lat="47.30499" lon="-1.32771">
        <ele>74</ele>
        <time>2014-11-16T08:33:06.000Z</time>
      </trkpt>
      <trkpt lat="47.30499" lon="-1.32771">
        <ele>74</ele>
        <time>2014-11-16T08:33:08.000Z</time>
      </trkpt>
      <trkpt lat="47.30499" lon="-1.32771">
        <ele>74</ele>
        <time>2014-11-16T08:33:10.000Z</time>
      </trkpt>
      <trkpt lat="47.30499" lon="-1.32771">
        <ele>74</ele>
        <time>2014-11-16T08:33:12.000Z</time>
      </trkpt>
      <trkpt lat="47.30499" lon="-1.32771">
        <ele>74</ele>
        <time>2014-11-16T08:33:14.000Z</time>
      </trkpt>
      <trkpt lat="47.30513" lon="-1.3278">
        <ele>70</ele>
        <time>2014-11-16T08:33:24.000Z</time>
      </trkpt>
      <trkpt lat="47.30518" lon="-1.32785">
        <ele>70</ele>
        <time>2014-11-16T08:33:26.000Z</time>
      </trkpt>
      <trkpt lat="47.30524" lon="-1.32794">
        <ele>70</ele>
        <time>2014-11-16T08:33:28.000Z</time>
      </trkpt>
      <trkpt lat="47.30532" lon="-1.32804">
        <ele>69</ele>
        <time>2014-11-16T08:33:30.000Z</time>
      </trkpt>
      <trkpt lat="47.30539" lon="-1.32813">
        <ele>69</ele>
        <time>2014-11-16T08:33:32.000Z</time>
      </trkpt>
      <trkpt lat="47.30545" lon="-1.32821">
        <ele>69</ele>
        <time>2014-11-16T08:33:34.000Z</time>
      </trkpt>
      <trkpt lat="47.30552" lon="-1.32829">
        <ele>68</ele>
        <time>2014-11-16T08:33:36.000Z</time>
      </trkpt>
      <trkpt lat="47.30559" lon="-1.32838">
        <ele>67</ele>
        <time>2014-11-16T08:33:38.000Z</time>
      </trkpt>
      <trkpt lat="47.30566" lon="-1.32847">
        <ele>67</ele>
        <time>2014-11-16T08:33:40.000Z</time>
      </trkpt>
      <trkpt lat="47.30574" lon="-1.32857">
        <ele>66</ele>
        <time>2014-11-16T08:33:42.000Z</time>
      </trkpt>
      <trkpt lat="47.30582" lon="-1.32869">
        <ele>66</ele>
        <time>2014-11-16T08:33:44.000Z</time>
      </trkpt>
      <trkpt lat="47.3059" lon="-1.32879">
        <ele>66</ele>
        <time>2014-11-16T08:33:46.000Z</time>
      </trkpt>
      <trkpt lat="47.30598" lon="-1.3289">
        <ele>65</ele>
        <time>2014-11-16T08:33:48.000Z</time>
      </trkpt>
      <trkpt lat="47.30607" lon="-1.32898">
        <ele>65</ele>
        <time>2014-11-16T08:33:50.000Z</time>
      </trkpt>
      <trkpt lat="47.30616" lon="-1.32909">
        <ele>64</ele>
        <time>2014-11-16T08:33:52.000Z</time>
      </trkpt>
      <trkpt lat="47.30623" lon="-1.3292">
        <ele>62</ele>
        <time>2014-11-16T08:33:54.000Z</time>
      </trkpt>
      <trkpt lat="47.30627" lon="-1.32926">
        <ele>61</ele>
        <time>2014-11-16T08:33:56.000Z</time>
      </trkpt>
      <trkpt lat="47.30634" lon="-1.32928">
        <ele>61</ele>
        <time>2014-11-16T08:33:58.000Z</time>
      </trkpt>
      <trkpt lat="47.30641" lon="-1.32929">
        <ele>60</ele>
        <time>2014-11-16T08:34:00.000Z</time>
      </trkpt>
      <trkpt lat="47.30648" lon="-1.32924">
        <ele>61</ele>
        <time>2014-11-16T08:34:02.000Z</time>
      </trkpt>
      <trkpt lat="47.30655" lon="-1.32916">
        <ele>62</ele>
        <time>2014-11-16T08:34:04.000Z</time>
      </trkpt>
      <trkpt lat="47.30663" lon="-1.32904">
        <ele>63</ele>
        <time>2014-11-16T08:34:06.000Z</time>
      </trkpt>
      <trkpt lat="47.30669" lon="-1.32896">
        <ele>63</ele>
        <time>2014-11-16T08:34:08.000Z</time>
      </trkpt>
      <trkpt lat="47.30676" lon="-1.32889">
        <ele>64</ele>
        <time>2014-11-16T08:34:10.000Z</time>
      </trkpt>
      <trkpt lat="47.30682" lon="-1.32881">
        <ele>65</ele>
        <time>2014-11-16T08:34:12.000Z</time>
      </trkpt>
      <trkpt lat="47.30689" lon="-1.32873">
        <ele>65</ele>
        <time>2014-11-16T08:34:14.000Z</time>
      </trkpt>
      <trkpt lat="47.30696" lon="-1.32866">
        <ele>66</ele>
        <time>2014-11-16T08:34:16.000Z</time>
      </trkpt>
      <trkpt lat="47.30703" lon="-1.32858">
        <ele>67</ele>
        <time>2014-11-16T08:34:18.000Z</time>
      </trkpt>
      <trkpt lat="47.30709" lon="-1.32851">
        <ele>67</ele>
        <time>2014-11-16T08:34:20.000Z</time>
      </trkpt>
      <trkpt lat="47.30716" lon="-1.32844">
        <ele>67</ele>
        <time>2014-11-16T08:34:22.000Z</time>
      </trkpt>
      <trkpt lat="47.30722" lon="-1.32838">
        <ele>68</ele>
        <time>2014-11-16T08:34:24.000Z</time>
      </trkpt>
      <trkpt lat="47.30728" lon="-1.32831">
        <ele>69</ele>
        <time>2014-11-16T08:34:26.000Z</time>
      </trkpt>
      <trkpt lat="47.30733" lon="-1.32825">
        <ele>69</ele>
        <time>2014-11-16T08:34:28.000Z</time>
      </trkpt>
      <trkpt lat="47.30738" lon="-1.3282">
        <ele>69</ele>
        <time>2014-11-16T08:34:30.000Z</time>
      </trkpt>
      <trkpt lat="47.30744" lon="-1.32814">
        <ele>70</ele>
        <time>2014-11-16T08:34:32.000Z</time>
      </trkpt>
      <trkpt lat="47.30749" lon="-1.32808">
        <ele>70</ele>
        <time>2014-11-16T08:34:34.000Z</time>
      </trkpt>
      <trkpt lat="47.30753" lon="-1.32802">
        <ele>71</ele>
        <time>2014-11-16T08:34:36.000Z</time>
      </trkpt>
      <trkpt lat="47.30758" lon="-1.32796">
        <ele>71</ele>
        <time>2014-11-16T08:34:38.000Z</time>
      </trkpt>
      <trkpt lat="47.30762" lon="-1.32791">
        <ele>72</ele>
        <time>2014-11-16T08:34:40.000Z</time>
      </trkpt>
      <trkpt lat="47.30768" lon="-1.32786">
        <ele>72</ele>
        <time>2014-11-16T08:34:42.000Z</time>
      </trkpt>
      <trkpt lat="47.30773" lon="-1.32781">
        <ele>72</ele>
        <time>2014-11-16T08:34:44.000Z</time>
      </trkpt>
      <trkpt lat="47.30773" lon="-1.32781">
        <ele>72</ele>
        <time>2014-11-16T08:34:46.000Z</time>
      </trkpt>
      <trkpt lat="47.30781" lon="-1.32773">
        <ele>72</ele>
        <time>2014-11-16T08:34:48.000Z</time>
      </trkpt>
      <trkpt lat="47.30781" lon="-1.32773">
        <ele>72</ele>
        <time>2014-11-16T08:34:50.000Z</time>
      </trkpt>
      <trkpt lat="47.3079" lon="-1.3278">
        <ele>71</ele>
        <time>2014-11-16T08:34:52.000Z</time>
      </trkpt>
      <trkpt lat="47.30794" lon="-1.32787">
        <ele>70</ele>
        <time>2014-11-16T08:34:54.000Z</time>
      </trkpt>
      <trkpt lat="47.30799" lon="-1.32795">
        <ele>69</ele>
        <time>2014-11-16T08:34:56.000Z</time>
      </trkpt>
      <trkpt lat="47.30805" lon="-1.32804">
        <ele>68</ele>
        <time>2014-11-16T08:34:58.000Z</time>
      </trkpt>
      <trkpt lat="47.30811" lon="-1.32813">
        <ele>68</ele>
        <time>2014-11-16T08:35:00.000Z</time>
      </trkpt>
      <trkpt lat="47.30817" lon="-1.32824">
        <ele>65</ele>
        <time>2014-11-16T08:35:02.000Z</time>
      </trkpt>
      <trkpt lat="47.30825" lon="-1.32835">
        <ele>64</ele>
        <time>2014-11-16T08:35:04.000Z</time>
      </trkpt>
      <trkpt lat="47.30831" lon="-1.32845">
        <ele>64</ele>
        <time>2014-11-16T08:35:06.000Z</time>
      </trkpt>
      <trkpt lat="47.30836" lon="-1.32855">
        <ele>64</ele>
        <time>2014-11-16T08:35:08.000Z</time>
      </trkpt>
      <trkpt lat="47.30841" lon="-1.32865">
        <ele>63</ele>
        <time>2014-11-16T08:35:10.000Z</time>
      </trkpt>
      <trkpt lat="47.30847" lon="-1.32874">
        <ele>63</ele>
        <time>2014-11-16T08:35:12.000Z</time>
      </trkpt>
      <trkpt lat="47.30853" lon="-1.32883">
        <ele>62</ele>
        <time>2014-11-16T08:35:14.000Z</time>
      </trkpt>
      <trkpt lat="47.30861" lon="-1.32891">
        <ele>62</ele>
        <time>2014-11-16T08:35:16.000Z</time>
      </trkpt>
      <trkpt lat="47.30867" lon="-1.32898">
        <ele>63</ele>
        <time>2014-11-16T08:35:18.000Z</time>
      </trkpt>
      <trkpt lat="47.30878" lon="-1.32906">
        <ele>62</ele>
        <time>2014-11-16T08:35:20.000Z</time>
      </trkpt>
      <trkpt lat="47.30887" lon="-1.32914">
        <ele>61</ele>
        <time>2014-11-16T08:35:22.000Z</time>
      </trkpt>
      <trkpt lat="47.30897" lon="-1.32922">
        <ele>59</ele>
        <time>2014-11-16T08:35:24.000Z</time>
      </trkpt>
      <trkpt lat="47.30908" lon="-1.32935">
        <ele>59</ele>
        <time>2014-11-16T08:35:26.000Z</time>
      </trkpt>
      <trkpt lat="47.30919" lon="-1.32947">
        <ele>58</ele>
        <time>2014-11-16T08:35:28.000Z</time>
      </trkpt>
      <trkpt lat="47.3093" lon="-1.32961">
        <ele>58</ele>
        <time>2014-11-16T08:35:30.000Z</time>
      </trkpt>
      <trkpt lat="47.3094" lon="-1.32973">
        <ele>55</ele>
        <time>2014-11-16T08:35:32.000Z</time>
      </trkpt>
      <trkpt lat="47.30952" lon="-1.32977">
        <ele>52</ele>
        <time>2014-11-16T08:35:34.000Z</time>
      </trkpt>
      <trkpt lat="47.30962" lon="-1.32978">
        <ele>50</ele>
        <time>2014-11-16T08:35:36.000Z</time>
      </trkpt>
      <trkpt lat="47.30972" lon="-1.32986">
        <ele>48</ele>
        <time>2014-11-16T08:35:38.000Z</time>
      </trkpt>
      <trkpt lat="47.3098" lon="-1.32997">
        <ele>46</ele>
        <time>2014-11-16T08:35:40.000Z</time>
      </trkpt>
      <trkpt lat="47.30987" lon="-1.33006">
        <ele>44</ele>
        <time>2014-11-16T08:35:42.000Z</time>
      </trkpt>
      <trkpt lat="47.30993" lon="-1.33013">
        <ele>44</ele>
        <time>2014-11-16T08:35:44.000Z</time>
      </trkpt>
      <trkpt lat="47.31001" lon="-1.33011">
        <ele>43</ele>
        <time>2014-11-16T08:35:46.000Z</time>
      </trkpt>
      <trkpt lat="47.31007" lon="-1.33006">
        <ele>42</ele>
        <time>2014-11-16T08:35:48.000Z</time>
      </trkpt>
      <trkpt lat="47.31012" lon="-1.32995">
        <ele>43</ele>
        <time>2014-11-16T08:35:50.000Z</time>
      </trkpt>
      <trkpt lat="47.31015" lon="-1.32987">
        <ele>45</ele>
        <time>2014-11-16T08:35:52.000Z</time>
      </trkpt>
      <trkpt lat="47.31015" lon="-1.32987">
        <ele>45</ele>
        <time>2014-11-16T08:35:54.000Z</time>
      </trkpt>
      <trkpt lat="47.31021" lon="-1.32976">
        <ele>48</ele>
        <time>2014-11-16T08:35:56.000Z</time>
      </trkpt>
      <trkpt lat="47.31021" lon="-1.32976">
        <ele>48</ele>
        <time>2014-11-16T08:35:58.000Z</time>
      </trkpt>
      <trkpt lat="47.31031" lon="-1.3297">
        <ele>50</ele>
        <time>2014-11-16T08:36:00.000Z</time>
      </trkpt>
      <trkpt lat="47.31037" lon="-1.32966">
        <ele>50</ele>
        <time>2014-11-16T08:36:02.000Z</time>
      </trkpt>
      <trkpt lat="47.31043" lon="-1.32962">
        <ele>50</ele>
        <time>2014-11-16T08:36:04.000Z</time>
      </trkpt>
      <trkpt lat="47.31048" lon="-1.32955">
        <ele>50</ele>
        <time>2014-11-16T08:36:06.000Z</time>
      </trkpt>
      <trkpt lat="47.31053" lon="-1.32949">
        <ele>49</ele>
        <time>2014-11-16T08:36:08.000Z</time>
      </trkpt>
      <trkpt lat="47.31059" lon="-1.32943">
        <ele>51</ele>
        <time>2014-11-16T08:36:10.000Z</time>
      </trkpt>
      <trkpt lat="47.31065" lon="-1.32939">
        <ele>50</ele>
        <time>2014-11-16T08:36:12.000Z</time>
      </trkpt>
      <trkpt lat="47.31073" lon="-1.32936">
        <ele>50</ele>
        <time>2014-11-16T08:36:14.000Z</time>
      </trkpt>
      <trkpt lat="47.31081" lon="-1.32933">
        <ele>51</ele>
        <time>2014-11-16T08:36:16.000Z</time>
      </trkpt>
      <trkpt lat="47.3109" lon="-1.3293">
        <ele>51</ele>
        <time>2014-11-16T08:36:18.000Z</time>
      </trkpt>
      <trkpt lat="47.31098" lon="-1.32929">
        <ele>51</ele>
        <time>2014-11-16T08:36:20.000Z</time>
      </trkpt>
      <trkpt lat="47.31105" lon="-1.32927">
        <ele>51</ele>
        <time>2014-11-16T08:36:22.000Z</time>
      </trkpt>
      <trkpt lat="47.31112" lon="-1.32925">
        <ele>51</ele>
        <time>2014-11-16T08:36:24.000Z</time>
      </trkpt>
      <trkpt lat="47.31117" lon="-1.32919">
        <ele>52</ele>
        <time>2014-11-16T08:36:26.000Z</time>
      </trkpt>
      <trkpt lat="47.31122" lon="-1.3291">
        <ele>53</ele>
        <time>2014-11-16T08:36:28.000Z</time>
      </trkpt>
      <trkpt lat="47.31125" lon="-1.329">
        <ele>54</ele>
        <time>2014-11-16T08:36:30.000Z</time>
      </trkpt>
      <trkpt lat="47.31129" lon="-1.3289">
        <ele>52</ele>
        <time>2014-11-16T08:36:32.000Z</time>
      </trkpt>
      <trkpt lat="47.31134" lon="-1.32879">
        <ele>53</ele>
        <time>2014-11-16T08:36:34.000Z</time>
      </trkpt>
      <trkpt lat="47.31139" lon="-1.32871">
        <ele>54</ele>
        <time>2014-11-16T08:36:36.000Z</time>
      </trkpt>
      <trkpt lat="47.31147" lon="-1.32862">
        <ele>54</ele>
        <time>2014-11-16T08:36:38.000Z</time>
      </trkpt>
      <trkpt lat="47.31153" lon="-1.32854">
        <ele>55</ele>
        <time>2014-11-16T08:36:40.000Z</time>
      </trkpt>
      <trkpt lat="47.3116" lon="-1.32847">
        <ele>55</ele>
        <time>2014-11-16T08:36:42.000Z</time>
      </trkpt>
      <trkpt lat="47.31165" lon="-1.32839">
        <ele>56</ele>
        <time>2014-11-16T08:36:44.000Z</time>
      </trkpt>
      <trkpt lat="47.3117" lon="-1.32833">
        <ele>57</ele>
        <time>2014-11-16T08:36:46.000Z</time>
      </trkpt>
      <trkpt lat="47.31175" lon="-1.32827">
        <ele>57</ele>
        <time>2014-11-16T08:36:48.000Z</time>
      </trkpt>
      <trkpt lat="47.31181" lon="-1.32821">
        <ele>57</ele>
        <time>2014-11-16T08:36:50.000Z</time>
      </trkpt>
      <trkpt lat="47.31186" lon="-1.32815">
        <ele>58</ele>
        <time>2014-11-16T08:36:52.000Z</time>
      </trkpt>
      <trkpt lat="47.31192" lon="-1.3281">
        <ele>58</ele>
        <time>2014-11-16T08:36:54.000Z</time>
      </trkpt>
      <trkpt lat="47.31197" lon="-1.32807">
        <ele>58</ele>
        <time>2014-11-16T08:36:56.000Z</time>
      </trkpt>
      <trkpt lat="47.31203" lon="-1.32804">
        <ele>58</ele>
        <time>2014-11-16T08:36:58.000Z</time>
      </trkpt>
      <trkpt lat="47.31208" lon="-1.32801">
        <ele>58</ele>
        <time>2014-11-16T08:37:00.000Z</time>
      </trkpt>
      <trkpt lat="47.31208" lon="-1.32801">
        <ele>58</ele>
        <time>2014-11-16T08:37:02.000Z</time>
      </trkpt>
      <trkpt lat="47.31218" lon="-1.328">
        <ele>58</ele>
        <time>2014-11-16T08:37:04.000Z</time>
      </trkpt>
      <trkpt lat="47.31222" lon="-1.32811">
        <ele>57</ele>
        <time>2014-11-16T08:37:06.000Z</time>
      </trkpt>
      <trkpt lat="47.31226" lon="-1.32837">
        <ele>55</ele>
        <time>2014-11-16T08:37:09.000Z</time>
      </trkpt>
      <trkpt lat="47.31229" lon="-1.32852">
        <ele>55</ele>
        <time>2014-11-16T08:37:11.000Z</time>
      </trkpt>
      <trkpt lat="47.31233" lon="-1.32866">
        <ele>54</ele>
        <time>2014-11-16T08:37:13.000Z</time>
      </trkpt>
      <trkpt lat="47.31237" lon="-1.32884">
        <ele>53</ele>
        <time>2014-11-16T08:37:15.000Z</time>
      </trkpt>
      <trkpt lat="47.31241" lon="-1.32899">
        <ele>53</ele>
        <time>2014-11-16T08:37:17.000Z</time>
      </trkpt>
      <trkpt lat="47.31246" lon="-1.32916">
        <ele>52</ele>
        <time>2014-11-16T08:37:19.000Z</time>
      </trkpt>
      <trkpt lat="47.31249" lon="-1.32931">
        <ele>51</ele>
        <time>2014-11-16T08:37:21.000Z</time>
      </trkpt>
      <trkpt lat="47.31252" lon="-1.32948">
        <ele>51</ele>
        <time>2014-11-16T08:37:23.000Z</time>
      </trkpt>
      <trkpt lat="47.3126" lon="-1.3296">
        <ele>50</ele>
        <time>2014-11-16T08:37:25.000Z</time>
      </trkpt>
      <trkpt lat="47.31272" lon="-1.32958">
        <ele>49</ele>
        <time>2014-11-16T08:37:27.000Z</time>
      </trkpt>
      <trkpt lat="47.31282" lon="-1.3295">
        <ele>50</ele>
        <time>2014-11-16T08:37:29.000Z</time>
      </trkpt>
      <trkpt lat="47.31292" lon="-1.32942">
        <ele>49</ele>
        <time>2014-11-16T08:37:31.000Z</time>
      </trkpt>
      <trkpt lat="47.313" lon="-1.32934">
        <ele>48</ele>
        <time>2014-11-16T08:37:33.000Z</time>
      </trkpt>
      <trkpt lat="47.3131" lon="-1.32925">
        <ele>48</ele>
        <time>2014-11-16T08:37:35.000Z</time>
      </trkpt>
      <trkpt lat="47.31319" lon="-1.32917">
        <ele>48</ele>
        <time>2014-11-16T08:37:37.000Z</time>
      </trkpt>
      <trkpt lat="47.31329" lon="-1.32907">
        <ele>48</ele>
        <time>2014-11-16T08:37:39.000Z</time>
      </trkpt>
      <trkpt lat="47.31339" lon="-1.32897">
        <ele>48</ele>
        <time>2014-11-16T08:37:41.000Z</time>
      </trkpt>
      <trkpt lat="47.3135" lon="-1.3289">
        <ele>48</ele>
        <time>2014-11-16T08:37:43.000Z</time>
      </trkpt>
      <trkpt lat="47.3136" lon="-1.3288">
        <ele>50</ele>
        <time>2014-11-16T08:37:45.000Z</time>
      </trkpt>
      <trkpt lat="47.31372" lon="-1.32869">
        <ele>51</ele>
        <time>2014-11-16T08:37:47.000Z</time>
      </trkpt>
      <trkpt lat="47.31383" lon="-1.32861">
        <ele>51</ele>
        <time>2014-11-16T08:37:49.000Z</time>
      </trkpt>
      <trkpt lat="47.31394" lon="-1.32851">
        <ele>50</ele>
        <time>2014-11-16T08:37:51.000Z</time>
      </trkpt>
      <trkpt lat="47.31404" lon="-1.32842">
        <ele>51</ele>
        <time>2014-11-16T08:37:53.000Z</time>
      </trkpt>
      <trkpt lat="47.31413" lon="-1.32833">
        <ele>52</ele>
        <time>2014-11-16T08:37:55.000Z</time>
      </trkpt>
      <trkpt lat="47.31425" lon="-1.32826">
        <ele>50</ele>
        <time>2014-11-16T08:37:57.000Z</time>
      </trkpt>
      <trkpt lat="47.31436" lon="-1.32814">
        <ele>53</ele>
        <time>2014-11-16T08:37:59.000Z</time>
      </trkpt>
      <trkpt lat="47.31448" lon="-1.32808">
        <ele>53</ele>
        <time>2014-11-16T08:38:01.000Z</time>
      </trkpt>
      <trkpt lat="47.31457" lon="-1.3281">
        <ele>52</ele>
        <time>2014-11-16T08:38:03.000Z</time>
      </trkpt>
      <trkpt lat="47.31467" lon="-1.32819">
        <ele>50</ele>
        <time>2014-11-16T08:38:05.000Z</time>
      </trkpt>
      <trkpt lat="47.31478" lon="-1.32828">
        <ele>50</ele>
        <time>2014-11-16T08:38:07.000Z</time>
      </trkpt>
      <trkpt lat="47.3149" lon="-1.32838">
        <ele>48</ele>
        <time>2014-11-16T08:38:09.000Z</time>
      </trkpt>
      <trkpt lat="47.31499" lon="-1.32848">
        <ele>48</ele>
        <time>2014-11-16T08:38:11.000Z</time>
      </trkpt>
      <trkpt lat="47.31506" lon="-1.32856">
        <ele>48</ele>
        <time>2014-11-16T08:38:13.000Z</time>
      </trkpt>
      <trkpt lat="47.31514" lon="-1.32864">
        <ele>49</ele>
        <time>2014-11-16T08:38:15.000Z</time>
      </trkpt>
      <trkpt lat="47.31522" lon="-1.32869">
        <ele>48</ele>
        <time>2014-11-16T08:38:17.000Z</time>
      </trkpt>
      <trkpt lat="47.31529" lon="-1.32875">
        <ele>49</ele>
        <time>2014-11-16T08:38:19.000Z</time>
      </trkpt>
      <trkpt lat="47.31537" lon="-1.32878">
        <ele>53</ele>
        <time>2014-11-16T08:38:21.000Z</time>
      </trkpt>
      <trkpt lat="47.31545" lon="-1.32883">
        <ele>53</ele>
        <time>2014-11-16T08:38:23.000Z</time>
      </trkpt>
      <trkpt lat="47.31545" lon="-1.32883">
        <ele>53</ele>
        <time>2014-11-16T08:38:26.000Z</time>
      </trkpt>
      <trkpt lat="47.31545" lon="-1.32883">
        <ele>53</ele>
        <time>2014-11-16T08:38:28.000Z</time>
      </trkpt>
      <trkpt lat="47.31545" lon="-1.32894">
        <ele>50</ele>
        <time>2014-11-16T08:38:30.000Z</time>
      </trkpt>
      <trkpt lat="47.31544" lon="-1.329">
        <ele>50</ele>
        <time>2014-11-16T08:38:34.000Z</time>
      </trkpt>
      <trkpt lat="47.31543" lon="-1.32905">
        <ele>44</ele>
        <time>2014-11-16T08:38:36.000Z</time>
      </trkpt>
      <trkpt lat="47.31542" lon="-1.32909">
        <ele>45</ele>
        <time>2014-11-16T08:38:38.000Z</time>
      </trkpt>
      <trkpt lat="47.3154" lon="-1.32913">
        <ele>46</ele>
        <time>2014-11-16T08:38:40.000Z</time>
      </trkpt>
      <trkpt lat="47.31536" lon="-1.32918">
        <ele>47</ele>
        <time>2014-11-16T08:38:42.000Z</time>
      </trkpt>
      <trkpt lat="47.3153" lon="-1.32927">
        <ele>47</ele>
        <time>2014-11-16T08:38:44.000Z</time>
      </trkpt>
      <trkpt lat="47.31521" lon="-1.32936">
        <ele>48</ele>
        <time>2014-11-16T08:38:48.000Z</time>
      </trkpt>
      <trkpt lat="47.31515" lon="-1.32946">
        <ele>48</ele>
        <time>2014-11-16T08:38:52.000Z</time>
      </trkpt>
      <trkpt lat="47.31515" lon="-1.32946">
        <ele>48</ele>
        <time>2014-11-16T08:38:54.000Z</time>
      </trkpt>
      <trkpt lat="47.31514" lon="-1.32959">
        <ele>47</ele>
        <time>2014-11-16T08:38:56.000Z</time>
      </trkpt>
      <trkpt lat="47.31514" lon="-1.32959">
        <ele>47</ele>
        <time>2014-11-16T08:38:58.000Z</time>
      </trkpt>
      <trkpt lat="47.31508" lon="-1.32969">
        <ele>46</ele>
        <time>2014-11-16T08:39:00.000Z</time>
      </trkpt>
      <trkpt lat="47.31508" lon="-1.32969">
        <ele>46</ele>
        <time>2014-11-16T08:39:02.000Z</time>
      </trkpt>
      <trkpt lat="47.31498" lon="-1.32975">
        <ele>45</ele>
        <time>2014-11-16T08:39:04.000Z</time>
      </trkpt>
      <trkpt lat="47.31491" lon="-1.32985">
        <ele>45</ele>
        <time>2014-11-16T08:39:08.000Z</time>
      </trkpt>
      <trkpt lat="47.31484" lon="-1.32997">
        <ele>46</ele>
        <time>2014-11-16T08:39:12.000Z</time>
      </trkpt>
      <trkpt lat="47.31484" lon="-1.32997">
        <ele>46</ele>
        <time>2014-11-16T08:39:14.000Z</time>
      </trkpt>
      <trkpt lat="47.31475" lon="-1.33005">
        <ele>44</ele>
        <time>2014-11-16T08:39:16.000Z</time>
      </trkpt>
      <trkpt lat="47.31475" lon="-1.33005">
        <ele>44</ele>
        <time>2014-11-16T08:39:18.000Z</time>
      </trkpt>
      <trkpt lat="47.31465" lon="-1.33012">
        <ele>44</ele>
        <time>2014-11-16T08:39:20.000Z</time>
      </trkpt>
      <trkpt lat="47.31461" lon="-1.33017">
        <ele>44</ele>
        <time>2014-11-16T08:39:22.000Z</time>
      </trkpt>
      <trkpt lat="47.31456" lon="-1.33023">
        <ele>45</ele>
        <time>2014-11-16T08:39:24.000Z</time>
      </trkpt>
      <trkpt lat="47.31451" lon="-1.33028">
        <ele>45</ele>
        <time>2014-11-16T08:39:26.000Z</time>
      </trkpt>
      <trkpt lat="47.31446" lon="-1.33034">
        <ele>46</ele>
        <time>2014-11-16T08:39:28.000Z</time>
      </trkpt>
      <trkpt lat="47.31441" lon="-1.3304">
        <ele>46</ele>
        <time>2014-11-16T08:39:30.000Z</time>
      </trkpt>
      <trkpt lat="47.31441" lon="-1.3304">
        <ele>46</ele>
        <time>2014-11-16T08:39:32.000Z</time>
      </trkpt>
      <trkpt lat="47.31433" lon="-1.33051">
        <ele>46</ele>
        <time>2014-11-16T08:39:34.000Z</time>
      </trkpt>
      <trkpt lat="47.31429" lon="-1.33057">
        <ele>47</ele>
        <time>2014-11-16T08:39:36.000Z</time>
      </trkpt>
      <trkpt lat="47.31424" lon="-1.33063">
        <ele>47</ele>
        <time>2014-11-16T08:39:38.000Z</time>
      </trkpt>
      <trkpt lat="47.31418" lon="-1.33069">
        <ele>47</ele>
        <time>2014-11-16T08:39:40.000Z</time>
      </trkpt>
      <trkpt lat="47.31413" lon="-1.33075">
        <ele>47</ele>
        <time>2014-11-16T08:39:42.000Z</time>
      </trkpt>
      <trkpt lat="47.31408" lon="-1.33081">
        <ele>47</ele>
        <time>2014-11-16T08:39:44.000Z</time>
      </trkpt>
      <trkpt lat="47.31403" lon="-1.33086">
        <ele>48</ele>
        <time>2014-11-16T08:39:46.000Z</time>
      </trkpt>
      <trkpt lat="47.31398" lon="-1.33092">
        <ele>48</ele>
        <time>2014-11-16T08:39:48.000Z</time>
      </trkpt>
      <trkpt lat="47.31392" lon="-1.33097">
        <ele>48</ele>
        <time>2014-11-16T08:39:50.000Z</time>
      </trkpt>
      <trkpt lat="47.31386" lon="-1.33101">
        <ele>49</ele>
        <time>2014-11-16T08:39:52.000Z</time>
      </trkpt>
      <trkpt lat="47.31379" lon="-1.33107">
        <ele>49</ele>
        <time>2014-11-16T08:39:54.000Z</time>
      </trkpt>
      <trkpt lat="47.31373" lon="-1.33113">
        <ele>48</ele>
        <time>2014-11-16T08:39:56.000Z</time>
      </trkpt>
      <trkpt lat="47.31367" lon="-1.33118">
        <ele>48</ele>
        <time>2014-11-16T08:39:58.000Z</time>
      </trkpt>
      <trkpt lat="47.31361" lon="-1.33123">
        <ele>48</ele>
        <time>2014-11-16T08:40:00.000Z</time>
      </trkpt>
      <trkpt lat="47.31355" lon="-1.3313">
        <ele>47</ele>
        <time>2014-11-16T08:40:02.000Z</time>
      </trkpt>
      <trkpt lat="47.3135" lon="-1.33136">
        <ele>47</ele>
        <time>2014-11-16T08:40:04.000Z</time>
      </trkpt>
      <trkpt lat="47.31344" lon="-1.33142">
        <ele>47</ele>
        <time>2014-11-16T08:40:06.000Z</time>
      </trkpt>
      <trkpt lat="47.31339" lon="-1.33148">
        <ele>47</ele>
        <time>2014-11-16T08:40:08.000Z</time>
      </trkpt>
      <trkpt lat="47.31335" lon="-1.33155">
        <ele>47</ele>
        <time>2014-11-16T08:40:10.000Z</time>
      </trkpt>
      <trkpt lat="47.3133" lon="-1.33161">
        <ele>46</ele>
        <time>2014-11-16T08:40:12.000Z</time>
      </trkpt>
      <trkpt lat="47.31325" lon="-1.33165">
        <ele>45</ele>
        <time>2014-11-16T08:40:14.000Z</time>
      </trkpt>
      <trkpt lat="47.31319" lon="-1.33169">
        <ele>45</ele>
        <time>2014-11-16T08:40:16.000Z</time>
      </trkpt>
      <trkpt lat="47.31314" lon="-1.33173">
        <ele>45</ele>
        <time>2014-11-16T08:40:18.000Z</time>
      </trkpt>
      <trkpt lat="47.31309" lon="-1.33176">
        <ele>46</ele>
        <time>2014-11-16T08:40:20.000Z</time>
      </trkpt>
      <trkpt lat="47.31304" lon="-1.33181">
        <ele>45</ele>
        <time>2014-11-16T08:40:22.000Z</time>
      </trkpt>
      <trkpt lat="47.31298" lon="-1.33185">
        <ele>45</ele>
        <time>2014-11-16T08:40:24.000Z</time>
      </trkpt>
      <trkpt lat="47.31291" lon="-1.33187">
        <ele>45</ele>
        <time>2014-11-16T08:40:26.000Z</time>
      </trkpt>
      <trkpt lat="47.31284" lon="-1.33187">
        <ele>45</ele>
        <time>2014-11-16T08:40:28.000Z</time>
      </trkpt>
      <trkpt lat="47.31278" lon="-1.33187">
        <ele>45</ele>
        <time>2014-11-16T08:40:30.000Z</time>
      </trkpt>
      <trkpt lat="47.31271" lon="-1.33189">
        <ele>45</ele>
        <time>2014-11-16T08:40:32.000Z</time>
      </trkpt>
      <trkpt lat="47.31265" lon="-1.33192">
        <ele>45</ele>
        <time>2014-11-16T08:40:34.000Z</time>
      </trkpt>
      <trkpt lat="47.31259" lon="-1.33195">
        <ele>45</ele>
        <time>2014-11-16T08:40:36.000Z</time>
      </trkpt>
      <trkpt lat="47.31252" lon="-1.33199">
        <ele>45</ele>
        <time>2014-11-16T08:40:38.000Z</time>
      </trkpt>
      <trkpt lat="47.31246" lon="-1.33205">
        <ele>46</ele>
        <time>2014-11-16T08:40:40.000Z</time>
      </trkpt>
      <trkpt lat="47.3124" lon="-1.33212">
        <ele>47</ele>
        <time>2014-11-16T08:40:42.000Z</time>
      </trkpt>
      <trkpt lat="47.31236" lon="-1.3322">
        <ele>47</ele>
        <time>2014-11-16T08:40:44.000Z</time>
      </trkpt>
      <trkpt lat="47.31231" lon="-1.33227">
        <ele>47</ele>
        <time>2014-11-16T08:40:46.000Z</time>
      </trkpt>
      <trkpt lat="47.31226" lon="-1.33235">
        <ele>47</ele>
        <time>2014-11-16T08:40:48.000Z</time>
      </trkpt>
      <trkpt lat="47.31221" lon="-1.33243">
        <ele>46</ele>
        <time>2014-11-16T08:40:50.000Z</time>
      </trkpt>
      <trkpt lat="47.31214" lon="-1.33249">
        <ele>47</ele>
        <time>2014-11-16T08:40:52.000Z</time>
      </trkpt>
      <trkpt lat="47.31208" lon="-1.33254">
        <ele>47</ele>
        <time>2014-11-16T08:40:54.000Z</time>
      </trkpt>
      <trkpt lat="47.31201" lon="-1.33257">
        <ele>47</ele>
        <time>2014-11-16T08:40:56.000Z</time>
      </trkpt>
      <trkpt lat="47.31194" lon="-1.33261">
        <ele>47</ele>
        <time>2014-11-16T08:40:58.000Z</time>
      </trkpt>
      <trkpt lat="47.31189" lon="-1.33266">
        <ele>48</ele>
        <time>2014-11-16T08:41:00.000Z</time>
      </trkpt>
      <trkpt lat="47.31183" lon="-1.33274">
        <ele>48</ele>
        <time>2014-11-16T08:41:02.000Z</time>
      </trkpt>
      <trkpt lat="47.31177" lon="-1.33282">
        <ele>48</ele>
        <time>2014-11-16T08:41:04.000Z</time>
      </trkpt>
      <trkpt lat="47.31171" lon="-1.33289">
        <ele>48</ele>
        <time>2014-11-16T08:41:06.000Z</time>
      </trkpt>
      <trkpt lat="47.31166" lon="-1.33296">
        <ele>49</ele>
        <time>2014-11-16T08:41:08.000Z</time>
      </trkpt>
      <trkpt lat="47.3116" lon="-1.33303">
        <ele>49</ele>
        <time>2014-11-16T08:41:10.000Z</time>
      </trkpt>
      <trkpt lat="47.31153" lon="-1.33311">
        <ele>49</ele>
        <time>2014-11-16T08:41:12.000Z</time>
      </trkpt>
      <trkpt lat="47.31148" lon="-1.33318">
        <ele>48</ele>
        <time>2014-11-16T08:41:14.000Z</time>
      </trkpt>
      <trkpt lat="47.31142" lon="-1.33325">
        <ele>48</ele>
        <time>2014-11-16T08:41:16.000Z</time>
      </trkpt>
      <trkpt lat="47.31136" lon="-1.33331">
        <ele>47</ele>
        <time>2014-11-16T08:41:18.000Z</time>
      </trkpt>
      <trkpt lat="47.31129" lon="-1.33337">
        <ele>48</ele>
        <time>2014-11-16T08:41:20.000Z</time>
      </trkpt>
      <trkpt lat="47.31124" lon="-1.33343">
        <ele>48</ele>
        <time>2014-11-16T08:41:22.000Z</time>
      </trkpt>
      <trkpt lat="47.31118" lon="-1.3335">
        <ele>48</ele>
        <time>2014-11-16T08:41:24.000Z</time>
      </trkpt>
      <trkpt lat="47.31111" lon="-1.33357">
        <ele>47</ele>
        <time>2014-11-16T08:41:26.000Z</time>
      </trkpt>
      <trkpt lat="47.31105" lon="-1.33363">
        <ele>47</ele>
        <time>2014-11-16T08:41:28.000Z</time>
      </trkpt>
      <trkpt lat="47.311" lon="-1.3337">
        <ele>47</ele>
        <time>2014-11-16T08:41:30.000Z</time>
      </trkpt>
      <trkpt lat="47.31094" lon="-1.33378">
        <ele>47</ele>
        <time>2014-11-16T08:41:32.000Z</time>
      </trkpt>
      <trkpt lat="47.31088" lon="-1.33386">
        <ele>46</ele>
        <time>2014-11-16T08:41:34.000Z</time>
      </trkpt>
      <trkpt lat="47.31083" lon="-1.33394">
        <ele>47</ele>
        <time>2014-11-16T08:41:36.000Z</time>
      </trkpt>
      <trkpt lat="47.31078" lon="-1.33402">
        <ele>47</ele>
        <time>2014-11-16T08:41:38.000Z</time>
      </trkpt>
      <trkpt lat="47.31071" lon="-1.33408">
        <ele>46</ele>
        <time>2014-11-16T08:41:40.000Z</time>
      </trkpt>
      <trkpt lat="47.31065" lon="-1.33415">
        <ele>46</ele>
        <time>2014-11-16T08:41:42.000Z</time>
      </trkpt>
      <trkpt lat="47.31058" lon="-1.33421">
        <ele>45</ele>
        <time>2014-11-16T08:41:44.000Z</time>
      </trkpt>
      <trkpt lat="47.3105" lon="-1.33428">
        <ele>47</ele>
        <time>2014-11-16T08:41:46.000Z</time>
      </trkpt>
      <trkpt lat="47.31043" lon="-1.33432">
        <ele>46</ele>
        <time>2014-11-16T08:41:48.000Z</time>
      </trkpt>
      <trkpt lat="47.31038" lon="-1.33435">
        <ele>47</ele>
        <time>2014-11-16T08:41:50.000Z</time>
      </trkpt>
      <trkpt lat="47.31032" lon="-1.3344">
        <ele>47</ele>
        <time>2014-11-16T08:41:52.000Z</time>
      </trkpt>
      <trkpt lat="47.31026" lon="-1.33445">
        <ele>47</ele>
        <time>2014-11-16T08:41:54.000Z</time>
      </trkpt>
      <trkpt lat="47.3102" lon="-1.3345">
        <ele>47</ele>
        <time>2014-11-16T08:41:56.000Z</time>
      </trkpt>
      <trkpt lat="47.31014" lon="-1.33456">
        <ele>47</ele>
        <time>2014-11-16T08:41:58.000Z</time>
      </trkpt>
      <trkpt lat="47.31008" lon="-1.33462">
        <ele>47</ele>
        <time>2014-11-16T08:42:00.000Z</time>
      </trkpt>
      <trkpt lat="47.31002" lon="-1.33468">
        <ele>48</ele>
        <time>2014-11-16T08:42:02.000Z</time>
      </trkpt>
      <trkpt lat="47.30998" lon="-1.33475">
        <ele>48</ele>
        <time>2014-11-16T08:42:04.000Z</time>
      </trkpt>
      <trkpt lat="47.30993" lon="-1.33481">
        <ele>49</ele>
        <time>2014-11-16T08:42:06.000Z</time>
      </trkpt>
      <trkpt lat="47.30988" lon="-1.33487">
        <ele>49</ele>
        <time>2014-11-16T08:42:08.000Z</time>
      </trkpt>
      <trkpt lat="47.30981" lon="-1.33492">
        <ele>49</ele>
        <time>2014-11-16T08:42:10.000Z</time>
      </trkpt>
      <trkpt lat="47.30975" lon="-1.33498">
        <ele>49</ele>
        <time>2014-11-16T08:42:12.000Z</time>
      </trkpt>
      <trkpt lat="47.30968" lon="-1.33504">
        <ele>48</ele>
        <time>2014-11-16T08:42:14.000Z</time>
      </trkpt>
      <trkpt lat="47.30961" lon="-1.3351">
        <ele>47</ele>
        <time>2014-11-16T08:42:16.000Z</time>
      </trkpt>
      <trkpt lat="47.30954" lon="-1.33517">
        <ele>46</ele>
        <time>2014-11-16T08:42:18.000Z</time>
      </trkpt>
      <trkpt lat="47.30947" lon="-1.33524">
        <ele>46</ele>
        <time>2014-11-16T08:42:20.000Z</time>
      </trkpt>
      <trkpt lat="47.3094" lon="-1.33531">
        <ele>46</ele>
        <time>2014-11-16T08:42:22.000Z</time>
      </trkpt>
      <trkpt lat="47.30934" lon="-1.33538">
        <ele>46</ele>
        <time>2014-11-16T08:42:24.000Z</time>
      </trkpt>
      <trkpt lat="47.30924" lon="-1.33544">
        <ele>45</ele>
        <time>2014-11-16T08:42:26.000Z</time>
      </trkpt>
      <trkpt lat="47.30916" lon="-1.33551">
        <ele>44</ele>
        <time>2014-11-16T08:42:28.000Z</time>
      </trkpt>
      <trkpt lat="47.3091" lon="-1.3356">
        <ele>44</ele>
        <time>2014-11-16T08:42:30.000Z</time>
      </trkpt>
      <trkpt lat="47.30906" lon="-1.33573">
        <ele>45</ele>
        <time>2014-11-16T08:42:32.000Z</time>
      </trkpt>
      <trkpt lat="47.30902" lon="-1.33585">
        <ele>45</ele>
        <time>2014-11-16T08:42:34.000Z</time>
      </trkpt>
      <trkpt lat="47.30898" lon="-1.33598">
        <ele>45</ele>
        <time>2014-11-16T08:42:36.000Z</time>
      </trkpt>
      <trkpt lat="47.30893" lon="-1.3361">
        <ele>45</ele>
        <time>2014-11-16T08:42:38.000Z</time>
      </trkpt>
      <trkpt lat="47.30889" lon="-1.3362">
        <ele>46</ele>
        <time>2014-11-16T08:42:40.000Z</time>
      </trkpt>
      <trkpt lat="47.30884" lon="-1.3363">
        <ele>47</ele>
        <time>2014-11-16T08:42:42.000Z</time>
      </trkpt>
      <trkpt lat="47.30879" lon="-1.33641">
        <ele>48</ele>
        <time>2014-11-16T08:42:44.000Z</time>
      </trkpt>
      <trkpt lat="47.30874" lon="-1.33652">
        <ele>47</ele>
        <time>2014-11-16T08:42:46.000Z</time>
      </trkpt>
      <trkpt lat="47.30868" lon="-1.33664">
        <ele>46</ele>
        <time>2014-11-16T08:42:48.000Z</time>
      </trkpt>
      <trkpt lat="47.30861" lon="-1.33676">
        <ele>46</ele>
        <time>2014-11-16T08:42:50.000Z</time>
      </trkpt>
      <trkpt lat="47.30856" lon="-1.33685">
        <ele>46</ele>
        <time>2014-11-16T08:42:52.000Z</time>
      </trkpt>
      <trkpt lat="47.30851" lon="-1.33695">
        <ele>47</ele>
        <time>2014-11-16T08:42:54.000Z</time>
      </trkpt>
      <trkpt lat="47.30847" lon="-1.33704">
        <ele>47</ele>
        <time>2014-11-16T08:42:56.000Z</time>
      </trkpt>
      <trkpt lat="47.30842" lon="-1.33714">
        <ele>47</ele>
        <time>2014-11-16T08:42:58.000Z</time>
      </trkpt>
      <trkpt lat="47.30838" lon="-1.33724">
        <ele>48</ele>
        <time>2014-11-16T08:43:00.000Z</time>
      </trkpt>
      <trkpt lat="47.30833" lon="-1.33735">
        <ele>48</ele>
        <time>2014-11-16T08:43:02.000Z</time>
      </trkpt>
      <trkpt lat="47.30828" lon="-1.33744">
        <ele>49</ele>
        <time>2014-11-16T08:43:04.000Z</time>
      </trkpt>
      <trkpt lat="47.30823" lon="-1.33754">
        <ele>49</ele>
        <time>2014-11-16T08:43:06.000Z</time>
      </trkpt>
      <trkpt lat="47.30818" lon="-1.33762">
        <ele>50</ele>
        <time>2014-11-16T08:43:08.000Z</time>
      </trkpt>
      <trkpt lat="47.30812" lon="-1.3377">
        <ele>49</ele>
        <time>2014-11-16T08:43:10.000Z</time>
      </trkpt>
      <trkpt lat="47.30808" lon="-1.33779">
        <ele>46</ele>
        <time>2014-11-16T08:43:12.000Z</time>
      </trkpt>
      <trkpt lat="47.30804" lon="-1.33787">
        <ele>47</ele>
        <time>2014-11-16T08:43:14.000Z</time>
      </trkpt>
      <trkpt lat="47.30799" lon="-1.33796">
        <ele>46</ele>
        <time>2014-11-16T08:43:16.000Z</time>
      </trkpt>
      <trkpt lat="47.30794" lon="-1.33805">
        <ele>43</ele>
        <time>2014-11-16T08:43:18.000Z</time>
      </trkpt>
      <trkpt lat="47.30788" lon="-1.33815">
        <ele>44</ele>
        <time>2014-11-16T08:43:20.000Z</time>
      </trkpt>
      <trkpt lat="47.30782" lon="-1.33824">
        <ele>44</ele>
        <time>2014-11-16T08:43:22.000Z</time>
      </trkpt>
      <trkpt lat="47.30777" lon="-1.33833">
        <ele>44</ele>
        <time>2014-11-16T08:43:24.000Z</time>
      </trkpt>
      <trkpt lat="47.30771" lon="-1.33843">
        <ele>44</ele>
        <time>2014-11-16T08:43:26.000Z</time>
      </trkpt>
      <trkpt lat="47.30766" lon="-1.33853">
        <ele>44</ele>
        <time>2014-11-16T08:43:28.000Z</time>
      </trkpt>
      <trkpt lat="47.30761" lon="-1.33862">
        <ele>44</ele>
        <time>2014-11-16T08:43:30.000Z</time>
      </trkpt>
      <trkpt lat="47.30756" lon="-1.33872">
        <ele>45</ele>
        <time>2014-11-16T08:43:32.000Z</time>
      </trkpt>
      <trkpt lat="47.30751" lon="-1.33882">
        <ele>44</ele>
        <time>2014-11-16T08:43:34.000Z</time>
      </trkpt>
      <trkpt lat="47.30746" lon="-1.33891">
        <ele>45</ele>
        <time>2014-11-16T08:43:36.000Z</time>
      </trkpt>
      <trkpt lat="47.3074" lon="-1.339">
        <ele>45</ele>
        <time>2014-11-16T08:43:38.000Z</time>
      </trkpt>
      <trkpt lat="47.30735" lon="-1.33908">
        <ele>45</ele>
        <time>2014-11-16T08:43:40.000Z</time>
      </trkpt>
      <trkpt lat="47.30728" lon="-1.33916">
        <ele>45</ele>
        <time>2014-11-16T08:43:42.000Z</time>
      </trkpt>
      <trkpt lat="47.30722" lon="-1.33924">
        <ele>44</ele>
        <time>2014-11-16T08:43:44.000Z</time>
      </trkpt>
      <trkpt lat="47.30716" lon="-1.33931">
        <ele>44</ele>
        <time>2014-11-16T08:43:46.000Z</time>
      </trkpt>
      <trkpt lat="47.30709" lon="-1.3394">
        <ele>45</ele>
        <time>2014-11-16T08:43:48.000Z</time>
      </trkpt>
      <trkpt lat="47.30704" lon="-1.33949">
        <ele>44</ele>
        <time>2014-11-16T08:43:50.000Z</time>
      </trkpt>
      <trkpt lat="47.30698" lon="-1.33956">
        <ele>43</ele>
        <time>2014-11-16T08:43:52.000Z</time>
      </trkpt>
      <trkpt lat="47.30692" lon="-1.33959">
        <ele>44</ele>
        <time>2014-11-16T08:43:54.000Z</time>
      </trkpt>
      <trkpt lat="47.30683" lon="-1.33958">
        <ele>45</ele>
        <time>2014-11-16T08:43:56.000Z</time>
      </trkpt>
      <trkpt lat="47.30673" lon="-1.3395">
        <ele>44</ele>
        <time>2014-11-16T08:43:58.000Z</time>
      </trkpt>
      <trkpt lat="47.30663" lon="-1.33946">
        <ele>43</ele>
        <time>2014-11-16T08:44:00.000Z</time>
      </trkpt>
      <trkpt lat="47.30657" lon="-1.33942">
        <ele>42</ele>
        <time>2014-11-16T08:44:02.000Z</time>
      </trkpt>
      <trkpt lat="47.30652" lon="-1.33936">
        <ele>43</ele>
        <time>2014-11-16T08:44:04.000Z</time>
      </trkpt>
      <trkpt lat="47.30647" lon="-1.33929">
        <ele>43</ele>
        <time>2014-11-16T08:44:06.000Z</time>
      </trkpt>
      <trkpt lat="47.30641" lon="-1.33921">
        <ele>44</ele>
        <time>2014-11-16T08:44:08.000Z</time>
      </trkpt>
      <trkpt lat="47.30635" lon="-1.33913">
        <ele>46</ele>
        <time>2014-11-16T08:44:10.000Z</time>
      </trkpt>
      <trkpt lat="47.30628" lon="-1.33905">
        <ele>47</ele>
        <time>2014-11-16T08:44:12.000Z</time>
      </trkpt>
      <trkpt lat="47.30622" lon="-1.33899">
        <ele>47</ele>
        <time>2014-11-16T08:44:14.000Z</time>
      </trkpt>
      <trkpt lat="47.30616" lon="-1.33892">
        <ele>47</ele>
        <time>2014-11-16T08:44:16.000Z</time>
      </trkpt>
      <trkpt lat="47.3061" lon="-1.33883">
        <ele>48</ele>
        <time>2014-11-16T08:44:18.000Z</time>
      </trkpt>
      <trkpt lat="47.30605" lon="-1.33874">
        <ele>48</ele>
        <time>2014-11-16T08:44:20.000Z</time>
      </trkpt>
      <trkpt lat="47.306" lon="-1.33865">
        <ele>49</ele>
        <time>2014-11-16T08:44:22.000Z</time>
      </trkpt>
      <trkpt lat="47.30595" lon="-1.33858">
        <ele>49</ele>
        <time>2014-11-16T08:44:24.000Z</time>
      </trkpt>
      <trkpt lat="47.30591" lon="-1.33851">
        <ele>49</ele>
        <time>2014-11-16T08:44:26.000Z</time>
      </trkpt>
      <trkpt lat="47.30586" lon="-1.33843">
        <ele>50</ele>
        <time>2014-11-16T08:44:28.000Z</time>
      </trkpt>
      <trkpt lat="47.3058" lon="-1.33832">
        <ele>50</ele>
        <time>2014-11-16T08:44:30.000Z</time>
      </trkpt>
      <trkpt lat="47.30574" lon="-1.33823">
        <ele>50</ele>
        <time>2014-11-16T08:44:32.000Z</time>
      </trkpt>
      <trkpt lat="47.30569" lon="-1.33812">
        <ele>49</ele>
        <time>2014-11-16T08:44:34.000Z</time>
      </trkpt>
      <trkpt lat="47.30566" lon="-1.33802">
        <ele>49</ele>
        <time>2014-11-16T08:44:36.000Z</time>
      </trkpt>
      <trkpt lat="47.30565" lon="-1.3379">
        <ele>49</ele>
        <time>2014-11-16T08:44:38.000Z</time>
      </trkpt>
      <trkpt lat="47.30568" lon="-1.33779">
        <ele>49</ele>
        <time>2014-11-16T08:44:40.000Z</time>
      </trkpt>
      <trkpt lat="47.30573" lon="-1.3377">
        <ele>49</ele>
        <time>2014-11-16T08:44:42.000Z</time>
      </trkpt>
      <trkpt lat="47.30576" lon="-1.33761">
        <ele>49</ele>
        <time>2014-11-16T08:44:44.000Z</time>
      </trkpt>
      <trkpt lat="47.30574" lon="-1.33753">
        <ele>50</ele>
        <time>2014-11-16T08:44:46.000Z</time>
      </trkpt>
      <trkpt lat="47.30568" lon="-1.33747">
        <ele>51</ele>
        <time>2014-11-16T08:44:48.000Z</time>
      </trkpt>
      <trkpt lat="47.30561" lon="-1.33741">
        <ele>51</ele>
        <time>2014-11-16T08:44:50.000Z</time>
      </trkpt>
      <trkpt lat="47.30556" lon="-1.33733">
        <ele>51</ele>
        <time>2014-11-16T08:44:52.000Z</time>
      </trkpt>
      <trkpt lat="47.30552" lon="-1.33724">
        <ele>51</ele>
        <time>2014-11-16T08:44:54.000Z</time>
      </trkpt>
      <trkpt lat="47.30549" lon="-1.33714">
        <ele>52</ele>
        <time>2014-11-16T08:44:56.000Z</time>
      </trkpt>
      <trkpt lat="47.30547" lon="-1.33703">
        <ele>52</ele>
        <time>2014-11-16T08:44:58.000Z</time>
      </trkpt>
      <trkpt lat="47.30545" lon="-1.33693">
        <ele>51</ele>
        <time>2014-11-16T08:45:00.000Z</time>
      </trkpt>
      <trkpt lat="47.30543" lon="-1.33684">
        <ele>51</ele>
        <time>2014-11-16T08:45:02.000Z</time>
      </trkpt>
      <trkpt lat="47.3054" lon="-1.33674">
        <ele>51</ele>
        <time>2014-11-16T08:45:04.000Z</time>
      </trkpt>
      <trkpt lat="47.30537" lon="-1.33665">
        <ele>51</ele>
        <time>2014-11-16T08:45:06.000Z</time>
      </trkpt>
      <trkpt lat="47.30535" lon="-1.33654">
        <ele>51</ele>
        <time>2014-11-16T08:45:08.000Z</time>
      </trkpt>
      <trkpt lat="47.30534" lon="-1.33644">
        <ele>51</ele>
        <time>2014-11-16T08:45:10.000Z</time>
      </trkpt>
      <trkpt lat="47.30532" lon="-1.33633">
        <ele>52</ele>
        <time>2014-11-16T08:45:12.000Z</time>
      </trkpt>
      <trkpt lat="47.30532" lon="-1.33621">
        <ele>52</ele>
        <time>2014-11-16T08:45:14.000Z</time>
      </trkpt>
      <trkpt lat="47.30532" lon="-1.3361">
        <ele>51</ele>
        <time>2014-11-16T08:45:16.000Z</time>
      </trkpt>
      <trkpt lat="47.30534" lon="-1.33598">
        <ele>50</ele>
        <time>2014-11-16T08:45:18.000Z</time>
      </trkpt>
      <trkpt lat="47.30536" lon="-1.33587">
        <ele>49</ele>
        <time>2014-11-16T08:45:20.000Z</time>
      </trkpt>
      <trkpt lat="47.30538" lon="-1.33575">
        <ele>49</ele>
        <time>2014-11-16T08:45:22.000Z</time>
      </trkpt>
      <trkpt lat="47.30538" lon="-1.33561">
        <ele>49</ele>
        <time>2014-11-16T08:45:24.000Z</time>
      </trkpt>
      <trkpt lat="47.30535" lon="-1.3355">
        <ele>49</ele>
        <time>2014-11-16T08:45:26.000Z</time>
      </trkpt>
      <trkpt lat="47.30531" lon="-1.33538">
        <ele>47</ele>
        <time>2014-11-16T08:45:28.000Z</time>
      </trkpt>
      <trkpt lat="47.30528" lon="-1.33527">
        <ele>49</ele>
        <time>2014-11-16T08:45:30.000Z</time>
      </trkpt>
      <trkpt lat="47.30525" lon="-1.33517">
        <ele>52</ele>
        <time>2014-11-16T08:45:32.000Z</time>
      </trkpt>
      <trkpt lat="47.30521" lon="-1.33507">
        <ele>53</ele>
        <time>2014-11-16T08:45:34.000Z</time>
      </trkpt>
      <trkpt lat="47.30515" lon="-1.33497">
        <ele>55</ele>
        <time>2014-11-16T08:45:36.000Z</time>
      </trkpt>
      <trkpt lat="47.30511" lon="-1.33487">
        <ele>53</ele>
        <time>2014-11-16T08:45:38.000Z</time>
      </trkpt>
      <trkpt lat="47.30506" lon="-1.33476">
        <ele>54</ele>
        <time>2014-11-16T08:45:40.000Z</time>
      </trkpt>
      <trkpt lat="47.30503" lon="-1.33462">
        <ele>54</ele>
        <time>2014-11-16T08:45:42.000Z</time>
      </trkpt>
      <trkpt lat="47.30499" lon="-1.33449">
        <ele>53</ele>
        <time>2014-11-16T08:45:44.000Z</time>
      </trkpt>
      <trkpt lat="47.30497" lon="-1.33438">
        <ele>53</ele>
        <time>2014-11-16T08:45:46.000Z</time>
      </trkpt>
      <trkpt lat="47.30495" lon="-1.33428">
        <ele>53</ele>
        <time>2014-11-16T08:45:48.000Z</time>
      </trkpt>
      <trkpt lat="47.30493" lon="-1.33416">
        <ele>52</ele>
        <time>2014-11-16T08:45:50.000Z</time>
      </trkpt>
      <trkpt lat="47.3049" lon="-1.33405">
        <ele>52</ele>
        <time>2014-11-16T08:45:52.000Z</time>
      </trkpt>
      <trkpt lat="47.30488" lon="-1.33394">
        <ele>52</ele>
        <time>2014-11-16T08:45:54.000Z</time>
      </trkpt>
      <trkpt lat="47.30486" lon="-1.33383">
        <ele>51</ele>
        <time>2014-11-16T08:45:56.000Z</time>
      </trkpt>
      <trkpt lat="47.30483" lon="-1.33373">
        <ele>50</ele>
        <time>2014-11-16T08:45:58.000Z</time>
      </trkpt>
      <trkpt lat="47.30481" lon="-1.33365">
        <ele>48</ele>
        <time>2014-11-16T08:46:00.000Z</time>
      </trkpt>
      <trkpt lat="47.30481" lon="-1.33365">
        <ele>48</ele>
        <time>2014-11-16T08:46:02.000Z</time>
      </trkpt>
      <trkpt lat="47.30477" lon="-1.33351">
        <ele>49</ele>
        <time>2014-11-16T08:46:04.000Z</time>
      </trkpt>
      <trkpt lat="47.30477" lon="-1.33351">
        <ele>49</ele>
        <time>2014-11-16T08:46:06.000Z</time>
      </trkpt>
      <trkpt lat="47.30473" lon="-1.33336">
        <ele>51</ele>
        <time>2014-11-16T08:46:08.000Z</time>
      </trkpt>
      <trkpt lat="47.30473" lon="-1.33336">
        <ele>51</ele>
        <time>2014-11-16T08:46:10.000Z</time>
      </trkpt>
      <trkpt lat="47.3047" lon="-1.33315">
        <ele>55</ele>
        <time>2014-11-16T08:46:12.000Z</time>
      </trkpt>
      <trkpt lat="47.30469" lon="-1.33306">
        <ele>55</ele>
        <time>2014-11-16T08:46:14.000Z</time>
      </trkpt>
      <trkpt lat="47.30468" lon="-1.33292">
        <ele>53</ele>
        <time>2014-11-16T08:46:16.000Z</time>
      </trkpt>
      <trkpt lat="47.30466" lon="-1.33276">
        <ele>53</ele>
        <time>2014-11-16T08:46:18.000Z</time>
      </trkpt>
      <trkpt lat="47.30466" lon="-1.33264">
        <ele>55</ele>
        <time>2014-11-16T08:46:20.000Z</time>
      </trkpt>
      <trkpt lat="47.30465" lon="-1.33249">
        <ele>53</ele>
        <time>2014-11-16T08:46:22.000Z</time>
      </trkpt>
      <trkpt lat="47.30465" lon="-1.33236">
        <ele>53</ele>
        <time>2014-11-16T08:46:24.000Z</time>
      </trkpt>
      <trkpt lat="47.30461" lon="-1.33224">
        <ele>54</ele>
        <time>2014-11-16T08:46:26.000Z</time>
      </trkpt>
      <trkpt lat="47.30456" lon="-1.33213">
        <ele>54</ele>
        <time>2014-11-16T08:46:28.000Z</time>
      </trkpt>
      <trkpt lat="47.30449" lon="-1.33204">
        <ele>54</ele>
        <time>2014-11-16T08:46:30.000Z</time>
      </trkpt>
      <trkpt lat="47.30442" lon="-1.33194">
        <ele>54</ele>
        <time>2014-11-16T08:46:32.000Z</time>
      </trkpt>
      <trkpt lat="47.30439" lon="-1.33184">
        <ele>54</ele>
        <time>2014-11-16T08:46:34.000Z</time>
      </trkpt>
      <trkpt lat="47.30439" lon="-1.33184">
        <ele>54</ele>
        <time>2014-11-16T08:46:36.000Z</time>
      </trkpt>
      <trkpt lat="47.30429" lon="-1.33182">
        <ele>58</ele>
        <time>2014-11-16T08:46:38.000Z</time>
      </trkpt>
      <trkpt lat="47.30423" lon="-1.33188">
        <ele>57</ele>
        <time>2014-11-16T08:46:40.000Z</time>
      </trkpt>
      <trkpt lat="47.30418" lon="-1.33196">
        <ele>58</ele>
        <time>2014-11-16T08:46:42.000Z</time>
      </trkpt>
      <trkpt lat="47.30414" lon="-1.33204">
        <ele>56</ele>
        <time>2014-11-16T08:46:44.000Z</time>
      </trkpt>
      <trkpt lat="47.3041" lon="-1.33213">
        <ele>59</ele>
        <time>2014-11-16T08:46:46.000Z</time>
      </trkpt>
      <trkpt lat="47.30407" lon="-1.33222">
        <ele>59</ele>
        <time>2014-11-16T08:46:48.000Z</time>
      </trkpt>
      <trkpt lat="47.30404" lon="-1.33233">
        <ele>61</ele>
        <time>2014-11-16T08:46:50.000Z</time>
      </trkpt>
      <trkpt lat="47.30402" lon="-1.33244">
        <ele>64</ele>
        <time>2014-11-16T08:46:52.000Z</time>
      </trkpt>
      <trkpt lat="47.30402" lon="-1.33254">
        <ele>67</ele>
        <time>2014-11-16T08:46:54.000Z</time>
      </trkpt>
      <trkpt lat="47.304" lon="-1.33266">
        <ele>69</ele>
        <time>2014-11-16T08:46:56.000Z</time>
      </trkpt>
      <trkpt lat="47.30397" lon="-1.33277">
        <ele>68</ele>
        <time>2014-11-16T08:46:58.000Z</time>
      </trkpt>
      <trkpt lat="47.30394" lon="-1.33288">
        <ele>68</ele>
        <time>2014-11-16T08:47:00.000Z</time>
      </trkpt>
      <trkpt lat="47.3039" lon="-1.33298">
        <ele>68</ele>
        <time>2014-11-16T08:47:02.000Z</time>
      </trkpt>
      <trkpt lat="47.30385" lon="-1.33309">
        <ele>71</ele>
        <time>2014-11-16T08:47:04.000Z</time>
      </trkpt>
      <trkpt lat="47.3038" lon="-1.33318">
        <ele>71</ele>
        <time>2014-11-16T08:47:06.000Z</time>
      </trkpt>
      <trkpt lat="47.30375" lon="-1.33326">
        <ele>73</ele>
        <time>2014-11-16T08:47:08.000Z</time>
      </trkpt>
      <trkpt lat="47.30372" lon="-1.33334">
        <ele>73</ele>
        <time>2014-11-16T08:47:10.000Z</time>
      </trkpt>
      <trkpt lat="47.30369" lon="-1.33342">
        <ele>69</ele>
        <time>2014-11-16T08:47:12.000Z</time>
      </trkpt>
      <trkpt lat="47.30367" lon="-1.33351">
        <ele>67</ele>
        <time>2014-11-16T08:47:14.000Z</time>
      </trkpt>
      <trkpt lat="47.30367" lon="-1.3336">
        <ele>66</ele>
        <time>2014-11-16T08:47:16.000Z</time>
      </trkpt>
      <trkpt lat="47.30367" lon="-1.3336">
        <ele>66</ele>
        <time>2014-11-16T08:47:18.000Z</time>
      </trkpt>
      <trkpt lat="47.30371" lon="-1.33375">
        <ele>78</ele>
        <time>2014-11-16T08:47:20.000Z</time>
      </trkpt>
      <trkpt lat="47.30375" lon="-1.33395">
        <ele>79</ele>
        <time>2014-11-16T08:47:23.000Z</time>
      </trkpt>
      <trkpt lat="47.30377" lon="-1.33403">
        <ele>81</ele>
        <time>2014-11-16T08:47:25.000Z</time>
      </trkpt>
      <trkpt lat="47.30379" lon="-1.33411">
        <ele>85</ele>
        <time>2014-11-16T08:47:27.000Z</time>
      </trkpt>
      <trkpt lat="47.30382" lon="-1.3342">
        <ele>88</ele>
        <time>2014-11-16T08:47:29.000Z</time>
      </trkpt>
      <trkpt lat="47.30385" lon="-1.3343">
        <ele>85</ele>
        <time>2014-11-16T08:47:31.000Z</time>
      </trkpt>
      <trkpt lat="47.30386" lon="-1.3344">
        <ele>86</ele>
        <time>2014-11-16T08:47:33.000Z</time>
      </trkpt>
      <trkpt lat="47.30387" lon="-1.3345">
        <ele>86</ele>
        <time>2014-11-16T08:47:35.000Z</time>
      </trkpt>
      <trkpt lat="47.30387" lon="-1.33463">
        <ele>84</ele>
        <time>2014-11-16T08:47:37.000Z</time>
      </trkpt>
      <trkpt lat="47.30387" lon="-1.33473">
        <ele>90</ele>
        <time>2014-11-16T08:47:39.000Z</time>
      </trkpt>
      <trkpt lat="47.30387" lon="-1.33482">
        <ele>94</ele>
        <time>2014-11-16T08:47:41.000Z</time>
      </trkpt>
      <trkpt lat="47.30387" lon="-1.33482">
        <ele>94</ele>
        <time>2014-11-16T08:47:43.000Z</time>
      </trkpt>
      <trkpt lat="47.30388" lon="-1.3351">
        <ele>89</ele>
        <time>2014-11-16T08:47:46.000Z</time>
      </trkpt>
      <trkpt lat="47.30389" lon="-1.33542">
        <ele>84</ele>
        <time>2014-11-16T08:47:49.000Z</time>
      </trkpt>
      <trkpt lat="47.30388" lon="-1.33557">
        <ele>80</ele>
        <time>2014-11-16T08:47:51.000Z</time>
      </trkpt>
      <trkpt lat="47.30389" lon="-1.3357">
        <ele>80</ele>
        <time>2014-11-16T08:47:53.000Z</time>
      </trkpt>
      <trkpt lat="47.30388" lon="-1.33582">
        <ele>76</ele>
        <time>2014-11-16T08:47:55.000Z</time>
      </trkpt>
      <trkpt lat="47.30386" lon="-1.33595">
        <ele>75</ele>
        <time>2014-11-16T08:47:57.000Z</time>
      </trkpt>
      <trkpt lat="47.30384" lon="-1.33609">
        <ele>71</ele>
        <time>2014-11-16T08:47:59.000Z</time>
      </trkpt>
      <trkpt lat="47.30383" lon="-1.33622">
        <ele>70</ele>
        <time>2014-11-16T08:48:01.000Z</time>
      </trkpt>
      <trkpt lat="47.30383" lon="-1.33633">
        <ele>70</ele>
        <time>2014-11-16T08:48:03.000Z</time>
      </trkpt>
      <trkpt lat="47.30384" lon="-1.33644">
        <ele>69</ele>
        <time>2014-11-16T08:48:05.000Z</time>
      </trkpt>
      <trkpt lat="47.30384" lon="-1.33655">
        <ele>68</ele>
        <time>2014-11-16T08:48:07.000Z</time>
      </trkpt>
      <trkpt lat="47.30385" lon="-1.33667">
        <ele>65</ele>
        <time>2014-11-16T08:48:09.000Z</time>
      </trkpt>
      <trkpt lat="47.30384" lon="-1.33678">
        <ele>64</ele>
        <time>2014-11-16T08:48:11.000Z</time>
      </trkpt>
      <trkpt lat="47.30381" lon="-1.3369">
        <ele>65</ele>
        <time>2014-11-16T08:48:13.000Z</time>
      </trkpt>
      <trkpt lat="47.30379" lon="-1.33703">
        <ele>63</ele>
        <time>2014-11-16T08:48:15.000Z</time>
      </trkpt>
      <trkpt lat="47.30377" lon="-1.33717">
        <ele>61</ele>
        <time>2014-11-16T08:48:17.000Z</time>
      </trkpt>
      <trkpt lat="47.30375" lon="-1.33732">
        <ele>58</ele>
        <time>2014-11-16T08:48:19.000Z</time>
      </trkpt>
      <trkpt lat="47.30372" lon="-1.33747">
        <ele>58</ele>
        <time>2014-11-16T08:48:21.000Z</time>
      </trkpt>
      <trkpt lat="47.3037" lon="-1.33762">
        <ele>57</ele>
        <time>2014-11-16T08:48:23.000Z</time>
      </trkpt>
      <trkpt lat="47.30368" lon="-1.33776">
        <ele>55</ele>
        <time>2014-11-16T08:48:25.000Z</time>
      </trkpt>
      <trkpt lat="47.30367" lon="-1.3379">
        <ele>54</ele>
        <time>2014-11-16T08:48:27.000Z</time>
      </trkpt>
      <trkpt lat="47.30366" lon="-1.33804">
        <ele>53</ele>
        <time>2014-11-16T08:48:29.000Z</time>
      </trkpt>
      <trkpt lat="47.30363" lon="-1.33818">
        <ele>53</ele>
        <time>2014-11-16T08:48:31.000Z</time>
      </trkpt>
      <trkpt lat="47.30362" lon="-1.33833">
        <ele>52</ele>
        <time>2014-11-16T08:48:33.000Z</time>
      </trkpt>
      <trkpt lat="47.3036" lon="-1.33848">
        <ele>53</ele>
        <time>2014-11-16T08:48:35.000Z</time>
      </trkpt>
      <trkpt lat="47.30357" lon="-1.33862">
        <ele>53</ele>
        <time>2014-11-16T08:48:37.000Z</time>
      </trkpt>
      <trkpt lat="47.30354" lon="-1.33875">
        <ele>52</ele>
        <time>2014-11-16T08:48:39.000Z</time>
      </trkpt>
      <trkpt lat="47.30351" lon="-1.33887">
        <ele>51</ele>
        <time>2014-11-16T08:48:41.000Z</time>
      </trkpt>
      <trkpt lat="47.30347" lon="-1.33899">
        <ele>51</ele>
        <time>2014-11-16T08:48:43.000Z</time>
      </trkpt>
      <trkpt lat="47.30344" lon="-1.33911">
        <ele>50</ele>
        <time>2014-11-16T08:48:45.000Z</time>
      </trkpt>
      <trkpt lat="47.30344" lon="-1.33924">
        <ele>50</ele>
        <time>2014-11-16T08:48:47.000Z</time>
      </trkpt>
      <trkpt lat="47.30347" lon="-1.33935">
        <ele>50</ele>
        <time>2014-11-16T08:48:49.000Z</time>
      </trkpt>
      <trkpt lat="47.30352" lon="-1.33948">
        <ele>51</ele>
        <time>2014-11-16T08:48:51.000Z</time>
      </trkpt>
      <trkpt lat="47.30357" lon="-1.33956">
        <ele>51</ele>
        <time>2014-11-16T08:48:53.000Z</time>
      </trkpt>
      <trkpt lat="47.30358" lon="-1.33966">
        <ele>51</ele>
        <time>2014-11-16T08:48:55.000Z</time>
      </trkpt>
      <trkpt lat="47.30356" lon="-1.33977">
        <ele>51</ele>
        <time>2014-11-16T08:48:57.000Z</time>
      </trkpt>
      <trkpt lat="47.30352" lon="-1.33986">
        <ele>50</ele>
        <time>2014-11-16T08:48:59.000Z</time>
      </trkpt>
      <trkpt lat="47.30347" lon="-1.33995">
        <ele>51</ele>
        <time>2014-11-16T08:49:01.000Z</time>
      </trkpt>
      <trkpt lat="47.30342" lon="-1.34004">
        <ele>51</ele>
        <time>2014-11-16T08:49:03.000Z</time>
      </trkpt>
      <trkpt lat="47.30336" lon="-1.34012">
        <ele>51</ele>
        <time>2014-11-16T08:49:05.000Z</time>
      </trkpt>
      <trkpt lat="47.3033" lon="-1.34023">
        <ele>51</ele>
        <time>2014-11-16T08:49:07.000Z</time>
      </trkpt>
      <trkpt lat="47.30325" lon="-1.34033">
        <ele>51</ele>
        <time>2014-11-16T08:49:09.000Z</time>
      </trkpt>
      <trkpt lat="47.30315" lon="-1.34045">
        <ele>52</ele>
        <time>2014-11-16T08:49:11.000Z</time>
      </trkpt>
      <trkpt lat="47.30306" lon="-1.34055">
        <ele>52</ele>
        <time>2014-11-16T08:49:13.000Z</time>
      </trkpt>
      <trkpt lat="47.30298" lon="-1.34063">
        <ele>52</ele>
        <time>2014-11-16T08:49:15.000Z</time>
      </trkpt>
      <trkpt lat="47.3029" lon="-1.34074">
        <ele>49</ele>
        <time>2014-11-16T08:49:17.000Z</time>
      </trkpt>
      <trkpt lat="47.30281" lon="-1.34084">
        <ele>50</ele>
        <time>2014-11-16T08:49:19.000Z</time>
      </trkpt>
      <trkpt lat="47.30272" lon="-1.34094">
        <ele>50</ele>
        <time>2014-11-16T08:49:21.000Z</time>
      </trkpt>
      <trkpt lat="47.30264" lon="-1.34102">
        <ele>49</ele>
        <time>2014-11-16T08:49:23.000Z</time>
      </trkpt>
      <trkpt lat="47.30257" lon="-1.34102">
        <ele>50</ele>
        <time>2014-11-16T08:49:25.000Z</time>
      </trkpt>
      <trkpt lat="47.30252" lon="-1.34093">
        <ele>49</ele>
        <time>2014-11-16T08:49:27.000Z</time>
      </trkpt>
      <trkpt lat="47.30247" lon="-1.34082">
        <ele>50</ele>
        <time>2014-11-16T08:49:29.000Z</time>
      </trkpt>
      <trkpt lat="47.30243" lon="-1.34068">
        <ele>50</ele>
        <time>2014-11-16T08:49:31.000Z</time>
      </trkpt>
      <trkpt lat="47.30239" lon="-1.34056">
        <ele>50</ele>
        <time>2014-11-16T08:49:33.000Z</time>
      </trkpt>
      <trkpt lat="47.30235" lon="-1.34044">
        <ele>51</ele>
        <time>2014-11-16T08:49:35.000Z</time>
      </trkpt>
      <trkpt lat="47.30232" lon="-1.34032">
        <ele>50</ele>
        <time>2014-11-16T08:49:37.000Z</time>
      </trkpt>
      <trkpt lat="47.30228" lon="-1.34022">
        <ele>51</ele>
        <time>2014-11-16T08:49:39.000Z</time>
      </trkpt>
      <trkpt lat="47.30223" lon="-1.34011">
        <ele>50</ele>
        <time>2014-11-16T08:49:41.000Z</time>
      </trkpt>
      <trkpt lat="47.30219" lon="-1.34">
        <ele>50</ele>
        <time>2014-11-16T08:49:43.000Z</time>
      </trkpt>
      <trkpt lat="47.30212" lon="-1.33995">
        <ele>50</ele>
        <time>2014-11-16T08:49:45.000Z</time>
      </trkpt>
      <trkpt lat="47.30203" lon="-1.34001">
        <ele>51</ele>
        <time>2014-11-16T08:49:47.000Z</time>
      </trkpt>
      <trkpt lat="47.30195" lon="-1.3401">
        <ele>51</ele>
        <time>2014-11-16T08:49:49.000Z</time>
      </trkpt>
      <trkpt lat="47.30185" lon="-1.34018">
        <ele>51</ele>
        <time>2014-11-16T08:49:51.000Z</time>
      </trkpt>
      <trkpt lat="47.30177" lon="-1.34026">
        <ele>50</ele>
        <time>2014-11-16T08:49:53.000Z</time>
      </trkpt>
      <trkpt lat="47.30168" lon="-1.34035">
        <ele>49</ele>
        <time>2014-11-16T08:49:55.000Z</time>
      </trkpt>
      <trkpt lat="47.3016" lon="-1.34044">
        <ele>49</ele>
        <time>2014-11-16T08:49:57.000Z</time>
      </trkpt>
      <trkpt lat="47.3015" lon="-1.34055">
        <ele>51</ele>
        <time>2014-11-16T08:49:59.000Z</time>
      </trkpt>
      <trkpt lat="47.30143" lon="-1.34063">
        <ele>51</ele>
        <time>2014-11-16T08:50:01.000Z</time>
      </trkpt>
      <trkpt lat="47.30135" lon="-1.34069">
        <ele>52</ele>
        <time>2014-11-16T08:50:03.000Z</time>
      </trkpt>
      <trkpt lat="47.30128" lon="-1.34077">
        <ele>53</ele>
        <time>2014-11-16T08:50:05.000Z</time>
      </trkpt>
      <trkpt lat="47.30121" lon="-1.34086">
        <ele>53</ele>
        <time>2014-11-16T08:50:07.000Z</time>
      </trkpt>
      <trkpt lat="47.30117" lon="-1.34099">
        <ele>53</ele>
        <time>2014-11-16T08:50:09.000Z</time>
      </trkpt>
      <trkpt lat="47.30113" lon="-1.34111">
        <ele>52</ele>
        <time>2014-11-16T08:50:11.000Z</time>
      </trkpt>
      <trkpt lat="47.30109" lon="-1.34124">
        <ele>51</ele>
        <time>2014-11-16T08:50:13.000Z</time>
      </trkpt>
      <trkpt lat="47.30105" lon="-1.34137">
        <ele>52</ele>
        <time>2014-11-16T08:50:15.000Z</time>
      </trkpt>
      <trkpt lat="47.30098" lon="-1.34142">
        <ele>52</ele>
        <time>2014-11-16T08:50:17.000Z</time>
      </trkpt>
      <trkpt lat="47.3009" lon="-1.34135">
        <ele>52</ele>
        <time>2014-11-16T08:50:19.000Z</time>
      </trkpt>
      <trkpt lat="47.30084" lon="-1.34125">
        <ele>51</ele>
        <time>2014-11-16T08:50:21.000Z</time>
      </trkpt>
      <trkpt lat="47.30076" lon="-1.34117">
        <ele>51</ele>
        <time>2014-11-16T08:50:23.000Z</time>
      </trkpt>
      <trkpt lat="47.30066" lon="-1.34108">
        <ele>50</ele>
        <time>2014-11-16T08:50:25.000Z</time>
      </trkpt>
      <trkpt lat="47.30055" lon="-1.34101">
        <ele>48</ele>
        <time>2014-11-16T08:50:27.000Z</time>
      </trkpt>
      <trkpt lat="47.30044" lon="-1.34102">
        <ele>48</ele>
        <time>2014-11-16T08:50:29.000Z</time>
      </trkpt>
      <trkpt lat="47.30034" lon="-1.34109">
        <ele>48</ele>
        <time>2014-11-16T08:50:31.000Z</time>
      </trkpt>
      <trkpt lat="47.30025" lon="-1.34115">
        <ele>48</ele>
        <time>2014-11-16T08:50:33.000Z</time>
      </trkpt>
      <trkpt lat="47.30019" lon="-1.3412">
        <ele>48</ele>
        <time>2014-11-16T08:50:35.000Z</time>
      </trkpt>
      <trkpt lat="47.30015" lon="-1.3411">
        <ele>49</ele>
        <time>2014-11-16T08:50:37.000Z</time>
      </trkpt>
      <trkpt lat="47.30015" lon="-1.3411">
        <ele>49</ele>
        <time>2014-11-16T08:50:39.000Z</time>
      </trkpt>
      <trkpt lat="47.30021" lon="-1.341">
        <ele>50</ele>
        <time>2014-11-16T08:50:41.000Z</time>
      </trkpt>
      <trkpt lat="47.30021" lon="-1.341">
        <ele>50</ele>
        <time>2014-11-16T08:50:43.000Z</time>
      </trkpt>
      <trkpt lat="47.30016" lon="-1.34095">
        <ele>51</ele>
        <time>2014-11-16T08:50:45.000Z</time>
      </trkpt>
      <trkpt lat="47.3001" lon="-1.34101">
        <ele>52</ele>
        <time>2014-11-16T08:50:47.000Z</time>
      </trkpt>
      <trkpt lat="47.30005" lon="-1.3411">
        <ele>53</ele>
        <time>2014-11-16T08:50:49.000Z</time>
      </trkpt>
      <trkpt lat="47.3" lon="-1.34118">
        <ele>54</ele>
        <time>2014-11-16T08:50:51.000Z</time>
      </trkpt>
      <trkpt lat="47.3" lon="-1.34118">
        <ele>54</ele>
        <time>2014-11-16T08:50:53.000Z</time>
      </trkpt>
      <trkpt lat="47.29995" lon="-1.34125">
        <ele>54</ele>
        <time>2014-11-16T08:50:55.000Z</time>
      </trkpt>
      <trkpt lat="47.29995" lon="-1.34125">
        <ele>54</ele>
        <time>2014-11-16T08:50:57.000Z</time>
      </trkpt>
      <trkpt lat="47.29995" lon="-1.34125">
        <ele>54</ele>
        <time>2014-11-16T08:50:59.000Z</time>
      </trkpt>
      <trkpt lat="47.29992" lon="-1.34111">
        <ele>52</ele>
        <time>2014-11-16T08:51:05.000Z</time>
      </trkpt>
      <trkpt lat="47.29991" lon="-1.34101">
        <ele>52</ele>
        <time>2014-11-16T08:51:07.000Z</time>
      </trkpt>
      <trkpt lat="47.2999" lon="-1.3409">
        <ele>51</ele>
        <time>2014-11-16T08:51:09.000Z</time>
      </trkpt>
      <trkpt lat="47.29988" lon="-1.3408">
        <ele>51</ele>
        <time>2014-11-16T08:51:11.000Z</time>
      </trkpt>
      <trkpt lat="47.29986" lon="-1.34069">
        <ele>50</ele>
        <time>2014-11-16T08:51:13.000Z</time>
      </trkpt>
      <trkpt lat="47.29984" lon="-1.34057">
        <ele>49</ele>
        <time>2014-11-16T08:51:15.000Z</time>
      </trkpt>
      <trkpt lat="47.29981" lon="-1.34046">
        <ele>49</ele>
        <time>2014-11-16T08:51:17.000Z</time>
      </trkpt>
      <trkpt lat="47.29979" lon="-1.34034">
        <ele>48</ele>
        <time>2014-11-16T08:51:19.000Z</time>
      </trkpt>
      <trkpt lat="47.29977" lon="-1.34022">
        <ele>48</ele>
        <time>2014-11-16T08:51:21.000Z</time>
      </trkpt>
      <trkpt lat="47.29975" lon="-1.34012">
        <ele>49</ele>
        <time>2014-11-16T08:51:23.000Z</time>
      </trkpt>
      <trkpt lat="47.29974" lon="-1.34003">
        <ele>48</ele>
        <time>2014-11-16T08:51:25.000Z</time>
      </trkpt>
      <trkpt lat="47.29972" lon="-1.33994">
        <ele>48</ele>
        <time>2014-11-16T08:51:27.000Z</time>
      </trkpt>
      <trkpt lat="47.29972" lon="-1.33994">
        <ele>48</ele>
        <time>2014-11-16T08:51:29.000Z</time>
      </trkpt>
      <trkpt lat="47.29966" lon="-1.33984">
        <ele>49</ele>
        <time>2014-11-16T08:51:31.000Z</time>
      </trkpt>
      <trkpt lat="47.29945" lon="-1.34">
        <ele>49</ele>
        <time>2014-11-16T08:51:35.000Z</time>
      </trkpt>
      <trkpt lat="47.29935" lon="-1.34007">
        <ele>49</ele>
        <time>2014-11-16T08:51:37.000Z</time>
      </trkpt>
      <trkpt lat="47.29924" lon="-1.34015">
        <ele>49</ele>
        <time>2014-11-16T08:51:39.000Z</time>
      </trkpt>
      <trkpt lat="47.29914" lon="-1.34022">
        <ele>50</ele>
        <time>2014-11-16T08:51:41.000Z</time>
      </trkpt>
      <trkpt lat="47.29904" lon="-1.34029">
        <ele>50</ele>
        <time>2014-11-16T08:51:43.000Z</time>
      </trkpt>
      <trkpt lat="47.29894" lon="-1.34035">
        <ele>49</ele>
        <time>2014-11-16T08:51:45.000Z</time>
      </trkpt>
      <trkpt lat="47.29885" lon="-1.34042">
        <ele>51</ele>
        <time>2014-11-16T08:51:47.000Z</time>
      </trkpt>
      <trkpt lat="47.29877" lon="-1.34047">
        <ele>50</ele>
        <time>2014-11-16T08:51:49.000Z</time>
      </trkpt>
      <trkpt lat="47.29868" lon="-1.34043">
        <ele>50</ele>
        <time>2014-11-16T08:51:51.000Z</time>
      </trkpt>
      <trkpt lat="47.29861" lon="-1.34032">
        <ele>49</ele>
        <time>2014-11-16T08:51:53.000Z</time>
      </trkpt>
      <trkpt lat="47.29857" lon="-1.34018">
        <ele>50</ele>
        <time>2014-11-16T08:51:55.000Z</time>
      </trkpt>
      <trkpt lat="47.29851" lon="-1.34005">
        <ele>49</ele>
        <time>2014-11-16T08:51:57.000Z</time>
      </trkpt>
      <trkpt lat="47.29842" lon="-1.33995">
        <ele>50</ele>
        <time>2014-11-16T08:51:59.000Z</time>
      </trkpt>
      <trkpt lat="47.29832" lon="-1.33987">
        <ele>50</ele>
        <time>2014-11-16T08:52:01.000Z</time>
      </trkpt>
      <trkpt lat="47.29822" lon="-1.33985">
        <ele>50</ele>
        <time>2014-11-16T08:52:03.000Z</time>
      </trkpt>
      <trkpt lat="47.29814" lon="-1.33985">
        <ele>47</ele>
        <time>2014-11-16T08:52:05.000Z</time>
      </trkpt>
      <trkpt lat="47.29805" lon="-1.33984">
        <ele>47</ele>
        <time>2014-11-16T08:52:07.000Z</time>
      </trkpt>
      <trkpt lat="47.29798" lon="-1.33985">
        <ele>47</ele>
        <time>2014-11-16T08:52:09.000Z</time>
      </trkpt>
      <trkpt lat="47.29789" lon="-1.33986">
        <ele>46</ele>
        <time>2014-11-16T08:52:11.000Z</time>
      </trkpt>
      <trkpt lat="47.2978" lon="-1.33988">
        <ele>47</ele>
        <time>2014-11-16T08:52:13.000Z</time>
      </trkpt>
      <trkpt lat="47.29774" lon="-1.33991">
        <ele>46</ele>
        <time>2014-11-16T08:52:15.000Z</time>
      </trkpt>
      <trkpt lat="47.29768" lon="-1.33994">
        <ele>46</ele>
        <time>2014-11-16T08:52:17.000Z</time>
      </trkpt>
      <trkpt lat="47.29762" lon="-1.33997">
        <ele>48</ele>
        <time>2014-11-16T08:52:19.000Z</time>
      </trkpt>
      <trkpt lat="47.29756" lon="-1.34">
        <ele>49</ele>
        <time>2014-11-16T08:52:21.000Z</time>
      </trkpt>
      <trkpt lat="47.29749" lon="-1.34003">
        <ele>51</ele>
        <time>2014-11-16T08:52:23.000Z</time>
      </trkpt>
      <trkpt lat="47.29742" lon="-1.34008">
        <ele>51</ele>
        <time>2014-11-16T08:52:25.000Z</time>
      </trkpt>
      <trkpt lat="47.29734" lon="-1.34013">
        <ele>48</ele>
        <time>2014-11-16T08:52:27.000Z</time>
      </trkpt>
      <trkpt lat="47.29728" lon="-1.34017">
        <ele>48</ele>
        <time>2014-11-16T08:52:29.000Z</time>
      </trkpt>
      <trkpt lat="47.29721" lon="-1.34022">
        <ele>49</ele>
        <time>2014-11-16T08:52:31.000Z</time>
      </trkpt>
      <trkpt lat="47.29715" lon="-1.34028">
        <ele>47</ele>
        <time>2014-11-16T08:52:33.000Z</time>
      </trkpt>
      <trkpt lat="47.29708" lon="-1.34033">
        <ele>48</ele>
        <time>2014-11-16T08:52:35.000Z</time>
      </trkpt>
      <trkpt lat="47.29702" lon="-1.34039">
        <ele>48</ele>
        <time>2014-11-16T08:52:37.000Z</time>
      </trkpt>
      <trkpt lat="47.29695" lon="-1.34044">
        <ele>49</ele>
        <time>2014-11-16T08:52:39.000Z</time>
      </trkpt>
      <trkpt lat="47.29688" lon="-1.3405">
        <ele>48</ele>
        <time>2014-11-16T08:52:41.000Z</time>
      </trkpt>
      <trkpt lat="47.29682" lon="-1.34057">
        <ele>49</ele>
        <time>2014-11-16T08:52:43.000Z</time>
      </trkpt>
      <trkpt lat="47.29675" lon="-1.34064">
        <ele>50</ele>
        <time>2014-11-16T08:52:45.000Z</time>
      </trkpt>
      <trkpt lat="47.29669" lon="-1.34071">
        <ele>51</ele>
        <time>2014-11-16T08:52:47.000Z</time>
      </trkpt>
      <trkpt lat="47.29662" lon="-1.34079">
        <ele>50</ele>
        <time>2014-11-16T08:52:49.000Z</time>
      </trkpt>
      <trkpt lat="47.29654" lon="-1.34087">
        <ele>49</ele>
        <time>2014-11-16T08:52:51.000Z</time>
      </trkpt>
      <trkpt lat="47.29647" lon="-1.34093">
        <ele>50</ele>
        <time>2014-11-16T08:52:53.000Z</time>
      </trkpt>
      <trkpt lat="47.29641" lon="-1.34096">
        <ele>49</ele>
        <time>2014-11-16T08:52:55.000Z</time>
      </trkpt>
      <trkpt lat="47.29634" lon="-1.34096">
        <ele>49</ele>
        <time>2014-11-16T08:52:57.000Z</time>
      </trkpt>
      <trkpt lat="47.29634" lon="-1.34096">
        <ele>49</ele>
        <time>2014-11-16T08:52:59.000Z</time>
      </trkpt>
      <trkpt lat="47.29625" lon="-1.34088">
        <ele>48</ele>
        <time>2014-11-16T08:53:01.000Z</time>
      </trkpt>
      <trkpt lat="47.29621" lon="-1.3408">
        <ele>48</ele>
        <time>2014-11-16T08:53:03.000Z</time>
      </trkpt>
      <trkpt lat="47.29617" lon="-1.34071">
        <ele>46</ele>
        <time>2014-11-16T08:53:05.000Z</time>
      </trkpt>
      <trkpt lat="47.29613" lon="-1.34064">
        <ele>47</ele>
        <time>2014-11-16T08:53:07.000Z</time>
      </trkpt>
      <trkpt lat="47.29613" lon="-1.34064">
        <ele>47</ele>
        <time>2014-11-16T08:53:09.000Z</time>
      </trkpt>
      <trkpt lat="47.29609" lon="-1.34052">
        <ele>47</ele>
        <time>2014-11-16T08:53:11.000Z</time>
      </trkpt>
      <trkpt lat="47.29609" lon="-1.34052">
        <ele>47</ele>
        <time>2014-11-16T08:53:13.000Z</time>
      </trkpt>
      <trkpt lat="47.29609" lon="-1.34052">
        <ele>47</ele>
        <time>2014-11-16T08:53:15.000Z</time>
      </trkpt>
      <trkpt lat="47.29609" lon="-1.34052">
        <ele>47</ele>
        <time>2014-11-16T08:53:17.000Z</time>
      </trkpt>
      <trkpt lat="47.29609" lon="-1.34052">
        <ele>47</ele>
        <time>2014-11-16T08:53:19.000Z</time>
      </trkpt>
      <trkpt lat="47.29609" lon="-1.34052">
        <ele>47</ele>
        <time>2014-11-16T08:53:21.000Z</time>
      </trkpt>
      <trkpt lat="47.29609" lon="-1.34052">
        <ele>47</ele>
        <time>2014-11-16T08:53:23.000Z</time>
      </trkpt>
      <trkpt lat="47.29608" lon="-1.34047">
        <ele>48</ele>
        <time>2014-11-16T08:53:31.000Z</time>
      </trkpt>
      <trkpt lat="47.29608" lon="-1.34047">
        <ele>48</ele>
        <time>2014-11-16T08:53:33.000Z</time>
      </trkpt>
      <trkpt lat="47.29608" lon="-1.34047">
        <ele>48</ele>
        <time>2014-11-16T08:53:35.000Z</time>
      </trkpt>
      <trkpt lat="47.29607" lon="-1.34043">
        <ele>48</ele>
        <time>2014-11-16T08:53:37.000Z</time>
      </trkpt>
      <trkpt lat="47.29607" lon="-1.34043">
        <ele>48</ele>
        <time>2014-11-16T08:53:39.000Z</time>
      </trkpt>
      <trkpt lat="47.29607" lon="-1.34043">
        <ele>48</ele>
        <time>2014-11-16T08:53:41.000Z</time>
      </trkpt>
      <trkpt lat="47.29607" lon="-1.34043">
        <ele>48</ele>
        <time>2014-11-16T08:53:43.000Z</time>
      </trkpt>
      <trkpt lat="47.29606" lon="-1.34036">
        <ele>49</ele>
        <time>2014-11-16T08:53:45.000Z</time>
      </trkpt>
      <trkpt lat="47.29605" lon="-1.34032">
        <ele>48</ele>
        <time>2014-11-16T08:53:47.000Z</time>
      </trkpt>
      <trkpt lat="47.29605" lon="-1.34032">
        <ele>48</ele>
        <time>2014-11-16T08:53:49.000Z</time>
      </trkpt>
      <trkpt lat="47.29605" lon="-1.34026">
        <ele>47</ele>
        <time>2014-11-16T08:53:53.000Z</time>
      </trkpt>
      <trkpt lat="47.29605" lon="-1.34021">
        <ele>47</ele>
        <time>2014-11-16T08:53:55.000Z</time>
      </trkpt>
      <trkpt lat="47.29604" lon="-1.34016">
        <ele>48</ele>
        <time>2014-11-16T08:53:57.000Z</time>
      </trkpt>
      <trkpt lat="47.29602" lon="-1.34011">
        <ele>48</ele>
        <time>2014-11-16T08:53:59.000Z</time>
      </trkpt>
      <trkpt lat="47.296" lon="-1.34005">
        <ele>48</ele>
        <time>2014-11-16T08:54:01.000Z</time>
      </trkpt>
      <trkpt lat="47.29596" lon="-1.33993">
        <ele>47</ele>
        <time>2014-11-16T08:54:03.000Z</time>
      </trkpt>
      <trkpt lat="47.2959" lon="-1.33978">
        <ele>45</ele>
        <time>2014-11-16T08:54:07.000Z</time>
      </trkpt>
      <trkpt lat="47.2959" lon="-1.33978">
        <ele>45</ele>
        <time>2014-11-16T08:54:09.000Z</time>
      </trkpt>
      <trkpt lat="47.2959" lon="-1.33978">
        <ele>45</ele>
        <time>2014-11-16T08:54:11.000Z</time>
      </trkpt>
      <trkpt lat="47.2959" lon="-1.33978">
        <ele>45</ele>
        <time>2014-11-16T08:54:13.000Z</time>
      </trkpt>
      <trkpt lat="47.2959" lon="-1.33978">
        <ele>45</ele>
        <time>2014-11-16T08:54:15.000Z</time>
      </trkpt>
      <trkpt lat="47.2959" lon="-1.33978">
        <ele>45</ele>
        <time>2014-11-16T08:54:17.000Z</time>
      </trkpt>
      <trkpt lat="47.2959" lon="-1.33978">
        <ele>45</ele>
        <time>2014-11-16T08:54:19.000Z</time>
      </trkpt>
      <trkpt lat="47.2959" lon="-1.33978">
        <ele>45</ele>
        <time>2014-11-16T08:54:21.000Z</time>
      </trkpt>
      <trkpt lat="47.29586" lon="-1.33969">
        <ele>47</ele>
        <time>2014-11-16T08:54:29.000Z</time>
      </trkpt>
      <trkpt lat="47.29584" lon="-1.33961">
        <ele>49</ele>
        <time>2014-11-16T08:54:35.000Z</time>
      </trkpt>
      <trkpt lat="47.29584" lon="-1.33961">
        <ele>49</ele>
        <time>2014-11-16T08:54:43.000Z</time>
      </trkpt>
      <trkpt lat="47.29584" lon="-1.33961">
        <ele>49</ele>
        <time>2014-11-16T08:54:45.000Z</time>
      </trkpt>
      <trkpt lat="47.29584" lon="-1.33961">
        <ele>49</ele>
        <time>2014-11-16T08:54:47.000Z</time>
      </trkpt>
      <trkpt lat="47.29584" lon="-1.33961">
        <ele>49</ele>
        <time>2014-11-16T08:54:49.000Z</time>
      </trkpt>
      <trkpt lat="47.29584" lon="-1.33961">
        <ele>49</ele>
        <time>2014-11-16T08:54:51.000Z</time>
      </trkpt>
      <trkpt lat="47.29584" lon="-1.33961">
        <ele>49</ele>
        <time>2014-11-16T08:54:53.000Z</time>
      </trkpt>
      <trkpt lat="47.29584" lon="-1.33961">
        <ele>49</ele>
        <time>2014-11-16T08:54:55.000Z</time>
      </trkpt>
      <trkpt lat="47.29569" lon="-1.33956">
        <ele>53</ele>
        <time>2014-11-16T08:55:05.000Z</time>
      </trkpt>
      <trkpt lat="47.29569" lon="-1.33956">
        <ele>53</ele>
        <time>2014-11-16T08:55:07.000Z</time>
      </trkpt>
      <trkpt lat="47.29569" lon="-1.33956">
        <ele>53</ele>
        <time>2014-11-16T08:55:09.000Z</time>
      </trkpt>
      <trkpt lat="47.29569" lon="-1.33956">
        <ele>53</ele>
        <time>2014-11-16T08:55:11.000Z</time>
      </trkpt>
      <trkpt lat="47.29569" lon="-1.33956">
        <ele>53</ele>
        <time>2014-11-16T08:55:13.000Z</time>
      </trkpt>
      <trkpt lat="47.29569" lon="-1.33956">
        <ele>53</ele>
        <time>2014-11-16T08:55:15.000Z</time>
      </trkpt>
      <trkpt lat="47.29567" lon="-1.3395">
        <ele>57</ele>
        <time>2014-11-16T08:55:27.000Z</time>
      </trkpt>
      <trkpt lat="47.29565" lon="-1.33946">
        <ele>59</ele>
        <time>2014-11-16T08:55:29.000Z</time>
      </trkpt>
      <trkpt lat="47.29564" lon="-1.33942">
        <ele>59</ele>
        <time>2014-11-16T08:55:31.000Z</time>
      </trkpt>
      <trkpt lat="47.29564" lon="-1.33942">
        <ele>59</ele>
        <time>2014-11-16T08:55:33.000Z</time>
      </trkpt>
      <trkpt lat="47.2956" lon="-1.33939">
        <ele>61</ele>
        <time>2014-11-16T08:55:35.000Z</time>
      </trkpt>
      <trkpt lat="47.29558" lon="-1.33935">
        <ele>60</ele>
        <time>2014-11-16T08:55:37.000Z</time>
      </trkpt>
      <trkpt lat="47.29555" lon="-1.33933">
        <ele>60</ele>
        <time>2014-11-16T08:55:39.000Z</time>
      </trkpt>
      <trkpt lat="47.29555" lon="-1.33933">
        <ele>60</ele>
        <time>2014-11-16T08:55:41.000Z</time>
      </trkpt>
      <trkpt lat="47.29552" lon="-1.33933">
        <ele>60</ele>
        <time>2014-11-16T08:55:43.000Z</time>
      </trkpt>
      <trkpt lat="47.29552" lon="-1.33933">
        <ele>60</ele>
        <time>2014-11-16T08:55:45.000Z</time>
      </trkpt>
      <trkpt lat="47.29552" lon="-1.33933">
        <ele>60</ele>
        <time>2014-11-16T08:55:47.000Z</time>
      </trkpt>
      <trkpt lat="47.29552" lon="-1.33933">
        <ele>60</ele>
        <time>2014-11-16T08:55:49.000Z</time>
      </trkpt>
      <trkpt lat="47.29549" lon="-1.33933">
        <ele>61</ele>
        <time>2014-11-16T08:55:51.000Z</time>
      </trkpt>
      <trkpt lat="47.29549" lon="-1.33933">
        <ele>61</ele>
        <time>2014-11-16T08:55:53.000Z</time>
      </trkpt>
      <trkpt lat="47.29546" lon="-1.33936">
        <ele>62</ele>
        <time>2014-11-16T08:55:55.000Z</time>
      </trkpt>
      <trkpt lat="47.29542" lon="-1.33938">
        <ele>62</ele>
        <time>2014-11-16T08:55:57.000Z</time>
      </trkpt>
      <trkpt lat="47.29539" lon="-1.33942">
        <ele>62</ele>
        <time>2014-11-16T08:55:59.000Z</time>
      </trkpt>
      <trkpt lat="47.29535" lon="-1.33946">
        <ele>63</ele>
        <time>2014-11-16T08:56:01.000Z</time>
      </trkpt>
      <trkpt lat="47.2953" lon="-1.33952">
        <ele>63</ele>
        <time>2014-11-16T08:56:03.000Z</time>
      </trkpt>
      <trkpt lat="47.2952" lon="-1.33964">
        <ele>63</ele>
        <time>2014-11-16T08:56:05.000Z</time>
      </trkpt>
      <trkpt lat="47.29514" lon="-1.33972">
        <ele>64</ele>
        <time>2014-11-16T08:56:07.000Z</time>
      </trkpt>
      <trkpt lat="47.29507" lon="-1.33981">
        <ele>65</ele>
        <time>2014-11-16T08:56:09.000Z</time>
      </trkpt>
      <trkpt lat="47.29502" lon="-1.3399">
        <ele>66</ele>
        <time>2014-11-16T08:56:11.000Z</time>
      </trkpt>
      <trkpt lat="47.29499" lon="-1.33998">
        <ele>66</ele>
        <time>2014-11-16T08:56:13.000Z</time>
      </trkpt>
      <trkpt lat="47.29493" lon="-1.34009">
        <ele>68</ele>
        <time>2014-11-16T08:56:15.000Z</time>
      </trkpt>
      <trkpt lat="47.29485" lon="-1.34008">
        <ele>67</ele>
        <time>2014-11-16T08:56:18.000Z</time>
      </trkpt>
      <trkpt lat="47.29485" lon="-1.34008">
        <ele>67</ele>
        <time>2014-11-16T08:56:21.000Z</time>
      </trkpt>
      <trkpt lat="47.29485" lon="-1.34008">
        <ele>67</ele>
        <time>2014-11-16T08:56:23.000Z</time>
      </trkpt>
      <trkpt lat="47.29485" lon="-1.34008">
        <ele>67</ele>
        <time>2014-11-16T08:56:25.000Z</time>
      </trkpt>
      <trkpt lat="47.29481" lon="-1.34002">
        <ele>68</ele>
        <time>2014-11-16T08:56:27.000Z</time>
      </trkpt>
      <trkpt lat="47.29481" lon="-1.34002">
        <ele>68</ele>
        <time>2014-11-16T08:56:29.000Z</time>
      </trkpt>
      <trkpt lat="47.29481" lon="-1.34002">
        <ele>68</ele>
        <time>2014-11-16T08:56:31.000Z</time>
      </trkpt>
      <trkpt lat="47.29481" lon="-1.34002">
        <ele>68</ele>
        <time>2014-11-16T08:56:33.000Z</time>
      </trkpt>
      <trkpt lat="47.29481" lon="-1.34002">
        <ele>68</ele>
        <time>2014-11-16T08:56:35.000Z</time>
      </trkpt>
      <trkpt lat="47.29478" lon="-1.33993">
        <ele>68</ele>
        <time>2014-11-16T08:56:41.000Z</time>
      </trkpt>
      <trkpt lat="47.29478" lon="-1.33993">
        <ele>68</ele>
        <time>2014-11-16T08:56:43.000Z</time>
      </trkpt>
      <trkpt lat="47.29478" lon="-1.33993">
        <ele>68</ele>
        <time>2014-11-16T08:56:45.000Z</time>
      </trkpt>
      <trkpt lat="47.29472" lon="-1.33982">
        <ele>66</ele>
        <time>2014-11-16T08:56:53.000Z</time>
      </trkpt>
      <trkpt lat="47.29472" lon="-1.33982">
        <ele>66</ele>
        <time>2014-11-16T08:56:57.000Z</time>
      </trkpt>
      <trkpt lat="47.29472" lon="-1.33982">
        <ele>66</ele>
        <time>2014-11-16T08:56:59.000Z</time>
      </trkpt>
      <trkpt lat="47.29472" lon="-1.33982">
        <ele>66</ele>
        <time>2014-11-16T08:57:01.000Z</time>
      </trkpt>
      <trkpt lat="47.29472" lon="-1.33982">
        <ele>66</ele>
        <time>2014-11-16T08:57:03.000Z</time>
      </trkpt>
      <trkpt lat="47.29472" lon="-1.33982">
        <ele>66</ele>
        <time>2014-11-16T08:57:05.000Z</time>
      </trkpt>
      <trkpt lat="47.29472" lon="-1.33982">
        <ele>66</ele>
        <time>2014-11-16T08:57:07.000Z</time>
      </trkpt>
      <trkpt lat="47.29472" lon="-1.33982">
        <ele>66</ele>
        <time>2014-11-16T08:57:23.000Z</time>
      </trkpt>
      <trkpt lat="47.29472" lon="-1.33982">
        <ele>66</ele>
        <time>2014-11-16T08:57:35.000Z</time>
      </trkpt>
      <trkpt lat="47.29461" lon="-1.33986">
        <ele>83</ele>
        <time>2014-11-16T08:57:39.000Z</time>
      </trkpt>
      <trkpt lat="47.29453" lon="-1.33987">
        <ele>83</ele>
        <time>2014-11-16T08:57:41.000Z</time>
      </trkpt>
      <trkpt lat="47.29448" lon="-1.33987">
        <ele>86</ele>
        <time>2014-11-16T08:57:43.000Z</time>
      </trkpt>
      <trkpt lat="47.29444" lon="-1.33987">
        <ele>86</ele>
        <time>2014-11-16T08:57:45.000Z</time>
      </trkpt>
      <trkpt lat="47.29441" lon="-1.33987">
        <ele>85</ele>
        <time>2014-11-16T08:57:47.000Z</time>
      </trkpt>
      <trkpt lat="47.29434" lon="-1.33987">
        <ele>86</ele>
        <time>2014-11-16T08:57:49.000Z</time>
      </trkpt>
      <trkpt lat="47.29427" lon="-1.33985">
        <ele>87</ele>
        <time>2014-11-16T08:57:53.000Z</time>
      </trkpt>
      <trkpt lat="47.29427" lon="-1.33985">
        <ele>87</ele>
        <time>2014-11-16T08:57:57.000Z</time>
      </trkpt>
      <trkpt lat="47.29421" lon="-1.33987">
        <ele>88</ele>
        <time>2014-11-16T08:57:59.000Z</time>
      </trkpt>
      <trkpt lat="47.29416" lon="-1.33992">
        <ele>89</ele>
        <time>2014-11-16T08:58:03.000Z</time>
      </trkpt>
      <trkpt lat="47.29409" lon="-1.33992">
        <ele>91</ele>
        <time>2014-11-16T08:58:09.000Z</time>
      </trkpt>
      <trkpt lat="47.29409" lon="-1.33992">
        <ele>91</ele>
        <time>2014-11-16T08:58:11.000Z</time>
      </trkpt>
      <trkpt lat="47.29409" lon="-1.33992">
        <ele>91</ele>
        <time>2014-11-16T08:58:13.000Z</time>
      </trkpt>
      <trkpt lat="47.29403" lon="-1.33993">
        <ele>91</ele>
        <time>2014-11-16T08:58:15.000Z</time>
      </trkpt>
      <trkpt lat="47.29403" lon="-1.33993">
        <ele>91</ele>
        <time>2014-11-16T08:58:17.000Z</time>
      </trkpt>
      <trkpt lat="47.29395" lon="-1.33998">
        <ele>89</ele>
        <time>2014-11-16T08:58:21.000Z</time>
      </trkpt>
      <trkpt lat="47.29395" lon="-1.33998">
        <ele>89</ele>
        <time>2014-11-16T08:58:27.000Z</time>
      </trkpt>
      <trkpt lat="47.29388" lon="-1.33999">
        <ele>87</ele>
        <time>2014-11-16T08:58:29.000Z</time>
      </trkpt>
      <trkpt lat="47.29382" lon="-1.34004">
        <ele>88</ele>
        <time>2014-11-16T08:58:35.000Z</time>
      </trkpt>
      <trkpt lat="47.29375" lon="-1.34007">
        <ele>89</ele>
        <time>2014-11-16T08:58:39.000Z</time>
      </trkpt>
      <trkpt lat="47.2937" lon="-1.34012">
        <ele>87</ele>
        <time>2014-11-16T08:58:45.000Z</time>
      </trkpt>
      <trkpt lat="47.2937" lon="-1.34012">
        <ele>87</ele>
        <time>2014-11-16T08:58:47.000Z</time>
      </trkpt>
      <trkpt lat="47.29366" lon="-1.34018">
        <ele>85</ele>
        <time>2014-11-16T08:58:49.000Z</time>
      </trkpt>
      <trkpt lat="47.29361" lon="-1.34026">
        <ele>86</ele>
        <time>2014-11-16T08:58:53.000Z</time>
      </trkpt>
      <trkpt lat="47.29361" lon="-1.34026">
        <ele>86</ele>
        <time>2014-11-16T08:58:55.000Z</time>
      </trkpt>
      <trkpt lat="47.29361" lon="-1.34026">
        <ele>86</ele>
        <time>2014-11-16T08:58:57.000Z</time>
      </trkpt>
      <trkpt lat="47.29361" lon="-1.34026">
        <ele>86</ele>
        <time>2014-11-16T08:58:59.000Z</time>
      </trkpt>
      <trkpt lat="47.29354" lon="-1.34029">
        <ele>85</ele>
        <time>2014-11-16T08:59:01.000Z</time>
      </trkpt>
      <trkpt lat="47.29354" lon="-1.34029">
        <ele>85</ele>
        <time>2014-11-16T08:59:03.000Z</time>
      </trkpt>
      <trkpt lat="47.29354" lon="-1.34029">
        <ele>85</ele>
        <time>2014-11-16T08:59:05.000Z</time>
      </trkpt>
      <trkpt lat="47.29354" lon="-1.34029">
        <ele>85</ele>
        <time>2014-11-16T08:59:07.000Z</time>
      </trkpt>
      <trkpt lat="47.29353" lon="-1.3402">
        <ele>87</ele>
        <time>2014-11-16T08:59:11.000Z</time>
      </trkpt>
      <trkpt lat="47.29353" lon="-1.34015">
        <ele>89</ele>
        <time>2014-11-16T08:59:19.000Z</time>
      </trkpt>
      <trkpt lat="47.29353" lon="-1.34015">
        <ele>89</ele>
        <time>2014-11-16T08:59:21.000Z</time>
      </trkpt>
      <trkpt lat="47.29353" lon="-1.34015">
        <ele>89</ele>
        <time>2014-11-16T08:59:23.000Z</time>
      </trkpt>
      <trkpt lat="47.29353" lon="-1.34015">
        <ele>89</ele>
        <time>2014-11-16T08:59:25.000Z</time>
      </trkpt>
      <trkpt lat="47.29353" lon="-1.34015">
        <ele>89</ele>
        <time>2014-11-16T08:59:27.000Z</time>
      </trkpt>
      <trkpt lat="47.29352" lon="-1.3401">
        <ele>90</ele>
        <time>2014-11-16T08:59:31.000Z</time>
      </trkpt>
      <trkpt lat="47.29352" lon="-1.3401">
        <ele>90</ele>
        <time>2014-11-16T08:59:41.000Z</time>
      </trkpt>
      <trkpt lat="47.29352" lon="-1.3401">
        <ele>90</ele>
        <time>2014-11-16T08:59:43.000Z</time>
      </trkpt>
      <trkpt lat="47.29348" lon="-1.34011">
        <ele>91</ele>
        <time>2014-11-16T08:59:47.000Z</time>
      </trkpt>
      <trkpt lat="47.29345" lon="-1.34013">
        <ele>91</ele>
        <time>2014-11-16T08:59:49.000Z</time>
      </trkpt>
      <trkpt lat="47.29341" lon="-1.34015">
        <ele>91</ele>
        <time>2014-11-16T08:59:51.000Z</time>
      </trkpt>
      <trkpt lat="47.29338" lon="-1.34018">
        <ele>91</ele>
        <time>2014-11-16T08:59:53.000Z</time>
      </trkpt>
      <trkpt lat="47.29335" lon="-1.34021">
        <ele>92</ele>
        <time>2014-11-16T08:59:55.000Z</time>
      </trkpt>
      <trkpt lat="47.29327" lon="-1.34028">
        <ele>94</ele>
        <time>2014-11-16T08:59:57.000Z</time>
      </trkpt>
      <trkpt lat="47.29319" lon="-1.34036">
        <ele>98</ele>
        <time>2014-11-16T09:00:01.000Z</time>
      </trkpt>
      <trkpt lat="47.29311" lon="-1.34044">
        <ele>101</ele>
        <time>2014-11-16T09:00:05.000Z</time>
      </trkpt>
      <trkpt lat="47.29311" lon="-1.34044">
        <ele>101</ele>
        <time>2014-11-16T09:00:07.000Z</time>
      </trkpt>
      <trkpt lat="47.29305" lon="-1.34051">
        <ele>102</ele>
        <time>2014-11-16T09:00:09.000Z</time>
      </trkpt>
      <trkpt lat="47.29305" lon="-1.34051">
        <ele>102</ele>
        <time>2014-11-16T09:00:11.000Z</time>
      </trkpt>
      <trkpt lat="47.29298" lon="-1.34055">
        <ele>104</ele>
        <time>2014-11-16T09:00:13.000Z</time>
      </trkpt>
      <trkpt lat="47.29289" lon="-1.34061">
        <ele>106</ele>
        <time>2014-11-16T09:00:17.000Z</time>
      </trkpt>
      <trkpt lat="47.29279" lon="-1.34065">
        <ele>106</ele>
        <time>2014-11-16T09:00:21.000Z</time>
      </trkpt>
      <trkpt lat="47.29279" lon="-1.34065">
        <ele>106</ele>
        <time>2014-11-16T09:00:23.000Z</time>
      </trkpt>
      <trkpt lat="47.29279" lon="-1.34065">
        <ele>106</ele>
        <time>2014-11-16T09:00:25.000Z</time>
      </trkpt>
      <trkpt lat="47.29284" lon="-1.34055">
        <ele>105</ele>
        <time>2014-11-16T09:00:27.000Z</time>
      </trkpt>
      <trkpt lat="47.2929" lon="-1.34051">
        <ele>103</ele>
        <time>2014-11-16T09:00:29.000Z</time>
      </trkpt>
      <trkpt lat="47.29295" lon="-1.34047">
        <ele>103</ele>
        <time>2014-11-16T09:00:31.000Z</time>
      </trkpt>
      <trkpt lat="47.29301" lon="-1.34043">
        <ele>103</ele>
        <time>2014-11-16T09:00:33.000Z</time>
      </trkpt>
      <trkpt lat="47.29307" lon="-1.34039">
        <ele>103</ele>
        <time>2014-11-16T09:00:35.000Z</time>
      </trkpt>
      <trkpt lat="47.29312" lon="-1.34034">
        <ele>102</ele>
        <time>2014-11-16T09:00:37.000Z</time>
      </trkpt>
      <trkpt lat="47.29318" lon="-1.34028">
        <ele>102</ele>
        <time>2014-11-16T09:00:39.000Z</time>
      </trkpt>
      <trkpt lat="47.29323" lon="-1.34022">
        <ele>100</ele>
        <time>2014-11-16T09:00:41.000Z</time>
      </trkpt>
      <trkpt lat="47.29328" lon="-1.34016">
        <ele>98</ele>
        <time>2014-11-16T09:00:43.000Z</time>
      </trkpt>
      <trkpt lat="47.29333" lon="-1.34009">
        <ele>97</ele>
        <time>2014-11-16T09:00:45.000Z</time>
      </trkpt>
      <trkpt lat="47.29338" lon="-1.34002">
        <ele>96</ele>
        <time>2014-11-16T09:00:47.000Z</time>
      </trkpt>
      <trkpt lat="47.29346" lon="-1.33995">
        <ele>94</ele>
        <time>2014-11-16T09:00:49.000Z</time>
      </trkpt>
      <trkpt lat="47.29353" lon="-1.33987">
        <ele>94</ele>
        <time>2014-11-16T09:00:51.000Z</time>
      </trkpt>
      <trkpt lat="47.29359" lon="-1.33979">
        <ele>93</ele>
        <time>2014-11-16T09:00:53.000Z</time>
      </trkpt>
      <trkpt lat="47.29364" lon="-1.33972">
        <ele>93</ele>
        <time>2014-11-16T09:00:55.000Z</time>
      </trkpt>
      <trkpt lat="47.29369" lon="-1.33967">
        <ele>92</ele>
        <time>2014-11-16T09:00:57.000Z</time>
      </trkpt>
      <trkpt lat="47.29369" lon="-1.33967">
        <ele>92</ele>
        <time>2014-11-16T09:00:59.000Z</time>
      </trkpt>
      <trkpt lat="47.29378" lon="-1.33956">
        <ele>92</ele>
        <time>2014-11-16T09:01:01.000Z</time>
      </trkpt>
      <trkpt lat="47.29378" lon="-1.33956">
        <ele>92</ele>
        <time>2014-11-16T09:01:03.000Z</time>
      </trkpt>
      <trkpt lat="47.2938" lon="-1.33941">
        <ele>93</ele>
        <time>2014-11-16T09:01:05.000Z</time>
      </trkpt>
      <trkpt lat="47.2938" lon="-1.33941">
        <ele>93</ele>
        <time>2014-11-16T09:01:07.000Z</time>
      </trkpt>
      <trkpt lat="47.29374" lon="-1.33928">
        <ele>95</ele>
        <time>2014-11-16T09:01:09.000Z</time>
      </trkpt>
      <trkpt lat="47.29374" lon="-1.33928">
        <ele>95</ele>
        <time>2014-11-16T09:01:11.000Z</time>
      </trkpt>
      <trkpt lat="47.29367" lon="-1.33917">
        <ele>96</ele>
        <time>2014-11-16T09:01:13.000Z</time>
      </trkpt>
      <trkpt lat="47.29367" lon="-1.33917">
        <ele>96</ele>
        <time>2014-11-16T09:01:15.000Z</time>
      </trkpt>
      <trkpt lat="47.29362" lon="-1.33906">
        <ele>96</ele>
        <time>2014-11-16T09:01:17.000Z</time>
      </trkpt>
      <trkpt lat="47.29362" lon="-1.33906">
        <ele>96</ele>
        <time>2014-11-16T09:01:19.000Z</time>
      </trkpt>
      <trkpt lat="47.29354" lon="-1.33897">
        <ele>96</ele>
        <time>2014-11-16T09:01:21.000Z</time>
      </trkpt>
      <trkpt lat="47.29354" lon="-1.33897">
        <ele>96</ele>
        <time>2014-11-16T09:01:23.000Z</time>
      </trkpt>
      <trkpt lat="47.29346" lon="-1.33889">
        <ele>96</ele>
        <time>2014-11-16T09:01:25.000Z</time>
      </trkpt>
      <trkpt lat="47.29346" lon="-1.33889">
        <ele>96</ele>
        <time>2014-11-16T09:01:27.000Z</time>
      </trkpt>
      <trkpt lat="47.29337" lon="-1.33884">
        <ele>96</ele>
        <time>2014-11-16T09:01:29.000Z</time>
      </trkpt>
      <trkpt lat="47.29337" lon="-1.33884">
        <ele>96</ele>
        <time>2014-11-16T09:01:31.000Z</time>
      </trkpt>
      <trkpt lat="47.29332" lon="-1.33875">
        <ele>97</ele>
        <time>2014-11-16T09:01:33.000Z</time>
      </trkpt>
      <trkpt lat="47.29332" lon="-1.33875">
        <ele>97</ele>
        <time>2014-11-16T09:01:35.000Z</time>
      </trkpt>
      <trkpt lat="47.29334" lon="-1.33861">
        <ele>97</ele>
        <time>2014-11-16T09:01:37.000Z</time>
      </trkpt>
      <trkpt lat="47.29339" lon="-1.33846">
        <ele>96</ele>
        <time>2014-11-16T09:01:41.000Z</time>
      </trkpt>
      <trkpt lat="47.29341" lon="-1.33838">
        <ele>96</ele>
        <time>2014-11-16T09:01:43.000Z</time>
      </trkpt>
      <trkpt lat="47.29342" lon="-1.33829">
        <ele>96</ele>
        <time>2014-11-16T09:01:45.000Z</time>
      </trkpt>
      <trkpt lat="47.29343" lon="-1.3382">
        <ele>96</ele>
        <time>2014-11-16T09:01:47.000Z</time>
      </trkpt>
      <trkpt lat="47.29345" lon="-1.33812">
        <ele>98</ele>
        <time>2014-11-16T09:01:49.000Z</time>
      </trkpt>
      <trkpt lat="47.29346" lon="-1.33802">
        <ele>98</ele>
        <time>2014-11-16T09:01:51.000Z</time>
      </trkpt>
      <trkpt lat="47.29348" lon="-1.33793">
        <ele>98</ele>
        <time>2014-11-16T09:01:53.000Z</time>
      </trkpt>
      <trkpt lat="47.29349" lon="-1.33783">
        <ele>97</ele>
        <time>2014-11-16T09:01:55.000Z</time>
      </trkpt>
      <trkpt lat="47.2935" lon="-1.33774">
        <ele>98</ele>
        <time>2014-11-16T09:01:57.000Z</time>
      </trkpt>
      <trkpt lat="47.29351" lon="-1.33765">
        <ele>98</ele>
        <time>2014-11-16T09:01:59.000Z</time>
      </trkpt>
      <trkpt lat="47.29353" lon="-1.33756">
        <ele>96</ele>
        <time>2014-11-16T09:02:01.000Z</time>
      </trkpt>
      <trkpt lat="47.29356" lon="-1.33747">
        <ele>96</ele>
        <time>2014-11-16T09:02:03.000Z</time>
      </trkpt>
      <trkpt lat="47.29359" lon="-1.33737">
        <ele>95</ele>
        <time>2014-11-16T09:02:05.000Z</time>
      </trkpt>
      <trkpt lat="47.29363" lon="-1.33729">
        <ele>96</ele>
        <time>2014-11-16T09:02:07.000Z</time>
      </trkpt>
      <trkpt lat="47.29367" lon="-1.33722">
        <ele>97</ele>
        <time>2014-11-16T09:02:09.000Z</time>
      </trkpt>
      <trkpt lat="47.29373" lon="-1.33716">
        <ele>97</ele>
        <time>2014-11-16T09:02:11.000Z</time>
      </trkpt>
      <trkpt lat="47.29379" lon="-1.33712">
        <ele>98</ele>
        <time>2014-11-16T09:02:13.000Z</time>
      </trkpt>
      <trkpt lat="47.29379" lon="-1.33712">
        <ele>98</ele>
        <time>2014-11-16T09:02:15.000Z</time>
      </trkpt>
      <trkpt lat="47.29388" lon="-1.3371">
        <ele>100</ele>
        <time>2014-11-16T09:02:17.000Z</time>
      </trkpt>
      <trkpt lat="47.29388" lon="-1.3371">
        <ele>100</ele>
        <time>2014-11-16T09:02:19.000Z</time>
      </trkpt>
      <trkpt lat="47.29395" lon="-1.33724">
        <ele>102</ele>
        <time>2014-11-16T09:02:21.000Z</time>
      </trkpt>
      <trkpt lat="47.29398" lon="-1.33732">
        <ele>104</ele>
        <time>2014-11-16T09:02:23.000Z</time>
      </trkpt>
      <trkpt lat="47.29401" lon="-1.33739">
        <ele>105</ele>
        <time>2014-11-16T09:02:25.000Z</time>
      </trkpt>
      <trkpt lat="47.29408" lon="-1.33751">
        <ele>106</ele>
        <time>2014-11-16T09:02:29.000Z</time>
      </trkpt>
      <trkpt lat="47.29418" lon="-1.33759">
        <ele>107</ele>
        <time>2014-11-16T09:02:33.000Z</time>
      </trkpt>
      <trkpt lat="47.29423" lon="-1.33762">
        <ele>106</ele>
        <time>2014-11-16T09:02:35.000Z</time>
      </trkpt>
      <trkpt lat="47.29428" lon="-1.33765">
        <ele>106</ele>
        <time>2014-11-16T09:02:37.000Z</time>
      </trkpt>
      <trkpt lat="47.29434" lon="-1.33769">
        <ele>106</ele>
        <time>2014-11-16T09:02:39.000Z</time>
      </trkpt>
      <trkpt lat="47.2944" lon="-1.33773">
        <ele>106</ele>
        <time>2014-11-16T09:02:41.000Z</time>
      </trkpt>
      <trkpt lat="47.29448" lon="-1.33777">
        <ele>105</ele>
        <time>2014-11-16T09:02:43.000Z</time>
      </trkpt>
      <trkpt lat="47.29459" lon="-1.33783">
        <ele>103</ele>
        <time>2014-11-16T09:02:45.000Z</time>
      </trkpt>
      <trkpt lat="47.29471" lon="-1.3378">
        <ele>103</ele>
        <time>2014-11-16T09:02:47.000Z</time>
      </trkpt>
      <trkpt lat="47.2948" lon="-1.33768">
        <ele>102</ele>
        <time>2014-11-16T09:02:49.000Z</time>
      </trkpt>
      <trkpt lat="47.29487" lon="-1.33753">
        <ele>102</ele>
        <time>2014-11-16T09:02:51.000Z</time>
      </trkpt>
      <trkpt lat="47.29496" lon="-1.3374">
        <ele>101</ele>
        <time>2014-11-16T09:02:53.000Z</time>
      </trkpt>
      <trkpt lat="47.29505" lon="-1.33726">
        <ele>100</ele>
        <time>2014-11-16T09:02:55.000Z</time>
      </trkpt>
      <trkpt lat="47.29514" lon="-1.33712">
        <ele>99</ele>
        <time>2014-11-16T09:02:57.000Z</time>
      </trkpt>
      <trkpt lat="47.29523" lon="-1.33697">
        <ele>98</ele>
        <time>2014-11-16T09:02:59.000Z</time>
      </trkpt>
      <trkpt lat="47.29531" lon="-1.33685">
        <ele>99</ele>
        <time>2014-11-16T09:03:01.000Z</time>
      </trkpt>
      <trkpt lat="47.29539" lon="-1.33675">
        <ele>99</ele>
        <time>2014-11-16T09:03:03.000Z</time>
      </trkpt>
      <trkpt lat="47.29543" lon="-1.3366">
        <ele>98</ele>
        <time>2014-11-16T09:03:05.000Z</time>
      </trkpt>
      <trkpt lat="47.29539" lon="-1.33648">
        <ele>98</ele>
        <time>2014-11-16T09:03:07.000Z</time>
      </trkpt>
      <trkpt lat="47.29533" lon="-1.33641">
        <ele>97</ele>
        <time>2014-11-16T09:03:09.000Z</time>
      </trkpt>
      <trkpt lat="47.29524" lon="-1.33634">
        <ele>97</ele>
        <time>2014-11-16T09:03:11.000Z</time>
      </trkpt>
      <trkpt lat="47.29515" lon="-1.33626">
        <ele>97</ele>
        <time>2014-11-16T09:03:13.000Z</time>
      </trkpt>
      <trkpt lat="47.29507" lon="-1.33619">
        <ele>97</ele>
        <time>2014-11-16T09:03:15.000Z</time>
      </trkpt>
      <trkpt lat="47.29498" lon="-1.33609">
        <ele>97</ele>
        <time>2014-11-16T09:03:17.000Z</time>
      </trkpt>
      <trkpt lat="47.2949" lon="-1.33601">
        <ele>97</ele>
        <time>2014-11-16T09:03:19.000Z</time>
      </trkpt>
      <trkpt lat="47.29482" lon="-1.33591">
        <ele>97</ele>
        <time>2014-11-16T09:03:21.000Z</time>
      </trkpt>
      <trkpt lat="47.29474" lon="-1.33582">
        <ele>97</ele>
        <time>2014-11-16T09:03:23.000Z</time>
      </trkpt>
      <trkpt lat="47.29465" lon="-1.33574">
        <ele>97</ele>
        <time>2014-11-16T09:03:25.000Z</time>
      </trkpt>
      <trkpt lat="47.29457" lon="-1.33565">
        <ele>96</ele>
        <time>2014-11-16T09:03:27.000Z</time>
      </trkpt>
      <trkpt lat="47.29449" lon="-1.33557">
        <ele>96</ele>
        <time>2014-11-16T09:03:29.000Z</time>
      </trkpt>
      <trkpt lat="47.29443" lon="-1.33549">
        <ele>96</ele>
        <time>2014-11-16T09:03:31.000Z</time>
      </trkpt>
      <trkpt lat="47.29436" lon="-1.33543">
        <ele>95</ele>
        <time>2014-11-16T09:03:33.000Z</time>
      </trkpt>
      <trkpt lat="47.29432" lon="-1.33537">
        <ele>95</ele>
        <time>2014-11-16T09:03:35.000Z</time>
      </trkpt>
      <trkpt lat="47.29429" lon="-1.33529">
        <ele>95</ele>
        <time>2014-11-16T09:03:37.000Z</time>
      </trkpt>
      <trkpt lat="47.29429" lon="-1.33529">
        <ele>95</ele>
        <time>2014-11-16T09:03:39.000Z</time>
      </trkpt>
      <trkpt lat="47.29431" lon="-1.33513">
        <ele>94</ele>
        <time>2014-11-16T09:03:41.000Z</time>
      </trkpt>
      <trkpt lat="47.29437" lon="-1.33507">
        <ele>94</ele>
        <time>2014-11-16T09:03:43.000Z</time>
      </trkpt>
      <trkpt lat="47.29444" lon="-1.335">
        <ele>93</ele>
        <time>2014-11-16T09:03:45.000Z</time>
      </trkpt>
      <trkpt lat="47.29451" lon="-1.33494">
        <ele>94</ele>
        <time>2014-11-16T09:03:47.000Z</time>
      </trkpt>
      <trkpt lat="47.29458" lon="-1.33487">
        <ele>95</ele>
        <time>2014-11-16T09:03:49.000Z</time>
      </trkpt>
      <trkpt lat="47.29465" lon="-1.3348">
        <ele>94</ele>
        <time>2014-11-16T09:03:51.000Z</time>
      </trkpt>
      <trkpt lat="47.29475" lon="-1.33473">
        <ele>94</ele>
        <time>2014-11-16T09:03:53.000Z</time>
      </trkpt>
      <trkpt lat="47.29483" lon="-1.33466">
        <ele>93</ele>
        <time>2014-11-16T09:03:55.000Z</time>
      </trkpt>
      <trkpt lat="47.29493" lon="-1.33462">
        <ele>93</ele>
        <time>2014-11-16T09:03:57.000Z</time>
      </trkpt>
      <trkpt lat="47.29502" lon="-1.33459">
        <ele>94</ele>
        <time>2014-11-16T09:03:59.000Z</time>
      </trkpt>
      <trkpt lat="47.29512" lon="-1.33457">
        <ele>93</ele>
        <time>2014-11-16T09:04:01.000Z</time>
      </trkpt>
      <trkpt lat="47.29522" lon="-1.33454">
        <ele>93</ele>
        <time>2014-11-16T09:04:03.000Z</time>
      </trkpt>
      <trkpt lat="47.29532" lon="-1.33447">
        <ele>92</ele>
        <time>2014-11-16T09:04:05.000Z</time>
      </trkpt>
      <trkpt lat="47.29541" lon="-1.33439">
        <ele>94</ele>
        <time>2014-11-16T09:04:07.000Z</time>
      </trkpt>
      <trkpt lat="47.29548" lon="-1.33428">
        <ele>92</ele>
        <time>2014-11-16T09:04:09.000Z</time>
      </trkpt>
      <trkpt lat="47.29554" lon="-1.33415">
        <ele>92</ele>
        <time>2014-11-16T09:04:11.000Z</time>
      </trkpt>
      <trkpt lat="47.29559" lon="-1.33402">
        <ele>91</ele>
        <time>2014-11-16T09:04:13.000Z</time>
      </trkpt>
      <trkpt lat="47.29563" lon="-1.33386">
        <ele>91</ele>
        <time>2014-11-16T09:04:15.000Z</time>
      </trkpt>
      <trkpt lat="47.29565" lon="-1.33369">
        <ele>90</ele>
        <time>2014-11-16T09:04:17.000Z</time>
      </trkpt>
      <trkpt lat="47.2957" lon="-1.33357">
        <ele>91</ele>
        <time>2014-11-16T09:04:19.000Z</time>
      </trkpt>
      <trkpt lat="47.29581" lon="-1.33355">
        <ele>91</ele>
        <time>2014-11-16T09:04:21.000Z</time>
      </trkpt>
      <trkpt lat="47.29593" lon="-1.33361">
        <ele>90</ele>
        <time>2014-11-16T09:04:23.000Z</time>
      </trkpt>
      <trkpt lat="47.29606" lon="-1.3337">
        <ele>89</ele>
        <time>2014-11-16T09:04:25.000Z</time>
      </trkpt>
      <trkpt lat="47.29616" lon="-1.33384">
        <ele>90</ele>
        <time>2014-11-16T09:04:27.000Z</time>
      </trkpt>
      <trkpt lat="47.29625" lon="-1.33398">
        <ele>90</ele>
        <time>2014-11-16T09:04:29.000Z</time>
      </trkpt>
      <trkpt lat="47.2962" lon="-1.33415">
        <ele>90</ele>
        <time>2014-11-16T09:04:31.000Z</time>
      </trkpt>
      <trkpt lat="47.29615" lon="-1.33429">
        <ele>92</ele>
        <time>2014-11-16T09:04:33.000Z</time>
      </trkpt>
      <trkpt lat="47.2961" lon="-1.3344">
        <ele>93</ele>
        <time>2014-11-16T09:04:35.000Z</time>
      </trkpt>
      <trkpt lat="47.29612" lon="-1.3345">
        <ele>93</ele>
        <time>2014-11-16T09:04:37.000Z</time>
      </trkpt>
      <trkpt lat="47.29619" lon="-1.33458">
        <ele>94</ele>
        <time>2014-11-16T09:04:39.000Z</time>
      </trkpt>
      <trkpt lat="47.29623" lon="-1.33463">
        <ele>94</ele>
        <time>2014-11-16T09:04:41.000Z</time>
      </trkpt>
      <trkpt lat="47.29623" lon="-1.33463">
        <ele>94</ele>
        <time>2014-11-16T09:04:43.000Z</time>
      </trkpt>
      <trkpt lat="47.29634" lon="-1.33472">
        <ele>94</ele>
        <time>2014-11-16T09:04:45.000Z</time>
      </trkpt>
      <trkpt lat="47.29639" lon="-1.33477">
        <ele>93</ele>
        <time>2014-11-16T09:04:47.000Z</time>
      </trkpt>
      <trkpt lat="47.29646" lon="-1.33482">
        <ele>93</ele>
        <time>2014-11-16T09:04:49.000Z</time>
      </trkpt>
      <trkpt lat="47.29653" lon="-1.33487">
        <ele>94</ele>
        <time>2014-11-16T09:04:51.000Z</time>
      </trkpt>
      <trkpt lat="47.29663" lon="-1.33492">
        <ele>93</ele>
        <time>2014-11-16T09:04:53.000Z</time>
      </trkpt>
      <trkpt lat="47.29673" lon="-1.335">
        <ele>93</ele>
        <time>2014-11-16T09:04:55.000Z</time>
      </trkpt>
      <trkpt lat="47.2968" lon="-1.33508">
        <ele>92</ele>
        <time>2014-11-16T09:04:57.000Z</time>
      </trkpt>
      <trkpt lat="47.29684" lon="-1.33514">
        <ele>91</ele>
        <time>2014-11-16T09:04:59.000Z</time>
      </trkpt>
      <trkpt lat="47.29691" lon="-1.33517">
        <ele>91</ele>
        <time>2014-11-16T09:05:01.000Z</time>
      </trkpt>
      <trkpt lat="47.29691" lon="-1.33517">
        <ele>91</ele>
        <time>2014-11-16T09:05:03.000Z</time>
      </trkpt>
      <trkpt lat="47.29691" lon="-1.33517">
        <ele>91</ele>
        <time>2014-11-16T09:05:05.000Z</time>
      </trkpt>
      <trkpt lat="47.29691" lon="-1.33517">
        <ele>91</ele>
        <time>2014-11-16T09:05:07.000Z</time>
      </trkpt>
      <trkpt lat="47.29691" lon="-1.33517">
        <ele>91</ele>
        <time>2014-11-16T09:05:09.000Z</time>
      </trkpt>
      <trkpt lat="47.29691" lon="-1.33517">
        <ele>91</ele>
        <time>2014-11-16T09:05:11.000Z</time>
      </trkpt>
      <trkpt lat="47.29691" lon="-1.33517">
        <ele>91</ele>
        <time>2014-11-16T09:05:13.000Z</time>
      </trkpt>
      <trkpt lat="47.29691" lon="-1.33517">
        <ele>91</ele>
        <time>2014-11-16T09:05:15.000Z</time>
      </trkpt>
      <trkpt lat="47.29691" lon="-1.33517">
        <ele>91</ele>
        <time>2014-11-16T09:05:17.000Z</time>
      </trkpt>
      <trkpt lat="47.29691" lon="-1.33517">
        <ele>91</ele>
        <time>2014-11-16T09:05:19.000Z</time>
      </trkpt>
      <trkpt lat="47.29691" lon="-1.33517">
        <ele>91</ele>
        <time>2014-11-16T09:05:21.000Z</time>
      </trkpt>
      <trkpt lat="47.29691" lon="-1.33517">
        <ele>91</ele>
        <time>2014-11-16T09:05:41.000Z</time>
      </trkpt>
      <trkpt lat="47.29691" lon="-1.33517">
        <ele>91</ele>
        <time>2014-11-16T09:05:43.000Z</time>
      </trkpt>
      <trkpt lat="47.29688" lon="-1.33515">
        <ele>85</ele>
        <time>2014-11-16T09:06:01.000Z</time>
      </trkpt>
      <trkpt lat="47.29684" lon="-1.33512">
        <ele>85</ele>
        <time>2014-11-16T09:06:05.000Z</time>
      </trkpt>
      <trkpt lat="47.2968" lon="-1.33509">
        <ele>85</ele>
        <time>2014-11-16T09:06:07.000Z</time>
      </trkpt>
      <trkpt lat="47.29676" lon="-1.33505">
        <ele>87</ele>
        <time>2014-11-16T09:06:09.000Z</time>
      </trkpt>
      <trkpt lat="47.2967" lon="-1.335">
        <ele>87</ele>
        <time>2014-11-16T09:06:11.000Z</time>
      </trkpt>
      <trkpt lat="47.29665" lon="-1.33496">
        <ele>87</ele>
        <time>2014-11-16T09:06:13.000Z</time>
      </trkpt>
      <trkpt lat="47.29653" lon="-1.33487">
        <ele>86</ele>
        <time>2014-11-16T09:06:15.000Z</time>
      </trkpt>
      <trkpt lat="47.29647" lon="-1.33482">
        <ele>88</ele>
        <time>2014-11-16T09:06:17.000Z</time>
      </trkpt>
      <trkpt lat="47.2964" lon="-1.33477">
        <ele>90</ele>
        <time>2014-11-16T09:06:19.000Z</time>
      </trkpt>
      <trkpt lat="47.29635" lon="-1.33473">
        <ele>91</ele>
        <time>2014-11-16T09:06:21.000Z</time>
      </trkpt>
      <trkpt lat="47.2963" lon="-1.33468">
        <ele>90</ele>
        <time>2014-11-16T09:06:23.000Z</time>
      </trkpt>
      <trkpt lat="47.29625" lon="-1.33463">
        <ele>90</ele>
        <time>2014-11-16T09:06:25.000Z</time>
      </trkpt>
      <trkpt lat="47.2962" lon="-1.33458">
        <ele>90</ele>
        <time>2014-11-16T09:06:27.000Z</time>
      </trkpt>
      <trkpt lat="47.29614" lon="-1.33453">
        <ele>91</ele>
        <time>2014-11-16T09:06:29.000Z</time>
      </trkpt>
      <trkpt lat="47.29614" lon="-1.33453">
        <ele>91</ele>
        <time>2014-11-16T09:06:31.000Z</time>
      </trkpt>
      <trkpt lat="47.29609" lon="-1.3344">
        <ele>90</ele>
        <time>2014-11-16T09:06:33.000Z</time>
      </trkpt>
      <trkpt lat="47.29612" lon="-1.33432">
        <ele>89</ele>
        <time>2014-11-16T09:06:35.000Z</time>
      </trkpt>
      <trkpt lat="47.29617" lon="-1.33423">
        <ele>89</ele>
        <time>2014-11-16T09:06:37.000Z</time>
      </trkpt>
      <trkpt lat="47.29621" lon="-1.33412">
        <ele>88</ele>
        <time>2014-11-16T09:06:39.000Z</time>
      </trkpt>
      <trkpt lat="47.29622" lon="-1.33402">
        <ele>88</ele>
        <time>2014-11-16T09:06:41.000Z</time>
      </trkpt>
      <trkpt lat="47.29619" lon="-1.33391">
        <ele>88</ele>
        <time>2014-11-16T09:06:43.000Z</time>
      </trkpt>
      <trkpt lat="47.29613" lon="-1.33382">
        <ele>89</ele>
        <time>2014-11-16T09:06:45.000Z</time>
      </trkpt>
      <trkpt lat="47.29606" lon="-1.33375">
        <ele>88</ele>
        <time>2014-11-16T09:06:47.000Z</time>
      </trkpt>
      <trkpt lat="47.29597" lon="-1.33371">
        <ele>87</ele>
        <time>2014-11-16T09:06:49.000Z</time>
      </trkpt>
      <trkpt lat="47.29589" lon="-1.33366">
        <ele>87</ele>
        <time>2014-11-16T09:06:51.000Z</time>
      </trkpt>
      <trkpt lat="47.29582" lon="-1.33362">
        <ele>88</ele>
        <time>2014-11-16T09:06:53.000Z</time>
      </trkpt>
      <trkpt lat="47.29574" lon="-1.33361">
        <ele>89</ele>
        <time>2014-11-16T09:06:55.000Z</time>
      </trkpt>
      <trkpt lat="47.29568" lon="-1.33358">
        <ele>89</ele>
        <time>2014-11-16T09:06:57.000Z</time>
      </trkpt>
      <trkpt lat="47.29562" lon="-1.33354">
        <ele>90</ele>
        <time>2014-11-16T09:06:59.000Z</time>
      </trkpt>
      <trkpt lat="47.29557" lon="-1.3335">
        <ele>89</ele>
        <time>2014-11-16T09:07:01.000Z</time>
      </trkpt>
      <trkpt lat="47.29557" lon="-1.3335">
        <ele>89</ele>
        <time>2014-11-16T09:07:03.000Z</time>
      </trkpt>
      <trkpt lat="47.29556" lon="-1.33334">
        <ele>89</ele>
        <time>2014-11-16T09:07:05.000Z</time>
      </trkpt>
      <trkpt lat="47.29562" lon="-1.33324">
        <ele>89</ele>
        <time>2014-11-16T09:07:07.000Z</time>
      </trkpt>
      <trkpt lat="47.29572" lon="-1.33313">
        <ele>88</ele>
        <time>2014-11-16T09:07:09.000Z</time>
      </trkpt>
      <trkpt lat="47.29578" lon="-1.33304">
        <ele>88</ele>
        <time>2014-11-16T09:07:11.000Z</time>
      </trkpt>
      <trkpt lat="47.29586" lon="-1.33296">
        <ele>88</ele>
        <time>2014-11-16T09:07:13.000Z</time>
      </trkpt>
      <trkpt lat="47.29591" lon="-1.33288">
        <ele>88</ele>
        <time>2014-11-16T09:07:15.000Z</time>
      </trkpt>
      <trkpt lat="47.29594" lon="-1.33278">
        <ele>88</ele>
        <time>2014-11-16T09:07:17.000Z</time>
      </trkpt>
      <trkpt lat="47.29593" lon="-1.33268">
        <ele>88</ele>
        <time>2014-11-16T09:07:19.000Z</time>
      </trkpt>
      <trkpt lat="47.29591" lon="-1.33258">
        <ele>89</ele>
        <time>2014-11-16T09:07:21.000Z</time>
      </trkpt>
      <trkpt lat="47.2959" lon="-1.33249">
        <ele>88</ele>
        <time>2014-11-16T09:07:23.000Z</time>
      </trkpt>
      <trkpt lat="47.29594" lon="-1.33241">
        <ele>89</ele>
        <time>2014-11-16T09:07:25.000Z</time>
      </trkpt>
      <trkpt lat="47.296" lon="-1.33234">
        <ele>89</ele>
        <time>2014-11-16T09:07:27.000Z</time>
      </trkpt>
      <trkpt lat="47.29607" lon="-1.3323">
        <ele>89</ele>
        <time>2014-11-16T09:07:29.000Z</time>
      </trkpt>
      <trkpt lat="47.29614" lon="-1.33226">
        <ele>88</ele>
        <time>2014-11-16T09:07:31.000Z</time>
      </trkpt>
      <trkpt lat="47.29622" lon="-1.33223">
        <ele>89</ele>
        <time>2014-11-16T09:07:33.000Z</time>
      </trkpt>
      <trkpt lat="47.29629" lon="-1.33219">
        <ele>90</ele>
        <time>2014-11-16T09:07:35.000Z</time>
      </trkpt>
      <trkpt lat="47.29636" lon="-1.33215">
        <ele>90</ele>
        <time>2014-11-16T09:07:37.000Z</time>
      </trkpt>
      <trkpt lat="47.29643" lon="-1.33211">
        <ele>89</ele>
        <time>2014-11-16T09:07:39.000Z</time>
      </trkpt>
      <trkpt lat="47.2965" lon="-1.33206">
        <ele>89</ele>
        <time>2014-11-16T09:07:41.000Z</time>
      </trkpt>
      <trkpt lat="47.29655" lon="-1.33201">
        <ele>89</ele>
        <time>2014-11-16T09:07:43.000Z</time>
      </trkpt>
      <trkpt lat="47.29662" lon="-1.33196">
        <ele>91</ele>
        <time>2014-11-16T09:07:45.000Z</time>
      </trkpt>
      <trkpt lat="47.29668" lon="-1.33192">
        <ele>90</ele>
        <time>2014-11-16T09:07:47.000Z</time>
      </trkpt>
      <trkpt lat="47.29675" lon="-1.33187">
        <ele>91</ele>
        <time>2014-11-16T09:07:49.000Z</time>
      </trkpt>
      <trkpt lat="47.29681" lon="-1.33183">
        <ele>92</ele>
        <time>2014-11-16T09:07:51.000Z</time>
      </trkpt>
      <trkpt lat="47.29688" lon="-1.33179">
        <ele>92</ele>
        <time>2014-11-16T09:07:53.000Z</time>
      </trkpt>
      <trkpt lat="47.29694" lon="-1.33174">
        <ele>92</ele>
        <time>2014-11-16T09:07:55.000Z</time>
      </trkpt>
      <trkpt lat="47.29702" lon="-1.3317">
        <ele>91</ele>
        <time>2014-11-16T09:07:57.000Z</time>
      </trkpt>
      <trkpt lat="47.29709" lon="-1.33164">
        <ele>92</ele>
        <time>2014-11-16T09:07:59.000Z</time>
      </trkpt>
      <trkpt lat="47.29717" lon="-1.33159">
        <ele>91</ele>
        <time>2014-11-16T09:08:01.000Z</time>
      </trkpt>
      <trkpt lat="47.29725" lon="-1.33152">
        <ele>90</ele>
        <time>2014-11-16T09:08:03.000Z</time>
      </trkpt>
      <trkpt lat="47.29733" lon="-1.33147">
        <ele>91</ele>
        <time>2014-11-16T09:08:05.000Z</time>
      </trkpt>
      <trkpt lat="47.29741" lon="-1.33139">
        <ele>92</ele>
        <time>2014-11-16T09:08:07.000Z</time>
      </trkpt>
      <trkpt lat="47.2975" lon="-1.33129">
        <ele>93</ele>
        <time>2014-11-16T09:08:09.000Z</time>
      </trkpt>
      <trkpt lat="47.29758" lon="-1.3312">
        <ele>92</ele>
        <time>2014-11-16T09:08:11.000Z</time>
      </trkpt>
      <trkpt lat="47.29766" lon="-1.33111">
        <ele>92</ele>
        <time>2014-11-16T09:08:13.000Z</time>
      </trkpt>
      <trkpt lat="47.29774" lon="-1.33101">
        <ele>91</ele>
        <time>2014-11-16T09:08:15.000Z</time>
      </trkpt>
      <trkpt lat="47.29781" lon="-1.33094">
        <ele>90</ele>
        <time>2014-11-16T09:08:17.000Z</time>
      </trkpt>
      <trkpt lat="47.2979" lon="-1.33098">
        <ele>90</ele>
        <time>2014-11-16T09:08:19.000Z</time>
      </trkpt>
      <trkpt lat="47.29795" lon="-1.33109">
        <ele>88</ele>
        <time>2014-11-16T09:08:21.000Z</time>
      </trkpt>
      <trkpt lat="47.29798" lon="-1.33123">
        <ele>87</ele>
        <time>2014-11-16T09:08:23.000Z</time>
      </trkpt>
      <trkpt lat="47.29801" lon="-1.33137">
        <ele>86</ele>
        <time>2014-11-16T09:08:25.000Z</time>
      </trkpt>
      <trkpt lat="47.29805" lon="-1.33152">
        <ele>85</ele>
        <time>2014-11-16T09:08:27.000Z</time>
      </trkpt>
      <trkpt lat="47.29808" lon="-1.33165">
        <ele>83</ele>
        <time>2014-11-16T09:08:29.000Z</time>
      </trkpt>
      <trkpt lat="47.29814" lon="-1.33173">
        <ele>83</ele>
        <time>2014-11-16T09:08:31.000Z</time>
      </trkpt>
      <trkpt lat="47.29814" lon="-1.33173">
        <ele>83</ele>
        <time>2014-11-16T09:08:33.000Z</time>
      </trkpt>
      <trkpt lat="47.29823" lon="-1.33176">
        <ele>82</ele>
        <time>2014-11-16T09:08:35.000Z</time>
      </trkpt>
      <trkpt lat="47.29823" lon="-1.33176">
        <ele>82</ele>
        <time>2014-11-16T09:08:37.000Z</time>
      </trkpt>
      <trkpt lat="47.29828" lon="-1.33166">
        <ele>83</ele>
        <time>2014-11-16T09:08:39.000Z</time>
      </trkpt>
      <trkpt lat="47.29828" lon="-1.33166">
        <ele>83</ele>
        <time>2014-11-16T09:08:41.000Z</time>
      </trkpt>
      <trkpt lat="47.29833" lon="-1.33152">
        <ele>85</ele>
        <time>2014-11-16T09:08:43.000Z</time>
      </trkpt>
      <trkpt lat="47.29836" lon="-1.33144">
        <ele>86</ele>
        <time>2014-11-16T09:08:45.000Z</time>
      </trkpt>
      <trkpt lat="47.29841" lon="-1.33131">
        <ele>86</ele>
        <time>2014-11-16T09:08:49.000Z</time>
      </trkpt>
      <trkpt lat="47.29844" lon="-1.33123">
        <ele>86</ele>
        <time>2014-11-16T09:08:51.000Z</time>
      </trkpt>
      <trkpt lat="47.29849" lon="-1.33108">
        <ele>86</ele>
        <time>2014-11-16T09:08:55.000Z</time>
      </trkpt>
      <trkpt lat="47.29853" lon="-1.33099">
        <ele>85</ele>
        <time>2014-11-16T09:08:57.000Z</time>
      </trkpt>
      <trkpt lat="47.29856" lon="-1.33091">
        <ele>85</ele>
        <time>2014-11-16T09:08:59.000Z</time>
      </trkpt>
      <trkpt lat="47.2986" lon="-1.33083">
        <ele>85</ele>
        <time>2014-11-16T09:09:01.000Z</time>
      </trkpt>
      <trkpt lat="47.29862" lon="-1.33075">
        <ele>85</ele>
        <time>2014-11-16T09:09:03.000Z</time>
      </trkpt>
      <trkpt lat="47.29865" lon="-1.33067">
        <ele>85</ele>
        <time>2014-11-16T09:09:05.000Z</time>
      </trkpt>
      <trkpt lat="47.29866" lon="-1.33058">
        <ele>86</ele>
        <time>2014-11-16T09:09:07.000Z</time>
      </trkpt>
      <trkpt lat="47.29868" lon="-1.33049">
        <ele>84</ele>
        <time>2014-11-16T09:09:09.000Z</time>
      </trkpt>
      <trkpt lat="47.29869" lon="-1.3304">
        <ele>85</ele>
        <time>2014-11-16T09:09:11.000Z</time>
      </trkpt>
      <trkpt lat="47.29869" lon="-1.33031">
        <ele>85</ele>
        <time>2014-11-16T09:09:13.000Z</time>
      </trkpt>
      <trkpt lat="47.29869" lon="-1.33031">
        <ele>85</ele>
        <time>2014-11-16T09:09:15.000Z</time>
      </trkpt>
      <trkpt lat="47.2987" lon="-1.33015">
        <ele>85</ele>
        <time>2014-11-16T09:09:17.000Z</time>
      </trkpt>
      <trkpt lat="47.2987" lon="-1.33015">
        <ele>85</ele>
        <time>2014-11-16T09:09:19.000Z</time>
      </trkpt>
      <trkpt lat="47.29869" lon="-1.33001">
        <ele>86</ele>
        <time>2014-11-16T09:09:21.000Z</time>
      </trkpt>
      <trkpt lat="47.29869" lon="-1.33001">
        <ele>86</ele>
        <time>2014-11-16T09:09:23.000Z</time>
      </trkpt>
      <trkpt lat="47.29867" lon="-1.32986">
        <ele>86</ele>
        <time>2014-11-16T09:09:25.000Z</time>
      </trkpt>
      <trkpt lat="47.29868" lon="-1.32971">
        <ele>87</ele>
        <time>2014-11-16T09:09:29.000Z</time>
      </trkpt>
      <trkpt lat="47.29868" lon="-1.32971">
        <ele>87</ele>
        <time>2014-11-16T09:09:31.000Z</time>
      </trkpt>
      <trkpt lat="47.29873" lon="-1.32959">
        <ele>88</ele>
        <time>2014-11-16T09:09:33.000Z</time>
      </trkpt>
      <trkpt lat="47.29879" lon="-1.32944">
        <ele>89</ele>
        <time>2014-11-16T09:09:37.000Z</time>
      </trkpt>
      <trkpt lat="47.29882" lon="-1.32933">
        <ele>89</ele>
        <time>2014-11-16T09:09:39.000Z</time>
      </trkpt>
      <trkpt lat="47.29887" lon="-1.32919">
        <ele>89</ele>
        <time>2014-11-16T09:09:41.000Z</time>
      </trkpt>
      <trkpt lat="47.29891" lon="-1.32906">
        <ele>90</ele>
        <time>2014-11-16T09:09:43.000Z</time>
      </trkpt>
      <trkpt lat="47.29894" lon="-1.32895">
        <ele>90</ele>
        <time>2014-11-16T09:09:45.000Z</time>
      </trkpt>
      <trkpt lat="47.29897" lon="-1.32883">
        <ele>91</ele>
        <time>2014-11-16T09:09:47.000Z</time>
      </trkpt>
      <trkpt lat="47.29901" lon="-1.32872">
        <ele>91</ele>
        <time>2014-11-16T09:09:49.000Z</time>
      </trkpt>
      <trkpt lat="47.29904" lon="-1.32861">
        <ele>93</ele>
        <time>2014-11-16T09:09:51.000Z</time>
      </trkpt>
      <trkpt lat="47.29906" lon="-1.32848">
        <ele>92</ele>
        <time>2014-11-16T09:09:53.000Z</time>
      </trkpt>
      <trkpt lat="47.29909" lon="-1.32836">
        <ele>93</ele>
        <time>2014-11-16T09:09:55.000Z</time>
      </trkpt>
      <trkpt lat="47.29912" lon="-1.32825">
        <ele>93</ele>
        <time>2014-11-16T09:09:57.000Z</time>
      </trkpt>
      <trkpt lat="47.29914" lon="-1.32813">
        <ele>93</ele>
        <time>2014-11-16T09:09:59.000Z</time>
      </trkpt>
      <trkpt lat="47.29916" lon="-1.32802">
        <ele>94</ele>
        <time>2014-11-16T09:10:01.000Z</time>
      </trkpt>
      <trkpt lat="47.29918" lon="-1.3279">
        <ele>94</ele>
        <time>2014-11-16T09:10:03.000Z</time>
      </trkpt>
      <trkpt lat="47.29919" lon="-1.32779">
        <ele>94</ele>
        <time>2014-11-16T09:10:05.000Z</time>
      </trkpt>
      <trkpt lat="47.29921" lon="-1.32767">
        <ele>93</ele>
        <time>2014-11-16T09:10:07.000Z</time>
      </trkpt>
      <trkpt lat="47.29923" lon="-1.32755">
        <ele>92</ele>
        <time>2014-11-16T09:10:09.000Z</time>
      </trkpt>
      <trkpt lat="47.29924" lon="-1.32742">
        <ele>92</ele>
        <time>2014-11-16T09:10:11.000Z</time>
      </trkpt>
      <trkpt lat="47.29927" lon="-1.32728">
        <ele>92</ele>
        <time>2014-11-16T09:10:13.000Z</time>
      </trkpt>
      <trkpt lat="47.29929" lon="-1.32715">
        <ele>92</ele>
        <time>2014-11-16T09:10:15.000Z</time>
      </trkpt>
      <trkpt lat="47.29926" lon="-1.32706">
        <ele>91</ele>
        <time>2014-11-16T09:10:17.000Z</time>
      </trkpt>
      <trkpt lat="47.29926" lon="-1.32706">
        <ele>91</ele>
        <time>2014-11-16T09:10:19.000Z</time>
      </trkpt>
      <trkpt lat="47.29915" lon="-1.327">
        <ele>94</ele>
        <time>2014-11-16T09:10:21.000Z</time>
      </trkpt>
      <trkpt lat="47.2991" lon="-1.32697">
        <ele>94</ele>
        <time>2014-11-16T09:10:23.000Z</time>
      </trkpt>
      <trkpt lat="47.29904" lon="-1.32693">
        <ele>95</ele>
        <time>2014-11-16T09:10:25.000Z</time>
      </trkpt>
      <trkpt lat="47.29897" lon="-1.32689">
        <ele>95</ele>
        <time>2014-11-16T09:10:27.000Z</time>
      </trkpt>
      <trkpt lat="47.29891" lon="-1.32685">
        <ele>96</ele>
        <time>2014-11-16T09:10:29.000Z</time>
      </trkpt>
      <trkpt lat="47.29884" lon="-1.32681">
        <ele>96</ele>
        <time>2014-11-16T09:10:31.000Z</time>
      </trkpt>
      <trkpt lat="47.29877" lon="-1.32678">
        <ele>97</ele>
        <time>2014-11-16T09:10:33.000Z</time>
      </trkpt>
      <trkpt lat="47.29871" lon="-1.32674">
        <ele>97</ele>
        <time>2014-11-16T09:10:35.000Z</time>
      </trkpt>
      <trkpt lat="47.29866" lon="-1.3267">
        <ele>98</ele>
        <time>2014-11-16T09:10:37.000Z</time>
      </trkpt>
      <trkpt lat="47.2986" lon="-1.32667">
        <ele>99</ele>
        <time>2014-11-16T09:10:39.000Z</time>
      </trkpt>
      <trkpt lat="47.29854" lon="-1.32663">
        <ele>99</ele>
        <time>2014-11-16T09:10:41.000Z</time>
      </trkpt>
      <trkpt lat="47.29848" lon="-1.3266">
        <ele>99</ele>
        <time>2014-11-16T09:10:43.000Z</time>
      </trkpt>
      <trkpt lat="47.29842" lon="-1.32656">
        <ele>100</ele>
        <time>2014-11-16T09:10:45.000Z</time>
      </trkpt>
      <trkpt lat="47.29842" lon="-1.32656">
        <ele>100</ele>
        <time>2014-11-16T09:10:47.000Z</time>
      </trkpt>
      <trkpt lat="47.29838" lon="-1.32645">
        <ele>100</ele>
        <time>2014-11-16T09:10:49.000Z</time>
      </trkpt>
      <trkpt lat="47.29838" lon="-1.32645">
        <ele>100</ele>
        <time>2014-11-16T09:10:51.000Z</time>
      </trkpt>
      <trkpt lat="47.29844" lon="-1.3263">
        <ele>100</ele>
        <time>2014-11-16T09:10:53.000Z</time>
      </trkpt>
      <trkpt lat="47.29847" lon="-1.3262">
        <ele>100</ele>
        <time>2014-11-16T09:10:55.000Z</time>
      </trkpt>
      <trkpt lat="47.2985" lon="-1.32609">
        <ele>99</ele>
        <time>2014-11-16T09:10:57.000Z</time>
      </trkpt>
      <trkpt lat="47.29853" lon="-1.32598">
        <ele>98</ele>
        <time>2014-11-16T09:10:59.000Z</time>
      </trkpt>
      <trkpt lat="47.29856" lon="-1.32587">
        <ele>97</ele>
        <time>2014-11-16T09:11:01.000Z</time>
      </trkpt>
      <trkpt lat="47.29859" lon="-1.32575">
        <ele>97</ele>
        <time>2014-11-16T09:11:03.000Z</time>
      </trkpt>
      <trkpt lat="47.29862" lon="-1.32563">
        <ele>97</ele>
        <time>2014-11-16T09:11:05.000Z</time>
      </trkpt>
      <trkpt lat="47.2987" lon="-1.32551">
        <ele>95</ele>
        <time>2014-11-16T09:11:07.000Z</time>
      </trkpt>
      <trkpt lat="47.29877" lon="-1.32546">
        <ele>95</ele>
        <time>2014-11-16T09:11:09.000Z</time>
      </trkpt>
      <trkpt lat="47.29885" lon="-1.32543">
        <ele>94</ele>
        <time>2014-11-16T09:11:11.000Z</time>
      </trkpt>
      <trkpt lat="47.29892" lon="-1.32538">
        <ele>93</ele>
        <time>2014-11-16T09:11:13.000Z</time>
      </trkpt>
      <trkpt lat="47.29901" lon="-1.32533">
        <ele>93</ele>
        <time>2014-11-16T09:11:15.000Z</time>
      </trkpt>
      <trkpt lat="47.2991" lon="-1.32529">
        <ele>93</ele>
        <time>2014-11-16T09:11:17.000Z</time>
      </trkpt>
      <trkpt lat="47.29918" lon="-1.32524">
        <ele>93</ele>
        <time>2014-11-16T09:11:19.000Z</time>
      </trkpt>
      <trkpt lat="47.29926" lon="-1.3252">
        <ele>92</ele>
        <time>2014-11-16T09:11:21.000Z</time>
      </trkpt>
      <trkpt lat="47.29933" lon="-1.32515">
        <ele>92</ele>
        <time>2014-11-16T09:11:23.000Z</time>
      </trkpt>
      <trkpt lat="47.2994" lon="-1.32509">
        <ele>92</ele>
        <time>2014-11-16T09:11:25.000Z</time>
      </trkpt>
      <trkpt lat="47.29947" lon="-1.32506">
        <ele>91</ele>
        <time>2014-11-16T09:11:27.000Z</time>
      </trkpt>
      <trkpt lat="47.29953" lon="-1.32501">
        <ele>91</ele>
        <time>2014-11-16T09:11:29.000Z</time>
      </trkpt>
      <trkpt lat="47.29959" lon="-1.32497">
        <ele>92</ele>
        <time>2014-11-16T09:11:31.000Z</time>
      </trkpt>
      <trkpt lat="47.29966" lon="-1.32494">
        <ele>91</ele>
        <time>2014-11-16T09:11:33.000Z</time>
      </trkpt>
      <trkpt lat="47.29974" lon="-1.32491">
        <ele>90</ele>
        <time>2014-11-16T09:11:35.000Z</time>
      </trkpt>
      <trkpt lat="47.29981" lon="-1.32486">
        <ele>91</ele>
        <time>2014-11-16T09:11:37.000Z</time>
      </trkpt>
      <trkpt lat="47.29989" lon="-1.32479">
        <ele>92</ele>
        <time>2014-11-16T09:11:39.000Z</time>
      </trkpt>
      <trkpt lat="47.29995" lon="-1.32466">
        <ele>90</ele>
        <time>2014-11-16T09:11:41.000Z</time>
      </trkpt>
      <trkpt lat="47.29999" lon="-1.32449">
        <ele>90</ele>
        <time>2014-11-16T09:11:43.000Z</time>
      </trkpt>
      <trkpt lat="47.30005" lon="-1.32428">
        <ele>89</ele>
        <time>2014-11-16T09:11:45.000Z</time>
      </trkpt>
      <trkpt lat="47.3001" lon="-1.32407">
        <ele>89</ele>
        <time>2014-11-16T09:11:47.000Z</time>
      </trkpt>
      <trkpt lat="47.30016" lon="-1.32386">
        <ele>90</ele>
        <time>2014-11-16T09:11:49.000Z</time>
      </trkpt>
      <trkpt lat="47.30021" lon="-1.32366">
        <ele>90</ele>
        <time>2014-11-16T09:11:51.000Z</time>
      </trkpt>
      <trkpt lat="47.30026" lon="-1.32348">
        <ele>90</ele>
        <time>2014-11-16T09:11:53.000Z</time>
      </trkpt>
      <trkpt lat="47.30029" lon="-1.32333">
        <ele>90</ele>
        <time>2014-11-16T09:11:55.000Z</time>
      </trkpt>
      <trkpt lat="47.30032" lon="-1.32322">
        <ele>90</ele>
        <time>2014-11-16T09:11:57.000Z</time>
      </trkpt>
      <trkpt lat="47.30034" lon="-1.32309">
        <ele>90</ele>
        <time>2014-11-16T09:11:59.000Z</time>
      </trkpt>
      <trkpt lat="47.30037" lon="-1.32297">
        <ele>90</ele>
        <time>2014-11-16T09:12:01.000Z</time>
      </trkpt>
      <trkpt lat="47.30039" lon="-1.32285">
        <ele>92</ele>
        <time>2014-11-16T09:12:03.000Z</time>
      </trkpt>
      <trkpt lat="47.30042" lon="-1.32272">
        <ele>90</ele>
        <time>2014-11-16T09:12:05.000Z</time>
      </trkpt>
      <trkpt lat="47.30045" lon="-1.32259">
        <ele>89</ele>
        <time>2014-11-16T09:12:07.000Z</time>
      </trkpt>
      <trkpt lat="47.30046" lon="-1.32246">
        <ele>89</ele>
        <time>2014-11-16T09:12:09.000Z</time>
      </trkpt>
      <trkpt lat="47.30051" lon="-1.32236">
        <ele>88</ele>
        <time>2014-11-16T09:12:11.000Z</time>
      </trkpt>
      <trkpt lat="47.30056" lon="-1.32231">
        <ele>87</ele>
        <time>2014-11-16T09:12:13.000Z</time>
      </trkpt>
      <trkpt lat="47.30056" lon="-1.32231">
        <ele>87</ele>
        <time>2014-11-16T09:12:15.000Z</time>
      </trkpt>
      <trkpt lat="47.30065" lon="-1.32235">
        <ele>88</ele>
        <time>2014-11-16T09:12:17.000Z</time>
      </trkpt>
      <trkpt lat="47.3007" lon="-1.32236">
        <ele>89</ele>
        <time>2014-11-16T09:12:19.000Z</time>
      </trkpt>
      <trkpt lat="47.30077" lon="-1.32238">
        <ele>88</ele>
        <time>2014-11-16T09:12:21.000Z</time>
      </trkpt>
      <trkpt lat="47.30084" lon="-1.32239">
        <ele>89</ele>
        <time>2014-11-16T09:12:23.000Z</time>
      </trkpt>
      <trkpt lat="47.30091" lon="-1.32241">
        <ele>89</ele>
        <time>2014-11-16T09:12:25.000Z</time>
      </trkpt>
      <trkpt lat="47.30098" lon="-1.32244">
        <ele>89</ele>
        <time>2014-11-16T09:12:27.000Z</time>
      </trkpt>
      <trkpt lat="47.30107" lon="-1.32248">
        <ele>88</ele>
        <time>2014-11-16T09:12:29.000Z</time>
      </trkpt>
      <trkpt lat="47.30116" lon="-1.32251">
        <ele>88</ele>
        <time>2014-11-16T09:12:31.000Z</time>
      </trkpt>
      <trkpt lat="47.30125" lon="-1.32254">
        <ele>89</ele>
        <time>2014-11-16T09:12:33.000Z</time>
      </trkpt>
      <trkpt lat="47.30135" lon="-1.32259">
        <ele>89</ele>
        <time>2014-11-16T09:12:35.000Z</time>
      </trkpt>
      <trkpt lat="47.30145" lon="-1.32263">
        <ele>88</ele>
        <time>2014-11-16T09:12:37.000Z</time>
      </trkpt>
      <trkpt lat="47.30155" lon="-1.32268">
        <ele>88</ele>
        <time>2014-11-16T09:12:39.000Z</time>
      </trkpt>
      <trkpt lat="47.30167" lon="-1.32271">
        <ele>85</ele>
        <time>2014-11-16T09:12:41.000Z</time>
      </trkpt>
      <trkpt lat="47.30178" lon="-1.32267">
        <ele>83</ele>
        <time>2014-11-16T09:12:43.000Z</time>
      </trkpt>
      <trkpt lat="47.3019" lon="-1.32255">
        <ele>83</ele>
        <time>2014-11-16T09:12:45.000Z</time>
      </trkpt>
      <trkpt lat="47.30199" lon="-1.32235">
        <ele>82</ele>
        <time>2014-11-16T09:12:47.000Z</time>
      </trkpt>
      <trkpt lat="47.30206" lon="-1.32212">
        <ele>82</ele>
        <time>2014-11-16T09:12:49.000Z</time>
      </trkpt>
      <trkpt lat="47.30214" lon="-1.32189">
        <ele>82</ele>
        <time>2014-11-16T09:12:51.000Z</time>
      </trkpt>
      <trkpt lat="47.30224" lon="-1.32168">
        <ele>83</ele>
        <time>2014-11-16T09:12:53.000Z</time>
      </trkpt>
      <trkpt lat="47.30235" lon="-1.32148">
        <ele>82</ele>
        <time>2014-11-16T09:12:55.000Z</time>
      </trkpt>
      <trkpt lat="47.30245" lon="-1.32133">
        <ele>83</ele>
        <time>2014-11-16T09:12:57.000Z</time>
      </trkpt>
      <trkpt lat="47.30259" lon="-1.32124">
        <ele>83</ele>
        <time>2014-11-16T09:12:59.000Z</time>
      </trkpt>
      <trkpt lat="47.30271" lon="-1.32117">
        <ele>82</ele>
        <time>2014-11-16T09:13:01.000Z</time>
      </trkpt>
      <trkpt lat="47.30283" lon="-1.32117">
        <ele>81</ele>
        <time>2014-11-16T09:13:03.000Z</time>
      </trkpt>
      <trkpt lat="47.30297" lon="-1.32114">
        <ele>80</ele>
        <time>2014-11-16T09:13:05.000Z</time>
      </trkpt>
      <trkpt lat="47.3031" lon="-1.32109">
        <ele>80</ele>
        <time>2014-11-16T09:13:07.000Z</time>
      </trkpt>
      <trkpt lat="47.30323" lon="-1.32104">
        <ele>79</ele>
        <time>2014-11-16T09:13:09.000Z</time>
      </trkpt>
      <trkpt lat="47.30335" lon="-1.321">
        <ele>78</ele>
        <time>2014-11-16T09:13:11.000Z</time>
      </trkpt>
      <trkpt lat="47.30347" lon="-1.32095">
        <ele>79</ele>
        <time>2014-11-16T09:13:13.000Z</time>
      </trkpt>
      <trkpt lat="47.30357" lon="-1.3209">
        <ele>79</ele>
        <time>2014-11-16T09:13:15.000Z</time>
      </trkpt>
      <trkpt lat="47.30367" lon="-1.32088">
        <ele>78</ele>
        <time>2014-11-16T09:13:17.000Z</time>
      </trkpt>
      <trkpt lat="47.30376" lon="-1.32084">
        <ele>77</ele>
        <time>2014-11-16T09:13:19.000Z</time>
      </trkpt>
      <trkpt lat="47.30387" lon="-1.32081">
        <ele>78</ele>
        <time>2014-11-16T09:13:21.000Z</time>
      </trkpt>
      <trkpt lat="47.30398" lon="-1.32079">
        <ele>75</ele>
        <time>2014-11-16T09:13:23.000Z</time>
      </trkpt>
      <trkpt lat="47.30407" lon="-1.32076">
        <ele>74</ele>
        <time>2014-11-16T09:13:25.000Z</time>
      </trkpt>
      <trkpt lat="47.30418" lon="-1.32073">
        <ele>72</ele>
        <time>2014-11-16T09:13:27.000Z</time>
      </trkpt>
      <trkpt lat="47.30431" lon="-1.32073">
        <ele>68</ele>
        <time>2014-11-16T09:13:29.000Z</time>
      </trkpt>
      <trkpt lat="47.30444" lon="-1.32076">
        <ele>65</ele>
        <time>2014-11-16T09:13:31.000Z</time>
      </trkpt>
      <trkpt lat="47.30457" lon="-1.32079">
        <ele>64</ele>
        <time>2014-11-16T09:13:33.000Z</time>
      </trkpt>
      <trkpt lat="47.3047" lon="-1.32084">
        <ele>60</ele>
        <time>2014-11-16T09:13:35.000Z</time>
      </trkpt>
      <trkpt lat="47.30482" lon="-1.3209">
        <ele>58</ele>
        <time>2014-11-16T09:13:37.000Z</time>
      </trkpt>
      <trkpt lat="47.30494" lon="-1.32094">
        <ele>55</ele>
        <time>2014-11-16T09:13:39.000Z</time>
      </trkpt>
      <trkpt lat="47.30502" lon="-1.32099">
        <ele>53</ele>
        <time>2014-11-16T09:13:41.000Z</time>
      </trkpt>
      <trkpt lat="47.30508" lon="-1.321">
        <ele>52</ele>
        <time>2014-11-16T09:13:43.000Z</time>
      </trkpt>
      <trkpt lat="47.30508" lon="-1.321">
        <ele>52</ele>
        <time>2014-11-16T09:13:45.000Z</time>
      </trkpt>
      <trkpt lat="47.30515" lon="-1.32093">
        <ele>50</ele>
        <time>2014-11-16T09:13:47.000Z</time>
      </trkpt>
      <trkpt lat="47.30515" lon="-1.32093">
        <ele>50</ele>
        <time>2014-11-16T09:13:49.000Z</time>
      </trkpt>
      <trkpt lat="47.3051" lon="-1.3208">
        <ele>50</ele>
        <time>2014-11-16T09:13:51.000Z</time>
      </trkpt>
      <trkpt lat="47.3051" lon="-1.3208">
        <ele>50</ele>
        <time>2014-11-16T09:13:53.000Z</time>
      </trkpt>
      <trkpt lat="47.30503" lon="-1.32066">
        <ele>51</ele>
        <time>2014-11-16T09:13:55.000Z</time>
      </trkpt>
      <trkpt lat="47.30499" lon="-1.32058">
        <ele>52</ele>
        <time>2014-11-16T09:13:57.000Z</time>
      </trkpt>
      <trkpt lat="47.30495" lon="-1.32051">
        <ele>52</ele>
        <time>2014-11-16T09:13:59.000Z</time>
      </trkpt>
      <trkpt lat="47.30491" lon="-1.32043">
        <ele>52</ele>
        <time>2014-11-16T09:14:01.000Z</time>
      </trkpt>
      <trkpt lat="47.30487" lon="-1.32035">
        <ele>50</ele>
        <time>2014-11-16T09:14:03.000Z</time>
      </trkpt>
      <trkpt lat="47.30476" lon="-1.32026">
        <ele>54</ele>
        <time>2014-11-16T09:14:05.000Z</time>
      </trkpt>
      <trkpt lat="47.30468" lon="-1.3202">
        <ele>57</ele>
        <time>2014-11-16T09:14:07.000Z</time>
      </trkpt>
      <trkpt lat="47.30462" lon="-1.32009">
        <ele>53</ele>
        <time>2014-11-16T09:14:09.000Z</time>
      </trkpt>
      <trkpt lat="47.30455" lon="-1.32002">
        <ele>54</ele>
        <time>2014-11-16T09:14:11.000Z</time>
      </trkpt>
      <trkpt lat="47.30445" lon="-1.31993">
        <ele>51</ele>
        <time>2014-11-16T09:14:13.000Z</time>
      </trkpt>
      <trkpt lat="47.30437" lon="-1.31983">
        <ele>49</ele>
        <time>2014-11-16T09:14:15.000Z</time>
      </trkpt>
      <trkpt lat="47.30427" lon="-1.31972">
        <ele>49</ele>
        <time>2014-11-16T09:14:17.000Z</time>
      </trkpt>
      <trkpt lat="47.30419" lon="-1.31965">
        <ele>50</ele>
        <time>2014-11-16T09:14:19.000Z</time>
      </trkpt>
      <trkpt lat="47.30411" lon="-1.31961">
        <ele>52</ele>
        <time>2014-11-16T09:14:21.000Z</time>
      </trkpt>
      <trkpt lat="47.30405" lon="-1.31958">
        <ele>52</ele>
        <time>2014-11-16T09:14:23.000Z</time>
      </trkpt>
      <trkpt lat="47.30397" lon="-1.31954">
        <ele>53</ele>
        <time>2014-11-16T09:14:25.000Z</time>
      </trkpt>
      <trkpt lat="47.30392" lon="-1.31952">
        <ele>55</ele>
        <time>2014-11-16T09:14:27.000Z</time>
      </trkpt>
      <trkpt lat="47.30385" lon="-1.31951">
        <ele>55</ele>
        <time>2014-11-16T09:14:29.000Z</time>
      </trkpt>
      <trkpt lat="47.30378" lon="-1.31948">
        <ele>54</ele>
        <time>2014-11-16T09:14:31.000Z</time>
      </trkpt>
      <trkpt lat="47.30372" lon="-1.31945">
        <ele>54</ele>
        <time>2014-11-16T09:14:33.000Z</time>
      </trkpt>
      <trkpt lat="47.30366" lon="-1.3194">
        <ele>55</ele>
        <time>2014-11-16T09:14:35.000Z</time>
      </trkpt>
      <trkpt lat="47.30359" lon="-1.31936">
        <ele>55</ele>
        <time>2014-11-16T09:14:37.000Z</time>
      </trkpt>
      <trkpt lat="47.30352" lon="-1.31933">
        <ele>55</ele>
        <time>2014-11-16T09:14:39.000Z</time>
      </trkpt>
      <trkpt lat="47.30346" lon="-1.3193">
        <ele>55</ele>
        <time>2014-11-16T09:14:41.000Z</time>
      </trkpt>
      <trkpt lat="47.30346" lon="-1.3193">
        <ele>55</ele>
        <time>2014-11-16T09:14:43.000Z</time>
      </trkpt>
      <trkpt lat="47.30336" lon="-1.31926">
        <ele>57</ele>
        <time>2014-11-16T09:14:45.000Z</time>
      </trkpt>
      <trkpt lat="47.3033" lon="-1.31924">
        <ele>57</ele>
        <time>2014-11-16T09:14:47.000Z</time>
      </trkpt>
      <trkpt lat="47.30325" lon="-1.3192">
        <ele>62</ele>
        <time>2014-11-16T09:14:49.000Z</time>
      </trkpt>
      <trkpt lat="47.30319" lon="-1.31917">
        <ele>64</ele>
        <time>2014-11-16T09:14:51.000Z</time>
      </trkpt>
      <trkpt lat="47.30313" lon="-1.31915">
        <ele>65</ele>
        <time>2014-11-16T09:14:53.000Z</time>
      </trkpt>
      <trkpt lat="47.30306" lon="-1.31914">
        <ele>67</ele>
        <time>2014-11-16T09:14:55.000Z</time>
      </trkpt>
      <trkpt lat="47.30297" lon="-1.31915">
        <ele>69</ele>
        <time>2014-11-16T09:14:57.000Z</time>
      </trkpt>
      <trkpt lat="47.30289" lon="-1.31914">
        <ele>67</ele>
        <time>2014-11-16T09:14:59.000Z</time>
      </trkpt>
      <trkpt lat="47.30283" lon="-1.3191">
        <ele>72</ele>
        <time>2014-11-16T09:15:01.000Z</time>
      </trkpt>
      <trkpt lat="47.30277" lon="-1.31905">
        <ele>74</ele>
        <time>2014-11-16T09:15:03.000Z</time>
      </trkpt>
      <trkpt lat="47.30272" lon="-1.31902">
        <ele>73</ele>
        <time>2014-11-16T09:15:05.000Z</time>
      </trkpt>
      <trkpt lat="47.30272" lon="-1.31902">
        <ele>73</ele>
        <time>2014-11-16T09:15:07.000Z</time>
      </trkpt>
      <trkpt lat="47.3026" lon="-1.31901">
        <ele>74</ele>
        <time>2014-11-16T09:15:09.000Z</time>
      </trkpt>
      <trkpt lat="47.3026" lon="-1.31901">
        <ele>74</ele>
        <time>2014-11-16T09:15:11.000Z</time>
      </trkpt>
      <trkpt lat="47.30251" lon="-1.31901">
        <ele>78</ele>
        <time>2014-11-16T09:15:13.000Z</time>
      </trkpt>
      <trkpt lat="47.30245" lon="-1.319">
        <ele>79</ele>
        <time>2014-11-16T09:15:15.000Z</time>
      </trkpt>
      <trkpt lat="47.30245" lon="-1.319">
        <ele>79</ele>
        <time>2014-11-16T09:15:17.000Z</time>
      </trkpt>
      <trkpt lat="47.30238" lon="-1.31901">
        <ele>77</ele>
        <time>2014-11-16T09:15:19.000Z</time>
      </trkpt>
      <trkpt lat="47.30238" lon="-1.31901">
        <ele>77</ele>
        <time>2014-11-16T09:15:21.000Z</time>
      </trkpt>
      <trkpt lat="47.30231" lon="-1.31901">
        <ele>76</ele>
        <time>2014-11-16T09:15:23.000Z</time>
      </trkpt>
      <trkpt lat="47.30231" lon="-1.31901">
        <ele>76</ele>
        <time>2014-11-16T09:15:25.000Z</time>
      </trkpt>
      <trkpt lat="47.30231" lon="-1.31901">
        <ele>76</ele>
        <time>2014-11-16T09:15:27.000Z</time>
      </trkpt>
      <trkpt lat="47.30223" lon="-1.31902">
        <ele>77</ele>
        <time>2014-11-16T09:15:29.000Z</time>
      </trkpt>
      <trkpt lat="47.30215" lon="-1.31906">
        <ele>77</ele>
        <time>2014-11-16T09:15:33.000Z</time>
      </trkpt>
      <trkpt lat="47.30208" lon="-1.31907">
        <ele>77</ele>
        <time>2014-11-16T09:15:37.000Z</time>
      </trkpt>
      <trkpt lat="47.30208" lon="-1.31907">
        <ele>77</ele>
        <time>2014-11-16T09:15:39.000Z</time>
      </trkpt>
      <trkpt lat="47.30205" lon="-1.31907">
        <ele>79</ele>
        <time>2014-11-16T09:15:41.000Z</time>
      </trkpt>
      <trkpt lat="47.302" lon="-1.31906">
        <ele>78</ele>
        <time>2014-11-16T09:15:43.000Z</time>
      </trkpt>
      <trkpt lat="47.30195" lon="-1.31904">
        <ele>78</ele>
        <time>2014-11-16T09:15:45.000Z</time>
      </trkpt>
      <trkpt lat="47.3019" lon="-1.31899">
        <ele>76</ele>
        <time>2014-11-16T09:15:47.000Z</time>
      </trkpt>
      <trkpt lat="47.30185" lon="-1.31892">
        <ele>75</ele>
        <time>2014-11-16T09:15:49.000Z</time>
      </trkpt>
      <trkpt lat="47.30175" lon="-1.31881">
        <ele>74</ele>
        <time>2014-11-16T09:15:51.000Z</time>
      </trkpt>
      <trkpt lat="47.30169" lon="-1.3188">
        <ele>72</ele>
        <time>2014-11-16T09:15:53.000Z</time>
      </trkpt>
      <trkpt lat="47.30169" lon="-1.3188">
        <ele>72</ele>
        <time>2014-11-16T09:15:55.000Z</time>
      </trkpt>
      <trkpt lat="47.30164" lon="-1.31889">
        <ele>69</ele>
        <time>2014-11-16T09:15:57.000Z</time>
      </trkpt>
      <trkpt lat="47.30164" lon="-1.31889">
        <ele>69</ele>
        <time>2014-11-16T09:15:59.000Z</time>
      </trkpt>
      <trkpt lat="47.30162" lon="-1.31898">
        <ele>67</ele>
        <time>2014-11-16T09:16:01.000Z</time>
      </trkpt>
      <trkpt lat="47.30162" lon="-1.31898">
        <ele>67</ele>
        <time>2014-11-16T09:16:03.000Z</time>
      </trkpt>
      <trkpt lat="47.30158" lon="-1.31906">
        <ele>67</ele>
        <time>2014-11-16T09:16:05.000Z</time>
      </trkpt>
      <trkpt lat="47.30152" lon="-1.31913">
        <ele>67</ele>
        <time>2014-11-16T09:16:09.000Z</time>
      </trkpt>
      <trkpt lat="47.30147" lon="-1.3192">
        <ele>67</ele>
        <time>2014-11-16T09:16:13.000Z</time>
      </trkpt>
      <trkpt lat="47.30142" lon="-1.31927">
        <ele>67</ele>
        <time>2014-11-16T09:16:17.000Z</time>
      </trkpt>
      <trkpt lat="47.30142" lon="-1.31927">
        <ele>67</ele>
        <time>2014-11-16T09:16:19.000Z</time>
      </trkpt>
      <trkpt lat="47.30138" lon="-1.31933">
        <ele>67</ele>
        <time>2014-11-16T09:16:21.000Z</time>
      </trkpt>
      <trkpt lat="47.30138" lon="-1.31933">
        <ele>67</ele>
        <time>2014-11-16T09:16:23.000Z</time>
      </trkpt>
      <trkpt lat="47.30138" lon="-1.31933">
        <ele>67</ele>
        <time>2014-11-16T09:16:25.000Z</time>
      </trkpt>
      <trkpt lat="47.30138" lon="-1.31933">
        <ele>67</ele>
        <time>2014-11-16T09:16:27.000Z</time>
      </trkpt>
      <trkpt lat="47.30138" lon="-1.31933">
        <ele>67</ele>
        <time>2014-11-16T09:16:29.000Z</time>
      </trkpt>
      <trkpt lat="47.30138" lon="-1.31933">
        <ele>67</ele>
        <time>2014-11-16T09:16:31.000Z</time>
      </trkpt>
      <trkpt lat="47.30138" lon="-1.31933">
        <ele>67</ele>
        <time>2014-11-16T09:16:33.000Z</time>
      </trkpt>
      <trkpt lat="47.30138" lon="-1.31933">
        <ele>67</ele>
        <time>2014-11-16T09:16:35.000Z</time>
      </trkpt>
      <trkpt lat="47.30138" lon="-1.31933">
        <ele>67</ele>
        <time>2014-11-16T09:16:37.000Z</time>
      </trkpt>
      <trkpt lat="47.30138" lon="-1.31933">
        <ele>67</ele>
        <time>2014-11-16T09:16:39.000Z</time>
      </trkpt>
      <trkpt lat="47.30138" lon="-1.31933">
        <ele>67</ele>
        <time>2014-11-16T09:16:41.000Z</time>
      </trkpt>
      <trkpt lat="47.30138" lon="-1.31933">
        <ele>67</ele>
        <time>2014-11-16T09:16:43.000Z</time>
      </trkpt>
      <trkpt lat="47.3013" lon="-1.31941">
        <ele>70</ele>
        <time>2014-11-16T09:17:11.000Z</time>
      </trkpt>
      <trkpt lat="47.30125" lon="-1.31946">
        <ele>71</ele>
        <time>2014-11-16T09:17:13.000Z</time>
      </trkpt>
      <trkpt lat="47.30122" lon="-1.31949">
        <ele>71</ele>
        <time>2014-11-16T09:17:15.000Z</time>
      </trkpt>
      <trkpt lat="47.3012" lon="-1.31952">
        <ele>71</ele>
        <time>2014-11-16T09:17:17.000Z</time>
      </trkpt>
      <trkpt lat="47.30118" lon="-1.31955">
        <ele>73</ele>
        <time>2014-11-16T09:17:19.000Z</time>
      </trkpt>
      <trkpt lat="47.30111" lon="-1.31962">
        <ele>73</ele>
        <time>2014-11-16T09:17:23.000Z</time>
      </trkpt>
      <trkpt lat="47.30111" lon="-1.31962">
        <ele>73</ele>
        <time>2014-11-16T09:17:25.000Z</time>
      </trkpt>
      <trkpt lat="47.30111" lon="-1.31962">
        <ele>73</ele>
        <time>2014-11-16T09:17:27.000Z</time>
      </trkpt>
      <trkpt lat="47.30104" lon="-1.31967">
        <ele>74</ele>
        <time>2014-11-16T09:17:29.000Z</time>
      </trkpt>
      <trkpt lat="47.30104" lon="-1.31967">
        <ele>74</ele>
        <time>2014-11-16T09:17:31.000Z</time>
      </trkpt>
      <trkpt lat="47.30104" lon="-1.31967">
        <ele>74</ele>
        <time>2014-11-16T09:17:33.000Z</time>
      </trkpt>
      <trkpt lat="47.30099" lon="-1.31971">
        <ele>75</ele>
        <time>2014-11-16T09:17:35.000Z</time>
      </trkpt>
      <trkpt lat="47.30099" lon="-1.31971">
        <ele>75</ele>
        <time>2014-11-16T09:17:37.000Z</time>
      </trkpt>
      <trkpt lat="47.30099" lon="-1.31971">
        <ele>75</ele>
        <time>2014-11-16T09:17:39.000Z</time>
      </trkpt>
      <trkpt lat="47.30099" lon="-1.31971">
        <ele>75</ele>
        <time>2014-11-16T09:17:41.000Z</time>
      </trkpt>
      <trkpt lat="47.30093" lon="-1.31977">
        <ele>75</ele>
        <time>2014-11-16T09:17:43.000Z</time>
      </trkpt>
      <trkpt lat="47.30088" lon="-1.31981">
        <ele>78</ele>
        <time>2014-11-16T09:17:51.000Z</time>
      </trkpt>
      <trkpt lat="47.30088" lon="-1.31981">
        <ele>78</ele>
        <time>2014-11-16T09:17:53.000Z</time>
      </trkpt>
      <trkpt lat="47.30082" lon="-1.31982">
        <ele>80</ele>
        <time>2014-11-16T09:17:57.000Z</time>
      </trkpt>
      <trkpt lat="47.30082" lon="-1.31982">
        <ele>80</ele>
        <time>2014-11-16T09:18:01.000Z</time>
      </trkpt>
      <trkpt lat="47.30082" lon="-1.31982">
        <ele>80</ele>
        <time>2014-11-16T09:18:03.000Z</time>
      </trkpt>
      <trkpt lat="47.30075" lon="-1.31985">
        <ele>84</ele>
        <time>2014-11-16T09:18:05.000Z</time>
      </trkpt>
      <trkpt lat="47.30069" lon="-1.31988">
        <ele>84</ele>
        <time>2014-11-16T09:18:09.000Z</time>
      </trkpt>
      <trkpt lat="47.30069" lon="-1.31988">
        <ele>84</ele>
        <time>2014-11-16T09:18:11.000Z</time>
      </trkpt>
      <trkpt lat="47.30069" lon="-1.31988">
        <ele>84</ele>
        <time>2014-11-16T09:18:13.000Z</time>
      </trkpt>
      <trkpt lat="47.30069" lon="-1.31988">
        <ele>84</ele>
        <time>2014-11-16T09:18:15.000Z</time>
      </trkpt>
      <trkpt lat="47.30069" lon="-1.31988">
        <ele>84</ele>
        <time>2014-11-16T09:18:17.000Z</time>
      </trkpt>
      <trkpt lat="47.30069" lon="-1.31988">
        <ele>84</ele>
        <time>2014-11-16T09:18:19.000Z</time>
      </trkpt>
      <trkpt lat="47.30069" lon="-1.31988">
        <ele>84</ele>
        <time>2014-11-16T09:18:21.000Z</time>
      </trkpt>
      <trkpt lat="47.30058" lon="-1.31994">
        <ele>89</ele>
        <time>2014-11-16T09:18:33.000Z</time>
      </trkpt>
      <trkpt lat="47.30058" lon="-1.31994">
        <ele>89</ele>
        <time>2014-11-16T09:18:35.000Z</time>
      </trkpt>
      <trkpt lat="47.30058" lon="-1.31994">
        <ele>89</ele>
        <time>2014-11-16T09:18:37.000Z</time>
      </trkpt>
      <trkpt lat="47.30058" lon="-1.31994">
        <ele>89</ele>
        <time>2014-11-16T09:18:39.000Z</time>
      </trkpt>
      <trkpt lat="47.30054" lon="-1.31998">
        <ele>90</ele>
        <time>2014-11-16T09:18:43.000Z</time>
      </trkpt>
      <trkpt lat="47.30054" lon="-1.31998">
        <ele>90</ele>
        <time>2014-11-16T09:18:45.000Z</time>
      </trkpt>
      <trkpt lat="47.30054" lon="-1.31998">
        <ele>90</ele>
        <time>2014-11-16T09:18:47.000Z</time>
      </trkpt>
      <trkpt lat="47.30054" lon="-1.31998">
        <ele>90</ele>
        <time>2014-11-16T09:18:49.000Z</time>
      </trkpt>
      <trkpt lat="47.30048" lon="-1.31999">
        <ele>85</ele>
        <time>2014-11-16T09:18:53.000Z</time>
      </trkpt>
      <trkpt lat="47.30045" lon="-1.31998">
        <ele>84</ele>
        <time>2014-11-16T09:18:55.000Z</time>
      </trkpt>
      <trkpt lat="47.30045" lon="-1.31998">
        <ele>84</ele>
        <time>2014-11-16T09:18:57.000Z</time>
      </trkpt>
      <trkpt lat="47.30045" lon="-1.31998">
        <ele>84</ele>
        <time>2014-11-16T09:18:59.000Z</time>
      </trkpt>
      <trkpt lat="47.30045" lon="-1.31998">
        <ele>84</ele>
        <time>2014-11-16T09:19:01.000Z</time>
      </trkpt>
      <trkpt lat="47.30045" lon="-1.31998">
        <ele>84</ele>
        <time>2014-11-16T09:19:03.000Z</time>
      </trkpt>
      <trkpt lat="47.30045" lon="-1.31998">
        <ele>84</ele>
        <time>2014-11-16T09:19:05.000Z</time>
      </trkpt>
      <trkpt lat="47.30045" lon="-1.31998">
        <ele>84</ele>
        <time>2014-11-16T09:19:07.000Z</time>
      </trkpt>
      <trkpt lat="47.30045" lon="-1.31998">
        <ele>84</ele>
        <time>2014-11-16T09:19:09.000Z</time>
      </trkpt>
      <trkpt lat="47.30045" lon="-1.31998">
        <ele>84</ele>
        <time>2014-11-16T09:19:11.000Z</time>
      </trkpt>
      <trkpt lat="47.30048" lon="-1.31992">
        <ele>84</ele>
        <time>2014-11-16T09:19:21.000Z</time>
      </trkpt>
      <trkpt lat="47.30051" lon="-1.31985">
        <ele>84</ele>
        <time>2014-11-16T09:19:23.000Z</time>
      </trkpt>
      <trkpt lat="47.30055" lon="-1.31979">
        <ele>84</ele>
        <time>2014-11-16T09:19:25.000Z</time>
      </trkpt>
      <trkpt lat="47.30059" lon="-1.31974">
        <ele>84</ele>
        <time>2014-11-16T09:19:27.000Z</time>
      </trkpt>
      <trkpt lat="47.30062" lon="-1.3197">
        <ele>83</ele>
        <time>2014-11-16T09:19:29.000Z</time>
      </trkpt>
      <trkpt lat="47.30067" lon="-1.31962">
        <ele>84</ele>
        <time>2014-11-16T09:19:31.000Z</time>
      </trkpt>
      <trkpt lat="47.30067" lon="-1.31962">
        <ele>84</ele>
        <time>2014-11-16T09:19:33.000Z</time>
      </trkpt>
      <trkpt lat="47.30067" lon="-1.31962">
        <ele>84</ele>
        <time>2014-11-16T09:19:35.000Z</time>
      </trkpt>
      <trkpt lat="47.30067" lon="-1.31962">
        <ele>84</ele>
        <time>2014-11-16T09:19:37.000Z</time>
      </trkpt>
      <trkpt lat="47.30066" lon="-1.31952">
        <ele>83</ele>
        <time>2014-11-16T09:19:41.000Z</time>
      </trkpt>
      <trkpt lat="47.30061" lon="-1.31945">
        <ele>86</ele>
        <time>2014-11-16T09:19:47.000Z</time>
      </trkpt>
      <trkpt lat="47.30058" lon="-1.31932">
        <ele>87</ele>
        <time>2014-11-16T09:19:51.000Z</time>
      </trkpt>
      <trkpt lat="47.30058" lon="-1.31932">
        <ele>87</ele>
        <time>2014-11-16T09:19:53.000Z</time>
      </trkpt>
      <trkpt lat="47.30056" lon="-1.31922">
        <ele>87</ele>
        <time>2014-11-16T09:19:55.000Z</time>
      </trkpt>
      <trkpt lat="47.30053" lon="-1.3191">
        <ele>86</ele>
        <time>2014-11-16T09:19:59.000Z</time>
      </trkpt>
      <trkpt lat="47.3005" lon="-1.31896">
        <ele>85</ele>
        <time>2014-11-16T09:20:03.000Z</time>
      </trkpt>
      <trkpt lat="47.30048" lon="-1.31888">
        <ele>86</ele>
        <time>2014-11-16T09:20:05.000Z</time>
      </trkpt>
      <trkpt lat="47.30045" lon="-1.3188">
        <ele>86</ele>
        <time>2014-11-16T09:20:07.000Z</time>
      </trkpt>
      <trkpt lat="47.30042" lon="-1.31872">
        <ele>86</ele>
        <time>2014-11-16T09:20:09.000Z</time>
      </trkpt>
      <trkpt lat="47.30037" lon="-1.31866">
        <ele>84</ele>
        <time>2014-11-16T09:20:11.000Z</time>
      </trkpt>
      <trkpt lat="47.30033" lon="-1.3186">
        <ele>84</ele>
        <time>2014-11-16T09:20:13.000Z</time>
      </trkpt>
      <trkpt lat="47.30029" lon="-1.31855">
        <ele>85</ele>
        <time>2014-11-16T09:20:15.000Z</time>
      </trkpt>
      <trkpt lat="47.30024" lon="-1.31849">
        <ele>85</ele>
        <time>2014-11-16T09:20:17.000Z</time>
      </trkpt>
      <trkpt lat="47.30019" lon="-1.31844">
        <ele>84</ele>
        <time>2014-11-16T09:20:19.000Z</time>
      </trkpt>
      <trkpt lat="47.30015" lon="-1.31839">
        <ele>85</ele>
        <time>2014-11-16T09:20:21.000Z</time>
      </trkpt>
      <trkpt lat="47.30009" lon="-1.31836">
        <ele>85</ele>
        <time>2014-11-16T09:20:23.000Z</time>
      </trkpt>
      <trkpt lat="47.30003" lon="-1.31835">
        <ele>85</ele>
        <time>2014-11-16T09:20:25.000Z</time>
      </trkpt>
      <trkpt lat="47.29998" lon="-1.31834">
        <ele>85</ele>
        <time>2014-11-16T09:20:27.000Z</time>
      </trkpt>
      <trkpt lat="47.29992" lon="-1.31836">
        <ele>85</ele>
        <time>2014-11-16T09:20:29.000Z</time>
      </trkpt>
      <trkpt lat="47.29987" lon="-1.31839">
        <ele>86</ele>
        <time>2014-11-16T09:20:31.000Z</time>
      </trkpt>
      <trkpt lat="47.29981" lon="-1.31843">
        <ele>87</ele>
        <time>2014-11-16T09:20:33.000Z</time>
      </trkpt>
      <trkpt lat="47.29976" lon="-1.31847">
        <ele>87</ele>
        <time>2014-11-16T09:20:35.000Z</time>
      </trkpt>
      <trkpt lat="47.29971" lon="-1.31851">
        <ele>86</ele>
        <time>2014-11-16T09:20:37.000Z</time>
      </trkpt>
      <trkpt lat="47.29965" lon="-1.31854">
        <ele>87</ele>
        <time>2014-11-16T09:20:39.000Z</time>
      </trkpt>
      <trkpt lat="47.29955" lon="-1.31861">
        <ele>86</ele>
        <time>2014-11-16T09:20:43.000Z</time>
      </trkpt>
      <trkpt lat="47.29955" lon="-1.31861">
        <ele>86</ele>
        <time>2014-11-16T09:20:45.000Z</time>
      </trkpt>
      <trkpt lat="47.29944" lon="-1.31866">
        <ele>85</ele>
        <time>2014-11-16T09:20:47.000Z</time>
      </trkpt>
      <trkpt lat="47.29938" lon="-1.31869">
        <ele>86</ele>
        <time>2014-11-16T09:20:49.000Z</time>
      </trkpt>
      <trkpt lat="47.29932" lon="-1.31874">
        <ele>87</ele>
        <time>2014-11-16T09:20:51.000Z</time>
      </trkpt>
      <trkpt lat="47.29926" lon="-1.31879">
        <ele>87</ele>
        <time>2014-11-16T09:20:53.000Z</time>
      </trkpt>
      <trkpt lat="47.29921" lon="-1.31885">
        <ele>86</ele>
        <time>2014-11-16T09:20:55.000Z</time>
      </trkpt>
      <trkpt lat="47.29916" lon="-1.3189">
        <ele>85</ele>
        <time>2014-11-16T09:20:57.000Z</time>
      </trkpt>
      <trkpt lat="47.29916" lon="-1.3189">
        <ele>85</ele>
        <time>2014-11-16T09:20:59.000Z</time>
      </trkpt>
      <trkpt lat="47.29908" lon="-1.319">
        <ele>85</ele>
        <time>2014-11-16T09:21:01.000Z</time>
      </trkpt>
      <trkpt lat="47.29903" lon="-1.31905">
        <ele>83</ele>
        <time>2014-11-16T09:21:03.000Z</time>
      </trkpt>
      <trkpt lat="47.29898" lon="-1.31911">
        <ele>83</ele>
        <time>2014-11-16T09:21:05.000Z</time>
      </trkpt>
      <trkpt lat="47.29893" lon="-1.31918">
        <ele>83</ele>
        <time>2014-11-16T09:21:07.000Z</time>
      </trkpt>
      <trkpt lat="47.29893" lon="-1.31918">
        <ele>83</ele>
        <time>2014-11-16T09:21:09.000Z</time>
      </trkpt>
      <trkpt lat="47.29886" lon="-1.31928">
        <ele>83</ele>
        <time>2014-11-16T09:21:11.000Z</time>
      </trkpt>
      <trkpt lat="47.29886" lon="-1.31928">
        <ele>83</ele>
        <time>2014-11-16T09:21:13.000Z</time>
      </trkpt>
      <trkpt lat="47.29886" lon="-1.31938">
        <ele>87</ele>
        <time>2014-11-16T09:21:15.000Z</time>
      </trkpt>
      <trkpt lat="47.29886" lon="-1.31938">
        <ele>87</ele>
        <time>2014-11-16T09:21:17.000Z</time>
      </trkpt>
      <trkpt lat="47.29891" lon="-1.31944">
        <ele>89</ele>
        <time>2014-11-16T09:21:19.000Z</time>
      </trkpt>
      <trkpt lat="47.29891" lon="-1.31944">
        <ele>89</ele>
        <time>2014-11-16T09:21:21.000Z</time>
      </trkpt>
      <trkpt lat="47.29891" lon="-1.31944">
        <ele>89</ele>
        <time>2014-11-16T09:21:23.000Z</time>
      </trkpt>
      <trkpt lat="47.29895" lon="-1.31956">
        <ele>91</ele>
        <time>2014-11-16T09:21:25.000Z</time>
      </trkpt>
      <trkpt lat="47.29898" lon="-1.31966">
        <ele>92</ele>
        <time>2014-11-16T09:21:29.000Z</time>
      </trkpt>
      <trkpt lat="47.29902" lon="-1.31976">
        <ele>93</ele>
        <time>2014-11-16T09:21:33.000Z</time>
      </trkpt>
      <trkpt lat="47.29903" lon="-1.31985">
        <ele>95</ele>
        <time>2014-11-16T09:21:37.000Z</time>
      </trkpt>
      <trkpt lat="47.29903" lon="-1.31985">
        <ele>95</ele>
        <time>2014-11-16T09:21:39.000Z</time>
      </trkpt>
      <trkpt lat="47.29903" lon="-1.31985">
        <ele>95</ele>
        <time>2014-11-16T09:21:41.000Z</time>
      </trkpt>
      <trkpt lat="47.29903" lon="-1.31985">
        <ele>95</ele>
        <time>2014-11-16T09:21:43.000Z</time>
      </trkpt>
      <trkpt lat="47.29897" lon="-1.31984">
        <ele>91</ele>
        <time>2014-11-16T09:21:45.000Z</time>
      </trkpt>
      <trkpt lat="47.2989" lon="-1.31974">
        <ele>89</ele>
        <time>2014-11-16T09:21:49.000Z</time>
      </trkpt>
      <trkpt lat="47.29881" lon="-1.31979">
        <ele>91</ele>
        <time>2014-11-16T09:21:53.000Z</time>
      </trkpt>
      <trkpt lat="47.29873" lon="-1.31986">
        <ele>90</ele>
        <time>2014-11-16T09:21:57.000Z</time>
      </trkpt>
      <trkpt lat="47.29865" lon="-1.31992">
        <ele>91</ele>
        <time>2014-11-16T09:22:01.000Z</time>
      </trkpt>
      <trkpt lat="47.29865" lon="-1.31992">
        <ele>91</ele>
        <time>2014-11-16T09:22:03.000Z</time>
      </trkpt>
      <trkpt lat="47.29858" lon="-1.31997">
        <ele>93</ele>
        <time>2014-11-16T09:22:05.000Z</time>
      </trkpt>
      <trkpt lat="47.29858" lon="-1.31997">
        <ele>93</ele>
        <time>2014-11-16T09:22:07.000Z</time>
      </trkpt>
      <trkpt lat="47.29855" lon="-1.32">
        <ele>93</ele>
        <time>2014-11-16T09:22:09.000Z</time>
      </trkpt>
      <trkpt lat="47.29852" lon="-1.32002">
        <ele>93</ele>
        <time>2014-11-16T09:22:11.000Z</time>
      </trkpt>
      <trkpt lat="47.29849" lon="-1.32005">
        <ele>94</ele>
        <time>2014-11-16T09:22:13.000Z</time>
      </trkpt>
      <trkpt lat="47.29846" lon="-1.32007">
        <ele>94</ele>
        <time>2014-11-16T09:22:15.000Z</time>
      </trkpt>
      <trkpt lat="47.29844" lon="-1.32009">
        <ele>93</ele>
        <time>2014-11-16T09:22:17.000Z</time>
      </trkpt>
      <trkpt lat="47.29838" lon="-1.32012">
        <ele>93</ele>
        <time>2014-11-16T09:22:19.000Z</time>
      </trkpt>
      <trkpt lat="47.29838" lon="-1.32012">
        <ele>93</ele>
        <time>2014-11-16T09:22:21.000Z</time>
      </trkpt>
      <trkpt lat="47.29832" lon="-1.32017">
        <ele>93</ele>
        <time>2014-11-16T09:22:23.000Z</time>
      </trkpt>
      <trkpt lat="47.29826" lon="-1.32022">
        <ele>94</ele>
        <time>2014-11-16T09:22:27.000Z</time>
      </trkpt>
      <trkpt lat="47.29819" lon="-1.32026">
        <ele>94</ele>
        <time>2014-11-16T09:22:31.000Z</time>
      </trkpt>
      <trkpt lat="47.29814" lon="-1.3203">
        <ele>94</ele>
        <time>2014-11-16T09:22:35.000Z</time>
      </trkpt>
      <trkpt lat="47.29814" lon="-1.3203">
        <ele>94</ele>
        <time>2014-11-16T09:22:37.000Z</time>
      </trkpt>
      <trkpt lat="47.29809" lon="-1.32036">
        <ele>95</ele>
        <time>2014-11-16T09:22:39.000Z</time>
      </trkpt>
      <trkpt lat="47.29809" lon="-1.32036">
        <ele>95</ele>
        <time>2014-11-16T09:22:41.000Z</time>
      </trkpt>
      <trkpt lat="47.29804" lon="-1.32041">
        <ele>96</ele>
        <time>2014-11-16T09:22:43.000Z</time>
      </trkpt>
      <trkpt lat="47.29804" lon="-1.32041">
        <ele>96</ele>
        <time>2014-11-16T09:22:45.000Z</time>
      </trkpt>
      <trkpt lat="47.29798" lon="-1.32048">
        <ele>97</ele>
        <time>2014-11-16T09:22:47.000Z</time>
      </trkpt>
      <trkpt lat="47.29792" lon="-1.32055">
        <ele>97</ele>
        <time>2014-11-16T09:22:51.000Z</time>
      </trkpt>
      <trkpt lat="47.2979" lon="-1.32065">
        <ele>98</ele>
        <time>2014-11-16T09:22:55.000Z</time>
      </trkpt>
      <trkpt lat="47.2979" lon="-1.32065">
        <ele>98</ele>
        <time>2014-11-16T09:22:57.000Z</time>
      </trkpt>
      <trkpt lat="47.2979" lon="-1.32065">
        <ele>98</ele>
        <time>2014-11-16T09:22:59.000Z</time>
      </trkpt>
      <trkpt lat="47.29788" lon="-1.32075">
        <ele>97</ele>
        <time>2014-11-16T09:23:01.000Z</time>
      </trkpt>
      <trkpt lat="47.29788" lon="-1.32075">
        <ele>97</ele>
        <time>2014-11-16T09:23:03.000Z</time>
      </trkpt>
      <trkpt lat="47.29781" lon="-1.32077">
        <ele>98</ele>
        <time>2014-11-16T09:23:05.000Z</time>
      </trkpt>
      <trkpt lat="47.29774" lon="-1.32078">
        <ele>97</ele>
        <time>2014-11-16T09:23:09.000Z</time>
      </trkpt>
      <trkpt lat="47.29768" lon="-1.32081">
        <ele>100</ele>
        <time>2014-11-16T09:23:13.000Z</time>
      </trkpt>
      <trkpt lat="47.29768" lon="-1.32081">
        <ele>100</ele>
        <time>2014-11-16T09:23:15.000Z</time>
      </trkpt>
      <trkpt lat="47.29762" lon="-1.32085">
        <ele>100</ele>
        <time>2014-11-16T09:23:17.000Z</time>
      </trkpt>
      <trkpt lat="47.29753" lon="-1.32086">
        <ele>100</ele>
        <time>2014-11-16T09:23:21.000Z</time>
      </trkpt>
      <trkpt lat="47.29753" lon="-1.32086">
        <ele>100</ele>
        <time>2014-11-16T09:23:23.000Z</time>
      </trkpt>
      <trkpt lat="47.29753" lon="-1.32086">
        <ele>100</ele>
        <time>2014-11-16T09:23:25.000Z</time>
      </trkpt>
      <trkpt lat="47.29753" lon="-1.32086">
        <ele>100</ele>
        <time>2014-11-16T09:23:27.000Z</time>
      </trkpt>
      <trkpt lat="47.29753" lon="-1.32086">
        <ele>100</ele>
        <time>2014-11-16T09:23:29.000Z</time>
      </trkpt>
      <trkpt lat="47.29747" lon="-1.32086">
        <ele>99</ele>
        <time>2014-11-16T09:23:31.000Z</time>
      </trkpt>
      <trkpt lat="47.2974" lon="-1.32087">
        <ele>96</ele>
        <time>2014-11-16T09:23:37.000Z</time>
      </trkpt>
      <trkpt lat="47.29729" lon="-1.32091">
        <ele>94</ele>
        <time>2014-11-16T09:23:41.000Z</time>
      </trkpt>
      <trkpt lat="47.29722" lon="-1.32092">
        <ele>94</ele>
        <time>2014-11-16T09:23:45.000Z</time>
      </trkpt>
      <trkpt lat="47.29722" lon="-1.32092">
        <ele>94</ele>
        <time>2014-11-16T09:23:47.000Z</time>
      </trkpt>
      <trkpt lat="47.29722" lon="-1.32092">
        <ele>94</ele>
        <time>2014-11-16T09:23:49.000Z</time>
      </trkpt>
      <trkpt lat="47.29722" lon="-1.32092">
        <ele>94</ele>
        <time>2014-11-16T09:23:51.000Z</time>
      </trkpt>
      <trkpt lat="47.29722" lon="-1.32092">
        <ele>94</ele>
        <time>2014-11-16T09:23:53.000Z</time>
      </trkpt>
      <trkpt lat="47.29718" lon="-1.32094">
        <ele>95</ele>
        <time>2014-11-16T09:24:01.000Z</time>
      </trkpt>
      <trkpt lat="47.29715" lon="-1.32096">
        <ele>95</ele>
        <time>2014-11-16T09:24:03.000Z</time>
      </trkpt>
      <trkpt lat="47.29712" lon="-1.32098">
        <ele>95</ele>
        <time>2014-11-16T09:24:05.000Z</time>
      </trkpt>
      <trkpt lat="47.29712" lon="-1.32098">
        <ele>95</ele>
        <time>2014-11-16T09:24:07.000Z</time>
      </trkpt>
      <trkpt lat="47.29712" lon="-1.32098">
        <ele>95</ele>
        <time>2014-11-16T09:24:09.000Z</time>
      </trkpt>
      <trkpt lat="47.29708" lon="-1.32101">
        <ele>94</ele>
        <time>2014-11-16T09:24:15.000Z</time>
      </trkpt>
      <trkpt lat="47.29705" lon="-1.32102">
        <ele>95</ele>
        <time>2014-11-16T09:24:17.000Z</time>
      </trkpt>
      <trkpt lat="47.29702" lon="-1.32105">
        <ele>96</ele>
        <time>2014-11-16T09:24:21.000Z</time>
      </trkpt>
      <trkpt lat="47.29699" lon="-1.32106">
        <ele>97</ele>
        <time>2014-11-16T09:24:23.000Z</time>
      </trkpt>
      <trkpt lat="47.29696" lon="-1.32108">
        <ele>99</ele>
        <time>2014-11-16T09:24:27.000Z</time>
      </trkpt>
      <trkpt lat="47.29696" lon="-1.32108">
        <ele>99</ele>
        <time>2014-11-16T09:24:29.000Z</time>
      </trkpt>
      <trkpt lat="47.29692" lon="-1.32109">
        <ele>98</ele>
        <time>2014-11-16T09:24:31.000Z</time>
      </trkpt>
      <trkpt lat="47.29689" lon="-1.32111">
        <ele>99</ele>
        <time>2014-11-16T09:24:33.000Z</time>
      </trkpt>
      <trkpt lat="47.29686" lon="-1.32112">
        <ele>99</ele>
        <time>2014-11-16T09:24:35.000Z</time>
      </trkpt>
      <trkpt lat="47.29683" lon="-1.32114">
        <ele>100</ele>
        <time>2014-11-16T09:24:37.000Z</time>
      </trkpt>
      <trkpt lat="47.2968" lon="-1.32115">
        <ele>100</ele>
        <time>2014-11-16T09:24:39.000Z</time>
      </trkpt>
      <trkpt lat="47.29673" lon="-1.32119">
        <ele>100</ele>
        <time>2014-11-16T09:24:41.000Z</time>
      </trkpt>
      <trkpt lat="47.29666" lon="-1.32123">
        <ele>101</ele>
        <time>2014-11-16T09:24:45.000Z</time>
      </trkpt>
      <trkpt lat="47.29659" lon="-1.32127">
        <ele>104</ele>
        <time>2014-11-16T09:24:49.000Z</time>
      </trkpt>
      <trkpt lat="47.29652" lon="-1.3213">
        <ele>103</ele>
        <time>2014-11-16T09:24:53.000Z</time>
      </trkpt>
      <trkpt lat="47.29644" lon="-1.32135">
        <ele>105</ele>
        <time>2014-11-16T09:24:57.000Z</time>
      </trkpt>
      <trkpt lat="47.29638" lon="-1.32139">
        <ele>105</ele>
        <time>2014-11-16T09:25:01.000Z</time>
      </trkpt>
      <trkpt lat="47.29638" lon="-1.32139">
        <ele>105</ele>
        <time>2014-11-16T09:25:03.000Z</time>
      </trkpt>
      <trkpt lat="47.29632" lon="-1.32139">
        <ele>106</ele>
        <time>2014-11-16T09:25:05.000Z</time>
      </trkpt>
      <trkpt lat="47.29632" lon="-1.32139">
        <ele>106</ele>
        <time>2014-11-16T09:25:07.000Z</time>
      </trkpt>
      <trkpt lat="47.29632" lon="-1.32139">
        <ele>106</ele>
        <time>2014-11-16T09:25:09.000Z</time>
      </trkpt>
      <trkpt lat="47.29627" lon="-1.32134">
        <ele>105</ele>
        <time>2014-11-16T09:25:11.000Z</time>
      </trkpt>
      <trkpt lat="47.29627" lon="-1.32134">
        <ele>105</ele>
        <time>2014-11-16T09:25:13.000Z</time>
      </trkpt>
      <trkpt lat="47.29625" lon="-1.32122">
        <ele>104</ele>
        <time>2014-11-16T09:25:17.000Z</time>
      </trkpt>
      <trkpt lat="47.29621" lon="-1.32109">
        <ele>104</ele>
        <time>2014-11-16T09:25:21.000Z</time>
      </trkpt>
      <trkpt lat="47.29619" lon="-1.32101">
        <ele>103</ele>
        <time>2014-11-16T09:25:23.000Z</time>
      </trkpt>
      <trkpt lat="47.29616" lon="-1.32094">
        <ele>103</ele>
        <time>2014-11-16T09:25:25.000Z</time>
      </trkpt>
      <trkpt lat="47.29609" lon="-1.32083">
        <ele>101</ele>
        <time>2014-11-16T09:25:29.000Z</time>
      </trkpt>
      <trkpt lat="47.29609" lon="-1.32083">
        <ele>101</ele>
        <time>2014-11-16T09:25:31.000Z</time>
      </trkpt>
      <trkpt lat="47.296" lon="-1.32086">
        <ele>101</ele>
        <time>2014-11-16T09:25:33.000Z</time>
      </trkpt>
      <trkpt lat="47.296" lon="-1.32086">
        <ele>101</ele>
        <time>2014-11-16T09:25:35.000Z</time>
      </trkpt>
      <trkpt lat="47.29593" lon="-1.32093">
        <ele>100</ele>
        <time>2014-11-16T09:25:37.000Z</time>
      </trkpt>
      <trkpt lat="47.29593" lon="-1.32093">
        <ele>100</ele>
        <time>2014-11-16T09:25:39.000Z</time>
      </trkpt>
      <trkpt lat="47.29593" lon="-1.32093">
        <ele>100</ele>
        <time>2014-11-16T09:25:41.000Z</time>
      </trkpt>
      <trkpt lat="47.29588" lon="-1.32097">
        <ele>101</ele>
        <time>2014-11-16T09:25:43.000Z</time>
      </trkpt>
      <trkpt lat="47.29588" lon="-1.32097">
        <ele>101</ele>
        <time>2014-11-16T09:25:45.000Z</time>
      </trkpt>
      <trkpt lat="47.29591" lon="-1.32087">
        <ele>100</ele>
        <time>2014-11-16T09:25:53.000Z</time>
      </trkpt>
      <trkpt lat="47.29601" lon="-1.32082">
        <ele>100</ele>
        <time>2014-11-16T09:25:57.000Z</time>
      </trkpt>
      <trkpt lat="47.29606" lon="-1.32079">
        <ele>99</ele>
        <time>2014-11-16T09:25:59.000Z</time>
      </trkpt>
      <trkpt lat="47.29612" lon="-1.32075">
        <ele>98</ele>
        <time>2014-11-16T09:26:01.000Z</time>
      </trkpt>
      <trkpt lat="47.29619" lon="-1.32071">
        <ele>97</ele>
        <time>2014-11-16T09:26:03.000Z</time>
      </trkpt>
      <trkpt lat="47.29625" lon="-1.32067">
        <ele>97</ele>
        <time>2014-11-16T09:26:05.000Z</time>
      </trkpt>
      <trkpt lat="47.29631" lon="-1.32063">
        <ele>96</ele>
        <time>2014-11-16T09:26:07.000Z</time>
      </trkpt>
      <trkpt lat="47.29631" lon="-1.32063">
        <ele>96</ele>
        <time>2014-11-16T09:26:09.000Z</time>
      </trkpt>
      <trkpt lat="47.29634" lon="-1.32053">
        <ele>97</ele>
        <time>2014-11-16T09:26:11.000Z</time>
      </trkpt>
      <trkpt lat="47.29634" lon="-1.32053">
        <ele>97</ele>
        <time>2014-11-16T09:26:13.000Z</time>
      </trkpt>
      <trkpt lat="47.29632" lon="-1.32045">
        <ele>99</ele>
        <time>2014-11-16T09:26:15.000Z</time>
      </trkpt>
      <trkpt lat="47.29632" lon="-1.32045">
        <ele>99</ele>
        <time>2014-11-16T09:26:17.000Z</time>
      </trkpt>
      <trkpt lat="47.29632" lon="-1.32045">
        <ele>99</ele>
        <time>2014-11-16T09:26:19.000Z</time>
      </trkpt>
      <trkpt lat="47.29628" lon="-1.32035">
        <ele>100</ele>
        <time>2014-11-16T09:26:21.000Z</time>
      </trkpt>
      <trkpt lat="47.29628" lon="-1.32035">
        <ele>100</ele>
        <time>2014-11-16T09:26:23.000Z</time>
      </trkpt>
      <trkpt lat="47.29622" lon="-1.32036">
        <ele>100</ele>
        <time>2014-11-16T09:26:25.000Z</time>
      </trkpt>
      <trkpt lat="47.29614" lon="-1.32039">
        <ele>101</ele>
        <time>2014-11-16T09:26:29.000Z</time>
      </trkpt>
      <trkpt lat="47.29608" lon="-1.32039">
        <ele>101</ele>
        <time>2014-11-16T09:26:33.000Z</time>
      </trkpt>
      <trkpt lat="47.29608" lon="-1.32039">
        <ele>101</ele>
        <time>2014-11-16T09:26:35.000Z</time>
      </trkpt>
      <trkpt lat="47.29601" lon="-1.32041">
        <ele>102</ele>
        <time>2014-11-16T09:26:37.000Z</time>
      </trkpt>
      <trkpt lat="47.29598" lon="-1.32042">
        <ele>103</ele>
        <time>2014-11-16T09:26:41.000Z</time>
      </trkpt>
      <trkpt lat="47.29595" lon="-1.32043">
        <ele>104</ele>
        <time>2014-11-16T09:26:43.000Z</time>
      </trkpt>
      <trkpt lat="47.29591" lon="-1.32043">
        <ele>105</ele>
        <time>2014-11-16T09:26:45.000Z</time>
      </trkpt>
      <trkpt lat="47.29588" lon="-1.32044">
        <ele>105</ele>
        <time>2014-11-16T09:26:47.000Z</time>
      </trkpt>
      <trkpt lat="47.29585" lon="-1.32044">
        <ele>105</ele>
        <time>2014-11-16T09:26:49.000Z</time>
      </trkpt>
      <trkpt lat="47.29585" lon="-1.32044">
        <ele>105</ele>
        <time>2014-11-16T09:26:51.000Z</time>
      </trkpt>
      <trkpt lat="47.29585" lon="-1.32044">
        <ele>105</ele>
        <time>2014-11-16T09:26:53.000Z</time>
      </trkpt>
      <trkpt lat="47.29585" lon="-1.32044">
        <ele>105</ele>
        <time>2014-11-16T09:26:55.000Z</time>
      </trkpt>
      <trkpt lat="47.29585" lon="-1.32044">
        <ele>105</ele>
        <time>2014-11-16T09:26:57.000Z</time>
      </trkpt>
      <trkpt lat="47.29591" lon="-1.32039">
        <ele>104</ele>
        <time>2014-11-16T09:27:01.000Z</time>
      </trkpt>
      <trkpt lat="47.29597" lon="-1.32038">
        <ele>104</ele>
        <time>2014-11-16T09:27:05.000Z</time>
      </trkpt>
      <trkpt lat="47.29603" lon="-1.32036">
        <ele>102</ele>
        <time>2014-11-16T09:27:09.000Z</time>
      </trkpt>
      <trkpt lat="47.2961" lon="-1.32034">
        <ele>102</ele>
        <time>2014-11-16T09:27:13.000Z</time>
      </trkpt>
      <trkpt lat="47.29616" lon="-1.32032">
        <ele>103</ele>
        <time>2014-11-16T09:27:17.000Z</time>
      </trkpt>
      <trkpt lat="47.29622" lon="-1.32031">
        <ele>102</ele>
        <time>2014-11-16T09:27:21.000Z</time>
      </trkpt>
      <trkpt lat="47.29622" lon="-1.32031">
        <ele>102</ele>
        <time>2014-11-16T09:27:23.000Z</time>
      </trkpt>
      <trkpt lat="47.29628" lon="-1.32028">
        <ele>101</ele>
        <time>2014-11-16T09:27:25.000Z</time>
      </trkpt>
      <trkpt lat="47.29634" lon="-1.32019">
        <ele>99</ele>
        <time>2014-11-16T09:27:29.000Z</time>
      </trkpt>
      <trkpt lat="47.29633" lon="-1.32003">
        <ele>99</ele>
        <time>2014-11-16T09:27:33.000Z</time>
      </trkpt>
      <trkpt lat="47.29633" lon="-1.31987">
        <ele>98</ele>
        <time>2014-11-16T09:27:37.000Z</time>
      </trkpt>
      <trkpt lat="47.2963" lon="-1.31971">
        <ele>96</ele>
        <time>2014-11-16T09:27:41.000Z</time>
      </trkpt>
      <trkpt lat="47.29626" lon="-1.31963">
        <ele>96</ele>
        <time>2014-11-16T09:27:43.000Z</time>
      </trkpt>
      <trkpt lat="47.29621" lon="-1.31957">
        <ele>97</ele>
        <time>2014-11-16T09:27:45.000Z</time>
      </trkpt>
      <trkpt lat="47.29616" lon="-1.31952">
        <ele>96</ele>
        <time>2014-11-16T09:27:47.000Z</time>
      </trkpt>
      <trkpt lat="47.29611" lon="-1.31947">
        <ele>97</ele>
        <time>2014-11-16T09:27:49.000Z</time>
      </trkpt>
      <trkpt lat="47.29604" lon="-1.31942">
        <ele>98</ele>
        <time>2014-11-16T09:27:51.000Z</time>
      </trkpt>
      <trkpt lat="47.29598" lon="-1.31938">
        <ele>98</ele>
        <time>2014-11-16T09:27:53.000Z</time>
      </trkpt>
      <trkpt lat="47.29592" lon="-1.31935">
        <ele>98</ele>
        <time>2014-11-16T09:27:55.000Z</time>
      </trkpt>
      <trkpt lat="47.29587" lon="-1.31931">
        <ele>99</ele>
        <time>2014-11-16T09:27:57.000Z</time>
      </trkpt>
      <trkpt lat="47.29587" lon="-1.31931">
        <ele>99</ele>
        <time>2014-11-16T09:27:59.000Z</time>
      </trkpt>
      <trkpt lat="47.29582" lon="-1.31916">
        <ele>99</ele>
        <time>2014-11-16T09:28:01.000Z</time>
      </trkpt>
      <trkpt lat="47.29582" lon="-1.31916">
        <ele>99</ele>
        <time>2014-11-16T09:28:03.000Z</time>
      </trkpt>
      <trkpt lat="47.29585" lon="-1.319">
        <ele>100</ele>
        <time>2014-11-16T09:28:05.000Z</time>
      </trkpt>
      <trkpt lat="47.29585" lon="-1.319">
        <ele>100</ele>
        <time>2014-11-16T09:28:07.000Z</time>
      </trkpt>
      <trkpt lat="47.29587" lon="-1.31885">
        <ele>101</ele>
        <time>2014-11-16T09:28:09.000Z</time>
      </trkpt>
      <trkpt lat="47.29587" lon="-1.31885">
        <ele>101</ele>
        <time>2014-11-16T09:28:11.000Z</time>
      </trkpt>
      <trkpt lat="47.29591" lon="-1.31871">
        <ele>100</ele>
        <time>2014-11-16T09:28:13.000Z</time>
      </trkpt>
      <trkpt lat="47.29591" lon="-1.31871">
        <ele>100</ele>
        <time>2014-11-16T09:28:15.000Z</time>
      </trkpt>
      <trkpt lat="47.29596" lon="-1.3186">
        <ele>101</ele>
        <time>2014-11-16T09:28:17.000Z</time>
      </trkpt>
      <trkpt lat="47.29596" lon="-1.3186">
        <ele>101</ele>
        <time>2014-11-16T09:28:19.000Z</time>
      </trkpt>
      <trkpt lat="47.29599" lon="-1.31848">
        <ele>101</ele>
        <time>2014-11-16T09:28:21.000Z</time>
      </trkpt>
      <trkpt lat="47.29598" lon="-1.31833">
        <ele>101</ele>
        <time>2014-11-16T09:28:25.000Z</time>
      </trkpt>
      <trkpt lat="47.29598" lon="-1.31819">
        <ele>100</ele>
        <time>2014-11-16T09:28:29.000Z</time>
      </trkpt>
      <trkpt lat="47.29599" lon="-1.31802">
        <ele>98</ele>
        <time>2014-11-16T09:28:33.000Z</time>
      </trkpt>
      <trkpt lat="47.296" lon="-1.31791">
        <ele>97</ele>
        <time>2014-11-16T09:28:35.000Z</time>
      </trkpt>
      <trkpt lat="47.296" lon="-1.31779">
        <ele>96</ele>
        <time>2014-11-16T09:28:37.000Z</time>
      </trkpt>
      <trkpt lat="47.29599" lon="-1.31765">
        <ele>96</ele>
        <time>2014-11-16T09:28:39.000Z</time>
      </trkpt>
      <trkpt lat="47.29599" lon="-1.31752">
        <ele>97</ele>
        <time>2014-11-16T09:28:41.000Z</time>
      </trkpt>
      <trkpt lat="47.29597" lon="-1.3174">
        <ele>97</ele>
        <time>2014-11-16T09:28:43.000Z</time>
      </trkpt>
      <trkpt lat="47.29597" lon="-1.31726">
        <ele>97</ele>
        <time>2014-11-16T09:28:45.000Z</time>
      </trkpt>
      <trkpt lat="47.29597" lon="-1.31712">
        <ele>96</ele>
        <time>2014-11-16T09:28:47.000Z</time>
      </trkpt>
      <trkpt lat="47.29596" lon="-1.31697">
        <ele>96</ele>
        <time>2014-11-16T09:28:49.000Z</time>
      </trkpt>
      <trkpt lat="47.29597" lon="-1.31686">
        <ele>96</ele>
        <time>2014-11-16T09:28:51.000Z</time>
      </trkpt>
      <trkpt lat="47.29599" lon="-1.31672">
        <ele>96</ele>
        <time>2014-11-16T09:28:53.000Z</time>
      </trkpt>
      <trkpt lat="47.296" lon="-1.3166">
        <ele>96</ele>
        <time>2014-11-16T09:28:55.000Z</time>
      </trkpt>
      <trkpt lat="47.296" lon="-1.31651">
        <ele>98</ele>
        <time>2014-11-16T09:28:57.000Z</time>
      </trkpt>
      <trkpt lat="47.29601" lon="-1.3164">
        <ele>98</ele>
        <time>2014-11-16T09:28:59.000Z</time>
      </trkpt>
      <trkpt lat="47.29601" lon="-1.3163">
        <ele>99</ele>
        <time>2014-11-16T09:29:01.000Z</time>
      </trkpt>
      <trkpt lat="47.296" lon="-1.3162">
        <ele>99</ele>
        <time>2014-11-16T09:29:03.000Z</time>
      </trkpt>
      <trkpt lat="47.29599" lon="-1.31611">
        <ele>99</ele>
        <time>2014-11-16T09:29:05.000Z</time>
      </trkpt>
      <trkpt lat="47.29599" lon="-1.31603">
        <ele>100</ele>
        <time>2014-11-16T09:29:07.000Z</time>
      </trkpt>
      <trkpt lat="47.29599" lon="-1.31603">
        <ele>100</ele>
        <time>2014-11-16T09:29:09.000Z</time>
      </trkpt>
      <trkpt lat="47.29599" lon="-1.31589">
        <ele>99</ele>
        <time>2014-11-16T09:29:11.000Z</time>
      </trkpt>
      <trkpt lat="47.29599" lon="-1.31589">
        <ele>99</ele>
        <time>2014-11-16T09:29:13.000Z</time>
      </trkpt>
      <trkpt lat="47.29598" lon="-1.31578">
        <ele>101</ele>
        <time>2014-11-16T09:29:15.000Z</time>
      </trkpt>
      <trkpt lat="47.29598" lon="-1.31578">
        <ele>101</ele>
        <time>2014-11-16T09:29:17.000Z</time>
      </trkpt>
      <trkpt lat="47.29596" lon="-1.31567">
        <ele>101</ele>
        <time>2014-11-16T09:29:19.000Z</time>
      </trkpt>
      <trkpt lat="47.29588" lon="-1.31557">
        <ele>103</ele>
        <time>2014-11-16T09:29:23.000Z</time>
      </trkpt>
      <trkpt lat="47.29583" lon="-1.31556">
        <ele>102</ele>
        <time>2014-11-16T09:29:25.000Z</time>
      </trkpt>
      <trkpt lat="47.29577" lon="-1.31556">
        <ele>101</ele>
        <time>2014-11-16T09:29:27.000Z</time>
      </trkpt>
      <trkpt lat="47.29571" lon="-1.31557">
        <ele>102</ele>
        <time>2014-11-16T09:29:29.000Z</time>
      </trkpt>
      <trkpt lat="47.29564" lon="-1.31559">
        <ele>103</ele>
        <time>2014-11-16T09:29:31.000Z</time>
      </trkpt>
      <trkpt lat="47.29558" lon="-1.31561">
        <ele>104</ele>
        <time>2014-11-16T09:29:33.000Z</time>
      </trkpt>
      <trkpt lat="47.29552" lon="-1.31563">
        <ele>104</ele>
        <time>2014-11-16T09:29:35.000Z</time>
      </trkpt>
      <trkpt lat="47.29546" lon="-1.31565">
        <ele>104</ele>
        <time>2014-11-16T09:29:37.000Z</time>
      </trkpt>
      <trkpt lat="47.29539" lon="-1.31567">
        <ele>105</ele>
        <time>2014-11-16T09:29:39.000Z</time>
      </trkpt>
      <trkpt lat="47.29533" lon="-1.31569">
        <ele>106</ele>
        <time>2014-11-16T09:29:41.000Z</time>
      </trkpt>
      <trkpt lat="47.29528" lon="-1.31571">
        <ele>107</ele>
        <time>2014-11-16T09:29:43.000Z</time>
      </trkpt>
      <trkpt lat="47.29528" lon="-1.31571">
        <ele>107</ele>
        <time>2014-11-16T09:29:45.000Z</time>
      </trkpt>
      <trkpt lat="47.29517" lon="-1.31574">
        <ele>108</ele>
        <time>2014-11-16T09:29:47.000Z</time>
      </trkpt>
      <trkpt lat="47.29512" lon="-1.31577">
        <ele>108</ele>
        <time>2014-11-16T09:29:49.000Z</time>
      </trkpt>
      <trkpt lat="47.29506" lon="-1.31579">
        <ele>108</ele>
        <time>2014-11-16T09:29:51.000Z</time>
      </trkpt>
      <trkpt lat="47.29501" lon="-1.31581">
        <ele>109</ele>
        <time>2014-11-16T09:29:53.000Z</time>
      </trkpt>
      <trkpt lat="47.29494" lon="-1.31584">
        <ele>110</ele>
        <time>2014-11-16T09:29:55.000Z</time>
      </trkpt>
      <trkpt lat="47.29488" lon="-1.31586">
        <ele>109</ele>
        <time>2014-11-16T09:29:57.000Z</time>
      </trkpt>
      <trkpt lat="47.29483" lon="-1.31589">
        <ele>109</ele>
        <time>2014-11-16T09:29:59.000Z</time>
      </trkpt>
      <trkpt lat="47.29477" lon="-1.31593">
        <ele>110</ele>
        <time>2014-11-16T09:30:01.000Z</time>
      </trkpt>
      <trkpt lat="47.29472" lon="-1.31597">
        <ele>110</ele>
        <time>2014-11-16T09:30:03.000Z</time>
      </trkpt>
      <trkpt lat="47.29466" lon="-1.31599">
        <ele>111</ele>
        <time>2014-11-16T09:30:05.000Z</time>
      </trkpt>
      <trkpt lat="47.2946" lon="-1.316">
        <ele>111</ele>
        <time>2014-11-16T09:30:07.000Z</time>
      </trkpt>
      <trkpt lat="47.29454" lon="-1.31597">
        <ele>112</ele>
        <time>2014-11-16T09:30:09.000Z</time>
      </trkpt>
      <trkpt lat="47.29449" lon="-1.31592">
        <ele>112</ele>
        <time>2014-11-16T09:30:11.000Z</time>
      </trkpt>
      <trkpt lat="47.29446" lon="-1.31584">
        <ele>113</ele>
        <time>2014-11-16T09:30:13.000Z</time>
      </trkpt>
      <trkpt lat="47.29443" lon="-1.31576">
        <ele>113</ele>
        <time>2014-11-16T09:30:15.000Z</time>
      </trkpt>
      <trkpt lat="47.29439" lon="-1.31569">
        <ele>113</ele>
        <time>2014-11-16T09:30:17.000Z</time>
      </trkpt>
      <trkpt lat="47.29433" lon="-1.31566">
        <ele>113</ele>
        <time>2014-11-16T09:30:19.000Z</time>
      </trkpt>
      <trkpt lat="47.29427" lon="-1.31568">
        <ele>113</ele>
        <time>2014-11-16T09:30:21.000Z</time>
      </trkpt>
      <trkpt lat="47.2942" lon="-1.31571">
        <ele>113</ele>
        <time>2014-11-16T09:30:23.000Z</time>
      </trkpt>
      <trkpt lat="47.29413" lon="-1.31573">
        <ele>113</ele>
        <time>2014-11-16T09:30:25.000Z</time>
      </trkpt>
      <trkpt lat="47.29406" lon="-1.31576">
        <ele>113</ele>
        <time>2014-11-16T09:30:27.000Z</time>
      </trkpt>
      <trkpt lat="47.29398" lon="-1.3158">
        <ele>114</ele>
        <time>2014-11-16T09:30:29.000Z</time>
      </trkpt>
      <trkpt lat="47.2939" lon="-1.31583">
        <ele>114</ele>
        <time>2014-11-16T09:30:31.000Z</time>
      </trkpt>
      <trkpt lat="47.29381" lon="-1.31586">
        <ele>114</ele>
        <time>2014-11-16T09:30:33.000Z</time>
      </trkpt>
      <trkpt lat="47.29373" lon="-1.31588">
        <ele>115</ele>
        <time>2014-11-16T09:30:35.000Z</time>
      </trkpt>
      <trkpt lat="47.29365" lon="-1.31591">
        <ele>114</ele>
        <time>2014-11-16T09:30:37.000Z</time>
      </trkpt>
      <trkpt lat="47.29357" lon="-1.31594">
        <ele>115</ele>
        <time>2014-11-16T09:30:39.000Z</time>
      </trkpt>
      <trkpt lat="47.2935" lon="-1.31597">
        <ele>115</ele>
        <time>2014-11-16T09:30:41.000Z</time>
      </trkpt>
      <trkpt lat="47.29342" lon="-1.316">
        <ele>115</ele>
        <time>2014-11-16T09:30:43.000Z</time>
      </trkpt>
      <trkpt lat="47.29334" lon="-1.31602">
        <ele>116</ele>
        <time>2014-11-16T09:30:45.000Z</time>
      </trkpt>
      <trkpt lat="47.29326" lon="-1.31603">
        <ele>116</ele>
        <time>2014-11-16T09:30:47.000Z</time>
      </trkpt>
      <trkpt lat="47.29317" lon="-1.31605">
        <ele>116</ele>
        <time>2014-11-16T09:30:49.000Z</time>
      </trkpt>
      <trkpt lat="47.29309" lon="-1.31607">
        <ele>115</ele>
        <time>2014-11-16T09:30:51.000Z</time>
      </trkpt>
      <trkpt lat="47.29299" lon="-1.31606">
        <ele>114</ele>
        <time>2014-11-16T09:30:53.000Z</time>
      </trkpt>
      <trkpt lat="47.29289" lon="-1.31608">
        <ele>115</ele>
        <time>2014-11-16T09:30:55.000Z</time>
      </trkpt>
      <trkpt lat="47.2928" lon="-1.31609">
        <ele>116</ele>
        <time>2014-11-16T09:30:57.000Z</time>
      </trkpt>
      <trkpt lat="47.29268" lon="-1.31612">
        <ele>116</ele>
        <time>2014-11-16T09:30:59.000Z</time>
      </trkpt>
      <trkpt lat="47.29259" lon="-1.31611">
        <ele>117</ele>
        <time>2014-11-16T09:31:01.000Z</time>
      </trkpt>
      <trkpt lat="47.29248" lon="-1.31613">
        <ele>116</ele>
        <time>2014-11-16T09:31:03.000Z</time>
      </trkpt>
      <trkpt lat="47.29236" lon="-1.31614">
        <ele>116</ele>
        <time>2014-11-16T09:31:05.000Z</time>
      </trkpt>
      <trkpt lat="47.29226" lon="-1.31618">
        <ele>116</ele>
        <time>2014-11-16T09:31:07.000Z</time>
      </trkpt>
      <trkpt lat="47.29215" lon="-1.31624">
        <ele>116</ele>
        <time>2014-11-16T09:31:09.000Z</time>
      </trkpt>
      <trkpt lat="47.29203" lon="-1.31632">
        <ele>114</ele>
        <time>2014-11-16T09:31:11.000Z</time>
      </trkpt>
      <trkpt lat="47.29193" lon="-1.31641">
        <ele>113</ele>
        <time>2014-11-16T09:31:13.000Z</time>
      </trkpt>
      <trkpt lat="47.29182" lon="-1.31647">
        <ele>112</ele>
        <time>2014-11-16T09:31:15.000Z</time>
      </trkpt>
      <trkpt lat="47.29172" lon="-1.31656">
        <ele>113</ele>
        <time>2014-11-16T09:31:17.000Z</time>
      </trkpt>
      <trkpt lat="47.29163" lon="-1.31663">
        <ele>113</ele>
        <time>2014-11-16T09:31:19.000Z</time>
      </trkpt>
      <trkpt lat="47.29154" lon="-1.31668">
        <ele>114</ele>
        <time>2014-11-16T09:31:21.000Z</time>
      </trkpt>
      <trkpt lat="47.29143" lon="-1.31674">
        <ele>111</ele>
        <time>2014-11-16T09:31:23.000Z</time>
      </trkpt>
      <trkpt lat="47.29133" lon="-1.31682">
        <ele>112</ele>
        <time>2014-11-16T09:31:25.000Z</time>
      </trkpt>
      <trkpt lat="47.29124" lon="-1.3169">
        <ele>111</ele>
        <time>2014-11-16T09:31:27.000Z</time>
      </trkpt>
      <trkpt lat="47.29114" lon="-1.317">
        <ele>111</ele>
        <time>2014-11-16T09:31:29.000Z</time>
      </trkpt>
      <trkpt lat="47.29105" lon="-1.31711">
        <ele>112</ele>
        <time>2014-11-16T09:31:31.000Z</time>
      </trkpt>
      <trkpt lat="47.29095" lon="-1.31722">
        <ele>111</ele>
        <time>2014-11-16T09:31:33.000Z</time>
      </trkpt>
      <trkpt lat="47.29087" lon="-1.31733">
        <ele>109</ele>
        <time>2014-11-16T09:31:35.000Z</time>
      </trkpt>
      <trkpt lat="47.29079" lon="-1.31742">
        <ele>108</ele>
        <time>2014-11-16T09:31:37.000Z</time>
      </trkpt>
      <trkpt lat="47.29068" lon="-1.31739">
        <ele>109</ele>
        <time>2014-11-16T09:31:39.000Z</time>
      </trkpt>
      <trkpt lat="47.29062" lon="-1.3173">
        <ele>110</ele>
        <time>2014-11-16T09:31:41.000Z</time>
      </trkpt>
      <trkpt lat="47.29057" lon="-1.31718">
        <ele>110</ele>
        <time>2014-11-16T09:31:43.000Z</time>
      </trkpt>
      <trkpt lat="47.2905" lon="-1.31705">
        <ele>109</ele>
        <time>2014-11-16T09:31:45.000Z</time>
      </trkpt>
      <trkpt lat="47.29044" lon="-1.31691">
        <ele>109</ele>
        <time>2014-11-16T09:31:47.000Z</time>
      </trkpt>
      <trkpt lat="47.29037" lon="-1.31679">
        <ele>110</ele>
        <time>2014-11-16T09:31:49.000Z</time>
      </trkpt>
      <trkpt lat="47.29033" lon="-1.31665">
        <ele>109</ele>
        <time>2014-11-16T09:31:51.000Z</time>
      </trkpt>
      <trkpt lat="47.29025" lon="-1.31652">
        <ele>109</ele>
        <time>2014-11-16T09:31:53.000Z</time>
      </trkpt>
      <trkpt lat="47.29015" lon="-1.31646">
        <ele>109</ele>
        <time>2014-11-16T09:31:55.000Z</time>
      </trkpt>
      <trkpt lat="47.29005" lon="-1.3164">
        <ele>108</ele>
        <time>2014-11-16T09:31:57.000Z</time>
      </trkpt>
      <trkpt lat="47.28997" lon="-1.31634">
        <ele>109</ele>
        <time>2014-11-16T09:31:59.000Z</time>
      </trkpt>
      <trkpt lat="47.28989" lon="-1.31626">
        <ele>107</ele>
        <time>2014-11-16T09:32:01.000Z</time>
      </trkpt>
      <trkpt lat="47.28982" lon="-1.31621">
        <ele>106</ele>
        <time>2014-11-16T09:32:03.000Z</time>
      </trkpt>
      <trkpt lat="47.28975" lon="-1.31616">
        <ele>106</ele>
        <time>2014-11-16T09:32:05.000Z</time>
      </trkpt>
      <trkpt lat="47.28967" lon="-1.31614">
        <ele>106</ele>
        <time>2014-11-16T09:32:07.000Z</time>
      </trkpt>
      <trkpt lat="47.28961" lon="-1.3161">
        <ele>107</ele>
        <time>2014-11-16T09:32:09.000Z</time>
      </trkpt>
      <trkpt lat="47.28954" lon="-1.31606">
        <ele>107</ele>
        <time>2014-11-16T09:32:11.000Z</time>
      </trkpt>
      <trkpt lat="47.28947" lon="-1.31601">
        <ele>107</ele>
        <time>2014-11-16T09:32:13.000Z</time>
      </trkpt>
      <trkpt lat="47.28941" lon="-1.31596">
        <ele>107</ele>
        <time>2014-11-16T09:32:15.000Z</time>
      </trkpt>
      <trkpt lat="47.28934" lon="-1.31592">
        <ele>106</ele>
        <time>2014-11-16T09:32:17.000Z</time>
      </trkpt>
      <trkpt lat="47.28927" lon="-1.31589">
        <ele>106</ele>
        <time>2014-11-16T09:32:19.000Z</time>
      </trkpt>
      <trkpt lat="47.28921" lon="-1.31586">
        <ele>106</ele>
        <time>2014-11-16T09:32:21.000Z</time>
      </trkpt>
      <trkpt lat="47.28914" lon="-1.31581">
        <ele>105</ele>
        <time>2014-11-16T09:32:23.000Z</time>
      </trkpt>
      <trkpt lat="47.28907" lon="-1.31577">
        <ele>105</ele>
        <time>2014-11-16T09:32:25.000Z</time>
      </trkpt>
      <trkpt lat="47.289" lon="-1.31573">
        <ele>105</ele>
        <time>2014-11-16T09:32:27.000Z</time>
      </trkpt>
      <trkpt lat="47.28892" lon="-1.31569">
        <ele>105</ele>
        <time>2014-11-16T09:32:29.000Z</time>
      </trkpt>
      <trkpt lat="47.28884" lon="-1.31566">
        <ele>104</ele>
        <time>2014-11-16T09:32:31.000Z</time>
      </trkpt>
      <trkpt lat="47.28875" lon="-1.31564">
        <ele>104</ele>
        <time>2014-11-16T09:32:33.000Z</time>
      </trkpt>
      <trkpt lat="47.28867" lon="-1.31563">
        <ele>104</ele>
        <time>2014-11-16T09:32:35.000Z</time>
      </trkpt>
      <trkpt lat="47.28859" lon="-1.31562">
        <ele>104</ele>
        <time>2014-11-16T09:32:37.000Z</time>
      </trkpt>
      <trkpt lat="47.28851" lon="-1.31561">
        <ele>104</ele>
        <time>2014-11-16T09:32:39.000Z</time>
      </trkpt>
      <trkpt lat="47.28843" lon="-1.31561">
        <ele>103</ele>
        <time>2014-11-16T09:32:41.000Z</time>
      </trkpt>
      <trkpt lat="47.28835" lon="-1.31561">
        <ele>104</ele>
        <time>2014-11-16T09:32:43.000Z</time>
      </trkpt>
      <trkpt lat="47.28827" lon="-1.3156">
        <ele>104</ele>
        <time>2014-11-16T09:32:45.000Z</time>
      </trkpt>
      <trkpt lat="47.28819" lon="-1.31559">
        <ele>104</ele>
        <time>2014-11-16T09:32:47.000Z</time>
      </trkpt>
      <trkpt lat="47.28812" lon="-1.31559">
        <ele>105</ele>
        <time>2014-11-16T09:32:49.000Z</time>
      </trkpt>
      <trkpt lat="47.28804" lon="-1.31559">
        <ele>104</ele>
        <time>2014-11-16T09:32:51.000Z</time>
      </trkpt>
      <trkpt lat="47.28796" lon="-1.31559">
        <ele>105</ele>
        <time>2014-11-16T09:32:53.000Z</time>
      </trkpt>
      <trkpt lat="47.28789" lon="-1.31559">
        <ele>104</ele>
        <time>2014-11-16T09:32:55.000Z</time>
      </trkpt>
      <trkpt lat="47.28781" lon="-1.31559">
        <ele>104</ele>
        <time>2014-11-16T09:32:57.000Z</time>
      </trkpt>
      <trkpt lat="47.28773" lon="-1.31559">
        <ele>105</ele>
        <time>2014-11-16T09:32:59.000Z</time>
      </trkpt>
      <trkpt lat="47.28767" lon="-1.3156">
        <ele>104</ele>
        <time>2014-11-16T09:33:01.000Z</time>
      </trkpt>
      <trkpt lat="47.28759" lon="-1.31561">
        <ele>105</ele>
        <time>2014-11-16T09:33:03.000Z</time>
      </trkpt>
      <trkpt lat="47.28751" lon="-1.31562">
        <ele>105</ele>
        <time>2014-11-16T09:33:05.000Z</time>
      </trkpt>
      <trkpt lat="47.28744" lon="-1.31562">
        <ele>105</ele>
        <time>2014-11-16T09:33:07.000Z</time>
      </trkpt>
      <trkpt lat="47.28737" lon="-1.31563">
        <ele>105</ele>
        <time>2014-11-16T09:33:09.000Z</time>
      </trkpt>
      <trkpt lat="47.2873" lon="-1.31562">
        <ele>105</ele>
        <time>2014-11-16T09:33:11.000Z</time>
      </trkpt>
      <trkpt lat="47.28724" lon="-1.31563">
        <ele>106</ele>
        <time>2014-11-16T09:33:13.000Z</time>
      </trkpt>
      <trkpt lat="47.28717" lon="-1.31563">
        <ele>106</ele>
        <time>2014-11-16T09:33:15.000Z</time>
      </trkpt>
      <trkpt lat="47.2871" lon="-1.31564">
        <ele>106</ele>
        <time>2014-11-16T09:33:17.000Z</time>
      </trkpt>
      <trkpt lat="47.28703" lon="-1.31564">
        <ele>106</ele>
        <time>2014-11-16T09:33:19.000Z</time>
      </trkpt>
      <trkpt lat="47.28695" lon="-1.31564">
        <ele>107</ele>
        <time>2014-11-16T09:33:21.000Z</time>
      </trkpt>
      <trkpt lat="47.28688" lon="-1.31564">
        <ele>107</ele>
        <time>2014-11-16T09:33:23.000Z</time>
      </trkpt>
      <trkpt lat="47.28682" lon="-1.31565">
        <ele>107</ele>
        <time>2014-11-16T09:33:25.000Z</time>
      </trkpt>
      <trkpt lat="47.28675" lon="-1.31565">
        <ele>107</ele>
        <time>2014-11-16T09:33:27.000Z</time>
      </trkpt>
      <trkpt lat="47.28668" lon="-1.31565">
        <ele>108</ele>
        <time>2014-11-16T09:33:29.000Z</time>
      </trkpt>
      <trkpt lat="47.28661" lon="-1.31565">
        <ele>108</ele>
        <time>2014-11-16T09:33:31.000Z</time>
      </trkpt>
      <trkpt lat="47.28655" lon="-1.31566">
        <ele>108</ele>
        <time>2014-11-16T09:33:33.000Z</time>
      </trkpt>
      <trkpt lat="47.28649" lon="-1.31567">
        <ele>108</ele>
        <time>2014-11-16T09:33:35.000Z</time>
      </trkpt>
      <trkpt lat="47.28642" lon="-1.31567">
        <ele>108</ele>
        <time>2014-11-16T09:33:37.000Z</time>
      </trkpt>
      <trkpt lat="47.28635" lon="-1.31567">
        <ele>107</ele>
        <time>2014-11-16T09:33:39.000Z</time>
      </trkpt>
      <trkpt lat="47.28629" lon="-1.31568">
        <ele>107</ele>
        <time>2014-11-16T09:33:41.000Z</time>
      </trkpt>
      <trkpt lat="47.28622" lon="-1.31568">
        <ele>107</ele>
        <time>2014-11-16T09:33:43.000Z</time>
      </trkpt>
      <trkpt lat="47.28616" lon="-1.31568">
        <ele>108</ele>
        <time>2014-11-16T09:33:45.000Z</time>
      </trkpt>
      <trkpt lat="47.28609" lon="-1.31568">
        <ele>108</ele>
        <time>2014-11-16T09:33:47.000Z</time>
      </trkpt>
      <trkpt lat="47.28603" lon="-1.31569">
        <ele>108</ele>
        <time>2014-11-16T09:33:49.000Z</time>
      </trkpt>
      <trkpt lat="47.28596" lon="-1.3157">
        <ele>109</ele>
        <time>2014-11-16T09:33:51.000Z</time>
      </trkpt>
      <trkpt lat="47.28588" lon="-1.3157">
        <ele>109</ele>
        <time>2014-11-16T09:33:53.000Z</time>
      </trkpt>
      <trkpt lat="47.28582" lon="-1.31571">
        <ele>109</ele>
        <time>2014-11-16T09:33:55.000Z</time>
      </trkpt>
      <trkpt lat="47.28576" lon="-1.31571">
        <ele>110</ele>
        <time>2014-11-16T09:33:57.000Z</time>
      </trkpt>
      <trkpt lat="47.2857" lon="-1.31571">
        <ele>110</ele>
        <time>2014-11-16T09:33:59.000Z</time>
      </trkpt>
      <trkpt lat="47.28564" lon="-1.31571">
        <ele>110</ele>
        <time>2014-11-16T09:34:01.000Z</time>
      </trkpt>
      <trkpt lat="47.28558" lon="-1.31571">
        <ele>110</ele>
        <time>2014-11-16T09:34:03.000Z</time>
      </trkpt>
      <trkpt lat="47.28551" lon="-1.3157">
        <ele>110</ele>
        <time>2014-11-16T09:34:05.000Z</time>
      </trkpt>
      <trkpt lat="47.28545" lon="-1.3157">
        <ele>110</ele>
        <time>2014-11-16T09:34:07.000Z</time>
      </trkpt>
      <trkpt lat="47.28539" lon="-1.3157">
        <ele>110</ele>
        <time>2014-11-16T09:34:09.000Z</time>
      </trkpt>
      <trkpt lat="47.28532" lon="-1.31569">
        <ele>110</ele>
        <time>2014-11-16T09:34:11.000Z</time>
      </trkpt>
      <trkpt lat="47.28526" lon="-1.31569">
        <ele>111</ele>
        <time>2014-11-16T09:34:13.000Z</time>
      </trkpt>
      <trkpt lat="47.2852" lon="-1.31569">
        <ele>111</ele>
        <time>2014-11-16T09:34:15.000Z</time>
      </trkpt>
      <trkpt lat="47.28514" lon="-1.31571">
        <ele>113</ele>
        <time>2014-11-16T09:34:17.000Z</time>
      </trkpt>
      <trkpt lat="47.28509" lon="-1.31577">
        <ele>112</ele>
        <time>2014-11-16T09:34:19.000Z</time>
      </trkpt>
      <trkpt lat="47.28503" lon="-1.31586">
        <ele>110</ele>
        <time>2014-11-16T09:34:21.000Z</time>
      </trkpt>
      <trkpt lat="47.28497" lon="-1.31595">
        <ele>110</ele>
        <time>2014-11-16T09:34:23.000Z</time>
      </trkpt>
      <trkpt lat="47.28492" lon="-1.31606">
        <ele>110</ele>
        <time>2014-11-16T09:34:25.000Z</time>
      </trkpt>
      <trkpt lat="47.28486" lon="-1.31616">
        <ele>111</ele>
        <time>2014-11-16T09:34:27.000Z</time>
      </trkpt>
      <trkpt lat="47.28481" lon="-1.31627">
        <ele>109</ele>
        <time>2014-11-16T09:34:29.000Z</time>
      </trkpt>
      <trkpt lat="47.28475" lon="-1.31638">
        <ele>107</ele>
        <time>2014-11-16T09:34:31.000Z</time>
      </trkpt>
      <trkpt lat="47.28469" lon="-1.31649">
        <ele>108</ele>
        <time>2014-11-16T09:34:33.000Z</time>
      </trkpt>
      <trkpt lat="47.28464" lon="-1.31658">
        <ele>110</ele>
        <time>2014-11-16T09:34:35.000Z</time>
      </trkpt>
      <trkpt lat="47.28459" lon="-1.31668">
        <ele>110</ele>
        <time>2014-11-16T09:34:37.000Z</time>
      </trkpt>
      <trkpt lat="47.28453" lon="-1.31678">
        <ele>108</ele>
        <time>2014-11-16T09:34:39.000Z</time>
      </trkpt>
      <trkpt lat="47.28448" lon="-1.31689">
        <ele>108</ele>
        <time>2014-11-16T09:34:41.000Z</time>
      </trkpt>
      <trkpt lat="47.28444" lon="-1.31699">
        <ele>108</ele>
        <time>2014-11-16T09:34:43.000Z</time>
      </trkpt>
      <trkpt lat="47.28439" lon="-1.31709">
        <ele>108</ele>
        <time>2014-11-16T09:34:45.000Z</time>
      </trkpt>
      <trkpt lat="47.28432" lon="-1.31715">
        <ele>110</ele>
        <time>2014-11-16T09:34:47.000Z</time>
      </trkpt>
      <trkpt lat="47.28424" lon="-1.31715">
        <ele>111</ele>
        <time>2014-11-16T09:34:49.000Z</time>
      </trkpt>
      <trkpt lat="47.28416" lon="-1.3171">
        <ele>111</ele>
        <time>2014-11-16T09:34:51.000Z</time>
      </trkpt>
      <trkpt lat="47.28411" lon="-1.317">
        <ele>111</ele>
        <time>2014-11-16T09:34:53.000Z</time>
      </trkpt>
      <trkpt lat="47.28407" lon="-1.31688">
        <ele>111</ele>
        <time>2014-11-16T09:34:55.000Z</time>
      </trkpt>
      <trkpt lat="47.28403" lon="-1.31678">
        <ele>110</ele>
        <time>2014-11-16T09:34:57.000Z</time>
      </trkpt>
      <trkpt lat="47.28398" lon="-1.31671">
        <ele>112</ele>
        <time>2014-11-16T09:34:59.000Z</time>
      </trkpt>
      <trkpt lat="47.28394" lon="-1.31665">
        <ele>112</ele>
        <time>2014-11-16T09:35:01.000Z</time>
      </trkpt>
      <trkpt lat="47.28394" lon="-1.31665">
        <ele>112</ele>
        <time>2014-11-16T09:35:03.000Z</time>
      </trkpt>
      <trkpt lat="47.28389" lon="-1.31661">
        <ele>114</ele>
        <time>2014-11-16T09:35:05.000Z</time>
      </trkpt>
      <trkpt lat="47.28384" lon="-1.31657">
        <ele>114</ele>
        <time>2014-11-16T09:35:07.000Z</time>
      </trkpt>
      <trkpt lat="47.28379" lon="-1.31653">
        <ele>115</ele>
        <time>2014-11-16T09:35:09.000Z</time>
      </trkpt>
      <trkpt lat="47.28374" lon="-1.3165">
        <ele>115</ele>
        <time>2014-11-16T09:35:11.000Z</time>
      </trkpt>
      <trkpt lat="47.28368" lon="-1.31647">
        <ele>115</ele>
        <time>2014-11-16T09:35:13.000Z</time>
      </trkpt>
      <trkpt lat="47.28356" lon="-1.31639">
        <ele>115</ele>
        <time>2014-11-16T09:35:15.000Z</time>
      </trkpt>
      <trkpt lat="47.28349" lon="-1.31635">
        <ele>115</ele>
        <time>2014-11-16T09:35:17.000Z</time>
      </trkpt>
      <trkpt lat="47.28343" lon="-1.31632">
        <ele>115</ele>
        <time>2014-11-16T09:35:19.000Z</time>
      </trkpt>
      <trkpt lat="47.28337" lon="-1.31629">
        <ele>116</ele>
        <time>2014-11-16T09:35:21.000Z</time>
      </trkpt>
      <trkpt lat="47.28331" lon="-1.31627">
        <ele>115</ele>
        <time>2014-11-16T09:35:23.000Z</time>
      </trkpt>
      <trkpt lat="47.28325" lon="-1.31625">
        <ele>116</ele>
        <time>2014-11-16T09:35:25.000Z</time>
      </trkpt>
      <trkpt lat="47.28318" lon="-1.31623">
        <ele>116</ele>
        <time>2014-11-16T09:35:27.000Z</time>
      </trkpt>
      <trkpt lat="47.28311" lon="-1.31621">
        <ele>116</ele>
        <time>2014-11-16T09:35:29.000Z</time>
      </trkpt>
      <trkpt lat="47.28305" lon="-1.31618">
        <ele>118</ele>
        <time>2014-11-16T09:35:31.000Z</time>
      </trkpt>
      <trkpt lat="47.28305" lon="-1.31618">
        <ele>118</ele>
        <time>2014-11-16T09:35:33.000Z</time>
      </trkpt>
      <trkpt lat="47.28294" lon="-1.31614">
        <ele>119</ele>
        <time>2014-11-16T09:35:35.000Z</time>
      </trkpt>
      <trkpt lat="47.28287" lon="-1.31613">
        <ele>118</ele>
        <time>2014-11-16T09:35:37.000Z</time>
      </trkpt>
      <trkpt lat="47.2828" lon="-1.31611">
        <ele>119</ele>
        <time>2014-11-16T09:35:39.000Z</time>
      </trkpt>
      <trkpt lat="47.28273" lon="-1.31609">
        <ele>118</ele>
        <time>2014-11-16T09:35:41.000Z</time>
      </trkpt>
      <trkpt lat="47.28266" lon="-1.31607">
        <ele>118</ele>
        <time>2014-11-16T09:35:43.000Z</time>
      </trkpt>
      <trkpt lat="47.28259" lon="-1.31606">
        <ele>117</ele>
        <time>2014-11-16T09:35:45.000Z</time>
      </trkpt>
      <trkpt lat="47.28252" lon="-1.31604">
        <ele>116</ele>
        <time>2014-11-16T09:35:47.000Z</time>
      </trkpt>
      <trkpt lat="47.28246" lon="-1.31603">
        <ele>116</ele>
        <time>2014-11-16T09:35:49.000Z</time>
      </trkpt>
      <trkpt lat="47.2824" lon="-1.31606">
        <ele>116</ele>
        <time>2014-11-16T09:35:51.000Z</time>
      </trkpt>
      <trkpt lat="47.28234" lon="-1.31611">
        <ele>115</ele>
        <time>2014-11-16T09:35:53.000Z</time>
      </trkpt>
      <trkpt lat="47.2823" lon="-1.31617">
        <ele>114</ele>
        <time>2014-11-16T09:35:55.000Z</time>
      </trkpt>
      <trkpt lat="47.28225" lon="-1.31622">
        <ele>114</ele>
        <time>2014-11-16T09:35:57.000Z</time>
      </trkpt>
      <trkpt lat="47.28225" lon="-1.31622">
        <ele>114</ele>
        <time>2014-11-16T09:35:59.000Z</time>
      </trkpt>
      <trkpt lat="47.28216" lon="-1.31632">
        <ele>113</ele>
        <time>2014-11-16T09:36:01.000Z</time>
      </trkpt>
      <trkpt lat="47.28211" lon="-1.31638">
        <ele>114</ele>
        <time>2014-11-16T09:36:03.000Z</time>
      </trkpt>
      <trkpt lat="47.28207" lon="-1.31645">
        <ele>115</ele>
        <time>2014-11-16T09:36:05.000Z</time>
      </trkpt>
      <trkpt lat="47.28202" lon="-1.31651">
        <ele>115</ele>
        <time>2014-11-16T09:36:07.000Z</time>
      </trkpt>
      <trkpt lat="47.28202" lon="-1.31651">
        <ele>115</ele>
        <time>2014-11-16T09:36:09.000Z</time>
      </trkpt>
      <trkpt lat="47.28193" lon="-1.31659">
        <ele>115</ele>
        <time>2014-11-16T09:36:11.000Z</time>
      </trkpt>
      <trkpt lat="47.28193" lon="-1.31659">
        <ele>115</ele>
        <time>2014-11-16T09:36:13.000Z</time>
      </trkpt>
      <trkpt lat="47.28183" lon="-1.31666">
        <ele>115</ele>
        <time>2014-11-16T09:36:15.000Z</time>
      </trkpt>
      <trkpt lat="47.28173" lon="-1.31672">
        <ele>114</ele>
        <time>2014-11-16T09:36:19.000Z</time>
      </trkpt>
      <trkpt lat="47.28173" lon="-1.31672">
        <ele>114</ele>
        <time>2014-11-16T09:36:21.000Z</time>
      </trkpt>
      <trkpt lat="47.28167" lon="-1.31676">
        <ele>115</ele>
        <time>2014-11-16T09:36:23.000Z</time>
      </trkpt>
      <trkpt lat="47.28167" lon="-1.31676">
        <ele>115</ele>
        <time>2014-11-16T09:36:25.000Z</time>
      </trkpt>
      <trkpt lat="47.28161" lon="-1.31679">
        <ele>116</ele>
        <time>2014-11-16T09:36:27.000Z</time>
      </trkpt>
      <trkpt lat="47.28153" lon="-1.31687">
        <ele>117</ele>
        <time>2014-11-16T09:36:31.000Z</time>
      </trkpt>
      <trkpt lat="47.28146" lon="-1.31694">
        <ele>116</ele>
        <time>2014-11-16T09:36:35.000Z</time>
      </trkpt>
      <trkpt lat="47.28137" lon="-1.31699">
        <ele>116</ele>
        <time>2014-11-16T09:36:39.000Z</time>
      </trkpt>
      <trkpt lat="47.28128" lon="-1.31706">
        <ele>118</ele>
        <time>2014-11-16T09:36:43.000Z</time>
      </trkpt>
      <trkpt lat="47.28123" lon="-1.31709">
        <ele>119</ele>
        <time>2014-11-16T09:36:45.000Z</time>
      </trkpt>
      <trkpt lat="47.28118" lon="-1.31713">
        <ele>119</ele>
        <time>2014-11-16T09:36:47.000Z</time>
      </trkpt>
      <trkpt lat="47.28109" lon="-1.31719">
        <ele>118</ele>
        <time>2014-11-16T09:36:51.000Z</time>
      </trkpt>
      <trkpt lat="47.28109" lon="-1.31719">
        <ele>118</ele>
        <time>2014-11-16T09:36:53.000Z</time>
      </trkpt>
      <trkpt lat="47.281" lon="-1.31726">
        <ele>119</ele>
        <time>2014-11-16T09:36:55.000Z</time>
      </trkpt>
      <trkpt lat="47.2809" lon="-1.31732">
        <ele>119</ele>
        <time>2014-11-16T09:36:59.000Z</time>
      </trkpt>
      <trkpt lat="47.2809" lon="-1.31732">
        <ele>119</ele>
        <time>2014-11-16T09:37:01.000Z</time>
      </trkpt>
      <trkpt lat="47.28082" lon="-1.31734">
        <ele>120</ele>
        <time>2014-11-16T09:37:03.000Z</time>
      </trkpt>
      <trkpt lat="47.28082" lon="-1.31734">
        <ele>120</ele>
        <time>2014-11-16T09:37:05.000Z</time>
      </trkpt>
      <trkpt lat="47.28076" lon="-1.31724">
        <ele>120</ele>
        <time>2014-11-16T09:37:07.000Z</time>
      </trkpt>
      <trkpt lat="47.28074" lon="-1.31714">
        <ele>121</ele>
        <time>2014-11-16T09:37:09.000Z</time>
      </trkpt>
      <trkpt lat="47.28072" lon="-1.31703">
        <ele>121</ele>
        <time>2014-11-16T09:37:11.000Z</time>
      </trkpt>
      <trkpt lat="47.28069" lon="-1.31694">
        <ele>122</ele>
        <time>2014-11-16T09:37:13.000Z</time>
      </trkpt>
      <trkpt lat="47.28067" lon="-1.31685">
        <ele>122</ele>
        <time>2014-11-16T09:37:15.000Z</time>
      </trkpt>
      <trkpt lat="47.28067" lon="-1.31685">
        <ele>122</ele>
        <time>2014-11-16T09:37:17.000Z</time>
      </trkpt>
      <trkpt lat="47.28064" lon="-1.31673">
        <ele>122</ele>
        <time>2014-11-16T09:37:19.000Z</time>
      </trkpt>
      <trkpt lat="47.28064" lon="-1.31673">
        <ele>122</ele>
        <time>2014-11-16T09:37:21.000Z</time>
      </trkpt>
      <trkpt lat="47.28061" lon="-1.3166">
        <ele>124</ele>
        <time>2014-11-16T09:37:23.000Z</time>
      </trkpt>
      <trkpt lat="47.28061" lon="-1.3166">
        <ele>124</ele>
        <time>2014-11-16T09:37:25.000Z</time>
      </trkpt>
      <trkpt lat="47.28059" lon="-1.3165">
        <ele>124</ele>
        <time>2014-11-16T09:37:27.000Z</time>
      </trkpt>
      <trkpt lat="47.28059" lon="-1.3165">
        <ele>124</ele>
        <time>2014-11-16T09:37:29.000Z</time>
      </trkpt>
      <trkpt lat="47.28059" lon="-1.3165">
        <ele>124</ele>
        <time>2014-11-16T09:37:31.000Z</time>
      </trkpt>
      <trkpt lat="47.28059" lon="-1.3165">
        <ele>124</ele>
        <time>2014-11-16T09:37:33.000Z</time>
      </trkpt>
      <trkpt lat="47.28059" lon="-1.3165">
        <ele>124</ele>
        <time>2014-11-16T09:37:35.000Z</time>
      </trkpt>
      <trkpt lat="47.28059" lon="-1.3165">
        <ele>124</ele>
        <time>2014-11-16T09:37:37.000Z</time>
      </trkpt>
      <trkpt lat="47.28053" lon="-1.31645">
        <ele>124</ele>
        <time>2014-11-16T09:37:41.000Z</time>
      </trkpt>
      <trkpt lat="47.28049" lon="-1.31637">
        <ele>125</ele>
        <time>2014-11-16T09:37:45.000Z</time>
      </trkpt>
      <trkpt lat="47.28044" lon="-1.31629">
        <ele>122</ele>
        <time>2014-11-16T09:37:49.000Z</time>
      </trkpt>
      <trkpt lat="47.28041" lon="-1.31615">
        <ele>119</ele>
        <time>2014-11-16T09:37:53.000Z</time>
      </trkpt>
      <trkpt lat="47.28034" lon="-1.31606">
        <ele>116</ele>
        <time>2014-11-16T09:37:57.000Z</time>
      </trkpt>
      <trkpt lat="47.28033" lon="-1.316">
        <ele>116</ele>
        <time>2014-11-16T09:38:01.000Z</time>
      </trkpt>
      <trkpt lat="47.28031" lon="-1.31594">
        <ele>116</ele>
        <time>2014-11-16T09:38:03.000Z</time>
      </trkpt>
      <trkpt lat="47.2803" lon="-1.31589">
        <ele>118</ele>
        <time>2014-11-16T09:38:05.000Z</time>
      </trkpt>
      <trkpt lat="47.28028" lon="-1.31583">
        <ele>117</ele>
        <time>2014-11-16T09:38:07.000Z</time>
      </trkpt>
      <trkpt lat="47.28027" lon="-1.31578">
        <ele>118</ele>
        <time>2014-11-16T09:38:09.000Z</time>
      </trkpt>
      <trkpt lat="47.28025" lon="-1.31567">
        <ele>119</ele>
        <time>2014-11-16T09:38:11.000Z</time>
      </trkpt>
      <trkpt lat="47.28021" lon="-1.31557">
        <ele>118</ele>
        <time>2014-11-16T09:38:15.000Z</time>
      </trkpt>
      <trkpt lat="47.28021" lon="-1.31557">
        <ele>118</ele>
        <time>2014-11-16T09:38:17.000Z</time>
      </trkpt>
      <trkpt lat="47.28018" lon="-1.31547">
        <ele>117</ele>
        <time>2014-11-16T09:38:19.000Z</time>
      </trkpt>
      <trkpt lat="47.28018" lon="-1.31547">
        <ele>117</ele>
        <time>2014-11-16T09:38:21.000Z</time>
      </trkpt>
      <trkpt lat="47.28016" lon="-1.31536">
        <ele>115</ele>
        <time>2014-11-16T09:38:23.000Z</time>
      </trkpt>
      <trkpt lat="47.2801" lon="-1.31526">
        <ele>113</ele>
        <time>2014-11-16T09:38:27.000Z</time>
      </trkpt>
      <trkpt lat="47.28003" lon="-1.31519">
        <ele>113</ele>
        <time>2014-11-16T09:38:31.000Z</time>
      </trkpt>
      <trkpt lat="47.28003" lon="-1.31519">
        <ele>113</ele>
        <time>2014-11-16T09:38:33.000Z</time>
      </trkpt>
      <trkpt lat="47.27995" lon="-1.31514">
        <ele>111</ele>
        <time>2014-11-16T09:38:35.000Z</time>
      </trkpt>
      <trkpt lat="47.27991" lon="-1.31504">
        <ele>112</ele>
        <time>2014-11-16T09:38:39.000Z</time>
      </trkpt>
      <trkpt lat="47.27991" lon="-1.31504">
        <ele>112</ele>
        <time>2014-11-16T09:38:41.000Z</time>
      </trkpt>
      <trkpt lat="47.27991" lon="-1.31493">
        <ele>113</ele>
        <time>2014-11-16T09:38:43.000Z</time>
      </trkpt>
      <trkpt lat="47.27996" lon="-1.31483">
        <ele>118</ele>
        <time>2014-11-16T09:38:45.000Z</time>
      </trkpt>
      <trkpt lat="47.28" lon="-1.31473">
        <ele>121</ele>
        <time>2014-11-16T09:38:47.000Z</time>
      </trkpt>
      <trkpt lat="47.28003" lon="-1.31464">
        <ele>119</ele>
        <time>2014-11-16T09:38:49.000Z</time>
      </trkpt>
      <trkpt lat="47.28007" lon="-1.31454">
        <ele>116</ele>
        <time>2014-11-16T09:38:51.000Z</time>
      </trkpt>
      <trkpt lat="47.28009" lon="-1.31444">
        <ele>118</ele>
        <time>2014-11-16T09:38:53.000Z</time>
      </trkpt>
      <trkpt lat="47.2801" lon="-1.31434">
        <ele>119</ele>
        <time>2014-11-16T09:38:55.000Z</time>
      </trkpt>
      <trkpt lat="47.28012" lon="-1.31424">
        <ele>118</ele>
        <time>2014-11-16T09:38:57.000Z</time>
      </trkpt>
      <trkpt lat="47.28012" lon="-1.31414">
        <ele>117</ele>
        <time>2014-11-16T09:38:59.000Z</time>
      </trkpt>
      <trkpt lat="47.28012" lon="-1.31414">
        <ele>117</ele>
        <time>2014-11-16T09:39:01.000Z</time>
      </trkpt>
      <trkpt lat="47.28012" lon="-1.31398">
        <ele>120</ele>
        <time>2014-11-16T09:39:03.000Z</time>
      </trkpt>
      <trkpt lat="47.28012" lon="-1.31389">
        <ele>119</ele>
        <time>2014-11-16T09:39:05.000Z</time>
      </trkpt>
      <trkpt lat="47.28011" lon="-1.3138">
        <ele>119</ele>
        <time>2014-11-16T09:39:07.000Z</time>
      </trkpt>
      <trkpt lat="47.2801" lon="-1.3137">
        <ele>118</ele>
        <time>2014-11-16T09:39:09.000Z</time>
      </trkpt>
      <trkpt lat="47.28009" lon="-1.31361">
        <ele>118</ele>
        <time>2014-11-16T09:39:11.000Z</time>
      </trkpt>
      <trkpt lat="47.28009" lon="-1.31361">
        <ele>118</ele>
        <time>2014-11-16T09:39:13.000Z</time>
      </trkpt>
      <trkpt lat="47.28007" lon="-1.31345">
        <ele>117</ele>
        <time>2014-11-16T09:39:15.000Z</time>
      </trkpt>
      <trkpt lat="47.28007" lon="-1.31345">
        <ele>117</ele>
        <time>2014-11-16T09:39:17.000Z</time>
      </trkpt>
      <trkpt lat="47.28007" lon="-1.31329">
        <ele>117</ele>
        <time>2014-11-16T09:39:19.000Z</time>
      </trkpt>
      <trkpt lat="47.28007" lon="-1.3132">
        <ele>117</ele>
        <time>2014-11-16T09:39:21.000Z</time>
      </trkpt>
      <trkpt lat="47.28004" lon="-1.31305">
        <ele>117</ele>
        <time>2014-11-16T09:39:25.000Z</time>
      </trkpt>
      <trkpt lat="47.28001" lon="-1.31288">
        <ele>116</ele>
        <time>2014-11-16T09:39:29.000Z</time>
      </trkpt>
      <trkpt lat="47.27999" lon="-1.3128">
        <ele>116</ele>
        <time>2014-11-16T09:39:31.000Z</time>
      </trkpt>
      <trkpt lat="47.27999" lon="-1.3128">
        <ele>116</ele>
        <time>2014-11-16T09:39:33.000Z</time>
      </trkpt>
      <trkpt lat="47.27997" lon="-1.31266">
        <ele>113</ele>
        <time>2014-11-16T09:39:35.000Z</time>
      </trkpt>
      <trkpt lat="47.27997" lon="-1.31266">
        <ele>113</ele>
        <time>2014-11-16T09:39:37.000Z</time>
      </trkpt>
      <trkpt lat="47.27995" lon="-1.31253">
        <ele>114</ele>
        <time>2014-11-16T09:39:39.000Z</time>
      </trkpt>
      <trkpt lat="47.27995" lon="-1.31253">
        <ele>114</ele>
        <time>2014-11-16T09:39:41.000Z</time>
      </trkpt>
      <trkpt lat="47.27995" lon="-1.31239">
        <ele>116</ele>
        <time>2014-11-16T09:39:43.000Z</time>
      </trkpt>
      <trkpt lat="47.27995" lon="-1.31239">
        <ele>116</ele>
        <time>2014-11-16T09:39:45.000Z</time>
      </trkpt>
      <trkpt lat="47.27993" lon="-1.31228">
        <ele>116</ele>
        <time>2014-11-16T09:39:47.000Z</time>
      </trkpt>
      <trkpt lat="47.27993" lon="-1.31228">
        <ele>116</ele>
        <time>2014-11-16T09:39:49.000Z</time>
      </trkpt>
      <trkpt lat="47.27993" lon="-1.31228">
        <ele>116</ele>
        <time>2014-11-16T09:39:51.000Z</time>
      </trkpt>
      <trkpt lat="47.27998" lon="-1.3122">
        <ele>118</ele>
        <time>2014-11-16T09:39:53.000Z</time>
      </trkpt>
      <trkpt lat="47.27998" lon="-1.3122">
        <ele>118</ele>
        <time>2014-11-16T09:39:55.000Z</time>
      </trkpt>
      <trkpt lat="47.28004" lon="-1.31219">
        <ele>118</ele>
        <time>2014-11-16T09:39:57.000Z</time>
      </trkpt>
      <trkpt lat="47.28004" lon="-1.31219">
        <ele>118</ele>
        <time>2014-11-16T09:39:59.000Z</time>
      </trkpt>
      <trkpt lat="47.28008" lon="-1.31212">
        <ele>114</ele>
        <time>2014-11-16T09:40:01.000Z</time>
      </trkpt>
      <trkpt lat="47.28008" lon="-1.31212">
        <ele>114</ele>
        <time>2014-11-16T09:40:03.000Z</time>
      </trkpt>
      <trkpt lat="47.28008" lon="-1.31201">
        <ele>112</ele>
        <time>2014-11-16T09:40:07.000Z</time>
      </trkpt>
      <trkpt lat="47.28008" lon="-1.31189">
        <ele>112</ele>
        <time>2014-11-16T09:40:11.000Z</time>
      </trkpt>
      <trkpt lat="47.28007" lon="-1.31175">
        <ele>113</ele>
        <time>2014-11-16T09:40:15.000Z</time>
      </trkpt>
      <trkpt lat="47.28007" lon="-1.31165">
        <ele>114</ele>
        <time>2014-11-16T09:40:19.000Z</time>
      </trkpt>
      <trkpt lat="47.28007" lon="-1.31165">
        <ele>114</ele>
        <time>2014-11-16T09:40:21.000Z</time>
      </trkpt>
      <trkpt lat="47.28005" lon="-1.31155">
        <ele>116</ele>
        <time>2014-11-16T09:40:23.000Z</time>
      </trkpt>
      <trkpt lat="47.28004" lon="-1.31143">
        <ele>116</ele>
        <time>2014-11-16T09:40:27.000Z</time>
      </trkpt>
      <trkpt lat="47.28004" lon="-1.31131">
        <ele>117</ele>
        <time>2014-11-16T09:40:31.000Z</time>
      </trkpt>
      <trkpt lat="47.28004" lon="-1.31131">
        <ele>117</ele>
        <time>2014-11-16T09:40:33.000Z</time>
      </trkpt>
      <trkpt lat="47.28004" lon="-1.31125">
        <ele>116</ele>
        <time>2014-11-16T09:40:35.000Z</time>
      </trkpt>
      <trkpt lat="47.28004" lon="-1.31119">
        <ele>115</ele>
        <time>2014-11-16T09:40:37.000Z</time>
      </trkpt>
      <trkpt lat="47.28005" lon="-1.31112">
        <ele>115</ele>
        <time>2014-11-16T09:40:39.000Z</time>
      </trkpt>
      <trkpt lat="47.28004" lon="-1.31105">
        <ele>115</ele>
        <time>2014-11-16T09:40:41.000Z</time>
      </trkpt>
      <trkpt lat="47.28004" lon="-1.31098">
        <ele>115</ele>
        <time>2014-11-16T09:40:43.000Z</time>
      </trkpt>
      <trkpt lat="47.28005" lon="-1.31086">
        <ele>116</ele>
        <time>2014-11-16T09:40:45.000Z</time>
      </trkpt>
      <trkpt lat="47.28005" lon="-1.31086">
        <ele>116</ele>
        <time>2014-11-16T09:40:47.000Z</time>
      </trkpt>
      <trkpt lat="47.28007" lon="-1.31077">
        <ele>118</ele>
        <time>2014-11-16T09:40:49.000Z</time>
      </trkpt>
      <trkpt lat="47.28007" lon="-1.31077">
        <ele>118</ele>
        <time>2014-11-16T09:40:51.000Z</time>
      </trkpt>
      <trkpt lat="47.28007" lon="-1.31077">
        <ele>118</ele>
        <time>2014-11-16T09:40:53.000Z</time>
      </trkpt>
      <trkpt lat="47.28008" lon="-1.31066">
        <ele>118</ele>
        <time>2014-11-16T09:40:55.000Z</time>
      </trkpt>
      <trkpt lat="47.28009" lon="-1.31055">
        <ele>118</ele>
        <time>2014-11-16T09:40:59.000Z</time>
      </trkpt>
      <trkpt lat="47.28011" lon="-1.31043">
        <ele>119</ele>
        <time>2014-11-16T09:41:03.000Z</time>
      </trkpt>
      <trkpt lat="47.28012" lon="-1.31033">
        <ele>119</ele>
        <time>2014-11-16T09:41:07.000Z</time>
      </trkpt>
      <trkpt lat="47.28012" lon="-1.31033">
        <ele>119</ele>
        <time>2014-11-16T09:41:09.000Z</time>
      </trkpt>
      <trkpt lat="47.28011" lon="-1.31024">
        <ele>123</ele>
        <time>2014-11-16T09:41:11.000Z</time>
      </trkpt>
      <trkpt lat="47.28011" lon="-1.31024">
        <ele>123</ele>
        <time>2014-11-16T09:41:13.000Z</time>
      </trkpt>
      <trkpt lat="47.28012" lon="-1.31013">
        <ele>123</ele>
        <time>2014-11-16T09:41:15.000Z</time>
      </trkpt>
      <trkpt lat="47.28015" lon="-1.30999">
        <ele>122</ele>
        <time>2014-11-16T09:41:19.000Z</time>
      </trkpt>
      <trkpt lat="47.28019" lon="-1.3099">
        <ele>121</ele>
        <time>2014-11-16T09:41:23.000Z</time>
      </trkpt>
      <trkpt lat="47.28019" lon="-1.3099">
        <ele>121</ele>
        <time>2014-11-16T09:41:25.000Z</time>
      </trkpt>
      <trkpt lat="47.28022" lon="-1.30981">
        <ele>120</ele>
        <time>2014-11-16T09:41:27.000Z</time>
      </trkpt>
      <trkpt lat="47.28022" lon="-1.30981">
        <ele>120</ele>
        <time>2014-11-16T09:41:29.000Z</time>
      </trkpt>
      <trkpt lat="47.28024" lon="-1.3097">
        <ele>119</ele>
        <time>2014-11-16T09:41:31.000Z</time>
      </trkpt>
      <trkpt lat="47.28024" lon="-1.3097">
        <ele>119</ele>
        <time>2014-11-16T09:41:33.000Z</time>
      </trkpt>
      <trkpt lat="47.28026" lon="-1.30959">
        <ele>118</ele>
        <time>2014-11-16T09:41:35.000Z</time>
      </trkpt>
      <trkpt lat="47.28028" lon="-1.3095">
        <ele>116</ele>
        <time>2014-11-16T09:41:39.000Z</time>
      </trkpt>
      <trkpt lat="47.28028" lon="-1.3095">
        <ele>116</ele>
        <time>2014-11-16T09:41:41.000Z</time>
      </trkpt>
      <trkpt lat="47.2803" lon="-1.3094">
        <ele>117</ele>
        <time>2014-11-16T09:41:43.000Z</time>
      </trkpt>
      <trkpt lat="47.28033" lon="-1.30929">
        <ele>118</ele>
        <time>2014-11-16T09:41:47.000Z</time>
      </trkpt>
      <trkpt lat="47.28038" lon="-1.30915">
        <ele>112</ele>
        <time>2014-11-16T09:41:51.000Z</time>
      </trkpt>
      <trkpt lat="47.28042" lon="-1.30901">
        <ele>111</ele>
        <time>2014-11-16T09:41:55.000Z</time>
      </trkpt>
      <trkpt lat="47.28042" lon="-1.30901">
        <ele>111</ele>
        <time>2014-11-16T09:41:57.000Z</time>
      </trkpt>
      <trkpt lat="47.28044" lon="-1.30888">
        <ele>113</ele>
        <time>2014-11-16T09:41:59.000Z</time>
      </trkpt>
      <trkpt lat="47.28044" lon="-1.30888">
        <ele>113</ele>
        <time>2014-11-16T09:42:01.000Z</time>
      </trkpt>
      <trkpt lat="47.28045" lon="-1.30877">
        <ele>113</ele>
        <time>2014-11-16T09:42:03.000Z</time>
      </trkpt>
      <trkpt lat="47.28045" lon="-1.30877">
        <ele>113</ele>
        <time>2014-11-16T09:42:05.000Z</time>
      </trkpt>
      <trkpt lat="47.28046" lon="-1.30867">
        <ele>113</ele>
        <time>2014-11-16T09:42:07.000Z</time>
      </trkpt>
      <trkpt lat="47.28046" lon="-1.30856">
        <ele>113</ele>
        <time>2014-11-16T09:42:11.000Z</time>
      </trkpt>
      <trkpt lat="47.28046" lon="-1.30856">
        <ele>113</ele>
        <time>2014-11-16T09:42:13.000Z</time>
      </trkpt>
      <trkpt lat="47.28047" lon="-1.30844">
        <ele>112</ele>
        <time>2014-11-16T09:42:15.000Z</time>
      </trkpt>
      <trkpt lat="47.28046" lon="-1.30833">
        <ele>111</ele>
        <time>2014-11-16T09:42:19.000Z</time>
      </trkpt>
      <trkpt lat="47.28046" lon="-1.30833">
        <ele>111</ele>
        <time>2014-11-16T09:42:21.000Z</time>
      </trkpt>
      <trkpt lat="47.28047" lon="-1.30823">
        <ele>112</ele>
        <time>2014-11-16T09:42:23.000Z</time>
      </trkpt>
      <trkpt lat="47.28047" lon="-1.30823">
        <ele>112</ele>
        <time>2014-11-16T09:42:25.000Z</time>
      </trkpt>
      <trkpt lat="47.28052" lon="-1.30813">
        <ele>113</ele>
        <time>2014-11-16T09:42:27.000Z</time>
      </trkpt>
      <trkpt lat="47.28057" lon="-1.30799">
        <ele>111</ele>
        <time>2014-11-16T09:42:31.000Z</time>
      </trkpt>
      <trkpt lat="47.2806" lon="-1.30791">
        <ele>111</ele>
        <time>2014-11-16T09:42:33.000Z</time>
      </trkpt>
      <trkpt lat="47.28062" lon="-1.30782">
        <ele>111</ele>
        <time>2014-11-16T09:42:35.000Z</time>
      </trkpt>
      <trkpt lat="47.28064" lon="-1.30772">
        <ele>111</ele>
        <time>2014-11-16T09:42:37.000Z</time>
      </trkpt>
      <trkpt lat="47.28067" lon="-1.30762">
        <ele>111</ele>
        <time>2014-11-16T09:42:39.000Z</time>
      </trkpt>
      <trkpt lat="47.2807" lon="-1.30752">
        <ele>111</ele>
        <time>2014-11-16T09:42:41.000Z</time>
      </trkpt>
      <trkpt lat="47.28072" lon="-1.30742">
        <ele>110</ele>
        <time>2014-11-16T09:42:43.000Z</time>
      </trkpt>
      <trkpt lat="47.28075" lon="-1.30731">
        <ele>111</ele>
        <time>2014-11-16T09:42:45.000Z</time>
      </trkpt>
      <trkpt lat="47.28077" lon="-1.30721">
        <ele>111</ele>
        <time>2014-11-16T09:42:47.000Z</time>
      </trkpt>
      <trkpt lat="47.28079" lon="-1.30711">
        <ele>111</ele>
        <time>2014-11-16T09:42:49.000Z</time>
      </trkpt>
      <trkpt lat="47.28081" lon="-1.307">
        <ele>112</ele>
        <time>2014-11-16T09:42:51.000Z</time>
      </trkpt>
      <trkpt lat="47.28083" lon="-1.30689">
        <ele>112</ele>
        <time>2014-11-16T09:42:53.000Z</time>
      </trkpt>
      <trkpt lat="47.28085" lon="-1.30676">
        <ele>112</ele>
        <time>2014-11-16T09:42:55.000Z</time>
      </trkpt>
      <trkpt lat="47.28087" lon="-1.30664">
        <ele>112</ele>
        <time>2014-11-16T09:42:57.000Z</time>
      </trkpt>
      <trkpt lat="47.28089" lon="-1.30652">
        <ele>113</ele>
        <time>2014-11-16T09:42:59.000Z</time>
      </trkpt>
      <trkpt lat="47.28091" lon="-1.30639">
        <ele>113</ele>
        <time>2014-11-16T09:43:01.000Z</time>
      </trkpt>
      <trkpt lat="47.28093" lon="-1.30626">
        <ele>114</ele>
        <time>2014-11-16T09:43:03.000Z</time>
      </trkpt>
      <trkpt lat="47.28094" lon="-1.30614">
        <ele>115</ele>
        <time>2014-11-16T09:43:05.000Z</time>
      </trkpt>
      <trkpt lat="47.28096" lon="-1.30602">
        <ele>115</ele>
        <time>2014-11-16T09:43:07.000Z</time>
      </trkpt>
      <trkpt lat="47.28096" lon="-1.3059">
        <ele>115</ele>
        <time>2014-11-16T09:43:09.000Z</time>
      </trkpt>
      <trkpt lat="47.28096" lon="-1.30578">
        <ele>116</ele>
        <time>2014-11-16T09:43:11.000Z</time>
      </trkpt>
      <trkpt lat="47.28095" lon="-1.30566">
        <ele>115</ele>
        <time>2014-11-16T09:43:13.000Z</time>
      </trkpt>
      <trkpt lat="47.28093" lon="-1.30554">
        <ele>116</ele>
        <time>2014-11-16T09:43:15.000Z</time>
      </trkpt>
      <trkpt lat="47.28089" lon="-1.30543">
        <ele>116</ele>
        <time>2014-11-16T09:43:17.000Z</time>
      </trkpt>
      <trkpt lat="47.28082" lon="-1.30532">
        <ele>117</ele>
        <time>2014-11-16T09:43:19.000Z</time>
      </trkpt>
      <trkpt lat="47.28074" lon="-1.30522">
        <ele>118</ele>
        <time>2014-11-16T09:43:21.000Z</time>
      </trkpt>
      <trkpt lat="47.28069" lon="-1.30513">
        <ele>118</ele>
        <time>2014-11-16T09:43:23.000Z</time>
      </trkpt>
      <trkpt lat="47.28064" lon="-1.30503">
        <ele>118</ele>
        <time>2014-11-16T09:43:25.000Z</time>
      </trkpt>
      <trkpt lat="47.28058" lon="-1.30493">
        <ele>119</ele>
        <time>2014-11-16T09:43:27.000Z</time>
      </trkpt>
      <trkpt lat="47.28051" lon="-1.30481">
        <ele>120</ele>
        <time>2014-11-16T09:43:29.000Z</time>
      </trkpt>
      <trkpt lat="47.28044" lon="-1.30471">
        <ele>119</ele>
        <time>2014-11-16T09:43:31.000Z</time>
      </trkpt>
      <trkpt lat="47.28038" lon="-1.3046">
        <ele>120</ele>
        <time>2014-11-16T09:43:33.000Z</time>
      </trkpt>
      <trkpt lat="47.28032" lon="-1.30449">
        <ele>120</ele>
        <time>2014-11-16T09:43:35.000Z</time>
      </trkpt>
      <trkpt lat="47.28027" lon="-1.30439">
        <ele>122</ele>
        <time>2014-11-16T09:43:37.000Z</time>
      </trkpt>
      <trkpt lat="47.2802" lon="-1.3043">
        <ele>123</ele>
        <time>2014-11-16T09:43:39.000Z</time>
      </trkpt>
      <trkpt lat="47.28013" lon="-1.30418">
        <ele>124</ele>
        <time>2014-11-16T09:43:41.000Z</time>
      </trkpt>
      <trkpt lat="47.28007" lon="-1.30406">
        <ele>123</ele>
        <time>2014-11-16T09:43:43.000Z</time>
      </trkpt>
      <trkpt lat="47.28004" lon="-1.30394">
        <ele>123</ele>
        <time>2014-11-16T09:43:45.000Z</time>
      </trkpt>
      <trkpt lat="47.28" lon="-1.30382">
        <ele>123</ele>
        <time>2014-11-16T09:43:47.000Z</time>
      </trkpt>
      <trkpt lat="47.27997" lon="-1.30367">
        <ele>124</ele>
        <time>2014-11-16T09:43:49.000Z</time>
      </trkpt>
      <trkpt lat="47.27995" lon="-1.30351">
        <ele>123</ele>
        <time>2014-11-16T09:43:51.000Z</time>
      </trkpt>
      <trkpt lat="47.27991" lon="-1.30333">
        <ele>122</ele>
        <time>2014-11-16T09:43:53.000Z</time>
      </trkpt>
      <trkpt lat="47.27989" lon="-1.30319">
        <ele>124</ele>
        <time>2014-11-16T09:43:55.000Z</time>
      </trkpt>
      <trkpt lat="47.27987" lon="-1.30301">
        <ele>125</ele>
        <time>2014-11-16T09:43:57.000Z</time>
      </trkpt>
      <trkpt lat="47.27983" lon="-1.30285">
        <ele>125</ele>
        <time>2014-11-16T09:43:59.000Z</time>
      </trkpt>
      <trkpt lat="47.2798" lon="-1.30271">
        <ele>126</ele>
        <time>2014-11-16T09:44:01.000Z</time>
      </trkpt>
      <trkpt lat="47.27977" lon="-1.30255">
        <ele>126</ele>
        <time>2014-11-16T09:44:03.000Z</time>
      </trkpt>
      <trkpt lat="47.27974" lon="-1.3024">
        <ele>126</ele>
        <time>2014-11-16T09:44:05.000Z</time>
      </trkpt>
      <trkpt lat="47.27971" lon="-1.30224">
        <ele>126</ele>
        <time>2014-11-16T09:44:07.000Z</time>
      </trkpt>
      <trkpt lat="47.27968" lon="-1.3021">
        <ele>125</ele>
        <time>2014-11-16T09:44:09.000Z</time>
      </trkpt>
      <trkpt lat="47.27963" lon="-1.30195">
        <ele>125</ele>
        <time>2014-11-16T09:44:11.000Z</time>
      </trkpt>
      <trkpt lat="47.27958" lon="-1.30181">
        <ele>126</ele>
        <time>2014-11-16T09:44:13.000Z</time>
      </trkpt>
      <trkpt lat="47.27954" lon="-1.30168">
        <ele>125</ele>
        <time>2014-11-16T09:44:15.000Z</time>
      </trkpt>
      <trkpt lat="47.27948" lon="-1.30158">
        <ele>125</ele>
        <time>2014-11-16T09:44:17.000Z</time>
      </trkpt>
      <trkpt lat="47.27943" lon="-1.30145">
        <ele>125</ele>
        <time>2014-11-16T09:44:19.000Z</time>
      </trkpt>
      <trkpt lat="47.27938" lon="-1.30133">
        <ele>125</ele>
        <time>2014-11-16T09:44:21.000Z</time>
      </trkpt>
      <trkpt lat="47.27932" lon="-1.30123">
        <ele>124</ele>
        <time>2014-11-16T09:44:23.000Z</time>
      </trkpt>
      <trkpt lat="47.27927" lon="-1.30114">
        <ele>125</ele>
        <time>2014-11-16T09:44:25.000Z</time>
      </trkpt>
      <trkpt lat="47.27922" lon="-1.30105">
        <ele>125</ele>
        <time>2014-11-16T09:44:27.000Z</time>
      </trkpt>
      <trkpt lat="47.27918" lon="-1.30095">
        <ele>126</ele>
        <time>2014-11-16T09:44:29.000Z</time>
      </trkpt>
      <trkpt lat="47.27913" lon="-1.30087">
        <ele>126</ele>
        <time>2014-11-16T09:44:31.000Z</time>
      </trkpt>
      <trkpt lat="47.27909" lon="-1.30078">
        <ele>127</ele>
        <time>2014-11-16T09:44:33.000Z</time>
      </trkpt>
      <trkpt lat="47.27906" lon="-1.3007">
        <ele>127</ele>
        <time>2014-11-16T09:44:35.000Z</time>
      </trkpt>
      <trkpt lat="47.27902" lon="-1.30063">
        <ele>127</ele>
        <time>2014-11-16T09:44:37.000Z</time>
      </trkpt>
      <trkpt lat="47.27898" lon="-1.30056">
        <ele>127</ele>
        <time>2014-11-16T09:44:39.000Z</time>
      </trkpt>
      <trkpt lat="47.27893" lon="-1.3005">
        <ele>129</ele>
        <time>2014-11-16T09:44:41.000Z</time>
      </trkpt>
      <trkpt lat="47.2789" lon="-1.30043">
        <ele>129</ele>
        <time>2014-11-16T09:44:43.000Z</time>
      </trkpt>
      <trkpt lat="47.27885" lon="-1.30035">
        <ele>128</ele>
        <time>2014-11-16T09:44:45.000Z</time>
      </trkpt>
      <trkpt lat="47.27881" lon="-1.30026">
        <ele>128</ele>
        <time>2014-11-16T09:44:47.000Z</time>
      </trkpt>
      <trkpt lat="47.27877" lon="-1.30018">
        <ele>128</ele>
        <time>2014-11-16T09:44:49.000Z</time>
      </trkpt>
      <trkpt lat="47.27874" lon="-1.3001">
        <ele>129</ele>
        <time>2014-11-16T09:44:51.000Z</time>
      </trkpt>
      <trkpt lat="47.27871" lon="-1.30001">
        <ele>128</ele>
        <time>2014-11-16T09:44:53.000Z</time>
      </trkpt>
      <trkpt lat="47.27868" lon="-1.29993">
        <ele>127</ele>
        <time>2014-11-16T09:44:55.000Z</time>
      </trkpt>
      <trkpt lat="47.27864" lon="-1.29985">
        <ele>127</ele>
        <time>2014-11-16T09:44:57.000Z</time>
      </trkpt>
      <trkpt lat="47.27859" lon="-1.29977">
        <ele>127</ele>
        <time>2014-11-16T09:44:59.000Z</time>
      </trkpt>
      <trkpt lat="47.27856" lon="-1.29969">
        <ele>128</ele>
        <time>2014-11-16T09:45:01.000Z</time>
      </trkpt>
      <trkpt lat="47.27852" lon="-1.29961">
        <ele>128</ele>
        <time>2014-11-16T09:45:03.000Z</time>
      </trkpt>
      <trkpt lat="47.27849" lon="-1.29954">
        <ele>128</ele>
        <time>2014-11-16T09:45:05.000Z</time>
      </trkpt>
      <trkpt lat="47.27847" lon="-1.29946">
        <ele>128</ele>
        <time>2014-11-16T09:45:07.000Z</time>
      </trkpt>
      <trkpt lat="47.27843" lon="-1.29938">
        <ele>127</ele>
        <time>2014-11-16T09:45:09.000Z</time>
      </trkpt>
      <trkpt lat="47.2784" lon="-1.29931">
        <ele>129</ele>
        <time>2014-11-16T09:45:11.000Z</time>
      </trkpt>
      <trkpt lat="47.27837" lon="-1.29923">
        <ele>129</ele>
        <time>2014-11-16T09:45:13.000Z</time>
      </trkpt>
      <trkpt lat="47.27833" lon="-1.29916">
        <ele>128</ele>
        <time>2014-11-16T09:45:15.000Z</time>
      </trkpt>
      <trkpt lat="47.27833" lon="-1.29916">
        <ele>128</ele>
        <time>2014-11-16T09:45:17.000Z</time>
      </trkpt>
      <trkpt lat="47.27827" lon="-1.29903">
        <ele>129</ele>
        <time>2014-11-16T09:45:19.000Z</time>
      </trkpt>
      <trkpt lat="47.27827" lon="-1.29903">
        <ele>129</ele>
        <time>2014-11-16T09:45:21.000Z</time>
      </trkpt>
      <trkpt lat="47.27821" lon="-1.2989">
        <ele>129</ele>
        <time>2014-11-16T09:45:23.000Z</time>
      </trkpt>
      <trkpt lat="47.27818" lon="-1.29883">
        <ele>129</ele>
        <time>2014-11-16T09:45:25.000Z</time>
      </trkpt>
      <trkpt lat="47.27814" lon="-1.29875">
        <ele>130</ele>
        <time>2014-11-16T09:45:27.000Z</time>
      </trkpt>
      <trkpt lat="47.27811" lon="-1.29867">
        <ele>130</ele>
        <time>2014-11-16T09:45:29.000Z</time>
      </trkpt>
      <trkpt lat="47.2781" lon="-1.29858">
        <ele>129</ele>
        <time>2014-11-16T09:45:31.000Z</time>
      </trkpt>
      <trkpt lat="47.27812" lon="-1.29849">
        <ele>129</ele>
        <time>2014-11-16T09:45:33.000Z</time>
      </trkpt>
      <trkpt lat="47.27818" lon="-1.29845">
        <ele>130</ele>
        <time>2014-11-16T09:45:35.000Z</time>
      </trkpt>
      <trkpt lat="47.27824" lon="-1.29842">
        <ele>131</ele>
        <time>2014-11-16T09:45:37.000Z</time>
      </trkpt>
      <trkpt lat="47.27831" lon="-1.2984">
        <ele>130</ele>
        <time>2014-11-16T09:45:39.000Z</time>
      </trkpt>
      <trkpt lat="47.27837" lon="-1.2984">
        <ele>131</ele>
        <time>2014-11-16T09:45:41.000Z</time>
      </trkpt>
      <trkpt lat="47.27843" lon="-1.29839">
        <ele>130</ele>
        <time>2014-11-16T09:45:43.000Z</time>
      </trkpt>
      <trkpt lat="47.2785" lon="-1.29837">
        <ele>131</ele>
        <time>2014-11-16T09:45:45.000Z</time>
      </trkpt>
      <trkpt lat="47.27856" lon="-1.29835">
        <ele>130</ele>
        <time>2014-11-16T09:45:47.000Z</time>
      </trkpt>
      <trkpt lat="47.27863" lon="-1.29833">
        <ele>128</ele>
        <time>2014-11-16T09:45:49.000Z</time>
      </trkpt>
      <trkpt lat="47.2787" lon="-1.29832">
        <ele>130</ele>
        <time>2014-11-16T09:45:51.000Z</time>
      </trkpt>
      <trkpt lat="47.27876" lon="-1.2983">
        <ele>129</ele>
        <time>2014-11-16T09:45:53.000Z</time>
      </trkpt>
      <trkpt lat="47.27883" lon="-1.29828">
        <ele>129</ele>
        <time>2014-11-16T09:45:55.000Z</time>
      </trkpt>
      <trkpt lat="47.2789" lon="-1.29827">
        <ele>129</ele>
        <time>2014-11-16T09:45:57.000Z</time>
      </trkpt>
      <trkpt lat="47.27897" lon="-1.29825">
        <ele>129</ele>
        <time>2014-11-16T09:45:59.000Z</time>
      </trkpt>
      <trkpt lat="47.27905" lon="-1.29823">
        <ele>129</ele>
        <time>2014-11-16T09:46:01.000Z</time>
      </trkpt>
      <trkpt lat="47.27911" lon="-1.29821">
        <ele>129</ele>
        <time>2014-11-16T09:46:03.000Z</time>
      </trkpt>
      <trkpt lat="47.27918" lon="-1.29819">
        <ele>127</ele>
        <time>2014-11-16T09:46:05.000Z</time>
      </trkpt>
      <trkpt lat="47.27925" lon="-1.29817">
        <ele>127</ele>
        <time>2014-11-16T09:46:07.000Z</time>
      </trkpt>
      <trkpt lat="47.27932" lon="-1.29815">
        <ele>126</ele>
        <time>2014-11-16T09:46:09.000Z</time>
      </trkpt>
      <trkpt lat="47.27939" lon="-1.29813">
        <ele>127</ele>
        <time>2014-11-16T09:46:11.000Z</time>
      </trkpt>
      <trkpt lat="47.27946" lon="-1.2981">
        <ele>128</ele>
        <time>2014-11-16T09:46:13.000Z</time>
      </trkpt>
      <trkpt lat="47.27953" lon="-1.29809">
        <ele>127</ele>
        <time>2014-11-16T09:46:15.000Z</time>
      </trkpt>
      <trkpt lat="47.2796" lon="-1.29807">
        <ele>127</ele>
        <time>2014-11-16T09:46:17.000Z</time>
      </trkpt>
      <trkpt lat="47.27967" lon="-1.29805">
        <ele>127</ele>
        <time>2014-11-16T09:46:19.000Z</time>
      </trkpt>
      <trkpt lat="47.27975" lon="-1.29803">
        <ele>128</ele>
        <time>2014-11-16T09:46:21.000Z</time>
      </trkpt>
      <trkpt lat="47.27982" lon="-1.29801">
        <ele>128</ele>
        <time>2014-11-16T09:46:23.000Z</time>
      </trkpt>
      <trkpt lat="47.27989" lon="-1.29799">
        <ele>127</ele>
        <time>2014-11-16T09:46:25.000Z</time>
      </trkpt>
      <trkpt lat="47.27996" lon="-1.29797">
        <ele>126</ele>
        <time>2014-11-16T09:46:27.000Z</time>
      </trkpt>
      <trkpt lat="47.28004" lon="-1.29796">
        <ele>126</ele>
        <time>2014-11-16T09:46:29.000Z</time>
      </trkpt>
      <trkpt lat="47.28011" lon="-1.29795">
        <ele>125</ele>
        <time>2014-11-16T09:46:31.000Z</time>
      </trkpt>
      <trkpt lat="47.28019" lon="-1.29794">
        <ele>125</ele>
        <time>2014-11-16T09:46:33.000Z</time>
      </trkpt>
      <trkpt lat="47.28027" lon="-1.29793">
        <ele>125</ele>
        <time>2014-11-16T09:46:35.000Z</time>
      </trkpt>
      <trkpt lat="47.28034" lon="-1.29793">
        <ele>125</ele>
        <time>2014-11-16T09:46:37.000Z</time>
      </trkpt>
      <trkpt lat="47.28042" lon="-1.29791">
        <ele>125</ele>
        <time>2014-11-16T09:46:39.000Z</time>
      </trkpt>
      <trkpt lat="47.2805" lon="-1.29789">
        <ele>126</ele>
        <time>2014-11-16T09:46:41.000Z</time>
      </trkpt>
      <trkpt lat="47.28058" lon="-1.29787">
        <ele>126</ele>
        <time>2014-11-16T09:46:43.000Z</time>
      </trkpt>
      <trkpt lat="47.28067" lon="-1.29785">
        <ele>126</ele>
        <time>2014-11-16T09:46:45.000Z</time>
      </trkpt>
      <trkpt lat="47.28075" lon="-1.29783">
        <ele>125</ele>
        <time>2014-11-16T09:46:47.000Z</time>
      </trkpt>
      <trkpt lat="47.28083" lon="-1.29781">
        <ele>125</ele>
        <time>2014-11-16T09:46:49.000Z</time>
      </trkpt>
      <trkpt lat="47.28092" lon="-1.29781">
        <ele>126</ele>
        <time>2014-11-16T09:46:51.000Z</time>
      </trkpt>
      <trkpt lat="47.28101" lon="-1.2978">
        <ele>127</ele>
        <time>2014-11-16T09:46:53.000Z</time>
      </trkpt>
      <trkpt lat="47.28109" lon="-1.29779">
        <ele>128</ele>
        <time>2014-11-16T09:46:55.000Z</time>
      </trkpt>
      <trkpt lat="47.28117" lon="-1.29778">
        <ele>128</ele>
        <time>2014-11-16T09:46:57.000Z</time>
      </trkpt>
      <trkpt lat="47.28125" lon="-1.29778">
        <ele>128</ele>
        <time>2014-11-16T09:46:59.000Z</time>
      </trkpt>
      <trkpt lat="47.28134" lon="-1.29778">
        <ele>128</ele>
        <time>2014-11-16T09:47:01.000Z</time>
      </trkpt>
      <trkpt lat="47.28143" lon="-1.29779">
        <ele>126</ele>
        <time>2014-11-16T09:47:03.000Z</time>
      </trkpt>
      <trkpt lat="47.28152" lon="-1.29777">
        <ele>127</ele>
        <time>2014-11-16T09:47:05.000Z</time>
      </trkpt>
      <trkpt lat="47.28161" lon="-1.29776">
        <ele>126</ele>
        <time>2014-11-16T09:47:07.000Z</time>
      </trkpt>
      <trkpt lat="47.2817" lon="-1.29776">
        <ele>126</ele>
        <time>2014-11-16T09:47:09.000Z</time>
      </trkpt>
      <trkpt lat="47.2818" lon="-1.29775">
        <ele>125</ele>
        <time>2014-11-16T09:47:11.000Z</time>
      </trkpt>
      <trkpt lat="47.28191" lon="-1.29774">
        <ele>124</ele>
        <time>2014-11-16T09:47:13.000Z</time>
      </trkpt>
      <trkpt lat="47.28201" lon="-1.29773">
        <ele>124</ele>
        <time>2014-11-16T09:47:15.000Z</time>
      </trkpt>
      <trkpt lat="47.2821" lon="-1.29771">
        <ele>122</ele>
        <time>2014-11-16T09:47:17.000Z</time>
      </trkpt>
      <trkpt lat="47.28219" lon="-1.29771">
        <ele>123</ele>
        <time>2014-11-16T09:47:19.000Z</time>
      </trkpt>
      <trkpt lat="47.28229" lon="-1.29772">
        <ele>121</ele>
        <time>2014-11-16T09:47:21.000Z</time>
      </trkpt>
      <trkpt lat="47.28237" lon="-1.2977">
        <ele>122</ele>
        <time>2014-11-16T09:47:23.000Z</time>
      </trkpt>
      <trkpt lat="47.28246" lon="-1.2977">
        <ele>122</ele>
        <time>2014-11-16T09:47:25.000Z</time>
      </trkpt>
      <trkpt lat="47.28255" lon="-1.2977">
        <ele>122</ele>
        <time>2014-11-16T09:47:27.000Z</time>
      </trkpt>
      <trkpt lat="47.28263" lon="-1.29769">
        <ele>122</ele>
        <time>2014-11-16T09:47:29.000Z</time>
      </trkpt>
      <trkpt lat="47.28271" lon="-1.29769">
        <ele>122</ele>
        <time>2014-11-16T09:47:31.000Z</time>
      </trkpt>
      <trkpt lat="47.28281" lon="-1.29767">
        <ele>120</ele>
        <time>2014-11-16T09:47:33.000Z</time>
      </trkpt>
      <trkpt lat="47.28289" lon="-1.29766">
        <ele>121</ele>
        <time>2014-11-16T09:47:35.000Z</time>
      </trkpt>
      <trkpt lat="47.28297" lon="-1.29759">
        <ele>120</ele>
        <time>2014-11-16T09:47:37.000Z</time>
      </trkpt>
      <trkpt lat="47.28303" lon="-1.29753">
        <ele>121</ele>
        <time>2014-11-16T09:47:39.000Z</time>
      </trkpt>
      <trkpt lat="47.28311" lon="-1.29752">
        <ele>121</ele>
        <time>2014-11-16T09:47:41.000Z</time>
      </trkpt>
      <trkpt lat="47.28321" lon="-1.29755">
        <ele>120</ele>
        <time>2014-11-16T09:47:43.000Z</time>
      </trkpt>
      <trkpt lat="47.28331" lon="-1.29753">
        <ele>120</ele>
        <time>2014-11-16T09:47:45.000Z</time>
      </trkpt>
      <trkpt lat="47.2834" lon="-1.2975">
        <ele>121</ele>
        <time>2014-11-16T09:47:47.000Z</time>
      </trkpt>
      <trkpt lat="47.2835" lon="-1.29749">
        <ele>121</ele>
        <time>2014-11-16T09:47:49.000Z</time>
      </trkpt>
      <trkpt lat="47.2836" lon="-1.29745">
        <ele>121</ele>
        <time>2014-11-16T09:47:51.000Z</time>
      </trkpt>
      <trkpt lat="47.28371" lon="-1.29743">
        <ele>121</ele>
        <time>2014-11-16T09:47:53.000Z</time>
      </trkpt>
      <trkpt lat="47.28382" lon="-1.2974">
        <ele>121</ele>
        <time>2014-11-16T09:47:55.000Z</time>
      </trkpt>
      <trkpt lat="47.28392" lon="-1.29737">
        <ele>122</ele>
        <time>2014-11-16T09:47:57.000Z</time>
      </trkpt>
      <trkpt lat="47.28404" lon="-1.29734">
        <ele>121</ele>
        <time>2014-11-16T09:47:59.000Z</time>
      </trkpt>
      <trkpt lat="47.28416" lon="-1.2973">
        <ele>121</ele>
        <time>2014-11-16T09:48:01.000Z</time>
      </trkpt>
      <trkpt lat="47.28428" lon="-1.29727">
        <ele>121</ele>
        <time>2014-11-16T09:48:03.000Z</time>
      </trkpt>
      <trkpt lat="47.28439" lon="-1.29725">
        <ele>121</ele>
        <time>2014-11-16T09:48:05.000Z</time>
      </trkpt>
      <trkpt lat="47.2845" lon="-1.29723">
        <ele>121</ele>
        <time>2014-11-16T09:48:07.000Z</time>
      </trkpt>
      <trkpt lat="47.28462" lon="-1.29721">
        <ele>121</ele>
        <time>2014-11-16T09:48:09.000Z</time>
      </trkpt>
      <trkpt lat="47.28474" lon="-1.29718">
        <ele>120</ele>
        <time>2014-11-16T09:48:11.000Z</time>
      </trkpt>
      <trkpt lat="47.28487" lon="-1.29717">
        <ele>120</ele>
        <time>2014-11-16T09:48:13.000Z</time>
      </trkpt>
      <trkpt lat="47.28499" lon="-1.29715">
        <ele>119</ele>
        <time>2014-11-16T09:48:15.000Z</time>
      </trkpt>
      <trkpt lat="47.28512" lon="-1.29716">
        <ele>118</ele>
        <time>2014-11-16T09:48:17.000Z</time>
      </trkpt>
      <trkpt lat="47.28524" lon="-1.29713">
        <ele>118</ele>
        <time>2014-11-16T09:48:19.000Z</time>
      </trkpt>
      <trkpt lat="47.28535" lon="-1.29709">
        <ele>118</ele>
        <time>2014-11-16T09:48:21.000Z</time>
      </trkpt>
      <trkpt lat="47.28547" lon="-1.29703">
        <ele>118</ele>
        <time>2014-11-16T09:48:23.000Z</time>
      </trkpt>
      <trkpt lat="47.28559" lon="-1.297">
        <ele>118</ele>
        <time>2014-11-16T09:48:25.000Z</time>
      </trkpt>
      <trkpt lat="47.2857" lon="-1.29695">
        <ele>118</ele>
        <time>2014-11-16T09:48:27.000Z</time>
      </trkpt>
      <trkpt lat="47.28581" lon="-1.29689">
        <ele>119</ele>
        <time>2014-11-16T09:48:29.000Z</time>
      </trkpt>
      <trkpt lat="47.28593" lon="-1.29684">
        <ele>117</ele>
        <time>2014-11-16T09:48:31.000Z</time>
      </trkpt>
      <trkpt lat="47.28606" lon="-1.29678">
        <ele>116</ele>
        <time>2014-11-16T09:48:33.000Z</time>
      </trkpt>
      <trkpt lat="47.28617" lon="-1.29672">
        <ele>117</ele>
        <time>2014-11-16T09:48:35.000Z</time>
      </trkpt>
      <trkpt lat="47.28627" lon="-1.29664">
        <ele>122</ele>
        <time>2014-11-16T09:48:37.000Z</time>
      </trkpt>
      <trkpt lat="47.28639" lon="-1.29657">
        <ele>120</ele>
        <time>2014-11-16T09:48:39.000Z</time>
      </trkpt>
      <trkpt lat="47.28651" lon="-1.29649">
        <ele>119</ele>
        <time>2014-11-16T09:48:41.000Z</time>
      </trkpt>
      <trkpt lat="47.28661" lon="-1.29642">
        <ele>119</ele>
        <time>2014-11-16T09:48:43.000Z</time>
      </trkpt>
      <trkpt lat="47.28672" lon="-1.29636">
        <ele>121</ele>
        <time>2014-11-16T09:48:45.000Z</time>
      </trkpt>
      <trkpt lat="47.28686" lon="-1.29629">
        <ele>116</ele>
        <time>2014-11-16T09:48:47.000Z</time>
      </trkpt>
      <trkpt lat="47.28697" lon="-1.29636">
        <ele>115</ele>
        <time>2014-11-16T09:48:49.000Z</time>
      </trkpt>
      <trkpt lat="47.28702" lon="-1.29652">
        <ele>117</ele>
        <time>2014-11-16T09:48:51.000Z</time>
      </trkpt>
      <trkpt lat="47.28705" lon="-1.2967">
        <ele>118</ele>
        <time>2014-11-16T09:48:53.000Z</time>
      </trkpt>
      <trkpt lat="47.28709" lon="-1.29687">
        <ele>118</ele>
        <time>2014-11-16T09:48:55.000Z</time>
      </trkpt>
      <trkpt lat="47.28711" lon="-1.29704">
        <ele>120</ele>
        <time>2014-11-16T09:48:57.000Z</time>
      </trkpt>
      <trkpt lat="47.28715" lon="-1.2972">
        <ele>120</ele>
        <time>2014-11-16T09:48:59.000Z</time>
      </trkpt>
      <trkpt lat="47.28717" lon="-1.29736">
        <ele>120</ele>
        <time>2014-11-16T09:49:01.000Z</time>
      </trkpt>
      <trkpt lat="47.28719" lon="-1.29751">
        <ele>120</ele>
        <time>2014-11-16T09:49:03.000Z</time>
      </trkpt>
      <trkpt lat="47.28722" lon="-1.29767">
        <ele>120</ele>
        <time>2014-11-16T09:49:05.000Z</time>
      </trkpt>
      <trkpt lat="47.28724" lon="-1.29782">
        <ele>121</ele>
        <time>2014-11-16T09:49:07.000Z</time>
      </trkpt>
      <trkpt lat="47.28727" lon="-1.29799">
        <ele>121</ele>
        <time>2014-11-16T09:49:09.000Z</time>
      </trkpt>
      <trkpt lat="47.28731" lon="-1.29815">
        <ele>120</ele>
        <time>2014-11-16T09:49:11.000Z</time>
      </trkpt>
      <trkpt lat="47.28732" lon="-1.2983">
        <ele>120</ele>
        <time>2014-11-16T09:49:13.000Z</time>
      </trkpt>
      <trkpt lat="47.28733" lon="-1.29846">
        <ele>118</ele>
        <time>2014-11-16T09:49:15.000Z</time>
      </trkpt>
      <trkpt lat="47.28734" lon="-1.29859">
        <ele>117</ele>
        <time>2014-11-16T09:49:17.000Z</time>
      </trkpt>
      <trkpt lat="47.28734" lon="-1.29871">
        <ele>115</ele>
        <time>2014-11-16T09:49:19.000Z</time>
      </trkpt>
      <trkpt lat="47.28736" lon="-1.29883">
        <ele>115</ele>
        <time>2014-11-16T09:49:21.000Z</time>
      </trkpt>
      <trkpt lat="47.28742" lon="-1.29891">
        <ele>113</ele>
        <time>2014-11-16T09:49:23.000Z</time>
      </trkpt>
      <trkpt lat="47.28751" lon="-1.29898">
        <ele>112</ele>
        <time>2014-11-16T09:49:25.000Z</time>
      </trkpt>
      <trkpt lat="47.28759" lon="-1.29899">
        <ele>112</ele>
        <time>2014-11-16T09:49:27.000Z</time>
      </trkpt>
      <trkpt lat="47.28767" lon="-1.299">
        <ele>112</ele>
        <time>2014-11-16T09:49:29.000Z</time>
      </trkpt>
      <trkpt lat="47.28773" lon="-1.29902">
        <ele>113</ele>
        <time>2014-11-16T09:49:31.000Z</time>
      </trkpt>
      <trkpt lat="47.2878" lon="-1.29905">
        <ele>114</ele>
        <time>2014-11-16T09:49:33.000Z</time>
      </trkpt>
      <trkpt lat="47.28786" lon="-1.29909">
        <ele>115</ele>
        <time>2014-11-16T09:49:35.000Z</time>
      </trkpt>
      <trkpt lat="47.28792" lon="-1.29912">
        <ele>114</ele>
        <time>2014-11-16T09:49:37.000Z</time>
      </trkpt>
      <trkpt lat="47.28798" lon="-1.29917">
        <ele>114</ele>
        <time>2014-11-16T09:49:39.000Z</time>
      </trkpt>
      <trkpt lat="47.28803" lon="-1.29922">
        <ele>115</ele>
        <time>2014-11-16T09:49:41.000Z</time>
      </trkpt>
      <trkpt lat="47.28803" lon="-1.29922">
        <ele>115</ele>
        <time>2014-11-16T09:49:43.000Z</time>
      </trkpt>
      <trkpt lat="47.28808" lon="-1.29925">
        <ele>116</ele>
        <time>2014-11-16T09:49:45.000Z</time>
      </trkpt>
      <trkpt lat="47.28814" lon="-1.29928">
        <ele>114</ele>
        <time>2014-11-16T09:49:47.000Z</time>
      </trkpt>
      <trkpt lat="47.28819" lon="-1.2993">
        <ele>114</ele>
        <time>2014-11-16T09:49:49.000Z</time>
      </trkpt>
      <trkpt lat="47.28823" lon="-1.29933">
        <ele>114</ele>
        <time>2014-11-16T09:49:51.000Z</time>
      </trkpt>
      <trkpt lat="47.28823" lon="-1.29933">
        <ele>114</ele>
        <time>2014-11-16T09:49:53.000Z</time>
      </trkpt>
      <trkpt lat="47.28823" lon="-1.29933">
        <ele>114</ele>
        <time>2014-11-16T09:49:55.000Z</time>
      </trkpt>
      <trkpt lat="47.28823" lon="-1.29933">
        <ele>114</ele>
        <time>2014-11-16T09:49:57.000Z</time>
      </trkpt>
      <trkpt lat="47.28823" lon="-1.29933">
        <ele>114</ele>
        <time>2014-11-16T09:50:01.000Z</time>
      </trkpt>
      <trkpt lat="47.28823" lon="-1.29933">
        <ele>114</ele>
        <time>2014-11-16T09:50:03.000Z</time>
      </trkpt>
      <trkpt lat="47.28823" lon="-1.29933">
        <ele>114</ele>
        <time>2014-11-16T09:50:05.000Z</time>
      </trkpt>
      <trkpt lat="47.28828" lon="-1.29935">
        <ele>115</ele>
        <time>2014-11-16T09:50:17.000Z</time>
      </trkpt>
      <trkpt lat="47.28832" lon="-1.29937">
        <ele>114</ele>
        <time>2014-11-16T09:50:19.000Z</time>
      </trkpt>
      <trkpt lat="47.28835" lon="-1.29939">
        <ele>115</ele>
        <time>2014-11-16T09:50:21.000Z</time>
      </trkpt>
      <trkpt lat="47.28839" lon="-1.2994">
        <ele>114</ele>
        <time>2014-11-16T09:50:23.000Z</time>
      </trkpt>
      <trkpt lat="47.28842" lon="-1.29942">
        <ele>114</ele>
        <time>2014-11-16T09:50:25.000Z</time>
      </trkpt>
      <trkpt lat="47.28848" lon="-1.29944">
        <ele>114</ele>
        <time>2014-11-16T09:50:27.000Z</time>
      </trkpt>
      <trkpt lat="47.28848" lon="-1.29944">
        <ele>114</ele>
        <time>2014-11-16T09:50:29.000Z</time>
      </trkpt>
      <trkpt lat="47.28848" lon="-1.29944">
        <ele>114</ele>
        <time>2014-11-16T09:50:31.000Z</time>
      </trkpt>
      <trkpt lat="47.28854" lon="-1.29946">
        <ele>114</ele>
        <time>2014-11-16T09:50:33.000Z</time>
      </trkpt>
      <trkpt lat="47.28854" lon="-1.29946">
        <ele>114</ele>
        <time>2014-11-16T09:50:35.000Z</time>
      </trkpt>
      <trkpt lat="47.28854" lon="-1.29946">
        <ele>114</ele>
        <time>2014-11-16T09:50:37.000Z</time>
      </trkpt>
      <trkpt lat="47.28854" lon="-1.29946">
        <ele>114</ele>
        <time>2014-11-16T09:50:39.000Z</time>
      </trkpt>
      <trkpt lat="47.28854" lon="-1.29946">
        <ele>114</ele>
        <time>2014-11-16T09:50:41.000Z</time>
      </trkpt>
      <trkpt lat="47.28854" lon="-1.29946">
        <ele>114</ele>
        <time>2014-11-16T09:50:43.000Z</time>
      </trkpt>
      <trkpt lat="47.2886" lon="-1.29947">
        <ele>113</ele>
        <time>2014-11-16T09:50:47.000Z</time>
      </trkpt>
      <trkpt lat="47.28867" lon="-1.29947">
        <ele>112</ele>
        <time>2014-11-16T09:50:53.000Z</time>
      </trkpt>
      <trkpt lat="47.28873" lon="-1.29946">
        <ele>112</ele>
        <time>2014-11-16T09:50:57.000Z</time>
      </trkpt>
      <trkpt lat="47.28879" lon="-1.29945">
        <ele>113</ele>
        <time>2014-11-16T09:51:01.000Z</time>
      </trkpt>
      <trkpt lat="47.28888" lon="-1.29946">
        <ele>113</ele>
        <time>2014-11-16T09:51:05.000Z</time>
      </trkpt>
      <trkpt lat="47.28897" lon="-1.29945">
        <ele>112</ele>
        <time>2014-11-16T09:51:09.000Z</time>
      </trkpt>
      <trkpt lat="47.28905" lon="-1.2994">
        <ele>110</ele>
        <time>2014-11-16T09:51:13.000Z</time>
      </trkpt>
      <trkpt lat="47.2891" lon="-1.29931">
        <ele>110</ele>
        <time>2014-11-16T09:51:17.000Z</time>
      </trkpt>
      <trkpt lat="47.28912" lon="-1.29918">
        <ele>110</ele>
        <time>2014-11-16T09:51:21.000Z</time>
      </trkpt>
      <trkpt lat="47.28912" lon="-1.29918">
        <ele>110</ele>
        <time>2014-11-16T09:51:23.000Z</time>
      </trkpt>
      <trkpt lat="47.28912" lon="-1.29918">
        <ele>110</ele>
        <time>2014-11-16T09:51:25.000Z</time>
      </trkpt>
      <trkpt lat="47.28912" lon="-1.29906">
        <ele>112</ele>
        <time>2014-11-16T09:51:27.000Z</time>
      </trkpt>
      <trkpt lat="47.28912" lon="-1.29906">
        <ele>112</ele>
        <time>2014-11-16T09:51:29.000Z</time>
      </trkpt>
      <trkpt lat="47.28914" lon="-1.29898">
        <ele>113</ele>
        <time>2014-11-16T09:51:31.000Z</time>
      </trkpt>
      <trkpt lat="47.28914" lon="-1.29898">
        <ele>113</ele>
        <time>2014-11-16T09:51:33.000Z</time>
      </trkpt>
      <trkpt lat="47.28914" lon="-1.29898">
        <ele>113</ele>
        <time>2014-11-16T09:51:35.000Z</time>
      </trkpt>
      <trkpt lat="47.28922" lon="-1.29897">
        <ele>113</ele>
        <time>2014-11-16T09:51:37.000Z</time>
      </trkpt>
      <trkpt lat="47.28928" lon="-1.299">
        <ele>115</ele>
        <time>2014-11-16T09:51:41.000Z</time>
      </trkpt>
      <trkpt lat="47.28936" lon="-1.299">
        <ele>115</ele>
        <time>2014-11-16T09:51:45.000Z</time>
      </trkpt>
      <trkpt lat="47.28943" lon="-1.29899">
        <ele>114</ele>
        <time>2014-11-16T09:51:49.000Z</time>
      </trkpt>
      <trkpt lat="47.28943" lon="-1.29899">
        <ele>114</ele>
        <time>2014-11-16T09:51:51.000Z</time>
      </trkpt>
      <trkpt lat="47.28943" lon="-1.29899">
        <ele>114</ele>
        <time>2014-11-16T09:51:53.000Z</time>
      </trkpt>
      <trkpt lat="47.28943" lon="-1.29899">
        <ele>114</ele>
        <time>2014-11-16T09:51:55.000Z</time>
      </trkpt>
      <trkpt lat="47.28947" lon="-1.29898">
        <ele>116</ele>
        <time>2014-11-16T09:52:03.000Z</time>
      </trkpt>
      <trkpt lat="47.2895" lon="-1.29898">
        <ele>115</ele>
        <time>2014-11-16T09:52:05.000Z</time>
      </trkpt>
      <trkpt lat="47.28953" lon="-1.29899">
        <ele>117</ele>
        <time>2014-11-16T09:52:07.000Z</time>
      </trkpt>
      <trkpt lat="47.28957" lon="-1.299">
        <ele>116</ele>
        <time>2014-11-16T09:52:09.000Z</time>
      </trkpt>
      <trkpt lat="47.2896" lon="-1.29902">
        <ele>116</ele>
        <time>2014-11-16T09:52:11.000Z</time>
      </trkpt>
      <trkpt lat="47.28968" lon="-1.29905">
        <ele>115</ele>
        <time>2014-11-16T09:52:13.000Z</time>
      </trkpt>
      <trkpt lat="47.28977" lon="-1.29908">
        <ele>115</ele>
        <time>2014-11-16T09:52:17.000Z</time>
      </trkpt>
      <trkpt lat="47.28985" lon="-1.29913">
        <ele>113</ele>
        <time>2014-11-16T09:52:21.000Z</time>
      </trkpt>
      <trkpt lat="47.28994" lon="-1.29917">
        <ele>113</ele>
        <time>2014-11-16T09:52:25.000Z</time>
      </trkpt>
      <trkpt lat="47.29003" lon="-1.29921">
        <ele>114</ele>
        <time>2014-11-16T09:52:29.000Z</time>
      </trkpt>
      <trkpt lat="47.29013" lon="-1.29925">
        <ele>112</ele>
        <time>2014-11-16T09:52:33.000Z</time>
      </trkpt>
      <trkpt lat="47.29023" lon="-1.29927">
        <ele>113</ele>
        <time>2014-11-16T09:52:37.000Z</time>
      </trkpt>
      <trkpt lat="47.29033" lon="-1.29922">
        <ele>112</ele>
        <time>2014-11-16T09:52:41.000Z</time>
      </trkpt>
      <trkpt lat="47.29034" lon="-1.29906">
        <ele>113</ele>
        <time>2014-11-16T09:52:45.000Z</time>
      </trkpt>
      <trkpt lat="47.29034" lon="-1.29906">
        <ele>113</ele>
        <time>2014-11-16T09:52:47.000Z</time>
      </trkpt>
      <trkpt lat="47.29038" lon="-1.29897">
        <ele>114</ele>
        <time>2014-11-16T09:52:49.000Z</time>
      </trkpt>
      <trkpt lat="47.29038" lon="-1.29897">
        <ele>114</ele>
        <time>2014-11-16T09:52:51.000Z</time>
      </trkpt>
      <trkpt lat="47.29045" lon="-1.29891">
        <ele>113</ele>
        <time>2014-11-16T09:52:53.000Z</time>
      </trkpt>
      <trkpt lat="47.29053" lon="-1.29881">
        <ele>110</ele>
        <time>2014-11-16T09:52:57.000Z</time>
      </trkpt>
      <trkpt lat="47.29062" lon="-1.2987">
        <ele>107</ele>
        <time>2014-11-16T09:53:01.000Z</time>
      </trkpt>
      <trkpt lat="47.29066" lon="-1.29862">
        <ele>108</ele>
        <time>2014-11-16T09:53:03.000Z</time>
      </trkpt>
      <trkpt lat="47.2907" lon="-1.29854">
        <ele>106</ele>
        <time>2014-11-16T09:53:05.000Z</time>
      </trkpt>
      <trkpt lat="47.29073" lon="-1.29845">
        <ele>106</ele>
        <time>2014-11-16T09:53:07.000Z</time>
      </trkpt>
      <trkpt lat="47.29075" lon="-1.29838">
        <ele>106</ele>
        <time>2014-11-16T09:53:09.000Z</time>
      </trkpt>
      <trkpt lat="47.29075" lon="-1.29838">
        <ele>106</ele>
        <time>2014-11-16T09:53:11.000Z</time>
      </trkpt>
      <trkpt lat="47.29081" lon="-1.29822">
        <ele>105</ele>
        <time>2014-11-16T09:53:13.000Z</time>
      </trkpt>
      <trkpt lat="47.29085" lon="-1.29813">
        <ele>104</ele>
        <time>2014-11-16T09:53:15.000Z</time>
      </trkpt>
      <trkpt lat="47.2909" lon="-1.29804">
        <ele>104</ele>
        <time>2014-11-16T09:53:17.000Z</time>
      </trkpt>
      <trkpt lat="47.29094" lon="-1.29796">
        <ele>103</ele>
        <time>2014-11-16T09:53:19.000Z</time>
      </trkpt>
      <trkpt lat="47.29099" lon="-1.29789">
        <ele>101</ele>
        <time>2014-11-16T09:53:21.000Z</time>
      </trkpt>
      <trkpt lat="47.29103" lon="-1.29781">
        <ele>101</ele>
        <time>2014-11-16T09:53:23.000Z</time>
      </trkpt>
      <trkpt lat="47.29108" lon="-1.29767">
        <ele>99</ele>
        <time>2014-11-16T09:53:25.000Z</time>
      </trkpt>
      <trkpt lat="47.29111" lon="-1.29758">
        <ele>99</ele>
        <time>2014-11-16T09:53:27.000Z</time>
      </trkpt>
      <trkpt lat="47.29118" lon="-1.2975">
        <ele>99</ele>
        <time>2014-11-16T09:53:29.000Z</time>
      </trkpt>
      <trkpt lat="47.29123" lon="-1.29744">
        <ele>98</ele>
        <time>2014-11-16T09:53:31.000Z</time>
      </trkpt>
      <trkpt lat="47.2913" lon="-1.29739">
        <ele>97</ele>
        <time>2014-11-16T09:53:33.000Z</time>
      </trkpt>
      <trkpt lat="47.2913" lon="-1.29739">
        <ele>97</ele>
        <time>2014-11-16T09:53:35.000Z</time>
      </trkpt>
      <trkpt lat="47.29138" lon="-1.2973">
        <ele>97</ele>
        <time>2014-11-16T09:53:37.000Z</time>
      </trkpt>
      <trkpt lat="47.29138" lon="-1.2973">
        <ele>97</ele>
        <time>2014-11-16T09:53:39.000Z</time>
      </trkpt>
      <trkpt lat="47.29147" lon="-1.2972">
        <ele>98</ele>
        <time>2014-11-16T09:53:41.000Z</time>
      </trkpt>
      <trkpt lat="47.29152" lon="-1.29715">
        <ele>99</ele>
        <time>2014-11-16T09:53:43.000Z</time>
      </trkpt>
      <trkpt lat="47.29161" lon="-1.29706">
        <ele>104</ele>
        <time>2014-11-16T09:53:47.000Z</time>
      </trkpt>
      <trkpt lat="47.29166" lon="-1.297">
        <ele>106</ele>
        <time>2014-11-16T09:53:49.000Z</time>
      </trkpt>
      <trkpt lat="47.29171" lon="-1.29695">
        <ele>106</ele>
        <time>2014-11-16T09:53:51.000Z</time>
      </trkpt>
      <trkpt lat="47.29175" lon="-1.2969">
        <ele>105</ele>
        <time>2014-11-16T09:53:53.000Z</time>
      </trkpt>
      <trkpt lat="47.29181" lon="-1.29684">
        <ele>105</ele>
        <time>2014-11-16T09:53:55.000Z</time>
      </trkpt>
      <trkpt lat="47.29186" lon="-1.29679">
        <ele>106</ele>
        <time>2014-11-16T09:53:57.000Z</time>
      </trkpt>
      <trkpt lat="47.29191" lon="-1.29672">
        <ele>105</ele>
        <time>2014-11-16T09:53:59.000Z</time>
      </trkpt>
      <trkpt lat="47.29196" lon="-1.29666">
        <ele>106</ele>
        <time>2014-11-16T09:54:01.000Z</time>
      </trkpt>
      <trkpt lat="47.29201" lon="-1.29659">
        <ele>105</ele>
        <time>2014-11-16T09:54:03.000Z</time>
      </trkpt>
      <trkpt lat="47.29206" lon="-1.29654">
        <ele>106</ele>
        <time>2014-11-16T09:54:05.000Z</time>
      </trkpt>
      <trkpt lat="47.29211" lon="-1.2965">
        <ele>105</ele>
        <time>2014-11-16T09:54:07.000Z</time>
      </trkpt>
      <trkpt lat="47.29211" lon="-1.2965">
        <ele>105</ele>
        <time>2014-11-16T09:54:09.000Z</time>
      </trkpt>
      <trkpt lat="47.29221" lon="-1.29639">
        <ele>104</ele>
        <time>2014-11-16T09:54:11.000Z</time>
      </trkpt>
      <trkpt lat="47.29225" lon="-1.29633">
        <ele>104</ele>
        <time>2014-11-16T09:54:13.000Z</time>
      </trkpt>
      <trkpt lat="47.29225" lon="-1.29633">
        <ele>104</ele>
        <time>2014-11-16T09:54:15.000Z</time>
      </trkpt>
      <trkpt lat="47.29233" lon="-1.29624">
        <ele>107</ele>
        <time>2014-11-16T09:54:17.000Z</time>
      </trkpt>
      <trkpt lat="47.29238" lon="-1.29619">
        <ele>105</ele>
        <time>2014-11-16T09:54:19.000Z</time>
      </trkpt>
      <trkpt lat="47.29243" lon="-1.29614">
        <ele>106</ele>
        <time>2014-11-16T09:54:21.000Z</time>
      </trkpt>
      <trkpt lat="47.29248" lon="-1.2961">
        <ele>106</ele>
        <time>2014-11-16T09:54:23.000Z</time>
      </trkpt>
      <trkpt lat="47.29248" lon="-1.2961">
        <ele>106</ele>
        <time>2014-11-16T09:54:25.000Z</time>
      </trkpt>
      <trkpt lat="47.29257" lon="-1.29602">
        <ele>108</ele>
        <time>2014-11-16T09:54:27.000Z</time>
      </trkpt>
      <trkpt lat="47.29257" lon="-1.29602">
        <ele>108</ele>
        <time>2014-11-16T09:54:29.000Z</time>
      </trkpt>
      <trkpt lat="47.29264" lon="-1.29594">
        <ele>107</ele>
        <time>2014-11-16T09:54:31.000Z</time>
      </trkpt>
      <trkpt lat="47.29264" lon="-1.29594">
        <ele>107</ele>
        <time>2014-11-16T09:54:33.000Z</time>
      </trkpt>
      <trkpt lat="47.2927" lon="-1.29587">
        <ele>112</ele>
        <time>2014-11-16T09:54:35.000Z</time>
      </trkpt>
      <trkpt lat="47.2927" lon="-1.29587">
        <ele>112</ele>
        <time>2014-11-16T09:54:37.000Z</time>
      </trkpt>
      <trkpt lat="47.29272" lon="-1.29576">
        <ele>112</ele>
        <time>2014-11-16T09:54:39.000Z</time>
      </trkpt>
      <trkpt lat="47.29272" lon="-1.29576">
        <ele>112</ele>
        <time>2014-11-16T09:54:41.000Z</time>
      </trkpt>
      <trkpt lat="47.29278" lon="-1.29571">
        <ele>113</ele>
        <time>2014-11-16T09:54:43.000Z</time>
      </trkpt>
      <trkpt lat="47.29278" lon="-1.29571">
        <ele>113</ele>
        <time>2014-11-16T09:54:45.000Z</time>
      </trkpt>
      <trkpt lat="47.29286" lon="-1.29568">
        <ele>111</ele>
        <time>2014-11-16T09:54:47.000Z</time>
      </trkpt>
      <trkpt lat="47.29294" lon="-1.29564">
        <ele>113</ele>
        <time>2014-11-16T09:54:51.000Z</time>
      </trkpt>
      <trkpt lat="47.29303" lon="-1.29558">
        <ele>113</ele>
        <time>2014-11-16T09:54:55.000Z</time>
      </trkpt>
      <trkpt lat="47.29303" lon="-1.29558">
        <ele>113</ele>
        <time>2014-11-16T09:54:57.000Z</time>
      </trkpt>
      <trkpt lat="47.29309" lon="-1.29553">
        <ele>114</ele>
        <time>2014-11-16T09:54:59.000Z</time>
      </trkpt>
      <trkpt lat="47.29315" lon="-1.29549">
        <ele>113</ele>
        <time>2014-11-16T09:55:01.000Z</time>
      </trkpt>
      <trkpt lat="47.29321" lon="-1.29545">
        <ele>114</ele>
        <time>2014-11-16T09:55:03.000Z</time>
      </trkpt>
      <trkpt lat="47.29327" lon="-1.29542">
        <ele>112</ele>
        <time>2014-11-16T09:55:06.000Z</time>
      </trkpt>
      <trkpt lat="47.29333" lon="-1.29539">
        <ele>112</ele>
        <time>2014-11-16T09:55:07.000Z</time>
      </trkpt>
      <trkpt lat="47.29339" lon="-1.29536">
        <ele>113</ele>
        <time>2014-11-16T09:55:09.000Z</time>
      </trkpt>
      <trkpt lat="47.29345" lon="-1.29531">
        <ele>113</ele>
        <time>2014-11-16T09:55:11.000Z</time>
      </trkpt>
      <trkpt lat="47.29349" lon="-1.29526">
        <ele>112</ele>
        <time>2014-11-16T09:55:13.000Z</time>
      </trkpt>
      <trkpt lat="47.29349" lon="-1.29526">
        <ele>112</ele>
        <time>2014-11-16T09:55:15.000Z</time>
      </trkpt>
      <trkpt lat="47.29358" lon="-1.29516">
        <ele>112</ele>
        <time>2014-11-16T09:55:17.000Z</time>
      </trkpt>
      <trkpt lat="47.29358" lon="-1.29516">
        <ele>112</ele>
        <time>2014-11-16T09:55:19.000Z</time>
      </trkpt>
      <trkpt lat="47.29366" lon="-1.29507">
        <ele>110</ele>
        <time>2014-11-16T09:55:21.000Z</time>
      </trkpt>
      <trkpt lat="47.2937" lon="-1.29502">
        <ele>109</ele>
        <time>2014-11-16T09:55:23.000Z</time>
      </trkpt>
      <trkpt lat="47.29375" lon="-1.29497">
        <ele>109</ele>
        <time>2014-11-16T09:55:25.000Z</time>
      </trkpt>
      <trkpt lat="47.2938" lon="-1.29491">
        <ele>108</ele>
        <time>2014-11-16T09:55:27.000Z</time>
      </trkpt>
      <trkpt lat="47.29384" lon="-1.29485">
        <ele>107</ele>
        <time>2014-11-16T09:55:29.000Z</time>
      </trkpt>
      <trkpt lat="47.29388" lon="-1.29478">
        <ele>107</ele>
        <time>2014-11-16T09:55:31.000Z</time>
      </trkpt>
      <trkpt lat="47.29388" lon="-1.29478">
        <ele>107</ele>
        <time>2014-11-16T09:55:33.000Z</time>
      </trkpt>
      <trkpt lat="47.29391" lon="-1.29472">
        <ele>108</ele>
        <time>2014-11-16T09:55:35.000Z</time>
      </trkpt>
      <trkpt lat="47.29395" lon="-1.29466">
        <ele>109</ele>
        <time>2014-11-16T09:55:37.000Z</time>
      </trkpt>
      <trkpt lat="47.29398" lon="-1.29458">
        <ele>107</ele>
        <time>2014-11-16T09:55:39.000Z</time>
      </trkpt>
      <trkpt lat="47.29399" lon="-1.2945">
        <ele>108</ele>
        <time>2014-11-16T09:55:41.000Z</time>
      </trkpt>
      <trkpt lat="47.29401" lon="-1.29443">
        <ele>108</ele>
        <time>2014-11-16T09:55:43.000Z</time>
      </trkpt>
      <trkpt lat="47.29401" lon="-1.29427">
        <ele>109</ele>
        <time>2014-11-16T09:55:45.000Z</time>
      </trkpt>
      <trkpt lat="47.29399" lon="-1.29419">
        <ele>109</ele>
        <time>2014-11-16T09:55:47.000Z</time>
      </trkpt>
      <trkpt lat="47.29397" lon="-1.2941">
        <ele>109</ele>
        <time>2014-11-16T09:55:49.000Z</time>
      </trkpt>
      <trkpt lat="47.29394" lon="-1.29401">
        <ele>110</ele>
        <time>2014-11-16T09:55:51.000Z</time>
      </trkpt>
      <trkpt lat="47.29391" lon="-1.29392">
        <ele>111</ele>
        <time>2014-11-16T09:55:53.000Z</time>
      </trkpt>
      <trkpt lat="47.29389" lon="-1.29383">
        <ele>111</ele>
        <time>2014-11-16T09:55:55.000Z</time>
      </trkpt>
      <trkpt lat="47.29386" lon="-1.29374">
        <ele>112</ele>
        <time>2014-11-16T09:55:57.000Z</time>
      </trkpt>
      <trkpt lat="47.29383" lon="-1.29366">
        <ele>112</ele>
        <time>2014-11-16T09:55:59.000Z</time>
      </trkpt>
      <trkpt lat="47.2938" lon="-1.29358">
        <ele>113</ele>
        <time>2014-11-16T09:56:01.000Z</time>
      </trkpt>
      <trkpt lat="47.29376" lon="-1.2935">
        <ele>113</ele>
        <time>2014-11-16T09:56:03.000Z</time>
      </trkpt>
      <trkpt lat="47.29372" lon="-1.29341">
        <ele>114</ele>
        <time>2014-11-16T09:56:05.000Z</time>
      </trkpt>
      <trkpt lat="47.29369" lon="-1.29332">
        <ele>115</ele>
        <time>2014-11-16T09:56:07.000Z</time>
      </trkpt>
      <trkpt lat="47.29364" lon="-1.29321">
        <ele>115</ele>
        <time>2014-11-16T09:56:09.000Z</time>
      </trkpt>
      <trkpt lat="47.29354" lon="-1.29316">
        <ele>115</ele>
        <time>2014-11-16T09:56:11.000Z</time>
      </trkpt>
      <trkpt lat="47.29345" lon="-1.29318">
        <ele>116</ele>
        <time>2014-11-16T09:56:13.000Z</time>
      </trkpt>
      <trkpt lat="47.29337" lon="-1.2932">
        <ele>116</ele>
        <time>2014-11-16T09:56:15.000Z</time>
      </trkpt>
      <trkpt lat="47.29329" lon="-1.29322">
        <ele>117</ele>
        <time>2014-11-16T09:56:17.000Z</time>
      </trkpt>
      <trkpt lat="47.29321" lon="-1.29324">
        <ele>117</ele>
        <time>2014-11-16T09:56:19.000Z</time>
      </trkpt>
      <trkpt lat="47.29312" lon="-1.29327">
        <ele>117</ele>
        <time>2014-11-16T09:56:21.000Z</time>
      </trkpt>
      <trkpt lat="47.29304" lon="-1.2933">
        <ele>116</ele>
        <time>2014-11-16T09:56:23.000Z</time>
      </trkpt>
      <trkpt lat="47.29296" lon="-1.29333">
        <ele>115</ele>
        <time>2014-11-16T09:56:25.000Z</time>
      </trkpt>
      <trkpt lat="47.29288" lon="-1.29336">
        <ele>115</ele>
        <time>2014-11-16T09:56:27.000Z</time>
      </trkpt>
      <trkpt lat="47.2928" lon="-1.29339">
        <ele>115</ele>
        <time>2014-11-16T09:56:29.000Z</time>
      </trkpt>
      <trkpt lat="47.29272" lon="-1.29343">
        <ele>116</ele>
        <time>2014-11-16T09:56:31.000Z</time>
      </trkpt>
      <trkpt lat="47.29265" lon="-1.29346">
        <ele>116</ele>
        <time>2014-11-16T09:56:33.000Z</time>
      </trkpt>
      <trkpt lat="47.29257" lon="-1.29349">
        <ele>117</ele>
        <time>2014-11-16T09:56:35.000Z</time>
      </trkpt>
      <trkpt lat="47.29249" lon="-1.29351">
        <ele>116</ele>
        <time>2014-11-16T09:56:37.000Z</time>
      </trkpt>
      <trkpt lat="47.29242" lon="-1.29355">
        <ele>116</ele>
        <time>2014-11-16T09:56:39.000Z</time>
      </trkpt>
      <trkpt lat="47.29234" lon="-1.29358">
        <ele>115</ele>
        <time>2014-11-16T09:56:41.000Z</time>
      </trkpt>
      <trkpt lat="47.29226" lon="-1.29362">
        <ele>117</ele>
        <time>2014-11-16T09:56:43.000Z</time>
      </trkpt>
      <trkpt lat="47.29218" lon="-1.29365">
        <ele>116</ele>
        <time>2014-11-16T09:56:45.000Z</time>
      </trkpt>
      <trkpt lat="47.2921" lon="-1.29367">
        <ele>117</ele>
        <time>2014-11-16T09:56:47.000Z</time>
      </trkpt>
      <trkpt lat="47.29201" lon="-1.29369">
        <ele>117</ele>
        <time>2014-11-16T09:56:50.000Z</time>
      </trkpt>
      <trkpt lat="47.29192" lon="-1.29372">
        <ele>117</ele>
        <time>2014-11-16T09:56:51.000Z</time>
      </trkpt>
      <trkpt lat="47.29184" lon="-1.29374">
        <ele>117</ele>
        <time>2014-11-16T09:56:53.000Z</time>
      </trkpt>
      <trkpt lat="47.29176" lon="-1.29375">
        <ele>118</ele>
        <time>2014-11-16T09:56:55.000Z</time>
      </trkpt>
      <trkpt lat="47.29168" lon="-1.29377">
        <ele>117</ele>
        <time>2014-11-16T09:56:57.000Z</time>
      </trkpt>
      <trkpt lat="47.2916" lon="-1.29377">
        <ele>118</ele>
        <time>2014-11-16T09:56:59.000Z</time>
      </trkpt>
      <trkpt lat="47.2915" lon="-1.29379">
        <ele>118</ele>
        <time>2014-11-16T09:57:01.000Z</time>
      </trkpt>
      <trkpt lat="47.29141" lon="-1.29381">
        <ele>118</ele>
        <time>2014-11-16T09:57:03.000Z</time>
      </trkpt>
      <trkpt lat="47.29133" lon="-1.29382">
        <ele>120</ele>
        <time>2014-11-16T09:57:05.000Z</time>
      </trkpt>
      <trkpt lat="47.29124" lon="-1.29383">
        <ele>122</ele>
        <time>2014-11-16T09:57:07.000Z</time>
      </trkpt>
      <trkpt lat="47.29114" lon="-1.29385">
        <ele>122</ele>
        <time>2014-11-16T09:57:09.000Z</time>
      </trkpt>
      <trkpt lat="47.29104" lon="-1.29384">
        <ele>121</ele>
        <time>2014-11-16T09:57:11.000Z</time>
      </trkpt>
      <trkpt lat="47.29093" lon="-1.29385">
        <ele>121</ele>
        <time>2014-11-16T09:57:13.000Z</time>
      </trkpt>
      <trkpt lat="47.29084" lon="-1.29387">
        <ele>120</ele>
        <time>2014-11-16T09:57:15.000Z</time>
      </trkpt>
      <trkpt lat="47.29072" lon="-1.2939">
        <ele>119</ele>
        <time>2014-11-16T09:57:17.000Z</time>
      </trkpt>
      <trkpt lat="47.29062" lon="-1.29392">
        <ele>118</ele>
        <time>2014-11-16T09:57:19.000Z</time>
      </trkpt>
      <trkpt lat="47.29051" lon="-1.29395">
        <ele>118</ele>
        <time>2014-11-16T09:57:21.000Z</time>
      </trkpt>
      <trkpt lat="47.29041" lon="-1.294">
        <ele>118</ele>
        <time>2014-11-16T09:57:23.000Z</time>
      </trkpt>
      <trkpt lat="47.2903" lon="-1.29404">
        <ele>117</ele>
        <time>2014-11-16T09:57:25.000Z</time>
      </trkpt>
      <trkpt lat="47.2902" lon="-1.29409">
        <ele>117</ele>
        <time>2014-11-16T09:57:27.000Z</time>
      </trkpt>
      <trkpt lat="47.2901" lon="-1.29416">
        <ele>115</ele>
        <time>2014-11-16T09:57:29.000Z</time>
      </trkpt>
      <trkpt lat="47.29002" lon="-1.2942">
        <ele>116</ele>
        <time>2014-11-16T09:57:31.000Z</time>
      </trkpt>
      <trkpt lat="47.28994" lon="-1.29425">
        <ele>117</ele>
        <time>2014-11-16T09:57:33.000Z</time>
      </trkpt>
      <trkpt lat="47.28987" lon="-1.2943">
        <ele>116</ele>
        <time>2014-11-16T09:57:35.000Z</time>
      </trkpt>
      <trkpt lat="47.2898" lon="-1.29435">
        <ele>117</ele>
        <time>2014-11-16T09:57:37.000Z</time>
      </trkpt>
      <trkpt lat="47.28974" lon="-1.29439">
        <ele>114</ele>
        <time>2014-11-16T09:57:39.000Z</time>
      </trkpt>
      <trkpt lat="47.28968" lon="-1.29442">
        <ele>115</ele>
        <time>2014-11-16T09:57:41.000Z</time>
      </trkpt>
      <trkpt lat="47.28968" lon="-1.29442">
        <ele>115</ele>
        <time>2014-11-16T09:57:43.000Z</time>
      </trkpt>
      <trkpt lat="47.28958" lon="-1.29436">
        <ele>115</ele>
        <time>2014-11-16T09:57:45.000Z</time>
      </trkpt>
      <trkpt lat="47.28957" lon="-1.29425">
        <ele>115</ele>
        <time>2014-11-16T09:57:47.000Z</time>
      </trkpt>
      <trkpt lat="47.28956" lon="-1.29413">
        <ele>114</ele>
        <time>2014-11-16T09:57:49.000Z</time>
      </trkpt>
      <trkpt lat="47.28955" lon="-1.29396">
        <ele>114</ele>
        <time>2014-11-16T09:57:51.000Z</time>
      </trkpt>
      <trkpt lat="47.28953" lon="-1.29381">
        <ele>113</ele>
        <time>2014-11-16T09:57:53.000Z</time>
      </trkpt>
      <trkpt lat="47.28951" lon="-1.29365">
        <ele>112</ele>
        <time>2014-11-16T09:57:55.000Z</time>
      </trkpt>
      <trkpt lat="47.28951" lon="-1.29347">
        <ele>113</ele>
        <time>2014-11-16T09:57:57.000Z</time>
      </trkpt>
      <trkpt lat="47.28949" lon="-1.29332">
        <ele>111</ele>
        <time>2014-11-16T09:57:59.000Z</time>
      </trkpt>
      <trkpt lat="47.28946" lon="-1.29318">
        <ele>111</ele>
        <time>2014-11-16T09:58:01.000Z</time>
      </trkpt>
      <trkpt lat="47.28943" lon="-1.29305">
        <ele>111</ele>
        <time>2014-11-16T09:58:03.000Z</time>
      </trkpt>
      <trkpt lat="47.28939" lon="-1.29291">
        <ele>109</ele>
        <time>2014-11-16T09:58:05.000Z</time>
      </trkpt>
      <trkpt lat="47.28935" lon="-1.29278">
        <ele>108</ele>
        <time>2014-11-16T09:58:07.000Z</time>
      </trkpt>
      <trkpt lat="47.28932" lon="-1.29268">
        <ele>108</ele>
        <time>2014-11-16T09:58:09.000Z</time>
      </trkpt>
      <trkpt lat="47.2893" lon="-1.29257">
        <ele>108</ele>
        <time>2014-11-16T09:58:11.000Z</time>
      </trkpt>
      <trkpt lat="47.28927" lon="-1.29248">
        <ele>106</ele>
        <time>2014-11-16T09:58:13.000Z</time>
      </trkpt>
      <trkpt lat="47.28924" lon="-1.29237">
        <ele>105</ele>
        <time>2014-11-16T09:58:15.000Z</time>
      </trkpt>
      <trkpt lat="47.28921" lon="-1.29227">
        <ele>104</ele>
        <time>2014-11-16T09:58:17.000Z</time>
      </trkpt>
      <trkpt lat="47.28918" lon="-1.29215">
        <ele>103</ele>
        <time>2014-11-16T09:58:19.000Z</time>
      </trkpt>
      <trkpt lat="47.28915" lon="-1.29203">
        <ele>103</ele>
        <time>2014-11-16T09:58:21.000Z</time>
      </trkpt>
      <trkpt lat="47.28912" lon="-1.29195">
        <ele>103</ele>
        <time>2014-11-16T09:58:23.000Z</time>
      </trkpt>
      <trkpt lat="47.28912" lon="-1.29195">
        <ele>103</ele>
        <time>2014-11-16T09:58:25.000Z</time>
      </trkpt>
      <trkpt lat="47.28903" lon="-1.29194">
        <ele>102</ele>
        <time>2014-11-16T09:58:27.000Z</time>
      </trkpt>
      <trkpt lat="47.28903" lon="-1.29194">
        <ele>102</ele>
        <time>2014-11-16T09:58:29.000Z</time>
      </trkpt>
      <trkpt lat="47.28899" lon="-1.29181">
        <ele>101</ele>
        <time>2014-11-16T09:58:31.000Z</time>
      </trkpt>
      <trkpt lat="47.28893" lon="-1.29167">
        <ele>98</ele>
        <time>2014-11-16T09:58:35.000Z</time>
      </trkpt>
      <trkpt lat="47.28893" lon="-1.29167">
        <ele>98</ele>
        <time>2014-11-16T09:58:37.000Z</time>
      </trkpt>
      <trkpt lat="47.28887" lon="-1.2916">
        <ele>96</ele>
        <time>2014-11-16T09:58:39.000Z</time>
      </trkpt>
      <trkpt lat="47.28887" lon="-1.2916">
        <ele>96</ele>
        <time>2014-11-16T09:58:41.000Z</time>
      </trkpt>
      <trkpt lat="47.28887" lon="-1.2916">
        <ele>96</ele>
        <time>2014-11-16T09:58:43.000Z</time>
      </trkpt>
      <trkpt lat="47.28887" lon="-1.2916">
        <ele>96</ele>
        <time>2014-11-16T09:58:45.000Z</time>
      </trkpt>
      <trkpt lat="47.28887" lon="-1.2916">
        <ele>96</ele>
        <time>2014-11-16T09:58:47.000Z</time>
      </trkpt>
      <trkpt lat="47.28881" lon="-1.29168">
        <ele>97</ele>
        <time>2014-11-16T09:58:51.000Z</time>
      </trkpt>
      <trkpt lat="47.28881" lon="-1.29168">
        <ele>97</ele>
        <time>2014-11-16T09:58:53.000Z</time>
      </trkpt>
      <trkpt lat="47.28881" lon="-1.29168">
        <ele>97</ele>
        <time>2014-11-16T09:58:55.000Z</time>
      </trkpt>
      <trkpt lat="47.28881" lon="-1.29168">
        <ele>97</ele>
        <time>2014-11-16T09:58:57.000Z</time>
      </trkpt>
      <trkpt lat="47.28881" lon="-1.29168">
        <ele>97</ele>
        <time>2014-11-16T09:58:59.000Z</time>
      </trkpt>
      <trkpt lat="47.28881" lon="-1.29168">
        <ele>97</ele>
        <time>2014-11-16T09:59:01.000Z</time>
      </trkpt>
      <trkpt lat="47.28881" lon="-1.29168">
        <ele>97</ele>
        <time>2014-11-16T09:59:03.000Z</time>
      </trkpt>
      <trkpt lat="47.28881" lon="-1.29168">
        <ele>97</ele>
        <time>2014-11-16T09:59:05.000Z</time>
      </trkpt>
      <trkpt lat="47.28879" lon="-1.29153">
        <ele>97</ele>
        <time>2014-11-16T09:59:17.000Z</time>
      </trkpt>
      <trkpt lat="47.28876" lon="-1.2914">
        <ele>99</ele>
        <time>2014-11-16T09:59:21.000Z</time>
      </trkpt>
      <trkpt lat="47.28876" lon="-1.2914">
        <ele>99</ele>
        <time>2014-11-16T09:59:23.000Z</time>
      </trkpt>
      <trkpt lat="47.28876" lon="-1.2914">
        <ele>99</ele>
        <time>2014-11-16T09:59:25.000Z</time>
      </trkpt>
      <trkpt lat="47.28877" lon="-1.29132">
        <ele>95</ele>
        <time>2014-11-16T09:59:27.000Z</time>
      </trkpt>
      <trkpt lat="47.28877" lon="-1.29132">
        <ele>95</ele>
        <time>2014-11-16T09:59:29.000Z</time>
      </trkpt>
      <trkpt lat="47.28879" lon="-1.2912">
        <ele>96</ele>
        <time>2014-11-16T09:59:31.000Z</time>
      </trkpt>
      <trkpt lat="47.28879" lon="-1.2912">
        <ele>96</ele>
        <time>2014-11-16T09:59:35.000Z</time>
      </trkpt>
      <trkpt lat="47.28873" lon="-1.29115">
        <ele>98</ele>
        <time>2014-11-16T09:59:37.000Z</time>
      </trkpt>
      <trkpt lat="47.28873" lon="-1.29115">
        <ele>98</ele>
        <time>2014-11-16T09:59:39.000Z</time>
      </trkpt>
      <trkpt lat="47.28873" lon="-1.29115">
        <ele>98</ele>
        <time>2014-11-16T09:59:41.000Z</time>
      </trkpt>
      <trkpt lat="47.28873" lon="-1.29115">
        <ele>98</ele>
        <time>2014-11-16T09:59:43.000Z</time>
      </trkpt>
      <trkpt lat="47.28873" lon="-1.29115">
        <ele>98</ele>
        <time>2014-11-16T09:59:45.000Z</time>
      </trkpt>
      <trkpt lat="47.28873" lon="-1.29111">
        <ele>101</ele>
        <time>2014-11-16T09:59:47.000Z</time>
      </trkpt>
      <trkpt lat="47.28873" lon="-1.29111">
        <ele>101</ele>
        <time>2014-11-16T09:59:49.000Z</time>
      </trkpt>
      <trkpt lat="47.28873" lon="-1.29111">
        <ele>101</ele>
        <time>2014-11-16T09:59:51.000Z</time>
      </trkpt>
      <trkpt lat="47.28873" lon="-1.29111">
        <ele>101</ele>
        <time>2014-11-16T09:59:53.000Z</time>
      </trkpt>
      <trkpt lat="47.28873" lon="-1.29111">
        <ele>101</ele>
        <time>2014-11-16T09:59:55.000Z</time>
      </trkpt>
      <trkpt lat="47.28873" lon="-1.29111">
        <ele>101</ele>
        <time>2014-11-16T09:59:57.000Z</time>
      </trkpt>
      <trkpt lat="47.28873" lon="-1.29111">
        <ele>101</ele>
        <time>2014-11-16T09:59:59.000Z</time>
      </trkpt>
      <trkpt lat="47.28873" lon="-1.29111">
        <ele>101</ele>
        <time>2014-11-16T10:00:01.000Z</time>
      </trkpt>
      <trkpt lat="47.28873" lon="-1.29111">
        <ele>101</ele>
        <time>2014-11-16T10:00:03.000Z</time>
      </trkpt>
      <trkpt lat="47.28873" lon="-1.29111">
        <ele>101</ele>
        <time>2014-11-16T10:00:05.000Z</time>
      </trkpt>
      <trkpt lat="47.28873" lon="-1.29111">
        <ele>101</ele>
        <time>2014-11-16T10:00:07.000Z</time>
      </trkpt>
      <trkpt lat="47.28873" lon="-1.29111">
        <ele>101</ele>
        <time>2014-11-16T10:00:09.000Z</time>
      </trkpt>
      <trkpt lat="47.28873" lon="-1.29111">
        <ele>101</ele>
        <time>2014-11-16T10:00:11.000Z</time>
      </trkpt>
      <trkpt lat="47.28873" lon="-1.29111">
        <ele>101</ele>
        <time>2014-11-16T10:00:13.000Z</time>
      </trkpt>
      <trkpt lat="47.28879" lon="-1.29101">
        <ele>104</ele>
        <time>2014-11-16T10:00:25.000Z</time>
      </trkpt>
      <trkpt lat="47.28885" lon="-1.29095">
        <ele>103</ele>
        <time>2014-11-16T10:00:27.000Z</time>
      </trkpt>
      <trkpt lat="47.28889" lon="-1.2909">
        <ele>104</ele>
        <time>2014-11-16T10:00:29.000Z</time>
      </trkpt>
      <trkpt lat="47.28889" lon="-1.2909">
        <ele>104</ele>
        <time>2014-11-16T10:00:31.000Z</time>
      </trkpt>
      <trkpt lat="47.28891" lon="-1.29086">
        <ele>104</ele>
        <time>2014-11-16T10:00:33.000Z</time>
      </trkpt>
      <trkpt lat="47.28891" lon="-1.29086">
        <ele>104</ele>
        <time>2014-11-16T10:00:35.000Z</time>
      </trkpt>
      <trkpt lat="47.28891" lon="-1.29086">
        <ele>104</ele>
        <time>2014-11-16T10:00:37.000Z</time>
      </trkpt>
      <trkpt lat="47.28891" lon="-1.29086">
        <ele>104</ele>
        <time>2014-11-16T10:00:39.000Z</time>
      </trkpt>
      <trkpt lat="47.28891" lon="-1.29086">
        <ele>104</ele>
        <time>2014-11-16T10:00:41.000Z</time>
      </trkpt>
      <trkpt lat="47.28891" lon="-1.29086">
        <ele>104</ele>
        <time>2014-11-16T10:00:43.000Z</time>
      </trkpt>
      <trkpt lat="47.28891" lon="-1.29086">
        <ele>104</ele>
        <time>2014-11-16T10:00:45.000Z</time>
      </trkpt>
      <trkpt lat="47.28891" lon="-1.29086">
        <ele>104</ele>
        <time>2014-11-16T10:00:47.000Z</time>
      </trkpt>
      <trkpt lat="47.28891" lon="-1.29086">
        <ele>104</ele>
        <time>2014-11-16T10:00:49.000Z</time>
      </trkpt>
      <trkpt lat="47.28891" lon="-1.29086">
        <ele>104</ele>
        <time>2014-11-16T10:00:51.000Z</time>
      </trkpt>
      <trkpt lat="47.28891" lon="-1.29086">
        <ele>104</ele>
        <time>2014-11-16T10:00:53.000Z</time>
      </trkpt>
      <trkpt lat="47.28891" lon="-1.29086">
        <ele>104</ele>
        <time>2014-11-16T10:00:55.000Z</time>
      </trkpt>
      <trkpt lat="47.28894" lon="-1.29073">
        <ele>107</ele>
        <time>2014-11-16T10:01:11.000Z</time>
      </trkpt>
      <trkpt lat="47.28896" lon="-1.29066">
        <ele>108</ele>
        <time>2014-11-16T10:01:13.000Z</time>
      </trkpt>
      <trkpt lat="47.28898" lon="-1.29061">
        <ele>108</ele>
        <time>2014-11-16T10:01:15.000Z</time>
      </trkpt>
      <trkpt lat="47.28899" lon="-1.29057">
        <ele>107</ele>
        <time>2014-11-16T10:01:17.000Z</time>
      </trkpt>
      <trkpt lat="47.28901" lon="-1.29052">
        <ele>106</ele>
        <time>2014-11-16T10:01:21.000Z</time>
      </trkpt>
      <trkpt lat="47.28902" lon="-1.29047">
        <ele>107</ele>
        <time>2014-11-16T10:01:25.000Z</time>
      </trkpt>
      <trkpt lat="47.28903" lon="-1.29042">
        <ele>107</ele>
        <time>2014-11-16T10:01:29.000Z</time>
      </trkpt>
      <trkpt lat="47.28903" lon="-1.29037">
        <ele>107</ele>
        <time>2014-11-16T10:01:33.000Z</time>
      </trkpt>
      <trkpt lat="47.28903" lon="-1.29037">
        <ele>107</ele>
        <time>2014-11-16T10:01:35.000Z</time>
      </trkpt>
      <trkpt lat="47.28904" lon="-1.29032">
        <ele>109</ele>
        <time>2014-11-16T10:01:37.000Z</time>
      </trkpt>
      <trkpt lat="47.28904" lon="-1.29032">
        <ele>109</ele>
        <time>2014-11-16T10:01:39.000Z</time>
      </trkpt>
      <trkpt lat="47.28904" lon="-1.29032">
        <ele>109</ele>
        <time>2014-11-16T10:01:41.000Z</time>
      </trkpt>
      <trkpt lat="47.28903" lon="-1.29026">
        <ele>112</ele>
        <time>2014-11-16T10:01:45.000Z</time>
      </trkpt>
      <trkpt lat="47.28903" lon="-1.29022">
        <ele>111</ele>
        <time>2014-11-16T10:01:47.000Z</time>
      </trkpt>
      <trkpt lat="47.28902" lon="-1.29017">
        <ele>111</ele>
        <time>2014-11-16T10:01:51.000Z</time>
      </trkpt>
      <trkpt lat="47.28902" lon="-1.29017">
        <ele>111</ele>
        <time>2014-11-16T10:01:53.000Z</time>
      </trkpt>
      <trkpt lat="47.28902" lon="-1.29011">
        <ele>112</ele>
        <time>2014-11-16T10:01:55.000Z</time>
      </trkpt>
      <trkpt lat="47.28901" lon="-1.29007">
        <ele>113</ele>
        <time>2014-11-16T10:01:57.000Z</time>
      </trkpt>
      <trkpt lat="47.28901" lon="-1.29007">
        <ele>113</ele>
        <time>2014-11-16T10:01:59.000Z</time>
      </trkpt>
      <trkpt lat="47.28901" lon="-1.29007">
        <ele>113</ele>
        <time>2014-11-16T10:02:01.000Z</time>
      </trkpt>
      <trkpt lat="47.28901" lon="-1.29002">
        <ele>112</ele>
        <time>2014-11-16T10:02:03.000Z</time>
      </trkpt>
      <trkpt lat="47.289" lon="-1.28997">
        <ele>111</ele>
        <time>2014-11-16T10:02:05.000Z</time>
      </trkpt>
      <trkpt lat="47.28899" lon="-1.28993">
        <ele>111</ele>
        <time>2014-11-16T10:02:07.000Z</time>
      </trkpt>
      <trkpt lat="47.28899" lon="-1.28988">
        <ele>110</ele>
        <time>2014-11-16T10:02:11.000Z</time>
      </trkpt>
      <trkpt lat="47.28899" lon="-1.28988">
        <ele>110</ele>
        <time>2014-11-16T10:02:14.000Z</time>
      </trkpt>
      <trkpt lat="47.28897" lon="-1.28984">
        <ele>109</ele>
        <time>2014-11-16T10:02:15.000Z</time>
      </trkpt>
      <trkpt lat="47.28897" lon="-1.28984">
        <ele>109</ele>
        <time>2014-11-16T10:02:17.000Z</time>
      </trkpt>
      <trkpt lat="47.28897" lon="-1.28984">
        <ele>109</ele>
        <time>2014-11-16T10:02:19.000Z</time>
      </trkpt>
      <trkpt lat="47.28897" lon="-1.28984">
        <ele>109</ele>
        <time>2014-11-16T10:02:21.000Z</time>
      </trkpt>
      <trkpt lat="47.28895" lon="-1.28979">
        <ele>109</ele>
        <time>2014-11-16T10:02:23.000Z</time>
      </trkpt>
      <trkpt lat="47.28893" lon="-1.28975">
        <ele>109</ele>
        <time>2014-11-16T10:02:25.000Z</time>
      </trkpt>
      <trkpt lat="47.28891" lon="-1.28971">
        <ele>109</ele>
        <time>2014-11-16T10:02:29.000Z</time>
      </trkpt>
      <trkpt lat="47.28889" lon="-1.28967">
        <ele>108</ele>
        <time>2014-11-16T10:02:31.000Z</time>
      </trkpt>
      <trkpt lat="47.28887" lon="-1.28963">
        <ele>108</ele>
        <time>2014-11-16T10:02:33.000Z</time>
      </trkpt>
      <trkpt lat="47.28885" lon="-1.28959">
        <ele>109</ele>
        <time>2014-11-16T10:02:35.000Z</time>
      </trkpt>
      <trkpt lat="47.28883" lon="-1.28954">
        <ele>109</ele>
        <time>2014-11-16T10:02:37.000Z</time>
      </trkpt>
      <trkpt lat="47.28878" lon="-1.28944">
        <ele>110</ele>
        <time>2014-11-16T10:02:39.000Z</time>
      </trkpt>
      <trkpt lat="47.28875" lon="-1.28934">
        <ele>110</ele>
        <time>2014-11-16T10:02:43.000Z</time>
      </trkpt>
      <trkpt lat="47.28872" lon="-1.28921">
        <ele>111</ele>
        <time>2014-11-16T10:02:47.000Z</time>
      </trkpt>
      <trkpt lat="47.28869" lon="-1.28911">
        <ele>112</ele>
        <time>2014-11-16T10:02:51.000Z</time>
      </trkpt>
      <trkpt lat="47.28869" lon="-1.28911">
        <ele>112</ele>
        <time>2014-11-16T10:02:53.000Z</time>
      </trkpt>
      <trkpt lat="47.28866" lon="-1.28899">
        <ele>113</ele>
        <time>2014-11-16T10:02:55.000Z</time>
      </trkpt>
      <trkpt lat="47.28863" lon="-1.28889">
        <ele>113</ele>
        <time>2014-11-16T10:02:59.000Z</time>
      </trkpt>
      <trkpt lat="47.28859" lon="-1.28878">
        <ele>114</ele>
        <time>2014-11-16T10:03:03.000Z</time>
      </trkpt>
      <trkpt lat="47.28854" lon="-1.28867">
        <ele>114</ele>
        <time>2014-11-16T10:03:07.000Z</time>
      </trkpt>
      <trkpt lat="47.28854" lon="-1.28867">
        <ele>114</ele>
        <time>2014-11-16T10:03:09.000Z</time>
      </trkpt>
      <trkpt lat="47.2885" lon="-1.28856">
        <ele>114</ele>
        <time>2014-11-16T10:03:11.000Z</time>
      </trkpt>
      <trkpt lat="47.28846" lon="-1.28845">
        <ele>114</ele>
        <time>2014-11-16T10:03:15.000Z</time>
      </trkpt>
      <trkpt lat="47.28846" lon="-1.28845">
        <ele>114</ele>
        <time>2014-11-16T10:03:17.000Z</time>
      </trkpt>
      <trkpt lat="47.28843" lon="-1.28835">
        <ele>115</ele>
        <time>2014-11-16T10:03:19.000Z</time>
      </trkpt>
      <trkpt lat="47.28843" lon="-1.28835">
        <ele>115</ele>
        <time>2014-11-16T10:03:21.000Z</time>
      </trkpt>
      <trkpt lat="47.28839" lon="-1.28824">
        <ele>115</ele>
        <time>2014-11-16T10:03:23.000Z</time>
      </trkpt>
      <trkpt lat="47.28834" lon="-1.28814">
        <ele>115</ele>
        <time>2014-11-16T10:03:27.000Z</time>
      </trkpt>
      <trkpt lat="47.28829" lon="-1.28803">
        <ele>115</ele>
        <time>2014-11-16T10:03:31.000Z</time>
      </trkpt>
      <trkpt lat="47.28824" lon="-1.28791">
        <ele>117</ele>
        <time>2014-11-16T10:03:35.000Z</time>
      </trkpt>
      <trkpt lat="47.28819" lon="-1.28778">
        <ele>117</ele>
        <time>2014-11-16T10:03:39.000Z</time>
      </trkpt>
      <trkpt lat="47.28815" lon="-1.28763">
        <ele>118</ele>
        <time>2014-11-16T10:03:43.000Z</time>
      </trkpt>
      <trkpt lat="47.28814" lon="-1.28755">
        <ele>117</ele>
        <time>2014-11-16T10:03:45.000Z</time>
      </trkpt>
      <trkpt lat="47.28813" lon="-1.28746">
        <ele>119</ele>
        <time>2014-11-16T10:03:47.000Z</time>
      </trkpt>
      <trkpt lat="47.28812" lon="-1.28736">
        <ele>119</ele>
        <time>2014-11-16T10:03:49.000Z</time>
      </trkpt>
      <trkpt lat="47.28811" lon="-1.28727">
        <ele>119</ele>
        <time>2014-11-16T10:03:51.000Z</time>
      </trkpt>
      <trkpt lat="47.28806" lon="-1.28718">
        <ele>119</ele>
        <time>2014-11-16T10:03:53.000Z</time>
      </trkpt>
      <trkpt lat="47.288" lon="-1.28715">
        <ele>120</ele>
        <time>2014-11-16T10:03:55.000Z</time>
      </trkpt>
      <trkpt lat="47.28793" lon="-1.28714">
        <ele>119</ele>
        <time>2014-11-16T10:03:57.000Z</time>
      </trkpt>
      <trkpt lat="47.28787" lon="-1.28713">
        <ele>120</ele>
        <time>2014-11-16T10:03:59.000Z</time>
      </trkpt>
      <trkpt lat="47.28787" lon="-1.28713">
        <ele>120</ele>
        <time>2014-11-16T10:04:01.000Z</time>
      </trkpt>
      <trkpt lat="47.28777" lon="-1.28712">
        <ele>121</ele>
        <time>2014-11-16T10:04:03.000Z</time>
      </trkpt>
      <trkpt lat="47.28777" lon="-1.28712">
        <ele>121</ele>
        <time>2014-11-16T10:04:05.000Z</time>
      </trkpt>
      <trkpt lat="47.28767" lon="-1.28707">
        <ele>121</ele>
        <time>2014-11-16T10:04:07.000Z</time>
      </trkpt>
      <trkpt lat="47.28767" lon="-1.28707">
        <ele>121</ele>
        <time>2014-11-16T10:04:09.000Z</time>
      </trkpt>
      <trkpt lat="47.28761" lon="-1.28698">
        <ele>120</ele>
        <time>2014-11-16T10:04:11.000Z</time>
      </trkpt>
      <trkpt lat="47.28761" lon="-1.28698">
        <ele>120</ele>
        <time>2014-11-16T10:04:13.000Z</time>
      </trkpt>
      <trkpt lat="47.28761" lon="-1.28698">
        <ele>120</ele>
        <time>2014-11-16T10:04:15.000Z</time>
      </trkpt>
      <trkpt lat="47.28761" lon="-1.28698">
        <ele>120</ele>
        <time>2014-11-16T10:04:17.000Z</time>
      </trkpt>
      <trkpt lat="47.28761" lon="-1.28698">
        <ele>120</ele>
        <time>2014-11-16T10:04:19.000Z</time>
      </trkpt>
      <trkpt lat="47.28761" lon="-1.28698">
        <ele>120</ele>
        <time>2014-11-16T10:04:21.000Z</time>
      </trkpt>
      <trkpt lat="47.28761" lon="-1.28698">
        <ele>120</ele>
        <time>2014-11-16T10:04:23.000Z</time>
      </trkpt>
      <trkpt lat="47.28765" lon="-1.28685">
        <ele>119</ele>
        <time>2014-11-16T10:04:27.000Z</time>
      </trkpt>
      <trkpt lat="47.28765" lon="-1.28685">
        <ele>119</ele>
        <time>2014-11-16T10:04:35.000Z</time>
      </trkpt>
      <trkpt lat="47.28765" lon="-1.28685">
        <ele>119</ele>
        <time>2014-11-16T10:04:37.000Z</time>
      </trkpt>
      <trkpt lat="47.28762" lon="-1.28685">
        <ele>124</ele>
        <time>2014-11-16T10:04:47.000Z</time>
      </trkpt>
      <trkpt lat="47.28762" lon="-1.28685">
        <ele>124</ele>
        <time>2014-11-16T10:04:49.000Z</time>
      </trkpt>
      <trkpt lat="47.28762" lon="-1.28685">
        <ele>124</ele>
        <time>2014-11-16T10:04:51.000Z</time>
      </trkpt>
      <trkpt lat="47.28762" lon="-1.28685">
        <ele>124</ele>
        <time>2014-11-16T10:04:53.000Z</time>
      </trkpt>
      <trkpt lat="47.28762" lon="-1.28685">
        <ele>124</ele>
        <time>2014-11-16T10:04:55.000Z</time>
      </trkpt>
      <trkpt lat="47.28762" lon="-1.28685">
        <ele>124</ele>
        <time>2014-11-16T10:04:57.000Z</time>
      </trkpt>
      <trkpt lat="47.28762" lon="-1.28685">
        <ele>124</ele>
        <time>2014-11-16T10:04:59.000Z</time>
      </trkpt>
      <trkpt lat="47.28762" lon="-1.28685">
        <ele>124</ele>
        <time>2014-11-16T10:05:01.000Z</time>
      </trkpt>
      <trkpt lat="47.28762" lon="-1.28685">
        <ele>124</ele>
        <time>2014-11-16T10:05:03.000Z</time>
      </trkpt>
      <trkpt lat="47.28762" lon="-1.28685">
        <ele>124</ele>
        <time>2014-11-16T10:05:05.000Z</time>
      </trkpt>
      <trkpt lat="47.28762" lon="-1.28685">
        <ele>124</ele>
        <time>2014-11-16T10:05:07.000Z</time>
      </trkpt>
      <trkpt lat="47.28762" lon="-1.28685">
        <ele>124</ele>
        <time>2014-11-16T10:05:09.000Z</time>
      </trkpt>
      <trkpt lat="47.28762" lon="-1.28685">
        <ele>124</ele>
        <time>2014-11-16T10:05:11.000Z</time>
      </trkpt>
      <trkpt lat="47.28762" lon="-1.28685">
        <ele>124</ele>
        <time>2014-11-16T10:05:13.000Z</time>
      </trkpt>
      <trkpt lat="47.28762" lon="-1.28685">
        <ele>124</ele>
        <time>2014-11-16T10:05:15.000Z</time>
      </trkpt>
      <trkpt lat="47.28762" lon="-1.28685">
        <ele>124</ele>
        <time>2014-11-16T10:05:17.000Z</time>
      </trkpt>
      <trkpt lat="47.28762" lon="-1.28685">
        <ele>124</ele>
        <time>2014-11-16T10:05:19.000Z</time>
      </trkpt>
      <trkpt lat="47.28762" lon="-1.28685">
        <ele>124</ele>
        <time>2014-11-16T10:05:21.000Z</time>
      </trkpt>
      <trkpt lat="47.28762" lon="-1.28685">
        <ele>124</ele>
        <time>2014-11-16T10:05:23.000Z</time>
      </trkpt>
      <trkpt lat="47.28762" lon="-1.28685">
        <ele>124</ele>
        <time>2014-11-16T10:05:25.000Z</time>
      </trkpt>
      <trkpt lat="47.28762" lon="-1.28685">
        <ele>124</ele>
        <time>2014-11-16T10:05:27.000Z</time>
      </trkpt>
      <trkpt lat="47.28762" lon="-1.28685">
        <ele>124</ele>
        <time>2014-11-16T10:05:29.000Z</time>
      </trkpt>
      <trkpt lat="47.28762" lon="-1.28685">
        <ele>124</ele>
        <time>2014-11-16T10:05:31.000Z</time>
      </trkpt>
      <trkpt lat="47.28762" lon="-1.28685">
        <ele>124</ele>
        <time>2014-11-16T10:05:33.000Z</time>
      </trkpt>
      <trkpt lat="47.28762" lon="-1.28685">
        <ele>124</ele>
        <time>2014-11-16T10:06:03.000Z</time>
      </trkpt>
      <trkpt lat="47.28762" lon="-1.28691">
        <ele>122</ele>
        <time>2014-11-16T10:09:42.000Z</time>
      </trkpt>
      <trkpt lat="47.28761" lon="-1.28695">
        <ele>122</ele>
        <time>2014-11-16T10:09:44.000Z</time>
      </trkpt>
      <trkpt lat="47.28758" lon="-1.28698">
        <ele>122</ele>
        <time>2014-11-16T10:09:46.000Z</time>
      </trkpt>
      <trkpt lat="47.28755" lon="-1.28697">
        <ele>123</ele>
        <time>2014-11-16T10:09:48.000Z</time>
      </trkpt>
      <trkpt lat="47.28751" lon="-1.28695">
        <ele>123</ele>
        <time>2014-11-16T10:09:50.000Z</time>
      </trkpt>
      <trkpt lat="47.28744" lon="-1.28687">
        <ele>123</ele>
        <time>2014-11-16T10:09:52.000Z</time>
      </trkpt>
      <trkpt lat="47.28735" lon="-1.28678">
        <ele>122</ele>
        <time>2014-11-16T10:09:56.000Z</time>
      </trkpt>
      <trkpt lat="47.28726" lon="-1.2867">
        <ele>122</ele>
        <time>2014-11-16T10:10:00.000Z</time>
      </trkpt>
      <trkpt lat="47.28717" lon="-1.28661">
        <ele>123</ele>
        <time>2014-11-16T10:10:04.000Z</time>
      </trkpt>
      <trkpt lat="47.28707" lon="-1.28653">
        <ele>123</ele>
        <time>2014-11-16T10:10:08.000Z</time>
      </trkpt>
      <trkpt lat="47.28701" lon="-1.28649">
        <ele>123</ele>
        <time>2014-11-16T10:10:10.000Z</time>
      </trkpt>
      <trkpt lat="47.28694" lon="-1.28645">
        <ele>123</ele>
        <time>2014-11-16T10:10:12.000Z</time>
      </trkpt>
      <trkpt lat="47.28687" lon="-1.28641">
        <ele>123</ele>
        <time>2014-11-16T10:10:14.000Z</time>
      </trkpt>
      <trkpt lat="47.2868" lon="-1.28637">
        <ele>123</ele>
        <time>2014-11-16T10:10:16.000Z</time>
      </trkpt>
      <trkpt lat="47.28674" lon="-1.28635">
        <ele>123</ele>
        <time>2014-11-16T10:10:18.000Z</time>
      </trkpt>
      <trkpt lat="47.28667" lon="-1.28632">
        <ele>123</ele>
        <time>2014-11-16T10:10:20.000Z</time>
      </trkpt>
      <trkpt lat="47.2866" lon="-1.2863">
        <ele>124</ele>
        <time>2014-11-16T10:10:22.000Z</time>
      </trkpt>
      <trkpt lat="47.28654" lon="-1.28627">
        <ele>124</ele>
        <time>2014-11-16T10:10:24.000Z</time>
      </trkpt>
      <trkpt lat="47.28648" lon="-1.28625">
        <ele>124</ele>
        <time>2014-11-16T10:10:26.000Z</time>
      </trkpt>
      <trkpt lat="47.28642" lon="-1.28623">
        <ele>123</ele>
        <time>2014-11-16T10:10:28.000Z</time>
      </trkpt>
      <trkpt lat="47.28636" lon="-1.28621">
        <ele>123</ele>
        <time>2014-11-16T10:10:30.000Z</time>
      </trkpt>
      <trkpt lat="47.28636" lon="-1.28621">
        <ele>123</ele>
        <time>2014-11-16T10:10:32.000Z</time>
      </trkpt>
      <trkpt lat="47.2863" lon="-1.28608">
        <ele>125</ele>
        <time>2014-11-16T10:10:34.000Z</time>
      </trkpt>
      <trkpt lat="47.28632" lon="-1.286">
        <ele>125</ele>
        <time>2014-11-16T10:10:36.000Z</time>
      </trkpt>
      <trkpt lat="47.28638" lon="-1.28594">
        <ele>126</ele>
        <time>2014-11-16T10:10:38.000Z</time>
      </trkpt>
      <trkpt lat="47.28645" lon="-1.2859">
        <ele>128</ele>
        <time>2014-11-16T10:10:40.000Z</time>
      </trkpt>
      <trkpt lat="47.28651" lon="-1.28584">
        <ele>127</ele>
        <time>2014-11-16T10:10:42.000Z</time>
      </trkpt>
      <trkpt lat="47.28658" lon="-1.28577">
        <ele>127</ele>
        <time>2014-11-16T10:10:44.000Z</time>
      </trkpt>
      <trkpt lat="47.28664" lon="-1.28568">
        <ele>127</ele>
        <time>2014-11-16T10:10:46.000Z</time>
      </trkpt>
      <trkpt lat="47.28671" lon="-1.28558">
        <ele>126</ele>
        <time>2014-11-16T10:10:48.000Z</time>
      </trkpt>
      <trkpt lat="47.28677" lon="-1.28549">
        <ele>126</ele>
        <time>2014-11-16T10:10:50.000Z</time>
      </trkpt>
      <trkpt lat="47.28683" lon="-1.2854">
        <ele>126</ele>
        <time>2014-11-16T10:10:52.000Z</time>
      </trkpt>
      <trkpt lat="47.28689" lon="-1.28531">
        <ele>125</ele>
        <time>2014-11-16T10:10:54.000Z</time>
      </trkpt>
      <trkpt lat="47.28696" lon="-1.28523">
        <ele>124</ele>
        <time>2014-11-16T10:10:56.000Z</time>
      </trkpt>
      <trkpt lat="47.28703" lon="-1.28514">
        <ele>125</ele>
        <time>2014-11-16T10:10:58.000Z</time>
      </trkpt>
      <trkpt lat="47.28711" lon="-1.28507">
        <ele>124</ele>
        <time>2014-11-16T10:11:00.000Z</time>
      </trkpt>
      <trkpt lat="47.2872" lon="-1.285">
        <ele>124</ele>
        <time>2014-11-16T10:11:02.000Z</time>
      </trkpt>
      <trkpt lat="47.28731" lon="-1.28492">
        <ele>121</ele>
        <time>2014-11-16T10:11:04.000Z</time>
      </trkpt>
      <trkpt lat="47.2874" lon="-1.28484">
        <ele>121</ele>
        <time>2014-11-16T10:11:06.000Z</time>
      </trkpt>
      <trkpt lat="47.28751" lon="-1.2848">
        <ele>119</ele>
        <time>2014-11-16T10:11:08.000Z</time>
      </trkpt>
      <trkpt lat="47.28762" lon="-1.28476">
        <ele>117</ele>
        <time>2014-11-16T10:11:10.000Z</time>
      </trkpt>
      <trkpt lat="47.28773" lon="-1.28472">
        <ele>117</ele>
        <time>2014-11-16T10:11:12.000Z</time>
      </trkpt>
      <trkpt lat="47.28785" lon="-1.28467">
        <ele>116</ele>
        <time>2014-11-16T10:11:14.000Z</time>
      </trkpt>
      <trkpt lat="47.28796" lon="-1.28462">
        <ele>115</ele>
        <time>2014-11-16T10:11:16.000Z</time>
      </trkpt>
      <trkpt lat="47.28811" lon="-1.28457">
        <ele>114</ele>
        <time>2014-11-16T10:11:18.000Z</time>
      </trkpt>
      <trkpt lat="47.28822" lon="-1.28451">
        <ele>114</ele>
        <time>2014-11-16T10:11:20.000Z</time>
      </trkpt>
      <trkpt lat="47.28836" lon="-1.28444">
        <ele>112</ele>
        <time>2014-11-16T10:11:22.000Z</time>
      </trkpt>
      <trkpt lat="47.28847" lon="-1.28437">
        <ele>114</ele>
        <time>2014-11-16T10:11:24.000Z</time>
      </trkpt>
      <trkpt lat="47.28859" lon="-1.28429">
        <ele>116</ele>
        <time>2014-11-16T10:11:26.000Z</time>
      </trkpt>
      <trkpt lat="47.2887" lon="-1.28423">
        <ele>115</ele>
        <time>2014-11-16T10:11:28.000Z</time>
      </trkpt>
      <trkpt lat="47.28883" lon="-1.28415">
        <ele>115</ele>
        <time>2014-11-16T10:11:30.000Z</time>
      </trkpt>
      <trkpt lat="47.28895" lon="-1.28408">
        <ele>115</ele>
        <time>2014-11-16T10:11:32.000Z</time>
      </trkpt>
      <trkpt lat="47.28907" lon="-1.28399">
        <ele>114</ele>
        <time>2014-11-16T10:11:34.000Z</time>
      </trkpt>
      <trkpt lat="47.28921" lon="-1.28389">
        <ele>113</ele>
        <time>2014-11-16T10:11:36.000Z</time>
      </trkpt>
      <trkpt lat="47.28936" lon="-1.28382">
        <ele>114</ele>
        <time>2014-11-16T10:11:38.000Z</time>
      </trkpt>
      <trkpt lat="47.2895" lon="-1.28372">
        <ele>115</ele>
        <time>2014-11-16T10:11:40.000Z</time>
      </trkpt>
      <trkpt lat="47.28965" lon="-1.28364">
        <ele>114</ele>
        <time>2014-11-16T10:11:42.000Z</time>
      </trkpt>
      <trkpt lat="47.28982" lon="-1.28357">
        <ele>113</ele>
        <time>2014-11-16T10:11:44.000Z</time>
      </trkpt>
      <trkpt lat="47.28999" lon="-1.28348">
        <ele>111</ele>
        <time>2014-11-16T10:11:46.000Z</time>
      </trkpt>
      <trkpt lat="47.29014" lon="-1.28339">
        <ele>111</ele>
        <time>2014-11-16T10:11:48.000Z</time>
      </trkpt>
      <trkpt lat="47.2903" lon="-1.2833">
        <ele>109</ele>
        <time>2014-11-16T10:11:50.000Z</time>
      </trkpt>
      <trkpt lat="47.29046" lon="-1.2832">
        <ele>110</ele>
        <time>2014-11-16T10:11:52.000Z</time>
      </trkpt>
      <trkpt lat="47.29062" lon="-1.28311">
        <ele>110</ele>
        <time>2014-11-16T10:11:54.000Z</time>
      </trkpt>
      <trkpt lat="47.29078" lon="-1.28301">
        <ele>110</ele>
        <time>2014-11-16T10:11:56.000Z</time>
      </trkpt>
      <trkpt lat="47.29095" lon="-1.28291">
        <ele>110</ele>
        <time>2014-11-16T10:11:58.000Z</time>
      </trkpt>
      <trkpt lat="47.29111" lon="-1.28282">
        <ele>111</ele>
        <time>2014-11-16T10:12:00.000Z</time>
      </trkpt>
      <trkpt lat="47.29128" lon="-1.28273">
        <ele>111</ele>
        <time>2014-11-16T10:12:03.000Z</time>
      </trkpt>
      <trkpt lat="47.29145" lon="-1.28265">
        <ele>111</ele>
        <time>2014-11-16T10:12:04.000Z</time>
      </trkpt>
      <trkpt lat="47.29164" lon="-1.28258">
        <ele>109</ele>
        <time>2014-11-16T10:12:06.000Z</time>
      </trkpt>
      <trkpt lat="47.29183" lon="-1.28251">
        <ele>107</ele>
        <time>2014-11-16T10:12:08.000Z</time>
      </trkpt>
      <trkpt lat="47.29203" lon="-1.28244">
        <ele>106</ele>
        <time>2014-11-16T10:12:11.000Z</time>
      </trkpt>
      <trkpt lat="47.29223" lon="-1.28237">
        <ele>105</ele>
        <time>2014-11-16T10:12:12.000Z</time>
      </trkpt>
      <trkpt lat="47.29243" lon="-1.2823">
        <ele>103</ele>
        <time>2014-11-16T10:12:14.000Z</time>
      </trkpt>
      <trkpt lat="47.29264" lon="-1.28223">
        <ele>101</ele>
        <time>2014-11-16T10:12:16.000Z</time>
      </trkpt>
      <trkpt lat="47.29286" lon="-1.28219">
        <ele>100</ele>
        <time>2014-11-16T10:12:18.000Z</time>
      </trkpt>
      <trkpt lat="47.29308" lon="-1.28223">
        <ele>97</ele>
        <time>2014-11-16T10:12:20.000Z</time>
      </trkpt>
      <trkpt lat="47.29324" lon="-1.28242">
        <ele>95</ele>
        <time>2014-11-16T10:12:22.000Z</time>
      </trkpt>
      <trkpt lat="47.29332" lon="-1.28271">
        <ele>94</ele>
        <time>2014-11-16T10:12:24.000Z</time>
      </trkpt>
      <trkpt lat="47.29333" lon="-1.28301">
        <ele>93</ele>
        <time>2014-11-16T10:12:26.000Z</time>
      </trkpt>
      <trkpt lat="47.29328" lon="-1.28329">
        <ele>93</ele>
        <time>2014-11-16T10:12:28.000Z</time>
      </trkpt>
      <trkpt lat="47.2932" lon="-1.28358">
        <ele>93</ele>
        <time>2014-11-16T10:12:30.000Z</time>
      </trkpt>
      <trkpt lat="47.29313" lon="-1.28388">
        <ele>93</ele>
        <time>2014-11-16T10:12:32.000Z</time>
      </trkpt>
      <trkpt lat="47.29314" lon="-1.28415">
        <ele>87</ele>
        <time>2014-11-16T10:12:34.000Z</time>
      </trkpt>
      <trkpt lat="47.29322" lon="-1.28443">
        <ele>85</ele>
        <time>2014-11-16T10:12:36.000Z</time>
      </trkpt>
      <trkpt lat="47.29332" lon="-1.28471">
        <ele>83</ele>
        <time>2014-11-16T10:12:38.000Z</time>
      </trkpt>
      <trkpt lat="47.29346" lon="-1.28495">
        <ele>82</ele>
        <time>2014-11-16T10:12:40.000Z</time>
      </trkpt>
      <trkpt lat="47.29366" lon="-1.28506">
        <ele>80</ele>
        <time>2014-11-16T10:12:42.000Z</time>
      </trkpt>
      <trkpt lat="47.29386" lon="-1.285">
        <ele>80</ele>
        <time>2014-11-16T10:12:44.000Z</time>
      </trkpt>
      <trkpt lat="47.294" lon="-1.28481">
        <ele>78</ele>
        <time>2014-11-16T10:12:46.000Z</time>
      </trkpt>
      <trkpt lat="47.29406" lon="-1.28455">
        <ele>76</ele>
        <time>2014-11-16T10:12:48.000Z</time>
      </trkpt>
      <trkpt lat="47.29405" lon="-1.28425">
        <ele>75</ele>
        <time>2014-11-16T10:12:50.000Z</time>
      </trkpt>
      <trkpt lat="47.29404" lon="-1.28392">
        <ele>74</ele>
        <time>2014-11-16T10:12:52.000Z</time>
      </trkpt>
      <trkpt lat="47.29409" lon="-1.28363">
        <ele>71</ele>
        <time>2014-11-16T10:12:54.000Z</time>
      </trkpt>
      <trkpt lat="47.29419" lon="-1.28337">
        <ele>70</ele>
        <time>2014-11-16T10:12:56.000Z</time>
      </trkpt>
      <trkpt lat="47.29433" lon="-1.28317">
        <ele>68</ele>
        <time>2014-11-16T10:12:58.000Z</time>
      </trkpt>
      <trkpt lat="47.29451" lon="-1.28304">
        <ele>67</ele>
        <time>2014-11-16T10:13:00.000Z</time>
      </trkpt>
      <trkpt lat="47.29472" lon="-1.28306">
        <ele>65</ele>
        <time>2014-11-16T10:13:02.000Z</time>
      </trkpt>
      <trkpt lat="47.29487" lon="-1.28322">
        <ele>64</ele>
        <time>2014-11-16T10:13:04.000Z</time>
      </trkpt>
      <trkpt lat="47.29499" lon="-1.28346">
        <ele>63</ele>
        <time>2014-11-16T10:13:06.000Z</time>
      </trkpt>
      <trkpt lat="47.29506" lon="-1.28374">
        <ele>62</ele>
        <time>2014-11-16T10:13:08.000Z</time>
      </trkpt>
      <trkpt lat="47.29515" lon="-1.28401">
        <ele>61</ele>
        <time>2014-11-16T10:13:10.000Z</time>
      </trkpt>
      <trkpt lat="47.2953" lon="-1.28419">
        <ele>60</ele>
        <time>2014-11-16T10:13:12.000Z</time>
      </trkpt>
      <trkpt lat="47.29548" lon="-1.2843">
        <ele>61</ele>
        <time>2014-11-16T10:13:14.000Z</time>
      </trkpt>
      <trkpt lat="47.29566" lon="-1.28439">
        <ele>62</ele>
        <time>2014-11-16T10:13:16.000Z</time>
      </trkpt>
      <trkpt lat="47.29581" lon="-1.28447">
        <ele>62</ele>
        <time>2014-11-16T10:13:18.000Z</time>
      </trkpt>
      <trkpt lat="47.29595" lon="-1.28454">
        <ele>62</ele>
        <time>2014-11-16T10:13:21.000Z</time>
      </trkpt>
      <trkpt lat="47.29603" lon="-1.28447">
        <ele>59</ele>
        <time>2014-11-16T10:13:25.000Z</time>
      </trkpt>
      <trkpt lat="47.29603" lon="-1.28447">
        <ele>59</ele>
        <time>2014-11-16T10:13:27.000Z</time>
      </trkpt>
      <trkpt lat="47.29609" lon="-1.28446">
        <ele>58</ele>
        <time>2014-11-16T10:13:33.000Z</time>
      </trkpt>
      <trkpt lat="47.29609" lon="-1.28446">
        <ele>58</ele>
        <time>2014-11-16T10:13:35.000Z</time>
      </trkpt>
      <trkpt lat="47.29616" lon="-1.28445">
        <ele>62</ele>
        <time>2014-11-16T10:13:39.000Z</time>
      </trkpt>
      <trkpt lat="47.29625" lon="-1.28443">
        <ele>65</ele>
        <time>2014-11-16T10:13:45.000Z</time>
      </trkpt>
      <trkpt lat="47.29633" lon="-1.28443">
        <ele>66</ele>
        <time>2014-11-16T10:13:49.000Z</time>
      </trkpt>
      <trkpt lat="47.2964" lon="-1.28445">
        <ele>66</ele>
        <time>2014-11-16T10:13:53.000Z</time>
      </trkpt>
      <trkpt lat="47.29649" lon="-1.28447">
        <ele>66</ele>
        <time>2014-11-16T10:13:57.000Z</time>
      </trkpt>
      <trkpt lat="47.29657" lon="-1.28448">
        <ele>69</ele>
        <time>2014-11-16T10:14:01.000Z</time>
      </trkpt>
      <trkpt lat="47.29657" lon="-1.28448">
        <ele>69</ele>
        <time>2014-11-16T10:14:03.000Z</time>
      </trkpt>
      <trkpt lat="47.29665" lon="-1.28447">
        <ele>67</ele>
        <time>2014-11-16T10:14:05.000Z</time>
      </trkpt>
      <trkpt lat="47.29673" lon="-1.28444">
        <ele>66</ele>
        <time>2014-11-16T10:14:09.000Z</time>
      </trkpt>
      <trkpt lat="47.29679" lon="-1.28438">
        <ele>68</ele>
        <time>2014-11-16T10:14:13.000Z</time>
      </trkpt>
      <trkpt lat="47.29679" lon="-1.28438">
        <ele>68</ele>
        <time>2014-11-16T10:14:15.000Z</time>
      </trkpt>
      <trkpt lat="47.29683" lon="-1.28431">
        <ele>68</ele>
        <time>2014-11-16T10:14:17.000Z</time>
      </trkpt>
      <trkpt lat="47.29683" lon="-1.28431">
        <ele>68</ele>
        <time>2014-11-16T10:14:19.000Z</time>
      </trkpt>
      <trkpt lat="47.29688" lon="-1.28423">
        <ele>69</ele>
        <time>2014-11-16T10:14:21.000Z</time>
      </trkpt>
      <trkpt lat="47.29688" lon="-1.28423">
        <ele>69</ele>
        <time>2014-11-16T10:14:23.000Z</time>
      </trkpt>
      <trkpt lat="47.29691" lon="-1.28416">
        <ele>70</ele>
        <time>2014-11-16T10:14:26.000Z</time>
      </trkpt>
      <trkpt lat="47.29691" lon="-1.28416">
        <ele>70</ele>
        <time>2014-11-16T10:14:27.000Z</time>
      </trkpt>
      <trkpt lat="47.29696" lon="-1.28411">
        <ele>71</ele>
        <time>2014-11-16T10:14:29.000Z</time>
      </trkpt>
      <trkpt lat="47.29696" lon="-1.28411">
        <ele>71</ele>
        <time>2014-11-16T10:14:31.000Z</time>
      </trkpt>
      <trkpt lat="47.297" lon="-1.28404">
        <ele>73</ele>
        <time>2014-11-16T10:14:33.000Z</time>
      </trkpt>
      <trkpt lat="47.297" lon="-1.28404">
        <ele>73</ele>
        <time>2014-11-16T10:14:35.000Z</time>
      </trkpt>
      <trkpt lat="47.29704" lon="-1.28399">
        <ele>73</ele>
        <time>2014-11-16T10:14:37.000Z</time>
      </trkpt>
      <trkpt lat="47.29708" lon="-1.28392">
        <ele>74</ele>
        <time>2014-11-16T10:14:41.000Z</time>
      </trkpt>
      <trkpt lat="47.29708" lon="-1.28392">
        <ele>74</ele>
        <time>2014-11-16T10:14:43.000Z</time>
      </trkpt>
      <trkpt lat="47.29708" lon="-1.28392">
        <ele>74</ele>
        <time>2014-11-16T10:14:45.000Z</time>
      </trkpt>
      <trkpt lat="47.29713" lon="-1.28383">
        <ele>77</ele>
        <time>2014-11-16T10:14:47.000Z</time>
      </trkpt>
      <trkpt lat="47.29715" lon="-1.28378">
        <ele>75</ele>
        <time>2014-11-16T10:14:53.000Z</time>
      </trkpt>
      <trkpt lat="47.29717" lon="-1.28374">
        <ele>76</ele>
        <time>2014-11-16T10:14:55.000Z</time>
      </trkpt>
      <trkpt lat="47.2972" lon="-1.28371">
        <ele>76</ele>
        <time>2014-11-16T10:14:57.000Z</time>
      </trkpt>
      <trkpt lat="47.29722" lon="-1.28369">
        <ele>76</ele>
        <time>2014-11-16T10:14:59.000Z</time>
      </trkpt>
      <trkpt lat="47.29726" lon="-1.28368">
        <ele>77</ele>
        <time>2014-11-16T10:15:01.000Z</time>
      </trkpt>
      <trkpt lat="47.29733" lon="-1.28366">
        <ele>78</ele>
        <time>2014-11-16T10:15:03.000Z</time>
      </trkpt>
      <trkpt lat="47.29739" lon="-1.28362">
        <ele>78</ele>
        <time>2014-11-16T10:15:07.000Z</time>
      </trkpt>
      <trkpt lat="47.29744" lon="-1.28353">
        <ele>81</ele>
        <time>2014-11-16T10:15:11.000Z</time>
      </trkpt>
      <trkpt lat="47.29748" lon="-1.28344">
        <ele>84</ele>
        <time>2014-11-16T10:15:15.000Z</time>
      </trkpt>
      <trkpt lat="47.29754" lon="-1.28337">
        <ele>84</ele>
        <time>2014-11-16T10:15:19.000Z</time>
      </trkpt>
      <trkpt lat="47.2976" lon="-1.28329">
        <ele>84</ele>
        <time>2014-11-16T10:15:23.000Z</time>
      </trkpt>
      <trkpt lat="47.29766" lon="-1.28321">
        <ele>86</ele>
        <time>2014-11-16T10:15:27.000Z</time>
      </trkpt>
      <trkpt lat="47.29773" lon="-1.28312">
        <ele>87</ele>
        <time>2014-11-16T10:15:31.000Z</time>
      </trkpt>
      <trkpt lat="47.29778" lon="-1.28302">
        <ele>88</ele>
        <time>2014-11-16T10:15:35.000Z</time>
      </trkpt>
      <trkpt lat="47.29782" lon="-1.28291">
        <ele>89</ele>
        <time>2014-11-16T10:15:39.000Z</time>
      </trkpt>
      <trkpt lat="47.29785" lon="-1.2828">
        <ele>91</ele>
        <time>2014-11-16T10:15:43.000Z</time>
      </trkpt>
      <trkpt lat="47.29785" lon="-1.2828">
        <ele>91</ele>
        <time>2014-11-16T10:15:45.000Z</time>
      </trkpt>
      <trkpt lat="47.29787" lon="-1.28266">
        <ele>89</ele>
        <time>2014-11-16T10:15:47.000Z</time>
      </trkpt>
      <trkpt lat="47.29788" lon="-1.28253">
        <ele>90</ele>
        <time>2014-11-16T10:15:51.000Z</time>
      </trkpt>
      <trkpt lat="47.29788" lon="-1.28253">
        <ele>90</ele>
        <time>2014-11-16T10:15:53.000Z</time>
      </trkpt>
      <trkpt lat="47.29788" lon="-1.28253">
        <ele>90</ele>
        <time>2014-11-16T10:15:55.000Z</time>
      </trkpt>
      <trkpt lat="47.29795" lon="-1.28249">
        <ele>88</ele>
        <time>2014-11-16T10:15:57.000Z</time>
      </trkpt>
      <trkpt lat="47.29806" lon="-1.28262">
        <ele>83</ele>
        <time>2014-11-16T10:16:01.000Z</time>
      </trkpt>
      <trkpt lat="47.29811" lon="-1.28272">
        <ele>82</ele>
        <time>2014-11-16T10:16:03.000Z</time>
      </trkpt>
      <trkpt lat="47.29816" lon="-1.28282">
        <ele>81</ele>
        <time>2014-11-16T10:16:05.000Z</time>
      </trkpt>
      <trkpt lat="47.2982" lon="-1.28291">
        <ele>81</ele>
        <time>2014-11-16T10:16:07.000Z</time>
      </trkpt>
      <trkpt lat="47.29824" lon="-1.28302">
        <ele>80</ele>
        <time>2014-11-16T10:16:09.000Z</time>
      </trkpt>
      <trkpt lat="47.29831" lon="-1.28314">
        <ele>79</ele>
        <time>2014-11-16T10:16:11.000Z</time>
      </trkpt>
      <trkpt lat="47.29836" lon="-1.28326">
        <ele>78</ele>
        <time>2014-11-16T10:16:13.000Z</time>
      </trkpt>
      <trkpt lat="47.29842" lon="-1.28339">
        <ele>77</ele>
        <time>2014-11-16T10:16:15.000Z</time>
      </trkpt>
      <trkpt lat="47.29848" lon="-1.28352">
        <ele>75</ele>
        <time>2014-11-16T10:16:17.000Z</time>
      </trkpt>
      <trkpt lat="47.29855" lon="-1.28362">
        <ele>74</ele>
        <time>2014-11-16T10:16:19.000Z</time>
      </trkpt>
      <trkpt lat="47.29861" lon="-1.28373">
        <ele>73</ele>
        <time>2014-11-16T10:16:21.000Z</time>
      </trkpt>
      <trkpt lat="47.29865" lon="-1.28382">
        <ele>72</ele>
        <time>2014-11-16T10:16:23.000Z</time>
      </trkpt>
      <trkpt lat="47.29865" lon="-1.28382">
        <ele>72</ele>
        <time>2014-11-16T10:16:25.000Z</time>
      </trkpt>
      <trkpt lat="47.2987" lon="-1.28394">
        <ele>70</ele>
        <time>2014-11-16T10:16:27.000Z</time>
      </trkpt>
      <trkpt lat="47.2987" lon="-1.28394">
        <ele>70</ele>
        <time>2014-11-16T10:16:29.000Z</time>
      </trkpt>
      <trkpt lat="47.29876" lon="-1.28403">
        <ele>68</ele>
        <time>2014-11-16T10:16:31.000Z</time>
      </trkpt>
      <trkpt lat="47.29876" lon="-1.28403">
        <ele>68</ele>
        <time>2014-11-16T10:16:33.000Z</time>
      </trkpt>
      <trkpt lat="47.29883" lon="-1.28406">
        <ele>66</ele>
        <time>2014-11-16T10:16:35.000Z</time>
      </trkpt>
      <trkpt lat="47.29895" lon="-1.28398">
        <ele>66</ele>
        <time>2014-11-16T10:16:39.000Z</time>
      </trkpt>
      <trkpt lat="47.29901" lon="-1.28394">
        <ele>66</ele>
        <time>2014-11-16T10:16:41.000Z</time>
      </trkpt>
      <trkpt lat="47.29901" lon="-1.28394">
        <ele>66</ele>
        <time>2014-11-16T10:16:43.000Z</time>
      </trkpt>
      <trkpt lat="47.29909" lon="-1.28391">
        <ele>68</ele>
        <time>2014-11-16T10:16:45.000Z</time>
      </trkpt>
      <trkpt lat="47.29909" lon="-1.28391">
        <ele>68</ele>
        <time>2014-11-16T10:16:47.000Z</time>
      </trkpt>
      <trkpt lat="47.29916" lon="-1.28386">
        <ele>69</ele>
        <time>2014-11-16T10:16:49.000Z</time>
      </trkpt>
      <trkpt lat="47.29916" lon="-1.28386">
        <ele>69</ele>
        <time>2014-11-16T10:16:51.000Z</time>
      </trkpt>
      <trkpt lat="47.29921" lon="-1.28381">
        <ele>70</ele>
        <time>2014-11-16T10:16:53.000Z</time>
      </trkpt>
      <trkpt lat="47.29929" lon="-1.28378">
        <ele>68</ele>
        <time>2014-11-16T10:16:57.000Z</time>
      </trkpt>
      <trkpt lat="47.29939" lon="-1.28374">
        <ele>69</ele>
        <time>2014-11-16T10:17:01.000Z</time>
      </trkpt>
      <trkpt lat="47.29948" lon="-1.28368">
        <ele>72</ele>
        <time>2014-11-16T10:17:05.000Z</time>
      </trkpt>
      <trkpt lat="47.29948" lon="-1.28368">
        <ele>72</ele>
        <time>2014-11-16T10:17:07.000Z</time>
      </trkpt>
      <trkpt lat="47.29958" lon="-1.28362">
        <ele>72</ele>
        <time>2014-11-16T10:17:09.000Z</time>
      </trkpt>
      <trkpt lat="47.29958" lon="-1.28362">
        <ele>72</ele>
        <time>2014-11-16T10:17:11.000Z</time>
      </trkpt>
      <trkpt lat="47.29967" lon="-1.28357">
        <ele>73</ele>
        <time>2014-11-16T10:17:13.000Z</time>
      </trkpt>
      <trkpt lat="47.29967" lon="-1.28357">
        <ele>73</ele>
        <time>2014-11-16T10:17:15.000Z</time>
      </trkpt>
      <trkpt lat="47.29976" lon="-1.28352">
        <ele>73</ele>
        <time>2014-11-16T10:17:17.000Z</time>
      </trkpt>
      <trkpt lat="47.29976" lon="-1.28352">
        <ele>73</ele>
        <time>2014-11-16T10:17:19.000Z</time>
      </trkpt>
      <trkpt lat="47.29983" lon="-1.28346">
        <ele>74</ele>
        <time>2014-11-16T10:17:21.000Z</time>
      </trkpt>
      <trkpt lat="47.29983" lon="-1.28346">
        <ele>74</ele>
        <time>2014-11-16T10:17:23.000Z</time>
      </trkpt>
      <trkpt lat="47.29983" lon="-1.28346">
        <ele>74</ele>
        <time>2014-11-16T10:17:25.000Z</time>
      </trkpt>
      <trkpt lat="47.29986" lon="-1.28349">
        <ele>69</ele>
        <time>2014-11-16T10:17:27.000Z</time>
      </trkpt>
      <trkpt lat="47.29988" lon="-1.28356">
        <ele>68</ele>
        <time>2014-11-16T10:17:29.000Z</time>
      </trkpt>
      <trkpt lat="47.29991" lon="-1.28364">
        <ele>66</ele>
        <time>2014-11-16T10:17:31.000Z</time>
      </trkpt>
      <trkpt lat="47.29995" lon="-1.28374">
        <ele>64</ele>
        <time>2014-11-16T10:17:33.000Z</time>
      </trkpt>
      <trkpt lat="47.29999" lon="-1.28381">
        <ele>63</ele>
        <time>2014-11-16T10:17:35.000Z</time>
      </trkpt>
      <trkpt lat="47.30006" lon="-1.28395">
        <ele>62</ele>
        <time>2014-11-16T10:17:37.000Z</time>
      </trkpt>
      <trkpt lat="47.30006" lon="-1.28395">
        <ele>62</ele>
        <time>2014-11-16T10:17:39.000Z</time>
      </trkpt>
      <trkpt lat="47.30011" lon="-1.28408">
        <ele>61</ele>
        <time>2014-11-16T10:17:41.000Z</time>
      </trkpt>
      <trkpt lat="47.30011" lon="-1.28408">
        <ele>61</ele>
        <time>2014-11-16T10:17:43.000Z</time>
      </trkpt>
      <trkpt lat="47.3001" lon="-1.28419">
        <ele>61</ele>
        <time>2014-11-16T10:17:45.000Z</time>
      </trkpt>
      <trkpt lat="47.3001" lon="-1.28419">
        <ele>61</ele>
        <time>2014-11-16T10:17:47.000Z</time>
      </trkpt>
      <trkpt lat="47.30002" lon="-1.28428">
        <ele>60</ele>
        <time>2014-11-16T10:17:49.000Z</time>
      </trkpt>
      <trkpt lat="47.29995" lon="-1.28437">
        <ele>61</ele>
        <time>2014-11-16T10:17:53.000Z</time>
      </trkpt>
      <trkpt lat="47.29995" lon="-1.28437">
        <ele>61</ele>
        <time>2014-11-16T10:17:55.000Z</time>
      </trkpt>
      <trkpt lat="47.29995" lon="-1.28437">
        <ele>61</ele>
        <time>2014-11-16T10:17:57.000Z</time>
      </trkpt>
      <trkpt lat="47.29995" lon="-1.28437">
        <ele>61</ele>
        <time>2014-11-16T10:17:59.000Z</time>
      </trkpt>
      <trkpt lat="47.29995" lon="-1.28437">
        <ele>61</ele>
        <time>2014-11-16T10:18:01.000Z</time>
      </trkpt>
      <trkpt lat="47.29995" lon="-1.28437">
        <ele>61</ele>
        <time>2014-11-16T10:18:03.000Z</time>
      </trkpt>
      <trkpt lat="47.29995" lon="-1.28437">
        <ele>61</ele>
        <time>2014-11-16T10:18:05.000Z</time>
      </trkpt>
      <trkpt lat="47.29991" lon="-1.28446">
        <ele>59</ele>
        <time>2014-11-16T10:18:11.000Z</time>
      </trkpt>
      <trkpt lat="47.29985" lon="-1.28455">
        <ele>62</ele>
        <time>2014-11-16T10:18:15.000Z</time>
      </trkpt>
      <trkpt lat="47.29977" lon="-1.28464">
        <ele>62</ele>
        <time>2014-11-16T10:18:19.000Z</time>
      </trkpt>
      <trkpt lat="47.29971" lon="-1.28468">
        <ele>62</ele>
        <time>2014-11-16T10:18:22.000Z</time>
      </trkpt>
      <trkpt lat="47.29964" lon="-1.28475">
        <ele>63</ele>
        <time>2014-11-16T10:18:25.000Z</time>
      </trkpt>
      <trkpt lat="47.29964" lon="-1.28475">
        <ele>63</ele>
        <time>2014-11-16T10:18:27.000Z</time>
      </trkpt>
      <trkpt lat="47.29964" lon="-1.28475">
        <ele>63</ele>
        <time>2014-11-16T10:18:29.000Z</time>
      </trkpt>
      <trkpt lat="47.29958" lon="-1.28479">
        <ele>62</ele>
        <time>2014-11-16T10:18:31.000Z</time>
      </trkpt>
      <trkpt lat="47.29958" lon="-1.28479">
        <ele>62</ele>
        <time>2014-11-16T10:18:33.000Z</time>
      </trkpt>
      <trkpt lat="47.29958" lon="-1.28479">
        <ele>62</ele>
        <time>2014-11-16T10:18:35.000Z</time>
      </trkpt>
      <trkpt lat="47.2995" lon="-1.28481">
        <ele>63</ele>
        <time>2014-11-16T10:18:37.000Z</time>
      </trkpt>
      <trkpt lat="47.29944" lon="-1.28483">
        <ele>65</ele>
        <time>2014-11-16T10:18:41.000Z</time>
      </trkpt>
      <trkpt lat="47.29939" lon="-1.28492">
        <ele>66</ele>
        <time>2014-11-16T10:18:45.000Z</time>
      </trkpt>
      <trkpt lat="47.29935" lon="-1.28502">
        <ele>67</ele>
        <time>2014-11-16T10:18:49.000Z</time>
      </trkpt>
      <trkpt lat="47.29927" lon="-1.28513">
        <ele>66</ele>
        <time>2014-11-16T10:18:53.000Z</time>
      </trkpt>
      <trkpt lat="47.29915" lon="-1.28525">
        <ele>71</ele>
        <time>2014-11-16T10:18:57.000Z</time>
      </trkpt>
      <trkpt lat="47.29906" lon="-1.2853">
        <ele>69</ele>
        <time>2014-11-16T10:19:01.000Z</time>
      </trkpt>
      <trkpt lat="47.29897" lon="-1.28535">
        <ele>66</ele>
        <time>2014-11-16T10:19:05.000Z</time>
      </trkpt>
      <trkpt lat="47.2989" lon="-1.28544">
        <ele>63</ele>
        <time>2014-11-16T10:19:09.000Z</time>
      </trkpt>
      <trkpt lat="47.2989" lon="-1.28544">
        <ele>63</ele>
        <time>2014-11-16T10:19:11.000Z</time>
      </trkpt>
      <trkpt lat="47.29885" lon="-1.28551">
        <ele>63</ele>
        <time>2014-11-16T10:19:13.000Z</time>
      </trkpt>
      <trkpt lat="47.29885" lon="-1.28551">
        <ele>63</ele>
        <time>2014-11-16T10:19:15.000Z</time>
      </trkpt>
      <trkpt lat="47.2988" lon="-1.28558">
        <ele>62</ele>
        <time>2014-11-16T10:19:17.000Z</time>
      </trkpt>
      <trkpt lat="47.2988" lon="-1.28558">
        <ele>62</ele>
        <time>2014-11-16T10:19:19.000Z</time>
      </trkpt>
      <trkpt lat="47.2988" lon="-1.28558">
        <ele>62</ele>
        <time>2014-11-16T10:19:21.000Z</time>
      </trkpt>
      <trkpt lat="47.29884" lon="-1.28558">
        <ele>64</ele>
        <time>2014-11-16T10:19:23.000Z</time>
      </trkpt>
      <trkpt lat="47.29889" lon="-1.28556">
        <ele>64</ele>
        <time>2014-11-16T10:19:25.000Z</time>
      </trkpt>
      <trkpt lat="47.29893" lon="-1.28554">
        <ele>65</ele>
        <time>2014-11-16T10:19:27.000Z</time>
      </trkpt>
      <trkpt lat="47.29898" lon="-1.28551">
        <ele>64</ele>
        <time>2014-11-16T10:19:29.000Z</time>
      </trkpt>
      <trkpt lat="47.29903" lon="-1.28549">
        <ele>65</ele>
        <time>2014-11-16T10:19:31.000Z</time>
      </trkpt>
      <trkpt lat="47.29913" lon="-1.28544">
        <ele>65</ele>
        <time>2014-11-16T10:19:33.000Z</time>
      </trkpt>
      <trkpt lat="47.29913" lon="-1.28544">
        <ele>65</ele>
        <time>2014-11-16T10:19:35.000Z</time>
      </trkpt>
      <trkpt lat="47.29922" lon="-1.28538">
        <ele>67</ele>
        <time>2014-11-16T10:19:37.000Z</time>
      </trkpt>
      <trkpt lat="47.29922" lon="-1.28538">
        <ele>67</ele>
        <time>2014-11-16T10:19:39.000Z</time>
      </trkpt>
      <trkpt lat="47.2993" lon="-1.28532">
        <ele>67</ele>
        <time>2014-11-16T10:19:41.000Z</time>
      </trkpt>
      <trkpt lat="47.29938" lon="-1.28526">
        <ele>70</ele>
        <time>2014-11-16T10:19:45.000Z</time>
      </trkpt>
      <trkpt lat="47.29938" lon="-1.28526">
        <ele>70</ele>
        <time>2014-11-16T10:19:47.000Z</time>
      </trkpt>
      <trkpt lat="47.29945" lon="-1.28518">
        <ele>72</ele>
        <time>2014-11-16T10:19:49.000Z</time>
      </trkpt>
      <trkpt lat="47.29945" lon="-1.28518">
        <ele>72</ele>
        <time>2014-11-16T10:19:51.000Z</time>
      </trkpt>
      <trkpt lat="47.29952" lon="-1.28513">
        <ele>76</ele>
        <time>2014-11-16T10:19:53.000Z</time>
      </trkpt>
      <trkpt lat="47.29952" lon="-1.28513">
        <ele>76</ele>
        <time>2014-11-16T10:19:55.000Z</time>
      </trkpt>
      <trkpt lat="47.2996" lon="-1.28508">
        <ele>74</ele>
        <time>2014-11-16T10:19:57.000Z</time>
      </trkpt>
      <trkpt lat="47.29966" lon="-1.28505">
        <ele>75</ele>
        <time>2014-11-16T10:19:59.000Z</time>
      </trkpt>
      <trkpt lat="47.29976" lon="-1.28499">
        <ele>75</ele>
        <time>2014-11-16T10:20:03.000Z</time>
      </trkpt>
      <trkpt lat="47.29976" lon="-1.28499">
        <ele>75</ele>
        <time>2014-11-16T10:20:05.000Z</time>
      </trkpt>
      <trkpt lat="47.29984" lon="-1.28493">
        <ele>77</ele>
        <time>2014-11-16T10:20:07.000Z</time>
      </trkpt>
      <trkpt lat="47.29984" lon="-1.28493">
        <ele>77</ele>
        <time>2014-11-16T10:20:09.000Z</time>
      </trkpt>
      <trkpt lat="47.29994" lon="-1.28487">
        <ele>75</ele>
        <time>2014-11-16T10:20:11.000Z</time>
      </trkpt>
      <trkpt lat="47.3" lon="-1.28484">
        <ele>74</ele>
        <time>2014-11-16T10:20:13.000Z</time>
      </trkpt>
      <trkpt lat="47.3001" lon="-1.28477">
        <ele>77</ele>
        <time>2014-11-16T10:20:17.000Z</time>
      </trkpt>
      <trkpt lat="47.30019" lon="-1.2847">
        <ele>77</ele>
        <time>2014-11-16T10:20:21.000Z</time>
      </trkpt>
      <trkpt lat="47.30028" lon="-1.28462">
        <ele>77</ele>
        <time>2014-11-16T10:20:25.000Z</time>
      </trkpt>
      <trkpt lat="47.30028" lon="-1.28462">
        <ele>77</ele>
        <time>2014-11-16T10:20:27.000Z</time>
      </trkpt>
      <trkpt lat="47.30036" lon="-1.28453">
        <ele>76</ele>
        <time>2014-11-16T10:20:29.000Z</time>
      </trkpt>
      <trkpt lat="47.30044" lon="-1.28445">
        <ele>77</ele>
        <time>2014-11-16T10:20:33.000Z</time>
      </trkpt>
      <trkpt lat="47.30051" lon="-1.28434">
        <ele>77</ele>
        <time>2014-11-16T10:20:37.000Z</time>
      </trkpt>
      <trkpt lat="47.30058" lon="-1.28421">
        <ele>76</ele>
        <time>2014-11-16T10:20:41.000Z</time>
      </trkpt>
      <trkpt lat="47.30064" lon="-1.28409">
        <ele>77</ele>
        <time>2014-11-16T10:20:45.000Z</time>
      </trkpt>
      <trkpt lat="47.3007" lon="-1.28398">
        <ele>77</ele>
        <time>2014-11-16T10:20:49.000Z</time>
      </trkpt>
      <trkpt lat="47.30077" lon="-1.28386">
        <ele>79</ele>
        <time>2014-11-16T10:20:53.000Z</time>
      </trkpt>
      <trkpt lat="47.30084" lon="-1.28377">
        <ele>80</ele>
        <time>2014-11-16T10:20:57.000Z</time>
      </trkpt>
      <trkpt lat="47.3009" lon="-1.28365">
        <ele>80</ele>
        <time>2014-11-16T10:21:01.000Z</time>
      </trkpt>
      <trkpt lat="47.30097" lon="-1.28352">
        <ele>80</ele>
        <time>2014-11-16T10:21:05.000Z</time>
      </trkpt>
      <trkpt lat="47.30104" lon="-1.28339">
        <ele>83</ele>
        <time>2014-11-16T10:21:09.000Z</time>
      </trkpt>
      <trkpt lat="47.30107" lon="-1.2833">
        <ele>84</ele>
        <time>2014-11-16T10:21:12.000Z</time>
      </trkpt>
      <trkpt lat="47.3011" lon="-1.28322">
        <ele>85</ele>
        <time>2014-11-16T10:21:13.000Z</time>
      </trkpt>
      <trkpt lat="47.30115" lon="-1.28315">
        <ele>85</ele>
        <time>2014-11-16T10:21:15.000Z</time>
      </trkpt>
      <trkpt lat="47.3012" lon="-1.28309">
        <ele>87</ele>
        <time>2014-11-16T10:21:17.000Z</time>
      </trkpt>
      <trkpt lat="47.30125" lon="-1.28304">
        <ele>88</ele>
        <time>2014-11-16T10:21:19.000Z</time>
      </trkpt>
      <trkpt lat="47.30132" lon="-1.28303">
        <ele>88</ele>
        <time>2014-11-16T10:21:21.000Z</time>
      </trkpt>
      <trkpt lat="47.30138" lon="-1.28303">
        <ele>88</ele>
        <time>2014-11-16T10:21:23.000Z</time>
      </trkpt>
      <trkpt lat="47.30145" lon="-1.28304">
        <ele>89</ele>
        <time>2014-11-16T10:21:25.000Z</time>
      </trkpt>
      <trkpt lat="47.30145" lon="-1.28304">
        <ele>89</ele>
        <time>2014-11-16T10:21:27.000Z</time>
      </trkpt>
      <trkpt lat="47.30156" lon="-1.28307">
        <ele>88</ele>
        <time>2014-11-16T10:21:29.000Z</time>
      </trkpt>
      <trkpt lat="47.30162" lon="-1.28309">
        <ele>89</ele>
        <time>2014-11-16T10:21:31.000Z</time>
      </trkpt>
      <trkpt lat="47.30169" lon="-1.28311">
        <ele>89</ele>
        <time>2014-11-16T10:21:33.000Z</time>
      </trkpt>
      <trkpt lat="47.30176" lon="-1.28312">
        <ele>90</ele>
        <time>2014-11-16T10:21:35.000Z</time>
      </trkpt>
      <trkpt lat="47.30183" lon="-1.28311">
        <ele>91</ele>
        <time>2014-11-16T10:21:37.000Z</time>
      </trkpt>
      <trkpt lat="47.30188" lon="-1.28309">
        <ele>91</ele>
        <time>2014-11-16T10:21:39.000Z</time>
      </trkpt>
      <trkpt lat="47.30194" lon="-1.28305">
        <ele>90</ele>
        <time>2014-11-16T10:21:41.000Z</time>
      </trkpt>
      <trkpt lat="47.30194" lon="-1.28305">
        <ele>90</ele>
        <time>2014-11-16T10:21:43.000Z</time>
      </trkpt>
      <trkpt lat="47.30203" lon="-1.28297">
        <ele>92</ele>
        <time>2014-11-16T10:21:45.000Z</time>
      </trkpt>
      <trkpt lat="47.30203" lon="-1.28297">
        <ele>92</ele>
        <time>2014-11-16T10:21:47.000Z</time>
      </trkpt>
      <trkpt lat="47.30212" lon="-1.28291">
        <ele>92</ele>
        <time>2014-11-16T10:21:49.000Z</time>
      </trkpt>
      <trkpt lat="47.30212" lon="-1.28291">
        <ele>92</ele>
        <time>2014-11-16T10:21:51.000Z</time>
      </trkpt>
      <trkpt lat="47.3022" lon="-1.28289">
        <ele>92</ele>
        <time>2014-11-16T10:21:53.000Z</time>
      </trkpt>
      <trkpt lat="47.3022" lon="-1.28289">
        <ele>92</ele>
        <time>2014-11-16T10:21:55.000Z</time>
      </trkpt>
      <trkpt lat="47.3023" lon="-1.2829">
        <ele>92</ele>
        <time>2014-11-16T10:21:57.000Z</time>
      </trkpt>
      <trkpt lat="47.30241" lon="-1.28292">
        <ele>93</ele>
        <time>2014-11-16T10:22:01.000Z</time>
      </trkpt>
      <trkpt lat="47.30246" lon="-1.28293">
        <ele>94</ele>
        <time>2014-11-16T10:22:05.000Z</time>
      </trkpt>
      <trkpt lat="47.30251" lon="-1.28294">
        <ele>94</ele>
        <time>2014-11-16T10:22:07.000Z</time>
      </trkpt>
      <trkpt lat="47.30256" lon="-1.28295">
        <ele>94</ele>
        <time>2014-11-16T10:22:09.000Z</time>
      </trkpt>
      <trkpt lat="47.3026" lon="-1.28297">
        <ele>94</ele>
        <time>2014-11-16T10:22:11.000Z</time>
      </trkpt>
      <trkpt lat="47.30265" lon="-1.28298">
        <ele>93</ele>
        <time>2014-11-16T10:22:13.000Z</time>
      </trkpt>
      <trkpt lat="47.30276" lon="-1.28299">
        <ele>92</ele>
        <time>2014-11-16T10:22:15.000Z</time>
      </trkpt>
      <trkpt lat="47.30286" lon="-1.28299">
        <ele>94</ele>
        <time>2014-11-16T10:22:19.000Z</time>
      </trkpt>
      <trkpt lat="47.30297" lon="-1.28301">
        <ele>93</ele>
        <time>2014-11-16T10:22:23.000Z</time>
      </trkpt>
      <trkpt lat="47.30308" lon="-1.28302">
        <ele>92</ele>
        <time>2014-11-16T10:22:27.000Z</time>
      </trkpt>
      <trkpt lat="47.30319" lon="-1.28305">
        <ele>93</ele>
        <time>2014-11-16T10:22:31.000Z</time>
      </trkpt>
      <trkpt lat="47.30319" lon="-1.28305">
        <ele>93</ele>
        <time>2014-11-16T10:22:33.000Z</time>
      </trkpt>
      <trkpt lat="47.3033" lon="-1.28306">
        <ele>92</ele>
        <time>2014-11-16T10:22:35.000Z</time>
      </trkpt>
      <trkpt lat="47.30335" lon="-1.28307">
        <ele>92</ele>
        <time>2014-11-16T10:22:37.000Z</time>
      </trkpt>
      <trkpt lat="47.30346" lon="-1.28309">
        <ele>92</ele>
        <time>2014-11-16T10:22:41.000Z</time>
      </trkpt>
      <trkpt lat="47.30346" lon="-1.28309">
        <ele>92</ele>
        <time>2014-11-16T10:22:43.000Z</time>
      </trkpt>
      <trkpt lat="47.30355" lon="-1.28314">
        <ele>94</ele>
        <time>2014-11-16T10:22:45.000Z</time>
      </trkpt>
      <trkpt lat="47.30355" lon="-1.28314">
        <ele>94</ele>
        <time>2014-11-16T10:22:47.000Z</time>
      </trkpt>
      <trkpt lat="47.30364" lon="-1.2832">
        <ele>92</ele>
        <time>2014-11-16T10:22:49.000Z</time>
      </trkpt>
      <trkpt lat="47.30364" lon="-1.2832">
        <ele>92</ele>
        <time>2014-11-16T10:22:51.000Z</time>
      </trkpt>
      <trkpt lat="47.30371" lon="-1.28328">
        <ele>94</ele>
        <time>2014-11-16T10:22:53.000Z</time>
      </trkpt>
      <trkpt lat="47.30371" lon="-1.28328">
        <ele>94</ele>
        <time>2014-11-16T10:22:55.000Z</time>
      </trkpt>
      <trkpt lat="47.30377" lon="-1.28337">
        <ele>95</ele>
        <time>2014-11-16T10:22:57.000Z</time>
      </trkpt>
      <trkpt lat="47.30384" lon="-1.28348">
        <ele>96</ele>
        <time>2014-11-16T10:23:01.000Z</time>
      </trkpt>
      <trkpt lat="47.30391" lon="-1.2836">
        <ele>96</ele>
        <time>2014-11-16T10:23:05.000Z</time>
      </trkpt>
      <trkpt lat="47.30399" lon="-1.28372">
        <ele>95</ele>
        <time>2014-11-16T10:23:09.000Z</time>
      </trkpt>
      <trkpt lat="47.30404" lon="-1.28377">
        <ele>95</ele>
        <time>2014-11-16T10:23:11.000Z</time>
      </trkpt>
      <trkpt lat="47.30409" lon="-1.28383">
        <ele>94</ele>
        <time>2014-11-16T10:23:13.000Z</time>
      </trkpt>
      <trkpt lat="47.30414" lon="-1.2839">
        <ele>94</ele>
        <time>2014-11-16T10:23:15.000Z</time>
      </trkpt>
      <trkpt lat="47.30418" lon="-1.28397">
        <ele>94</ele>
        <time>2014-11-16T10:23:17.000Z</time>
      </trkpt>
      <trkpt lat="47.30418" lon="-1.28397">
        <ele>94</ele>
        <time>2014-11-16T10:23:19.000Z</time>
      </trkpt>
      <trkpt lat="47.30416" lon="-1.28413">
        <ele>95</ele>
        <time>2014-11-16T10:23:21.000Z</time>
      </trkpt>
      <trkpt lat="47.30412" lon="-1.28419">
        <ele>96</ele>
        <time>2014-11-16T10:23:23.000Z</time>
      </trkpt>
      <trkpt lat="47.30406" lon="-1.28425">
        <ele>94</ele>
        <time>2014-11-16T10:23:25.000Z</time>
      </trkpt>
      <trkpt lat="47.30399" lon="-1.2843">
        <ele>95</ele>
        <time>2014-11-16T10:23:27.000Z</time>
      </trkpt>
      <trkpt lat="47.30394" lon="-1.28436">
        <ele>95</ele>
        <time>2014-11-16T10:23:29.000Z</time>
      </trkpt>
      <trkpt lat="47.30388" lon="-1.28443">
        <ele>96</ele>
        <time>2014-11-16T10:23:31.000Z</time>
      </trkpt>
      <trkpt lat="47.30383" lon="-1.2845">
        <ele>96</ele>
        <time>2014-11-16T10:23:33.000Z</time>
      </trkpt>
      <trkpt lat="47.30379" lon="-1.28458">
        <ele>95</ele>
        <time>2014-11-16T10:23:35.000Z</time>
      </trkpt>
      <trkpt lat="47.30374" lon="-1.28465">
        <ele>96</ele>
        <time>2014-11-16T10:23:37.000Z</time>
      </trkpt>
      <trkpt lat="47.3037" lon="-1.28472">
        <ele>95</ele>
        <time>2014-11-16T10:23:39.000Z</time>
      </trkpt>
      <trkpt lat="47.30365" lon="-1.28479">
        <ele>94</ele>
        <time>2014-11-16T10:23:41.000Z</time>
      </trkpt>
      <trkpt lat="47.30362" lon="-1.28487">
        <ele>95</ele>
        <time>2014-11-16T10:23:43.000Z</time>
      </trkpt>
      <trkpt lat="47.30362" lon="-1.28487">
        <ele>95</ele>
        <time>2014-11-16T10:23:45.000Z</time>
      </trkpt>
      <trkpt lat="47.30356" lon="-1.28501">
        <ele>94</ele>
        <time>2014-11-16T10:23:47.000Z</time>
      </trkpt>
      <trkpt lat="47.30356" lon="-1.28501">
        <ele>94</ele>
        <time>2014-11-16T10:23:49.000Z</time>
      </trkpt>
      <trkpt lat="47.3035" lon="-1.28514">
        <ele>95</ele>
        <time>2014-11-16T10:23:51.000Z</time>
      </trkpt>
      <trkpt lat="47.30346" lon="-1.28522">
        <ele>94</ele>
        <time>2014-11-16T10:23:53.000Z</time>
      </trkpt>
      <trkpt lat="47.30341" lon="-1.28531">
        <ele>95</ele>
        <time>2014-11-16T10:23:55.000Z</time>
      </trkpt>
      <trkpt lat="47.30337" lon="-1.28539">
        <ele>95</ele>
        <time>2014-11-16T10:23:57.000Z</time>
      </trkpt>
      <trkpt lat="47.30332" lon="-1.28549">
        <ele>94</ele>
        <time>2014-11-16T10:23:59.000Z</time>
      </trkpt>
      <trkpt lat="47.30327" lon="-1.28559">
        <ele>94</ele>
        <time>2014-11-16T10:24:01.000Z</time>
      </trkpt>
      <trkpt lat="47.3032" lon="-1.28572">
        <ele>93</ele>
        <time>2014-11-16T10:24:03.000Z</time>
      </trkpt>
      <trkpt lat="47.30313" lon="-1.28582">
        <ele>93</ele>
        <time>2014-11-16T10:24:05.000Z</time>
      </trkpt>
      <trkpt lat="47.30308" lon="-1.28592">
        <ele>93</ele>
        <time>2014-11-16T10:24:07.000Z</time>
      </trkpt>
      <trkpt lat="47.30301" lon="-1.28601">
        <ele>92</ele>
        <time>2014-11-16T10:24:09.000Z</time>
      </trkpt>
      <trkpt lat="47.30297" lon="-1.2861">
        <ele>93</ele>
        <time>2014-11-16T10:24:11.000Z</time>
      </trkpt>
      <trkpt lat="47.30291" lon="-1.28619">
        <ele>93</ele>
        <time>2014-11-16T10:24:13.000Z</time>
      </trkpt>
      <trkpt lat="47.30286" lon="-1.28627">
        <ele>93</ele>
        <time>2014-11-16T10:24:15.000Z</time>
      </trkpt>
      <trkpt lat="47.30281" lon="-1.28636">
        <ele>93</ele>
        <time>2014-11-16T10:24:17.000Z</time>
      </trkpt>
      <trkpt lat="47.30276" lon="-1.28645">
        <ele>93</ele>
        <time>2014-11-16T10:24:19.000Z</time>
      </trkpt>
      <trkpt lat="47.3027" lon="-1.28655">
        <ele>93</ele>
        <time>2014-11-16T10:24:21.000Z</time>
      </trkpt>
      <trkpt lat="47.30264" lon="-1.28665">
        <ele>93</ele>
        <time>2014-11-16T10:24:23.000Z</time>
      </trkpt>
      <trkpt lat="47.30259" lon="-1.28676">
        <ele>93</ele>
        <time>2014-11-16T10:24:25.000Z</time>
      </trkpt>
      <trkpt lat="47.30253" lon="-1.28688">
        <ele>93</ele>
        <time>2014-11-16T10:24:27.000Z</time>
      </trkpt>
      <trkpt lat="47.30248" lon="-1.287">
        <ele>93</ele>
        <time>2014-11-16T10:24:29.000Z</time>
      </trkpt>
      <trkpt lat="47.30243" lon="-1.28712">
        <ele>93</ele>
        <time>2014-11-16T10:24:31.000Z</time>
      </trkpt>
      <trkpt lat="47.30237" lon="-1.28723">
        <ele>94</ele>
        <time>2014-11-16T10:24:33.000Z</time>
      </trkpt>
      <trkpt lat="47.30231" lon="-1.28734">
        <ele>94</ele>
        <time>2014-11-16T10:24:35.000Z</time>
      </trkpt>
      <trkpt lat="47.30226" lon="-1.28745">
        <ele>94</ele>
        <time>2014-11-16T10:24:37.000Z</time>
      </trkpt>
      <trkpt lat="47.30219" lon="-1.28755">
        <ele>95</ele>
        <time>2014-11-16T10:24:39.000Z</time>
      </trkpt>
      <trkpt lat="47.30212" lon="-1.28766">
        <ele>95</ele>
        <time>2014-11-16T10:24:41.000Z</time>
      </trkpt>
      <trkpt lat="47.30205" lon="-1.2878">
        <ele>94</ele>
        <time>2014-11-16T10:24:43.000Z</time>
      </trkpt>
      <trkpt lat="47.30201" lon="-1.28791">
        <ele>95</ele>
        <time>2014-11-16T10:24:45.000Z</time>
      </trkpt>
      <trkpt lat="47.30195" lon="-1.28798">
        <ele>93</ele>
        <time>2014-11-16T10:24:47.000Z</time>
      </trkpt>
      <trkpt lat="47.3019" lon="-1.28803">
        <ele>94</ele>
        <time>2014-11-16T10:24:49.000Z</time>
      </trkpt>
      <trkpt lat="47.30185" lon="-1.28811">
        <ele>93</ele>
        <time>2014-11-16T10:24:51.000Z</time>
      </trkpt>
      <trkpt lat="47.3018" lon="-1.28819">
        <ele>93</ele>
        <time>2014-11-16T10:24:53.000Z</time>
      </trkpt>
      <trkpt lat="47.30175" lon="-1.28827">
        <ele>92</ele>
        <time>2014-11-16T10:24:55.000Z</time>
      </trkpt>
      <trkpt lat="47.3017" lon="-1.28836">
        <ele>91</ele>
        <time>2014-11-16T10:24:57.000Z</time>
      </trkpt>
      <trkpt lat="47.30165" lon="-1.28846">
        <ele>92</ele>
        <time>2014-11-16T10:24:59.000Z</time>
      </trkpt>
      <trkpt lat="47.30162" lon="-1.28856">
        <ele>92</ele>
        <time>2014-11-16T10:25:01.000Z</time>
      </trkpt>
      <trkpt lat="47.30158" lon="-1.28864">
        <ele>92</ele>
        <time>2014-11-16T10:25:03.000Z</time>
      </trkpt>
      <trkpt lat="47.30155" lon="-1.28871">
        <ele>91</ele>
        <time>2014-11-16T10:25:05.000Z</time>
      </trkpt>
      <trkpt lat="47.30152" lon="-1.28879">
        <ele>90</ele>
        <time>2014-11-16T10:25:07.000Z</time>
      </trkpt>
      <trkpt lat="47.30152" lon="-1.28879">
        <ele>90</ele>
        <time>2014-11-16T10:25:09.000Z</time>
      </trkpt>
      <trkpt lat="47.30147" lon="-1.28892">
        <ele>92</ele>
        <time>2014-11-16T10:25:12.000Z</time>
      </trkpt>
      <trkpt lat="47.30147" lon="-1.28892">
        <ele>92</ele>
        <time>2014-11-16T10:25:13.000Z</time>
      </trkpt>
      <trkpt lat="47.30145" lon="-1.28906">
        <ele>93</ele>
        <time>2014-11-16T10:25:15.000Z</time>
      </trkpt>
      <trkpt lat="47.30145" lon="-1.28906">
        <ele>93</ele>
        <time>2014-11-16T10:25:17.000Z</time>
      </trkpt>
      <trkpt lat="47.3014" lon="-1.28912">
        <ele>92</ele>
        <time>2014-11-16T10:25:19.000Z</time>
      </trkpt>
      <trkpt lat="47.3014" lon="-1.28912">
        <ele>92</ele>
        <time>2014-11-16T10:25:21.000Z</time>
      </trkpt>
      <trkpt lat="47.30133" lon="-1.28916">
        <ele>91</ele>
        <time>2014-11-16T10:25:23.000Z</time>
      </trkpt>
      <trkpt lat="47.30133" lon="-1.28916">
        <ele>91</ele>
        <time>2014-11-16T10:25:25.000Z</time>
      </trkpt>
      <trkpt lat="47.30127" lon="-1.28924">
        <ele>92</ele>
        <time>2014-11-16T10:25:27.000Z</time>
      </trkpt>
      <trkpt lat="47.3012" lon="-1.28932">
        <ele>94</ele>
        <time>2014-11-16T10:25:31.000Z</time>
      </trkpt>
      <trkpt lat="47.30114" lon="-1.2894">
        <ele>94</ele>
        <time>2014-11-16T10:25:35.000Z</time>
      </trkpt>
      <trkpt lat="47.30109" lon="-1.28948">
        <ele>95</ele>
        <time>2014-11-16T10:25:39.000Z</time>
      </trkpt>
      <trkpt lat="47.30109" lon="-1.28948">
        <ele>95</ele>
        <time>2014-11-16T10:25:41.000Z</time>
      </trkpt>
      <trkpt lat="47.30103" lon="-1.28953">
        <ele>95</ele>
        <time>2014-11-16T10:25:43.000Z</time>
      </trkpt>
      <trkpt lat="47.30103" lon="-1.28953">
        <ele>95</ele>
        <time>2014-11-16T10:25:46.000Z</time>
      </trkpt>
      <trkpt lat="47.30099" lon="-1.2896">
        <ele>92</ele>
        <time>2014-11-16T10:25:47.000Z</time>
      </trkpt>
      <trkpt lat="47.30099" lon="-1.2896">
        <ele>92</ele>
        <time>2014-11-16T10:25:49.000Z</time>
      </trkpt>
      <trkpt lat="47.30096" lon="-1.28968">
        <ele>88</ele>
        <time>2014-11-16T10:25:51.000Z</time>
      </trkpt>
      <trkpt lat="47.30096" lon="-1.28968">
        <ele>88</ele>
        <time>2014-11-16T10:25:53.000Z</time>
      </trkpt>
      <trkpt lat="47.30092" lon="-1.28976">
        <ele>89</ele>
        <time>2014-11-16T10:25:55.000Z</time>
      </trkpt>
      <trkpt lat="47.30089" lon="-1.28986">
        <ele>87</ele>
        <time>2014-11-16T10:25:59.000Z</time>
      </trkpt>
      <trkpt lat="47.30088" lon="-1.28992">
        <ele>86</ele>
        <time>2014-11-16T10:26:03.000Z</time>
      </trkpt>
      <trkpt lat="47.30086" lon="-1.28998">
        <ele>83</ele>
        <time>2014-11-16T10:26:05.000Z</time>
      </trkpt>
      <trkpt lat="47.30085" lon="-1.29004">
        <ele>82</ele>
        <time>2014-11-16T10:26:07.000Z</time>
      </trkpt>
      <trkpt lat="47.30083" lon="-1.2901">
        <ele>79</ele>
        <time>2014-11-16T10:26:09.000Z</time>
      </trkpt>
      <trkpt lat="47.3008" lon="-1.29017">
        <ele>76</ele>
        <time>2014-11-16T10:26:11.000Z</time>
      </trkpt>
      <trkpt lat="47.30075" lon="-1.29032">
        <ele>75</ele>
        <time>2014-11-16T10:26:13.000Z</time>
      </trkpt>
      <trkpt lat="47.30074" lon="-1.29041">
        <ele>74</ele>
        <time>2014-11-16T10:26:16.000Z</time>
      </trkpt>
      <trkpt lat="47.30074" lon="-1.2905">
        <ele>74</ele>
        <time>2014-11-16T10:26:17.000Z</time>
      </trkpt>
      <trkpt lat="47.30073" lon="-1.29059">
        <ele>74</ele>
        <time>2014-11-16T10:26:19.000Z</time>
      </trkpt>
      <trkpt lat="47.30073" lon="-1.29059">
        <ele>74</ele>
        <time>2014-11-16T10:26:21.000Z</time>
      </trkpt>
      <trkpt lat="47.30075" lon="-1.2907">
        <ele>75</ele>
        <time>2014-11-16T10:26:23.000Z</time>
      </trkpt>
      <trkpt lat="47.30075" lon="-1.2907">
        <ele>75</ele>
        <time>2014-11-16T10:26:25.000Z</time>
      </trkpt>
      <trkpt lat="47.30075" lon="-1.2907">
        <ele>75</ele>
        <time>2014-11-16T10:26:27.000Z</time>
      </trkpt>
      <trkpt lat="47.30077" lon="-1.29079">
        <ele>75</ele>
        <time>2014-11-16T10:26:29.000Z</time>
      </trkpt>
      <trkpt lat="47.30077" lon="-1.29079">
        <ele>75</ele>
        <time>2014-11-16T10:26:31.000Z</time>
      </trkpt>
      <trkpt lat="47.30079" lon="-1.29092">
        <ele>76</ele>
        <time>2014-11-16T10:26:33.000Z</time>
      </trkpt>
      <trkpt lat="47.30079" lon="-1.29102">
        <ele>72</ele>
        <time>2014-11-16T10:26:35.000Z</time>
      </trkpt>
      <trkpt lat="47.30079" lon="-1.29112">
        <ele>70</ele>
        <time>2014-11-16T10:26:37.000Z</time>
      </trkpt>
      <trkpt lat="47.30079" lon="-1.29121">
        <ele>66</ele>
        <time>2014-11-16T10:26:39.000Z</time>
      </trkpt>
      <trkpt lat="47.30079" lon="-1.29139">
        <ele>67</ele>
        <time>2014-11-16T10:26:43.000Z</time>
      </trkpt>
      <trkpt lat="47.30077" lon="-1.29151">
        <ele>68</ele>
        <time>2014-11-16T10:26:45.000Z</time>
      </trkpt>
      <trkpt lat="47.30075" lon="-1.29162">
        <ele>64</ele>
        <time>2014-11-16T10:26:47.000Z</time>
      </trkpt>
      <trkpt lat="47.30074" lon="-1.29174">
        <ele>63</ele>
        <time>2014-11-16T10:26:49.000Z</time>
      </trkpt>
      <trkpt lat="47.30072" lon="-1.29185">
        <ele>62</ele>
        <time>2014-11-16T10:26:51.000Z</time>
      </trkpt>
      <trkpt lat="47.30071" lon="-1.29197">
        <ele>61</ele>
        <time>2014-11-16T10:26:53.000Z</time>
      </trkpt>
      <trkpt lat="47.30073" lon="-1.29207">
        <ele>61</ele>
        <time>2014-11-16T10:26:55.000Z</time>
      </trkpt>
      <trkpt lat="47.30075" lon="-1.29216">
        <ele>61</ele>
        <time>2014-11-16T10:26:57.000Z</time>
      </trkpt>
      <trkpt lat="47.30077" lon="-1.29226">
        <ele>61</ele>
        <time>2014-11-16T10:26:59.000Z</time>
      </trkpt>
      <trkpt lat="47.30082" lon="-1.29238">
        <ele>61</ele>
        <time>2014-11-16T10:27:01.000Z</time>
      </trkpt>
      <trkpt lat="47.30088" lon="-1.29249">
        <ele>61</ele>
        <time>2014-11-16T10:27:03.000Z</time>
      </trkpt>
      <trkpt lat="47.30093" lon="-1.29259">
        <ele>61</ele>
        <time>2014-11-16T10:27:05.000Z</time>
      </trkpt>
      <trkpt lat="47.30099" lon="-1.29267">
        <ele>61</ele>
        <time>2014-11-16T10:27:07.000Z</time>
      </trkpt>
      <trkpt lat="47.30099" lon="-1.29267">
        <ele>61</ele>
        <time>2014-11-16T10:27:09.000Z</time>
      </trkpt>
      <trkpt lat="47.30105" lon="-1.2927">
        <ele>67</ele>
        <time>2014-11-16T10:27:11.000Z</time>
      </trkpt>
      <trkpt lat="47.30105" lon="-1.2927">
        <ele>67</ele>
        <time>2014-11-16T10:27:13.000Z</time>
      </trkpt>
      <trkpt lat="47.30106" lon="-1.29258">
        <ele>68</ele>
        <time>2014-11-16T10:27:15.000Z</time>
      </trkpt>
      <trkpt lat="47.30106" lon="-1.29258">
        <ele>68</ele>
        <time>2014-11-16T10:27:17.000Z</time>
      </trkpt>
      <trkpt lat="47.30106" lon="-1.29258">
        <ele>68</ele>
        <time>2014-11-16T10:27:19.000Z</time>
      </trkpt>
      <trkpt lat="47.30108" lon="-1.29248">
        <ele>66</ele>
        <time>2014-11-16T10:27:21.000Z</time>
      </trkpt>
      <trkpt lat="47.30108" lon="-1.29248">
        <ele>66</ele>
        <time>2014-11-16T10:27:25.000Z</time>
      </trkpt>
      <trkpt lat="47.30112" lon="-1.29239">
        <ele>66</ele>
        <time>2014-11-16T10:27:27.000Z</time>
      </trkpt>
      <trkpt lat="47.30112" lon="-1.29239">
        <ele>66</ele>
        <time>2014-11-16T10:27:29.000Z</time>
      </trkpt>
      <trkpt lat="47.30112" lon="-1.29239">
        <ele>66</ele>
        <time>2014-11-16T10:27:31.000Z</time>
      </trkpt>
      <trkpt lat="47.30112" lon="-1.29239">
        <ele>66</ele>
        <time>2014-11-16T10:27:33.000Z</time>
      </trkpt>
      <trkpt lat="47.30112" lon="-1.29239">
        <ele>66</ele>
        <time>2014-11-16T10:27:35.000Z</time>
      </trkpt>
      <trkpt lat="47.30122" lon="-1.29235">
        <ele>64</ele>
        <time>2014-11-16T10:27:39.000Z</time>
      </trkpt>
      <trkpt lat="47.3013" lon="-1.2923">
        <ele>65</ele>
        <time>2014-11-16T10:27:41.000Z</time>
      </trkpt>
      <trkpt lat="47.30135" lon="-1.29224">
        <ele>65</ele>
        <time>2014-11-16T10:27:43.000Z</time>
      </trkpt>
      <trkpt lat="47.30141" lon="-1.29216">
        <ele>64</ele>
        <time>2014-11-16T10:27:47.000Z</time>
      </trkpt>
      <trkpt lat="47.30141" lon="-1.29216">
        <ele>64</ele>
        <time>2014-11-16T10:27:49.000Z</time>
      </trkpt>
      <trkpt lat="47.30146" lon="-1.29209">
        <ele>64</ele>
        <time>2014-11-16T10:27:51.000Z</time>
      </trkpt>
      <trkpt lat="47.30146" lon="-1.29209">
        <ele>64</ele>
        <time>2014-11-16T10:27:53.000Z</time>
      </trkpt>
      <trkpt lat="47.30151" lon="-1.292">
        <ele>64</ele>
        <time>2014-11-16T10:27:55.000Z</time>
      </trkpt>
      <trkpt lat="47.30157" lon="-1.29192">
        <ele>63</ele>
        <time>2014-11-16T10:27:59.000Z</time>
      </trkpt>
      <trkpt lat="47.30165" lon="-1.29185">
        <ele>64</ele>
        <time>2014-11-16T10:28:03.000Z</time>
      </trkpt>
      <trkpt lat="47.30174" lon="-1.29178">
        <ele>63</ele>
        <time>2014-11-16T10:28:07.000Z</time>
      </trkpt>
      <trkpt lat="47.30183" lon="-1.29171">
        <ele>63</ele>
        <time>2014-11-16T10:28:11.000Z</time>
      </trkpt>
      <trkpt lat="47.30191" lon="-1.29163">
        <ele>63</ele>
        <time>2014-11-16T10:28:15.000Z</time>
      </trkpt>
      <trkpt lat="47.30191" lon="-1.29163">
        <ele>63</ele>
        <time>2014-11-16T10:28:17.000Z</time>
      </trkpt>
      <trkpt lat="47.30198" lon="-1.29156">
        <ele>63</ele>
        <time>2014-11-16T10:28:19.000Z</time>
      </trkpt>
      <trkpt lat="47.30198" lon="-1.29156">
        <ele>63</ele>
        <time>2014-11-16T10:28:21.000Z</time>
      </trkpt>
      <trkpt lat="47.30206" lon="-1.2915">
        <ele>63</ele>
        <time>2014-11-16T10:28:23.000Z</time>
      </trkpt>
      <trkpt lat="47.30206" lon="-1.2915">
        <ele>63</ele>
        <time>2014-11-16T10:28:26.000Z</time>
      </trkpt>
      <trkpt lat="47.30213" lon="-1.29142">
        <ele>65</ele>
        <time>2014-11-16T10:28:27.000Z</time>
      </trkpt>
      <trkpt lat="47.30213" lon="-1.29142">
        <ele>65</ele>
        <time>2014-11-16T10:28:29.000Z</time>
      </trkpt>
      <trkpt lat="47.30219" lon="-1.29134">
        <ele>66</ele>
        <time>2014-11-16T10:28:31.000Z</time>
      </trkpt>
      <trkpt lat="47.30219" lon="-1.29134">
        <ele>66</ele>
        <time>2014-11-16T10:28:33.000Z</time>
      </trkpt>
      <trkpt lat="47.30226" lon="-1.29128">
        <ele>65</ele>
        <time>2014-11-16T10:28:35.000Z</time>
      </trkpt>
      <trkpt lat="47.30226" lon="-1.29128">
        <ele>65</ele>
        <time>2014-11-16T10:28:37.000Z</time>
      </trkpt>
      <trkpt lat="47.3023" lon="-1.29127">
        <ele>66</ele>
        <time>2014-11-16T10:28:39.000Z</time>
      </trkpt>
      <trkpt lat="47.30233" lon="-1.29127">
        <ele>67</ele>
        <time>2014-11-16T10:28:41.000Z</time>
      </trkpt>
      <trkpt lat="47.30238" lon="-1.29127">
        <ele>67</ele>
        <time>2014-11-16T10:28:43.000Z</time>
      </trkpt>
      <trkpt lat="47.30241" lon="-1.29128">
        <ele>66</ele>
        <time>2014-11-16T10:28:45.000Z</time>
      </trkpt>
      <trkpt lat="47.30245" lon="-1.29128">
        <ele>66</ele>
        <time>2014-11-16T10:28:47.000Z</time>
      </trkpt>
      <trkpt lat="47.30253" lon="-1.29128">
        <ele>66</ele>
        <time>2014-11-16T10:28:49.000Z</time>
      </trkpt>
      <trkpt lat="47.30253" lon="-1.29128">
        <ele>66</ele>
        <time>2014-11-16T10:28:51.000Z</time>
      </trkpt>
      <trkpt lat="47.30259" lon="-1.29125">
        <ele>67</ele>
        <time>2014-11-16T10:28:53.000Z</time>
      </trkpt>
      <trkpt lat="47.30259" lon="-1.29125">
        <ele>67</ele>
        <time>2014-11-16T10:28:55.000Z</time>
      </trkpt>
      <trkpt lat="47.30265" lon="-1.29118">
        <ele>66</ele>
        <time>2014-11-16T10:28:57.000Z</time>
      </trkpt>
      <trkpt lat="47.30271" lon="-1.29112">
        <ele>66</ele>
        <time>2014-11-16T10:29:01.000Z</time>
      </trkpt>
      <trkpt lat="47.30278" lon="-1.29106">
        <ele>66</ele>
        <time>2014-11-16T10:29:05.000Z</time>
      </trkpt>
      <trkpt lat="47.30287" lon="-1.291">
        <ele>67</ele>
        <time>2014-11-16T10:29:09.000Z</time>
      </trkpt>
      <trkpt lat="47.30295" lon="-1.29093">
        <ele>67</ele>
        <time>2014-11-16T10:29:13.000Z</time>
      </trkpt>
      <trkpt lat="47.30304" lon="-1.29086">
        <ele>67</ele>
        <time>2014-11-16T10:29:17.000Z</time>
      </trkpt>
      <trkpt lat="47.30304" lon="-1.29086">
        <ele>67</ele>
        <time>2014-11-16T10:29:19.000Z</time>
      </trkpt>
      <trkpt lat="47.3031" lon="-1.29081">
        <ele>69</ele>
        <time>2014-11-16T10:29:21.000Z</time>
      </trkpt>
      <trkpt lat="47.3031" lon="-1.29081">
        <ele>69</ele>
        <time>2014-11-16T10:29:23.000Z</time>
      </trkpt>
      <trkpt lat="47.30317" lon="-1.29078">
        <ele>70</ele>
        <time>2014-11-16T10:29:25.000Z</time>
      </trkpt>
      <trkpt lat="47.30317" lon="-1.29078">
        <ele>70</ele>
        <time>2014-11-16T10:29:27.000Z</time>
      </trkpt>
      <trkpt lat="47.30323" lon="-1.29077">
        <ele>70</ele>
        <time>2014-11-16T10:29:29.000Z</time>
      </trkpt>
      <trkpt lat="47.30323" lon="-1.29077">
        <ele>70</ele>
        <time>2014-11-16T10:29:31.000Z</time>
      </trkpt>
      <trkpt lat="47.30323" lon="-1.29077">
        <ele>70</ele>
        <time>2014-11-16T10:29:33.000Z</time>
      </trkpt>
      <trkpt lat="47.30332" lon="-1.29075">
        <ele>72</ele>
        <time>2014-11-16T10:29:35.000Z</time>
      </trkpt>
      <trkpt lat="47.30338" lon="-1.29075">
        <ele>72</ele>
        <time>2014-11-16T10:29:39.000Z</time>
      </trkpt>
      <trkpt lat="47.30338" lon="-1.29075">
        <ele>72</ele>
        <time>2014-11-16T10:29:41.000Z</time>
      </trkpt>
      <trkpt lat="47.30344" lon="-1.29076">
        <ele>71</ele>
        <time>2014-11-16T10:29:43.000Z</time>
      </trkpt>
      <trkpt lat="47.30351" lon="-1.29075">
        <ele>70</ele>
        <time>2014-11-16T10:29:47.000Z</time>
      </trkpt>
      <trkpt lat="47.30357" lon="-1.29075">
        <ele>71</ele>
        <time>2014-11-16T10:29:51.000Z</time>
      </trkpt>
      <trkpt lat="47.30357" lon="-1.29075">
        <ele>71</ele>
        <time>2014-11-16T10:29:53.000Z</time>
      </trkpt>
      <trkpt lat="47.30357" lon="-1.29075">
        <ele>71</ele>
        <time>2014-11-16T10:29:55.000Z</time>
      </trkpt>
      <trkpt lat="47.30364" lon="-1.29073">
        <ele>73</ele>
        <time>2014-11-16T10:29:57.000Z</time>
      </trkpt>
      <trkpt lat="47.30364" lon="-1.29073">
        <ele>73</ele>
        <time>2014-11-16T10:29:59.000Z</time>
      </trkpt>
      <trkpt lat="47.30364" lon="-1.29073">
        <ele>73</ele>
        <time>2014-11-16T10:30:01.000Z</time>
      </trkpt>
      <trkpt lat="47.3037" lon="-1.2907">
        <ele>76</ele>
        <time>2014-11-16T10:30:03.000Z</time>
      </trkpt>
      <trkpt lat="47.30377" lon="-1.29066">
        <ele>79</ele>
        <time>2014-11-16T10:30:09.000Z</time>
      </trkpt>
      <trkpt lat="47.30382" lon="-1.29061">
        <ele>77</ele>
        <time>2014-11-16T10:30:13.000Z</time>
      </trkpt>
      <trkpt lat="47.30388" lon="-1.29057">
        <ele>77</ele>
        <time>2014-11-16T10:30:17.000Z</time>
      </trkpt>
      <trkpt lat="47.30394" lon="-1.29052">
        <ele>78</ele>
        <time>2014-11-16T10:30:21.000Z</time>
      </trkpt>
      <trkpt lat="47.30399" lon="-1.29047">
        <ele>77</ele>
        <time>2014-11-16T10:30:25.000Z</time>
      </trkpt>
      <trkpt lat="47.30404" lon="-1.2904">
        <ele>78</ele>
        <time>2014-11-16T10:30:29.000Z</time>
      </trkpt>
      <trkpt lat="47.30409" lon="-1.29034">
        <ele>79</ele>
        <time>2014-11-16T10:30:33.000Z</time>
      </trkpt>
      <trkpt lat="47.30414" lon="-1.29028">
        <ele>79</ele>
        <time>2014-11-16T10:30:37.000Z</time>
      </trkpt>
      <trkpt lat="47.30416" lon="-1.29024">
        <ele>78</ele>
        <time>2014-11-16T10:30:41.000Z</time>
      </trkpt>
      <trkpt lat="47.30419" lon="-1.2902">
        <ele>78</ele>
        <time>2014-11-16T10:30:43.000Z</time>
      </trkpt>
      <trkpt lat="47.30421" lon="-1.29016">
        <ele>77</ele>
        <time>2014-11-16T10:30:45.000Z</time>
      </trkpt>
      <trkpt lat="47.30423" lon="-1.29012">
        <ele>78</ele>
        <time>2014-11-16T10:30:47.000Z</time>
      </trkpt>
      <trkpt lat="47.30424" lon="-1.29008">
        <ele>78</ele>
        <time>2014-11-16T10:30:49.000Z</time>
      </trkpt>
      <trkpt lat="47.30427" lon="-1.29">
        <ele>77</ele>
        <time>2014-11-16T10:30:51.000Z</time>
      </trkpt>
      <trkpt lat="47.30431" lon="-1.2899">
        <ele>76</ele>
        <time>2014-11-16T10:30:55.000Z</time>
      </trkpt>
      <trkpt lat="47.30433" lon="-1.28979">
        <ele>76</ele>
        <time>2014-11-16T10:30:59.000Z</time>
      </trkpt>
      <trkpt lat="47.30433" lon="-1.28979">
        <ele>76</ele>
        <time>2014-11-16T10:31:01.000Z</time>
      </trkpt>
      <trkpt lat="47.30436" lon="-1.2897">
        <ele>77</ele>
        <time>2014-11-16T10:31:03.000Z</time>
      </trkpt>
      <trkpt lat="47.30436" lon="-1.2897">
        <ele>77</ele>
        <time>2014-11-16T10:31:05.000Z</time>
      </trkpt>
      <trkpt lat="47.30441" lon="-1.28964">
        <ele>77</ele>
        <time>2014-11-16T10:31:07.000Z</time>
      </trkpt>
      <trkpt lat="47.30449" lon="-1.28962">
        <ele>78</ele>
        <time>2014-11-16T10:31:11.000Z</time>
      </trkpt>
      <trkpt lat="47.30456" lon="-1.2896">
        <ele>79</ele>
        <time>2014-11-16T10:31:15.000Z</time>
      </trkpt>
      <trkpt lat="47.30456" lon="-1.2896">
        <ele>79</ele>
        <time>2014-11-16T10:31:17.000Z</time>
      </trkpt>
      <trkpt lat="47.30463" lon="-1.28959">
        <ele>81</ele>
        <time>2014-11-16T10:31:19.000Z</time>
      </trkpt>
      <trkpt lat="47.30471" lon="-1.28957">
        <ele>80</ele>
        <time>2014-11-16T10:31:23.000Z</time>
      </trkpt>
      <trkpt lat="47.30471" lon="-1.28957">
        <ele>80</ele>
        <time>2014-11-16T10:31:25.000Z</time>
      </trkpt>
      <trkpt lat="47.30479" lon="-1.28956">
        <ele>81</ele>
        <time>2014-11-16T10:31:27.000Z</time>
      </trkpt>
      <trkpt lat="47.30479" lon="-1.28956">
        <ele>81</ele>
        <time>2014-11-16T10:31:29.000Z</time>
      </trkpt>
      <trkpt lat="47.30485" lon="-1.28954">
        <ele>81</ele>
        <time>2014-11-16T10:31:31.000Z</time>
      </trkpt>
      <trkpt lat="47.30485" lon="-1.28954">
        <ele>81</ele>
        <time>2014-11-16T10:31:33.000Z</time>
      </trkpt>
      <trkpt lat="47.3049" lon="-1.28952">
        <ele>81</ele>
        <time>2014-11-16T10:31:35.000Z</time>
      </trkpt>
      <trkpt lat="47.30497" lon="-1.28949">
        <ele>83</ele>
        <time>2014-11-16T10:31:39.000Z</time>
      </trkpt>
      <trkpt lat="47.30503" lon="-1.28946">
        <ele>85</ele>
        <time>2014-11-16T10:31:43.000Z</time>
      </trkpt>
      <trkpt lat="47.3051" lon="-1.28943">
        <ele>84</ele>
        <time>2014-11-16T10:31:47.000Z</time>
      </trkpt>
      <trkpt lat="47.30516" lon="-1.28941">
        <ele>85</ele>
        <time>2014-11-16T10:31:51.000Z</time>
      </trkpt>
      <trkpt lat="47.30516" lon="-1.28941">
        <ele>85</ele>
        <time>2014-11-16T10:31:53.000Z</time>
      </trkpt>
      <trkpt lat="47.30516" lon="-1.28941">
        <ele>85</ele>
        <time>2014-11-16T10:31:55.000Z</time>
      </trkpt>
      <trkpt lat="47.30524" lon="-1.28938">
        <ele>87</ele>
        <time>2014-11-16T10:31:57.000Z</time>
      </trkpt>
      <trkpt lat="47.30524" lon="-1.28938">
        <ele>87</ele>
        <time>2014-11-16T10:31:59.000Z</time>
      </trkpt>
      <trkpt lat="47.30524" lon="-1.28938">
        <ele>87</ele>
        <time>2014-11-16T10:32:01.000Z</time>
      </trkpt>
      <trkpt lat="47.30531" lon="-1.28934">
        <ele>89</ele>
        <time>2014-11-16T10:32:03.000Z</time>
      </trkpt>
      <trkpt lat="47.30531" lon="-1.28934">
        <ele>89</ele>
        <time>2014-11-16T10:32:05.000Z</time>
      </trkpt>
      <trkpt lat="47.30531" lon="-1.28934">
        <ele>89</ele>
        <time>2014-11-16T10:32:07.000Z</time>
      </trkpt>
      <trkpt lat="47.30537" lon="-1.28927">
        <ele>90</ele>
        <time>2014-11-16T10:32:09.000Z</time>
      </trkpt>
      <trkpt lat="47.30537" lon="-1.28927">
        <ele>90</ele>
        <time>2014-11-16T10:32:11.000Z</time>
      </trkpt>
      <trkpt lat="47.3054" lon="-1.2892">
        <ele>92</ele>
        <time>2014-11-16T10:32:14.000Z</time>
      </trkpt>
      <trkpt lat="47.30543" lon="-1.28911">
        <ele>93</ele>
        <time>2014-11-16T10:32:17.000Z</time>
      </trkpt>
      <trkpt lat="47.30548" lon="-1.28903">
        <ele>93</ele>
        <time>2014-11-16T10:32:21.000Z</time>
      </trkpt>
      <trkpt lat="47.30552" lon="-1.28895">
        <ele>94</ele>
        <time>2014-11-16T10:32:25.000Z</time>
      </trkpt>
      <trkpt lat="47.30556" lon="-1.28887">
        <ele>95</ele>
        <time>2014-11-16T10:32:29.000Z</time>
      </trkpt>
      <trkpt lat="47.30561" lon="-1.28879">
        <ele>95</ele>
        <time>2014-11-16T10:32:33.000Z</time>
      </trkpt>
      <trkpt lat="47.30565" lon="-1.28871">
        <ele>96</ele>
        <time>2014-11-16T10:32:37.000Z</time>
      </trkpt>
      <trkpt lat="47.30565" lon="-1.28871">
        <ele>96</ele>
        <time>2014-11-16T10:32:39.000Z</time>
      </trkpt>
      <trkpt lat="47.3057" lon="-1.28866">
        <ele>96</ele>
        <time>2014-11-16T10:32:41.000Z</time>
      </trkpt>
      <trkpt lat="47.3057" lon="-1.28866">
        <ele>96</ele>
        <time>2014-11-16T10:32:43.000Z</time>
      </trkpt>
      <trkpt lat="47.30573" lon="-1.28863">
        <ele>96</ele>
        <time>2014-11-16T10:32:45.000Z</time>
      </trkpt>
      <trkpt lat="47.30575" lon="-1.28861">
        <ele>97</ele>
        <time>2014-11-16T10:32:47.000Z</time>
      </trkpt>
      <trkpt lat="47.30577" lon="-1.28859">
        <ele>98</ele>
        <time>2014-11-16T10:32:49.000Z</time>
      </trkpt>
      <trkpt lat="47.30581" lon="-1.28857">
        <ele>99</ele>
        <time>2014-11-16T10:32:51.000Z</time>
      </trkpt>
      <trkpt lat="47.30584" lon="-1.28856">
        <ele>98</ele>
        <time>2014-11-16T10:32:53.000Z</time>
      </trkpt>
      <trkpt lat="47.3059" lon="-1.28853">
        <ele>98</ele>
        <time>2014-11-16T10:32:55.000Z</time>
      </trkpt>
      <trkpt lat="47.3059" lon="-1.28853">
        <ele>98</ele>
        <time>2014-11-16T10:32:57.000Z</time>
      </trkpt>
      <trkpt lat="47.30596" lon="-1.28849">
        <ele>98</ele>
        <time>2014-11-16T10:32:59.000Z</time>
      </trkpt>
      <trkpt lat="47.30596" lon="-1.28849">
        <ele>98</ele>
        <time>2014-11-16T10:33:01.000Z</time>
      </trkpt>
      <trkpt lat="47.30596" lon="-1.28849">
        <ele>98</ele>
        <time>2014-11-16T10:33:04.000Z</time>
      </trkpt>
      <trkpt lat="47.30604" lon="-1.28845">
        <ele>99</ele>
        <time>2014-11-16T10:33:05.000Z</time>
      </trkpt>
      <trkpt lat="47.30604" lon="-1.28845">
        <ele>99</ele>
        <time>2014-11-16T10:33:07.000Z</time>
      </trkpt>
      <trkpt lat="47.3061" lon="-1.28843">
        <ele>101</ele>
        <time>2014-11-16T10:33:09.000Z</time>
      </trkpt>
      <trkpt lat="47.30616" lon="-1.2884">
        <ele>99</ele>
        <time>2014-11-16T10:33:13.000Z</time>
      </trkpt>
      <trkpt lat="47.30622" lon="-1.28836">
        <ele>99</ele>
        <time>2014-11-16T10:33:17.000Z</time>
      </trkpt>
      <trkpt lat="47.30627" lon="-1.28832">
        <ele>98</ele>
        <time>2014-11-16T10:33:21.000Z</time>
      </trkpt>
      <trkpt lat="47.30633" lon="-1.28828">
        <ele>100</ele>
        <time>2014-11-16T10:33:25.000Z</time>
      </trkpt>
      <trkpt lat="47.30639" lon="-1.28825">
        <ele>99</ele>
        <time>2014-11-16T10:33:29.000Z</time>
      </trkpt>
      <trkpt lat="47.30645" lon="-1.28825">
        <ele>99</ele>
        <time>2014-11-16T10:33:33.000Z</time>
      </trkpt>
      <trkpt lat="47.30651" lon="-1.28829">
        <ele>100</ele>
        <time>2014-11-16T10:33:37.000Z</time>
      </trkpt>
      <trkpt lat="47.30651" lon="-1.28829">
        <ele>100</ele>
        <time>2014-11-16T10:33:39.000Z</time>
      </trkpt>
      <trkpt lat="47.30658" lon="-1.28829">
        <ele>102</ele>
        <time>2014-11-16T10:33:42.000Z</time>
      </trkpt>
      <trkpt lat="47.30658" lon="-1.28829">
        <ele>102</ele>
        <time>2014-11-16T10:33:43.000Z</time>
      </trkpt>
      <trkpt lat="47.30664" lon="-1.28823">
        <ele>103</ele>
        <time>2014-11-16T10:33:45.000Z</time>
      </trkpt>
      <trkpt lat="47.30671" lon="-1.28816">
        <ele>103</ele>
        <time>2014-11-16T10:33:49.000Z</time>
      </trkpt>
      <trkpt lat="47.30681" lon="-1.2881">
        <ele>104</ele>
        <time>2014-11-16T10:33:53.000Z</time>
      </trkpt>
      <trkpt lat="47.30691" lon="-1.28803">
        <ele>102</ele>
        <time>2014-11-16T10:33:57.000Z</time>
      </trkpt>
      <trkpt lat="47.30696" lon="-1.28799">
        <ele>102</ele>
        <time>2014-11-16T10:33:59.000Z</time>
      </trkpt>
      <trkpt lat="47.30701" lon="-1.28796">
        <ele>102</ele>
        <time>2014-11-16T10:34:01.000Z</time>
      </trkpt>
      <trkpt lat="47.30707" lon="-1.28792">
        <ele>101</ele>
        <time>2014-11-16T10:34:03.000Z</time>
      </trkpt>
      <trkpt lat="47.30713" lon="-1.28788">
        <ele>101</ele>
        <time>2014-11-16T10:34:05.000Z</time>
      </trkpt>
      <trkpt lat="47.30719" lon="-1.28785">
        <ele>101</ele>
        <time>2014-11-16T10:34:07.000Z</time>
      </trkpt>
      <trkpt lat="47.30719" lon="-1.28785">
        <ele>101</ele>
        <time>2014-11-16T10:34:09.000Z</time>
      </trkpt>
      <trkpt lat="47.30729" lon="-1.28778">
        <ele>103</ele>
        <time>2014-11-16T10:34:11.000Z</time>
      </trkpt>
      <trkpt lat="47.30729" lon="-1.28778">
        <ele>103</ele>
        <time>2014-11-16T10:34:13.000Z</time>
      </trkpt>
      <trkpt lat="47.30738" lon="-1.28772">
        <ele>103</ele>
        <time>2014-11-16T10:34:15.000Z</time>
      </trkpt>
      <trkpt lat="47.30749" lon="-1.28765">
        <ele>103</ele>
        <time>2014-11-16T10:34:19.000Z</time>
      </trkpt>
      <trkpt lat="47.30754" lon="-1.28762">
        <ele>103</ele>
        <time>2014-11-16T10:34:21.000Z</time>
      </trkpt>
      <trkpt lat="47.30759" lon="-1.28758">
        <ele>104</ele>
        <time>2014-11-16T10:34:23.000Z</time>
      </trkpt>
      <trkpt lat="47.30759" lon="-1.28758">
        <ele>104</ele>
        <time>2014-11-16T10:34:26.000Z</time>
      </trkpt>
      <trkpt lat="47.30768" lon="-1.28751">
        <ele>106</ele>
        <time>2014-11-16T10:34:27.000Z</time>
      </trkpt>
      <trkpt lat="47.30768" lon="-1.28751">
        <ele>106</ele>
        <time>2014-11-16T10:34:29.000Z</time>
      </trkpt>
      <trkpt lat="47.30777" lon="-1.28745">
        <ele>106</ele>
        <time>2014-11-16T10:34:31.000Z</time>
      </trkpt>
      <trkpt lat="47.30777" lon="-1.28745">
        <ele>106</ele>
        <time>2014-11-16T10:34:33.000Z</time>
      </trkpt>
      <trkpt lat="47.30785" lon="-1.2874">
        <ele>108</ele>
        <time>2014-11-16T10:34:35.000Z</time>
      </trkpt>
      <trkpt lat="47.30785" lon="-1.2874">
        <ele>108</ele>
        <time>2014-11-16T10:34:37.000Z</time>
      </trkpt>
      <trkpt lat="47.30793" lon="-1.28731">
        <ele>109</ele>
        <time>2014-11-16T10:34:39.000Z</time>
      </trkpt>
      <trkpt lat="47.30803" lon="-1.28722">
        <ele>109</ele>
        <time>2014-11-16T10:34:44.000Z</time>
      </trkpt>
      <trkpt lat="47.30807" lon="-1.28717">
        <ele>108</ele>
        <time>2014-11-16T10:34:45.000Z</time>
      </trkpt>
      <trkpt lat="47.30812" lon="-1.28711">
        <ele>108</ele>
        <time>2014-11-16T10:34:47.000Z</time>
      </trkpt>
      <trkpt lat="47.30817" lon="-1.28705">
        <ele>109</ele>
        <time>2014-11-16T10:34:49.000Z</time>
      </trkpt>
      <trkpt lat="47.30821" lon="-1.28699">
        <ele>109</ele>
        <time>2014-11-16T10:34:51.000Z</time>
      </trkpt>
      <trkpt lat="47.30825" lon="-1.28694">
        <ele>109</ele>
        <time>2014-11-16T10:34:53.000Z</time>
      </trkpt>
      <trkpt lat="47.3083" lon="-1.28688">
        <ele>108</ele>
        <time>2014-11-16T10:34:55.000Z</time>
      </trkpt>
      <trkpt lat="47.30835" lon="-1.28683">
        <ele>109</ele>
        <time>2014-11-16T10:34:57.000Z</time>
      </trkpt>
      <trkpt lat="47.3084" lon="-1.28677">
        <ele>109</ele>
        <time>2014-11-16T10:34:59.000Z</time>
      </trkpt>
      <trkpt lat="47.3084" lon="-1.28677">
        <ele>109</ele>
        <time>2014-11-16T10:35:01.000Z</time>
      </trkpt>
      <trkpt lat="47.30847" lon="-1.28667">
        <ele>109</ele>
        <time>2014-11-16T10:35:03.000Z</time>
      </trkpt>
      <trkpt lat="47.30847" lon="-1.28667">
        <ele>109</ele>
        <time>2014-11-16T10:35:05.000Z</time>
      </trkpt>
      <trkpt lat="47.30855" lon="-1.28657">
        <ele>108</ele>
        <time>2014-11-16T10:35:07.000Z</time>
      </trkpt>
      <trkpt lat="47.30859" lon="-1.28651">
        <ele>107</ele>
        <time>2014-11-16T10:35:10.000Z</time>
      </trkpt>
      <trkpt lat="47.30863" lon="-1.28644">
        <ele>108</ele>
        <time>2014-11-16T10:35:11.000Z</time>
      </trkpt>
      <trkpt lat="47.30867" lon="-1.28637">
        <ele>107</ele>
        <time>2014-11-16T10:35:13.000Z</time>
      </trkpt>
      <trkpt lat="47.30871" lon="-1.28631">
        <ele>107</ele>
        <time>2014-11-16T10:35:15.000Z</time>
      </trkpt>
      <trkpt lat="47.30871" lon="-1.28631">
        <ele>107</ele>
        <time>2014-11-16T10:35:17.000Z</time>
      </trkpt>
      <trkpt lat="47.30878" lon="-1.28619">
        <ele>108</ele>
        <time>2014-11-16T10:35:19.000Z</time>
      </trkpt>
      <trkpt lat="47.30878" lon="-1.28619">
        <ele>108</ele>
        <time>2014-11-16T10:35:21.000Z</time>
      </trkpt>
      <trkpt lat="47.30883" lon="-1.28605">
        <ele>107</ele>
        <time>2014-11-16T10:35:23.000Z</time>
      </trkpt>
      <trkpt lat="47.30885" lon="-1.28597">
        <ele>108</ele>
        <time>2014-11-16T10:35:25.000Z</time>
      </trkpt>
      <trkpt lat="47.30888" lon="-1.28589">
        <ele>108</ele>
        <time>2014-11-16T10:35:27.000Z</time>
      </trkpt>
      <trkpt lat="47.30892" lon="-1.28581">
        <ele>107</ele>
        <time>2014-11-16T10:35:30.000Z</time>
      </trkpt>
      <trkpt lat="47.30896" lon="-1.28572">
        <ele>107</ele>
        <time>2014-11-16T10:35:31.000Z</time>
      </trkpt>
      <trkpt lat="47.309" lon="-1.28564">
        <ele>107</ele>
        <time>2014-11-16T10:35:33.000Z</time>
      </trkpt>
      <trkpt lat="47.30904" lon="-1.28555">
        <ele>107</ele>
        <time>2014-11-16T10:35:35.000Z</time>
      </trkpt>
      <trkpt lat="47.30908" lon="-1.28549">
        <ele>107</ele>
        <time>2014-11-16T10:35:37.000Z</time>
      </trkpt>
      <trkpt lat="47.30914" lon="-1.28547">
        <ele>105</ele>
        <time>2014-11-16T10:35:39.000Z</time>
      </trkpt>
      <trkpt lat="47.3092" lon="-1.28551">
        <ele>106</ele>
        <time>2014-11-16T10:35:41.000Z</time>
      </trkpt>
      <trkpt lat="47.30925" lon="-1.28557">
        <ele>107</ele>
        <time>2014-11-16T10:35:43.000Z</time>
      </trkpt>
      <trkpt lat="47.30925" lon="-1.28557">
        <ele>107</ele>
        <time>2014-11-16T10:35:45.000Z</time>
      </trkpt>
      <trkpt lat="47.30932" lon="-1.28563">
        <ele>109</ele>
        <time>2014-11-16T10:35:47.000Z</time>
      </trkpt>
      <trkpt lat="47.30932" lon="-1.28563">
        <ele>109</ele>
        <time>2014-11-16T10:35:49.000Z</time>
      </trkpt>
      <trkpt lat="47.30936" lon="-1.28561">
        <ele>107</ele>
        <time>2014-11-16T10:35:51.000Z</time>
      </trkpt>
      <trkpt lat="47.3094" lon="-1.28559">
        <ele>107</ele>
        <time>2014-11-16T10:35:53.000Z</time>
      </trkpt>
      <trkpt lat="47.30943" lon="-1.28556">
        <ele>107</ele>
        <time>2014-11-16T10:35:55.000Z</time>
      </trkpt>
      <trkpt lat="47.30943" lon="-1.28556">
        <ele>107</ele>
        <time>2014-11-16T10:35:57.000Z</time>
      </trkpt>
      <trkpt lat="47.30943" lon="-1.28556">
        <ele>107</ele>
        <time>2014-11-16T10:35:59.000Z</time>
      </trkpt>
      <trkpt lat="47.30943" lon="-1.28556">
        <ele>107</ele>
        <time>2014-11-16T10:36:01.000Z</time>
      </trkpt>
      <trkpt lat="47.30943" lon="-1.28556">
        <ele>107</ele>
        <time>2014-11-16T10:36:03.000Z</time>
      </trkpt>
      <trkpt lat="47.30943" lon="-1.28556">
        <ele>107</ele>
        <time>2014-11-16T10:36:05.000Z</time>
      </trkpt>
      <trkpt lat="47.30943" lon="-1.28556">
        <ele>107</ele>
        <time>2014-11-16T10:36:07.000Z</time>
      </trkpt>
      <trkpt lat="47.30946" lon="-1.28558">
        <ele>117</ele>
        <time>2014-11-16T10:36:21.000Z</time>
      </trkpt>
      <trkpt lat="47.30946" lon="-1.28558">
        <ele>117</ele>
        <time>2014-11-16T10:36:23.000Z</time>
      </trkpt>
      <trkpt lat="47.30946" lon="-1.28558">
        <ele>117</ele>
        <time>2014-11-16T10:36:25.000Z</time>
      </trkpt>
      <trkpt lat="47.30946" lon="-1.28558">
        <ele>117</ele>
        <time>2014-11-16T10:36:27.000Z</time>
      </trkpt>
      <trkpt lat="47.30946" lon="-1.28558">
        <ele>117</ele>
        <time>2014-11-16T10:36:29.000Z</time>
      </trkpt>
      <trkpt lat="47.30946" lon="-1.28558">
        <ele>117</ele>
        <time>2014-11-16T10:36:31.000Z</time>
      </trkpt>
      <trkpt lat="47.30946" lon="-1.28558">
        <ele>117</ele>
        <time>2014-11-16T10:36:33.000Z</time>
      </trkpt>
      <trkpt lat="47.30946" lon="-1.28558">
        <ele>117</ele>
        <time>2014-11-16T10:36:35.000Z</time>
      </trkpt>
      <trkpt lat="47.30946" lon="-1.28558">
        <ele>117</ele>
        <time>2014-11-16T10:36:37.000Z</time>
      </trkpt>
      <trkpt lat="47.30946" lon="-1.28558">
        <ele>117</ele>
        <time>2014-11-16T10:36:39.000Z</time>
      </trkpt>
      <trkpt lat="47.30946" lon="-1.28558">
        <ele>117</ele>
        <time>2014-11-16T10:36:41.000Z</time>
      </trkpt>
      <trkpt lat="47.30946" lon="-1.28558">
        <ele>117</ele>
        <time>2014-11-16T10:36:43.000Z</time>
      </trkpt>
      <trkpt lat="47.30946" lon="-1.28558">
        <ele>117</ele>
        <time>2014-11-16T10:36:45.000Z</time>
      </trkpt>
      <trkpt lat="47.30946" lon="-1.28558">
        <ele>117</ele>
        <time>2014-11-16T10:36:47.000Z</time>
      </trkpt>
      <trkpt lat="47.30946" lon="-1.28558">
        <ele>117</ele>
        <time>2014-11-16T10:36:49.000Z</time>
      </trkpt>
      <trkpt lat="47.30946" lon="-1.28558">
        <ele>117</ele>
        <time>2014-11-16T10:36:51.000Z</time>
      </trkpt>
      <trkpt lat="47.30946" lon="-1.28558">
        <ele>117</ele>
        <time>2014-11-16T10:36:53.000Z</time>
      </trkpt>
      <trkpt lat="47.30946" lon="-1.28558">
        <ele>117</ele>
        <time>2014-11-16T10:36:55.000Z</time>
      </trkpt>
      <trkpt lat="47.30946" lon="-1.28558">
        <ele>117</ele>
        <time>2014-11-16T10:36:57.000Z</time>
      </trkpt>
      <trkpt lat="47.30946" lon="-1.28558">
        <ele>117</ele>
        <time>2014-11-16T10:36:59.000Z</time>
      </trkpt>
      <trkpt lat="47.30946" lon="-1.28558">
        <ele>117</ele>
        <time>2014-11-16T10:37:01.000Z</time>
      </trkpt>
      <trkpt lat="47.30946" lon="-1.28558">
        <ele>117</ele>
        <time>2014-11-16T10:37:03.000Z</time>
      </trkpt>
      <trkpt lat="47.30946" lon="-1.28558">
        <ele>117</ele>
        <time>2014-11-16T10:37:05.000Z</time>
      </trkpt>
      <trkpt lat="47.30946" lon="-1.28558">
        <ele>117</ele>
        <time>2014-11-16T10:37:07.000Z</time>
      </trkpt>
      <trkpt lat="47.3095" lon="-1.28555">
        <ele>111</ele>
        <time>2014-11-16T10:40:29.000Z</time>
      </trkpt>
      <trkpt lat="47.30954" lon="-1.28552">
        <ele>113</ele>
        <time>2014-11-16T10:40:31.000Z</time>
      </trkpt>
      <trkpt lat="47.30957" lon="-1.28551">
        <ele>110</ele>
        <time>2014-11-16T10:40:33.000Z</time>
      </trkpt>
      <trkpt lat="47.30961" lon="-1.28552">
        <ele>109</ele>
        <time>2014-11-16T10:40:35.000Z</time>
      </trkpt>
      <trkpt lat="47.30964" lon="-1.28556">
        <ele>109</ele>
        <time>2014-11-16T10:40:37.000Z</time>
      </trkpt>
      <trkpt lat="47.30967" lon="-1.28567">
        <ele>108</ele>
        <time>2014-11-16T10:40:39.000Z</time>
      </trkpt>
      <trkpt lat="47.3097" lon="-1.28582">
        <ele>108</ele>
        <time>2014-11-16T10:40:43.000Z</time>
      </trkpt>
      <trkpt lat="47.30974" lon="-1.28597">
        <ele>109</ele>
        <time>2014-11-16T10:40:47.000Z</time>
      </trkpt>
      <trkpt lat="47.30978" lon="-1.28603">
        <ele>111</ele>
        <time>2014-11-16T10:40:50.000Z</time>
      </trkpt>
      <trkpt lat="47.30985" lon="-1.28608">
        <ele>111</ele>
        <time>2014-11-16T10:40:51.000Z</time>
      </trkpt>
      <trkpt lat="47.30992" lon="-1.28614">
        <ele>111</ele>
        <time>2014-11-16T10:40:53.000Z</time>
      </trkpt>
      <trkpt lat="47.30999" lon="-1.28619">
        <ele>110</ele>
        <time>2014-11-16T10:40:55.000Z</time>
      </trkpt>
      <trkpt lat="47.31006" lon="-1.28626">
        <ele>108</ele>
        <time>2014-11-16T10:40:57.000Z</time>
      </trkpt>
      <trkpt lat="47.31012" lon="-1.28633">
        <ele>107</ele>
        <time>2014-11-16T10:40:59.000Z</time>
      </trkpt>
      <trkpt lat="47.31018" lon="-1.2864">
        <ele>106</ele>
        <time>2014-11-16T10:41:01.000Z</time>
      </trkpt>
      <trkpt lat="47.31025" lon="-1.28648">
        <ele>106</ele>
        <time>2014-11-16T10:41:03.000Z</time>
      </trkpt>
      <trkpt lat="47.31032" lon="-1.28655">
        <ele>106</ele>
        <time>2014-11-16T10:41:05.000Z</time>
      </trkpt>
      <trkpt lat="47.31038" lon="-1.28663">
        <ele>106</ele>
        <time>2014-11-16T10:41:07.000Z</time>
      </trkpt>
      <trkpt lat="47.31049" lon="-1.28677">
        <ele>106</ele>
        <time>2014-11-16T10:41:10.000Z</time>
      </trkpt>
      <trkpt lat="47.31055" lon="-1.28687">
        <ele>106</ele>
        <time>2014-11-16T10:41:12.000Z</time>
      </trkpt>
      <trkpt lat="47.31062" lon="-1.28697">
        <ele>106</ele>
        <time>2014-11-16T10:41:14.000Z</time>
      </trkpt>
      <trkpt lat="47.3107" lon="-1.28706">
        <ele>107</ele>
        <time>2014-11-16T10:41:16.000Z</time>
      </trkpt>
      <trkpt lat="47.31076" lon="-1.28716">
        <ele>106</ele>
        <time>2014-11-16T10:41:18.000Z</time>
      </trkpt>
      <trkpt lat="47.31083" lon="-1.28726">
        <ele>106</ele>
        <time>2014-11-16T10:41:20.000Z</time>
      </trkpt>
      <trkpt lat="47.31091" lon="-1.28734">
        <ele>106</ele>
        <time>2014-11-16T10:41:22.000Z</time>
      </trkpt>
      <trkpt lat="47.31101" lon="-1.2874">
        <ele>107</ele>
        <time>2014-11-16T10:41:24.000Z</time>
      </trkpt>
      <trkpt lat="47.31112" lon="-1.28739">
        <ele>108</ele>
        <time>2014-11-16T10:41:27.000Z</time>
      </trkpt>
      <trkpt lat="47.31123" lon="-1.28733">
        <ele>109</ele>
        <time>2014-11-16T10:41:28.000Z</time>
      </trkpt>
      <trkpt lat="47.31133" lon="-1.2873">
        <ele>109</ele>
        <time>2014-11-16T10:41:30.000Z</time>
      </trkpt>
      <trkpt lat="47.31142" lon="-1.28723">
        <ele>111</ele>
        <time>2014-11-16T10:41:32.000Z</time>
      </trkpt>
      <trkpt lat="47.3115" lon="-1.28721">
        <ele>112</ele>
        <time>2014-11-16T10:41:34.000Z</time>
      </trkpt>
      <trkpt lat="47.3116" lon="-1.28717">
        <ele>113</ele>
        <time>2014-11-16T10:41:36.000Z</time>
      </trkpt>
      <trkpt lat="47.31169" lon="-1.28713">
        <ele>113</ele>
        <time>2014-11-16T10:41:38.000Z</time>
      </trkpt>
      <trkpt lat="47.31178" lon="-1.28709">
        <ele>114</ele>
        <time>2014-11-16T10:41:40.000Z</time>
      </trkpt>
      <trkpt lat="47.31188" lon="-1.28705">
        <ele>112</ele>
        <time>2014-11-16T10:41:42.000Z</time>
      </trkpt>
      <trkpt lat="47.31197" lon="-1.28701">
        <ele>112</ele>
        <time>2014-11-16T10:41:44.000Z</time>
      </trkpt>
      <trkpt lat="47.31207" lon="-1.28697">
        <ele>113</ele>
        <time>2014-11-16T10:41:46.000Z</time>
      </trkpt>
      <trkpt lat="47.31217" lon="-1.28694">
        <ele>112</ele>
        <time>2014-11-16T10:41:48.000Z</time>
      </trkpt>
      <trkpt lat="47.31227" lon="-1.28689">
        <ele>114</ele>
        <time>2014-11-16T10:41:50.000Z</time>
      </trkpt>
      <trkpt lat="47.31235" lon="-1.28684">
        <ele>116</ele>
        <time>2014-11-16T10:41:52.000Z</time>
      </trkpt>
      <trkpt lat="47.31245" lon="-1.2868">
        <ele>117</ele>
        <time>2014-11-16T10:41:54.000Z</time>
      </trkpt>
      <trkpt lat="47.31255" lon="-1.28676">
        <ele>118</ele>
        <time>2014-11-16T10:41:56.000Z</time>
      </trkpt>
      <trkpt lat="47.31263" lon="-1.28673">
        <ele>118</ele>
        <time>2014-11-16T10:41:58.000Z</time>
      </trkpt>
      <trkpt lat="47.31271" lon="-1.28669">
        <ele>118</ele>
        <time>2014-11-16T10:42:00.000Z</time>
      </trkpt>
      <trkpt lat="47.31279" lon="-1.28663">
        <ele>119</ele>
        <time>2014-11-16T10:42:02.000Z</time>
      </trkpt>
      <trkpt lat="47.31286" lon="-1.2866">
        <ele>120</ele>
        <time>2014-11-16T10:42:04.000Z</time>
      </trkpt>
      <trkpt lat="47.31294" lon="-1.28657">
        <ele>120</ele>
        <time>2014-11-16T10:42:06.000Z</time>
      </trkpt>
      <trkpt lat="47.31303" lon="-1.28653">
        <ele>120</ele>
        <time>2014-11-16T10:42:08.000Z</time>
      </trkpt>
      <trkpt lat="47.31311" lon="-1.2865">
        <ele>120</ele>
        <time>2014-11-16T10:42:11.000Z</time>
      </trkpt>
      <trkpt lat="47.3132" lon="-1.28646">
        <ele>120</ele>
        <time>2014-11-16T10:42:12.000Z</time>
      </trkpt>
      <trkpt lat="47.31329" lon="-1.28643">
        <ele>120</ele>
        <time>2014-11-16T10:42:14.000Z</time>
      </trkpt>
      <trkpt lat="47.31337" lon="-1.28639">
        <ele>120</ele>
        <time>2014-11-16T10:42:16.000Z</time>
      </trkpt>
      <trkpt lat="47.31344" lon="-1.28636">
        <ele>121</ele>
        <time>2014-11-16T10:42:18.000Z</time>
      </trkpt>
      <trkpt lat="47.31351" lon="-1.28633">
        <ele>121</ele>
        <time>2014-11-16T10:42:20.000Z</time>
      </trkpt>
      <trkpt lat="47.31359" lon="-1.2863">
        <ele>120</ele>
        <time>2014-11-16T10:42:22.000Z</time>
      </trkpt>
      <trkpt lat="47.31366" lon="-1.28627">
        <ele>122</ele>
        <time>2014-11-16T10:42:24.000Z</time>
      </trkpt>
      <trkpt lat="47.31374" lon="-1.28623">
        <ele>122</ele>
        <time>2014-11-16T10:42:26.000Z</time>
      </trkpt>
      <trkpt lat="47.3138" lon="-1.2862">
        <ele>123</ele>
        <time>2014-11-16T10:42:28.000Z</time>
      </trkpt>
      <trkpt lat="47.31387" lon="-1.28617">
        <ele>124</ele>
        <time>2014-11-16T10:42:30.000Z</time>
      </trkpt>
      <trkpt lat="47.31394" lon="-1.28613">
        <ele>124</ele>
        <time>2014-11-16T10:42:32.000Z</time>
      </trkpt>
      <trkpt lat="47.31401" lon="-1.2861">
        <ele>126</ele>
        <time>2014-11-16T10:42:34.000Z</time>
      </trkpt>
      <trkpt lat="47.31408" lon="-1.28606">
        <ele>126</ele>
        <time>2014-11-16T10:42:36.000Z</time>
      </trkpt>
      <trkpt lat="47.31415" lon="-1.28603">
        <ele>125</ele>
        <time>2014-11-16T10:42:38.000Z</time>
      </trkpt>
      <trkpt lat="47.31422" lon="-1.286">
        <ele>125</ele>
        <time>2014-11-16T10:42:40.000Z</time>
      </trkpt>
      <trkpt lat="47.31429" lon="-1.28596">
        <ele>126</ele>
        <time>2014-11-16T10:42:42.000Z</time>
      </trkpt>
      <trkpt lat="47.31437" lon="-1.28593">
        <ele>127</ele>
        <time>2014-11-16T10:42:44.000Z</time>
      </trkpt>
      <trkpt lat="47.31445" lon="-1.2859">
        <ele>128</ele>
        <time>2014-11-16T10:42:47.000Z</time>
      </trkpt>
      <trkpt lat="47.31452" lon="-1.28586">
        <ele>128</ele>
        <time>2014-11-16T10:42:49.000Z</time>
      </trkpt>
      <trkpt lat="47.31459" lon="-1.28583">
        <ele>128</ele>
        <time>2014-11-16T10:42:50.000Z</time>
      </trkpt>
      <trkpt lat="47.31466" lon="-1.2858">
        <ele>129</ele>
        <time>2014-11-16T10:42:52.000Z</time>
      </trkpt>
      <trkpt lat="47.31472" lon="-1.28577">
        <ele>128</ele>
        <time>2014-11-16T10:42:54.000Z</time>
      </trkpt>
      <trkpt lat="47.31479" lon="-1.28574">
        <ele>128</ele>
        <time>2014-11-16T10:42:56.000Z</time>
      </trkpt>
      <trkpt lat="47.31485" lon="-1.28571">
        <ele>129</ele>
        <time>2014-11-16T10:42:58.000Z</time>
      </trkpt>
      <trkpt lat="47.31492" lon="-1.28568">
        <ele>129</ele>
        <time>2014-11-16T10:43:00.000Z</time>
      </trkpt>
      <trkpt lat="47.31499" lon="-1.28566">
        <ele>129</ele>
        <time>2014-11-16T10:43:02.000Z</time>
      </trkpt>
      <trkpt lat="47.31506" lon="-1.28562">
        <ele>129</ele>
        <time>2014-11-16T10:43:04.000Z</time>
      </trkpt>
      <trkpt lat="47.31513" lon="-1.28559">
        <ele>130</ele>
        <time>2014-11-16T10:43:06.000Z</time>
      </trkpt>
      <trkpt lat="47.3152" lon="-1.28555">
        <ele>129</ele>
        <time>2014-11-16T10:43:08.000Z</time>
      </trkpt>
      <trkpt lat="47.31528" lon="-1.28551">
        <ele>128</ele>
        <time>2014-11-16T10:43:11.000Z</time>
      </trkpt>
      <trkpt lat="47.31536" lon="-1.28547">
        <ele>128</ele>
        <time>2014-11-16T10:43:12.000Z</time>
      </trkpt>
      <trkpt lat="47.31544" lon="-1.28543">
        <ele>128</ele>
        <time>2014-11-16T10:43:14.000Z</time>
      </trkpt>
      <trkpt lat="47.31551" lon="-1.2854">
        <ele>129</ele>
        <time>2014-11-16T10:43:16.000Z</time>
      </trkpt>
      <trkpt lat="47.31559" lon="-1.28536">
        <ele>130</ele>
        <time>2014-11-16T10:43:18.000Z</time>
      </trkpt>
      <trkpt lat="47.31567" lon="-1.28533">
        <ele>129</ele>
        <time>2014-11-16T10:43:20.000Z</time>
      </trkpt>
      <trkpt lat="47.31575" lon="-1.28529">
        <ele>130</ele>
        <time>2014-11-16T10:43:22.000Z</time>
      </trkpt>
      <trkpt lat="47.31583" lon="-1.28526">
        <ele>130</ele>
        <time>2014-11-16T10:43:24.000Z</time>
      </trkpt>
      <trkpt lat="47.31591" lon="-1.28522">
        <ele>131</ele>
        <time>2014-11-16T10:43:26.000Z</time>
      </trkpt>
      <trkpt lat="47.31599" lon="-1.28518">
        <ele>130</ele>
        <time>2014-11-16T10:43:28.000Z</time>
      </trkpt>
      <trkpt lat="47.31607" lon="-1.28514">
        <ele>131</ele>
        <time>2014-11-16T10:43:30.000Z</time>
      </trkpt>
      <trkpt lat="47.31615" lon="-1.2851">
        <ele>132</ele>
        <time>2014-11-16T10:43:32.000Z</time>
      </trkpt>
      <trkpt lat="47.31622" lon="-1.28507">
        <ele>132</ele>
        <time>2014-11-16T10:43:34.000Z</time>
      </trkpt>
      <trkpt lat="47.3163" lon="-1.28504">
        <ele>132</ele>
        <time>2014-11-16T10:43:36.000Z</time>
      </trkpt>
      <trkpt lat="47.31638" lon="-1.28501">
        <ele>132</ele>
        <time>2014-11-16T10:43:39.000Z</time>
      </trkpt>
      <trkpt lat="47.31646" lon="-1.28498">
        <ele>133</ele>
        <time>2014-11-16T10:43:40.000Z</time>
      </trkpt>
      <trkpt lat="47.31652" lon="-1.28496">
        <ele>133</ele>
        <time>2014-11-16T10:43:42.000Z</time>
      </trkpt>
      <trkpt lat="47.31658" lon="-1.28493">
        <ele>134</ele>
        <time>2014-11-16T10:43:44.000Z</time>
      </trkpt>
      <trkpt lat="47.31658" lon="-1.28493">
        <ele>134</ele>
        <time>2014-11-16T10:43:46.000Z</time>
      </trkpt>
      <trkpt lat="47.31665" lon="-1.28489">
        <ele>134</ele>
        <time>2014-11-16T10:43:49.000Z</time>
      </trkpt>
      <trkpt lat="47.31665" lon="-1.28489">
        <ele>134</ele>
        <time>2014-11-16T10:43:50.000Z</time>
      </trkpt>
      <trkpt lat="47.31665" lon="-1.28489">
        <ele>134</ele>
        <time>2014-11-16T10:43:52.000Z</time>
      </trkpt>
      <trkpt lat="47.31665" lon="-1.28489">
        <ele>134</ele>
        <time>2014-11-16T10:43:54.000Z</time>
      </trkpt>
      <trkpt lat="47.31665" lon="-1.28489">
        <ele>134</ele>
        <time>2014-11-16T10:43:56.000Z</time>
      </trkpt>
      <trkpt lat="47.31665" lon="-1.28489">
        <ele>134</ele>
        <time>2014-11-16T10:43:58.000Z</time>
      </trkpt>
      <trkpt lat="47.31665" lon="-1.28489">
        <ele>134</ele>
        <time>2014-11-16T10:44:00.000Z</time>
      </trkpt>
      <trkpt lat="47.31665" lon="-1.28489">
        <ele>134</ele>
        <time>2014-11-16T10:44:02.000Z</time>
      </trkpt>
      <trkpt lat="47.31665" lon="-1.28489">
        <ele>134</ele>
        <time>2014-11-16T10:44:04.000Z</time>
      </trkpt>
      <trkpt lat="47.31665" lon="-1.28489">
        <ele>134</ele>
        <time>2014-11-16T10:44:06.000Z</time>
      </trkpt>
      <trkpt lat="47.31673" lon="-1.28486">
        <ele>133</ele>
        <time>2014-11-16T10:44:12.000Z</time>
      </trkpt>
      <trkpt lat="47.3168" lon="-1.28482">
        <ele>133</ele>
        <time>2014-11-16T10:44:14.000Z</time>
      </trkpt>
      <trkpt lat="47.31687" lon="-1.28478">
        <ele>133</ele>
        <time>2014-11-16T10:44:16.000Z</time>
      </trkpt>
      <trkpt lat="47.31698" lon="-1.28472">
        <ele>134</ele>
        <time>2014-11-16T10:44:18.000Z</time>
      </trkpt>
      <trkpt lat="47.31707" lon="-1.28468">
        <ele>134</ele>
        <time>2014-11-16T10:44:20.000Z</time>
      </trkpt>
      <trkpt lat="47.31717" lon="-1.28465">
        <ele>134</ele>
        <time>2014-11-16T10:44:22.000Z</time>
      </trkpt>
      <trkpt lat="47.31726" lon="-1.28462">
        <ele>134</ele>
        <time>2014-11-16T10:44:25.000Z</time>
      </trkpt>
      <trkpt lat="47.31736" lon="-1.28458">
        <ele>135</ele>
        <time>2014-11-16T10:44:26.000Z</time>
      </trkpt>
      <trkpt lat="47.31747" lon="-1.2845">
        <ele>134</ele>
        <time>2014-11-16T10:44:28.000Z</time>
      </trkpt>
      <trkpt lat="47.31758" lon="-1.28444">
        <ele>135</ele>
        <time>2014-11-16T10:44:30.000Z</time>
      </trkpt>
      <trkpt lat="47.31768" lon="-1.28439">
        <ele>135</ele>
        <time>2014-11-16T10:44:32.000Z</time>
      </trkpt>
      <trkpt lat="47.31778" lon="-1.28435">
        <ele>136</ele>
        <time>2014-11-16T10:44:34.000Z</time>
      </trkpt>
      <trkpt lat="47.31789" lon="-1.28429">
        <ele>135</ele>
        <time>2014-11-16T10:44:36.000Z</time>
      </trkpt>
      <trkpt lat="47.318" lon="-1.28426">
        <ele>136</ele>
        <time>2014-11-16T10:44:38.000Z</time>
      </trkpt>
      <trkpt lat="47.3181" lon="-1.28422">
        <ele>137</ele>
        <time>2014-11-16T10:44:41.000Z</time>
      </trkpt>
      <trkpt lat="47.31822" lon="-1.28416">
        <ele>136</ele>
        <time>2014-11-16T10:44:43.000Z</time>
      </trkpt>
      <trkpt lat="47.31833" lon="-1.28414">
        <ele>137</ele>
        <time>2014-11-16T10:44:44.000Z</time>
      </trkpt>
      <trkpt lat="47.31844" lon="-1.28412">
        <ele>138</ele>
        <time>2014-11-16T10:44:46.000Z</time>
      </trkpt>
      <trkpt lat="47.31856" lon="-1.28412">
        <ele>138</ele>
        <time>2014-11-16T10:44:49.000Z</time>
      </trkpt>
      <trkpt lat="47.31868" lon="-1.28412">
        <ele>138</ele>
        <time>2014-11-16T10:44:50.000Z</time>
      </trkpt>
      <trkpt lat="47.31878" lon="-1.28411">
        <ele>139</ele>
        <time>2014-11-16T10:44:52.000Z</time>
      </trkpt>
      <trkpt lat="47.31889" lon="-1.28411">
        <ele>139</ele>
        <time>2014-11-16T10:44:54.000Z</time>
      </trkpt>
      <trkpt lat="47.31901" lon="-1.2841">
        <ele>140</ele>
        <time>2014-11-16T10:44:57.000Z</time>
      </trkpt>
      <trkpt lat="47.31913" lon="-1.28409">
        <ele>140</ele>
        <time>2014-11-16T10:44:58.000Z</time>
      </trkpt>
      <trkpt lat="47.31923" lon="-1.28405">
        <ele>140</ele>
        <time>2014-11-16T10:45:00.000Z</time>
      </trkpt>
      <trkpt lat="47.31934" lon="-1.28403">
        <ele>140</ele>
        <time>2014-11-16T10:45:02.000Z</time>
      </trkpt>
      <trkpt lat="47.31941" lon="-1.28402">
        <ele>140</ele>
        <time>2014-11-16T10:45:04.000Z</time>
      </trkpt>
      <trkpt lat="47.31941" lon="-1.28402">
        <ele>140</ele>
        <time>2014-11-16T10:45:06.000Z</time>
      </trkpt>
      <trkpt lat="47.31944" lon="-1.28417">
        <ele>138</ele>
        <time>2014-11-16T10:45:08.000Z</time>
      </trkpt>
      <trkpt lat="47.31942" lon="-1.28426">
        <ele>136</ele>
        <time>2014-11-16T10:45:10.000Z</time>
      </trkpt>
      <trkpt lat="47.31939" lon="-1.28436">
        <ele>136</ele>
        <time>2014-11-16T10:45:13.000Z</time>
      </trkpt>
      <trkpt lat="47.31936" lon="-1.28447">
        <ele>135</ele>
        <time>2014-11-16T10:45:15.000Z</time>
      </trkpt>
      <trkpt lat="47.31934" lon="-1.28458">
        <ele>134</ele>
        <time>2014-11-16T10:45:16.000Z</time>
      </trkpt>
      <trkpt lat="47.31935" lon="-1.2847">
        <ele>134</ele>
        <time>2014-11-16T10:45:18.000Z</time>
      </trkpt>
      <trkpt lat="47.31937" lon="-1.28482">
        <ele>134</ele>
        <time>2014-11-16T10:45:20.000Z</time>
      </trkpt>
      <trkpt lat="47.3194" lon="-1.28492">
        <ele>133</ele>
        <time>2014-11-16T10:45:22.000Z</time>
      </trkpt>
      <trkpt lat="47.31942" lon="-1.28502">
        <ele>134</ele>
        <time>2014-11-16T10:45:24.000Z</time>
      </trkpt>
      <trkpt lat="47.31945" lon="-1.28513">
        <ele>132</ele>
        <time>2014-11-16T10:45:26.000Z</time>
      </trkpt>
      <trkpt lat="47.31948" lon="-1.28524">
        <ele>131</ele>
        <time>2014-11-16T10:45:29.000Z</time>
      </trkpt>
      <trkpt lat="47.3195" lon="-1.28534">
        <ele>131</ele>
        <time>2014-11-16T10:45:30.000Z</time>
      </trkpt>
      <trkpt lat="47.31952" lon="-1.28544">
        <ele>130</ele>
        <time>2014-11-16T10:45:32.000Z</time>
      </trkpt>
      <trkpt lat="47.31955" lon="-1.28553">
        <ele>129</ele>
        <time>2014-11-16T10:45:34.000Z</time>
      </trkpt>
      <trkpt lat="47.31956" lon="-1.28564">
        <ele>128</ele>
        <time>2014-11-16T10:45:36.000Z</time>
      </trkpt>
      <trkpt lat="47.31958" lon="-1.28574">
        <ele>127</ele>
        <time>2014-11-16T10:45:38.000Z</time>
      </trkpt>
      <trkpt lat="47.3196" lon="-1.28586">
        <ele>127</ele>
        <time>2014-11-16T10:45:41.000Z</time>
      </trkpt>
      <trkpt lat="47.31963" lon="-1.28598">
        <ele>126</ele>
        <time>2014-11-16T10:45:42.000Z</time>
      </trkpt>
      <trkpt lat="47.31965" lon="-1.2861">
        <ele>125</ele>
        <time>2014-11-16T10:45:44.000Z</time>
      </trkpt>
      <trkpt lat="47.31968" lon="-1.28622">
        <ele>126</ele>
        <time>2014-11-16T10:45:46.000Z</time>
      </trkpt>
      <trkpt lat="47.3197" lon="-1.28635">
        <ele>125</ele>
        <time>2014-11-16T10:45:48.000Z</time>
      </trkpt>
      <trkpt lat="47.31972" lon="-1.28647">
        <ele>124</ele>
        <time>2014-11-16T10:45:50.000Z</time>
      </trkpt>
      <trkpt lat="47.31974" lon="-1.28659">
        <ele>124</ele>
        <time>2014-11-16T10:45:52.000Z</time>
      </trkpt>
      <trkpt lat="47.31976" lon="-1.28671">
        <ele>121</ele>
        <time>2014-11-16T10:45:54.000Z</time>
      </trkpt>
      <trkpt lat="47.31979" lon="-1.28683">
        <ele>121</ele>
        <time>2014-11-16T10:45:56.000Z</time>
      </trkpt>
      <trkpt lat="47.31982" lon="-1.28695">
        <ele>121</ele>
        <time>2014-11-16T10:45:58.000Z</time>
      </trkpt>
      <trkpt lat="47.31985" lon="-1.28708">
        <ele>121</ele>
        <time>2014-11-16T10:46:00.000Z</time>
      </trkpt>
      <trkpt lat="47.3199" lon="-1.28721">
        <ele>120</ele>
        <time>2014-11-16T10:46:02.000Z</time>
      </trkpt>
      <trkpt lat="47.31994" lon="-1.28735">
        <ele>122</ele>
        <time>2014-11-16T10:46:04.000Z</time>
      </trkpt>
      <trkpt lat="47.31999" lon="-1.28746">
        <ele>121</ele>
        <time>2014-11-16T10:46:06.000Z</time>
      </trkpt>
      <trkpt lat="47.32004" lon="-1.28758">
        <ele>120</ele>
        <time>2014-11-16T10:46:08.000Z</time>
      </trkpt>
      <trkpt lat="47.32008" lon="-1.28768">
        <ele>119</ele>
        <time>2014-11-16T10:46:10.000Z</time>
      </trkpt>
      <trkpt lat="47.32013" lon="-1.28779">
        <ele>118</ele>
        <time>2014-11-16T10:46:12.000Z</time>
      </trkpt>
      <trkpt lat="47.32017" lon="-1.28791">
        <ele>116</ele>
        <time>2014-11-16T10:46:14.000Z</time>
      </trkpt>
      <trkpt lat="47.32021" lon="-1.28803">
        <ele>116</ele>
        <time>2014-11-16T10:46:17.000Z</time>
      </trkpt>
      <trkpt lat="47.32024" lon="-1.28816">
        <ele>115</ele>
        <time>2014-11-16T10:46:18.000Z</time>
      </trkpt>
      <trkpt lat="47.32027" lon="-1.28831">
        <ele>116</ele>
        <time>2014-11-16T10:46:21.000Z</time>
      </trkpt>
      <trkpt lat="47.3203" lon="-1.28845">
        <ele>116</ele>
        <time>2014-11-16T10:46:22.000Z</time>
      </trkpt>
      <trkpt lat="47.32032" lon="-1.28861">
        <ele>114</ele>
        <time>2014-11-16T10:46:25.000Z</time>
      </trkpt>
      <trkpt lat="47.32035" lon="-1.28875">
        <ele>113</ele>
        <time>2014-11-16T10:46:26.000Z</time>
      </trkpt>
      <trkpt lat="47.32037" lon="-1.28886">
        <ele>114</ele>
        <time>2014-11-16T10:46:28.000Z</time>
      </trkpt>
      <trkpt lat="47.32039" lon="-1.28896">
        <ele>113</ele>
        <time>2014-11-16T10:46:30.000Z</time>
      </trkpt>
      <trkpt lat="47.32039" lon="-1.28896">
        <ele>113</ele>
        <time>2014-11-16T10:46:32.000Z</time>
      </trkpt>
      <trkpt lat="47.32048" lon="-1.28898">
        <ele>111</ele>
        <time>2014-11-16T10:46:34.000Z</time>
      </trkpt>
      <trkpt lat="47.32053" lon="-1.28894">
        <ele>111</ele>
        <time>2014-11-16T10:46:37.000Z</time>
      </trkpt>
      <trkpt lat="47.32059" lon="-1.28888">
        <ele>111</ele>
        <time>2014-11-16T10:46:38.000Z</time>
      </trkpt>
      <trkpt lat="47.32065" lon="-1.28881">
        <ele>112</ele>
        <time>2014-11-16T10:46:40.000Z</time>
      </trkpt>
      <trkpt lat="47.32072" lon="-1.28873">
        <ele>113</ele>
        <time>2014-11-16T10:46:42.000Z</time>
      </trkpt>
      <trkpt lat="47.32077" lon="-1.28865">
        <ele>113</ele>
        <time>2014-11-16T10:46:44.000Z</time>
      </trkpt>
      <trkpt lat="47.32083" lon="-1.28858">
        <ele>114</ele>
        <time>2014-11-16T10:46:46.000Z</time>
      </trkpt>
      <trkpt lat="47.32088" lon="-1.2885">
        <ele>114</ele>
        <time>2014-11-16T10:46:48.000Z</time>
      </trkpt>
      <trkpt lat="47.32096" lon="-1.28842">
        <ele>115</ele>
        <time>2014-11-16T10:46:51.000Z</time>
      </trkpt>
      <trkpt lat="47.32103" lon="-1.28834">
        <ele>116</ele>
        <time>2014-11-16T10:46:52.000Z</time>
      </trkpt>
      <trkpt lat="47.32109" lon="-1.28825">
        <ele>117</ele>
        <time>2014-11-16T10:46:54.000Z</time>
      </trkpt>
      <trkpt lat="47.32117" lon="-1.28816">
        <ele>116</ele>
        <time>2014-11-16T10:46:56.000Z</time>
      </trkpt>
      <trkpt lat="47.32124" lon="-1.28808">
        <ele>117</ele>
        <time>2014-11-16T10:46:58.000Z</time>
      </trkpt>
      <trkpt lat="47.3213" lon="-1.28801">
        <ele>116</ele>
        <time>2014-11-16T10:47:01.000Z</time>
      </trkpt>
      <trkpt lat="47.32135" lon="-1.28792">
        <ele>117</ele>
        <time>2014-11-16T10:47:02.000Z</time>
      </trkpt>
      <trkpt lat="47.32141" lon="-1.28782">
        <ele>116</ele>
        <time>2014-11-16T10:47:05.000Z</time>
      </trkpt>
      <trkpt lat="47.32148" lon="-1.28773">
        <ele>117</ele>
        <time>2014-11-16T10:47:06.000Z</time>
      </trkpt>
      <trkpt lat="47.32154" lon="-1.28765">
        <ele>118</ele>
        <time>2014-11-16T10:47:08.000Z</time>
      </trkpt>
      <trkpt lat="47.32159" lon="-1.28756">
        <ele>117</ele>
        <time>2014-11-16T10:47:10.000Z</time>
      </trkpt>
      <trkpt lat="47.32162" lon="-1.28747">
        <ele>119</ele>
        <time>2014-11-16T10:47:12.000Z</time>
      </trkpt>
      <trkpt lat="47.32167" lon="-1.28739">
        <ele>120</ele>
        <time>2014-11-16T10:47:14.000Z</time>
      </trkpt>
      <trkpt lat="47.32171" lon="-1.28728">
        <ele>120</ele>
        <time>2014-11-16T10:47:16.000Z</time>
      </trkpt>
      <trkpt lat="47.32177" lon="-1.28718">
        <ele>122</ele>
        <time>2014-11-16T10:47:18.000Z</time>
      </trkpt>
      <trkpt lat="47.32182" lon="-1.28709">
        <ele>121</ele>
        <time>2014-11-16T10:47:20.000Z</time>
      </trkpt>
      <trkpt lat="47.32188" lon="-1.287">
        <ele>121</ele>
        <time>2014-11-16T10:47:22.000Z</time>
      </trkpt>
      <trkpt lat="47.32193" lon="-1.28691">
        <ele>121</ele>
        <time>2014-11-16T10:47:25.000Z</time>
      </trkpt>
      <trkpt lat="47.32198" lon="-1.28683">
        <ele>123</ele>
        <time>2014-11-16T10:47:26.000Z</time>
      </trkpt>
      <trkpt lat="47.32203" lon="-1.28675">
        <ele>125</ele>
        <time>2014-11-16T10:47:28.000Z</time>
      </trkpt>
      <trkpt lat="47.32208" lon="-1.28668">
        <ele>124</ele>
        <time>2014-11-16T10:47:30.000Z</time>
      </trkpt>
      <trkpt lat="47.32213" lon="-1.28661">
        <ele>125</ele>
        <time>2014-11-16T10:47:32.000Z</time>
      </trkpt>
      <trkpt lat="47.32218" lon="-1.28655">
        <ele>125</ele>
        <time>2014-11-16T10:47:35.000Z</time>
      </trkpt>
      <trkpt lat="47.32223" lon="-1.28652">
        <ele>125</ele>
        <time>2014-11-16T10:47:37.000Z</time>
      </trkpt>
      <trkpt lat="47.32223" lon="-1.28652">
        <ele>125</ele>
        <time>2014-11-16T10:47:38.000Z</time>
      </trkpt>
      <trkpt lat="47.32233" lon="-1.28646">
        <ele>124</ele>
        <time>2014-11-16T10:47:40.000Z</time>
      </trkpt>
      <trkpt lat="47.32233" lon="-1.28646">
        <ele>124</ele>
        <time>2014-11-16T10:47:42.000Z</time>
      </trkpt>
      <trkpt lat="47.32243" lon="-1.28638">
        <ele>125</ele>
        <time>2014-11-16T10:47:44.000Z</time>
      </trkpt>
      <trkpt lat="47.32248" lon="-1.28632">
        <ele>124</ele>
        <time>2014-11-16T10:47:47.000Z</time>
      </trkpt>
      <trkpt lat="47.32251" lon="-1.28625">
        <ele>124</ele>
        <time>2014-11-16T10:47:48.000Z</time>
      </trkpt>
      <trkpt lat="47.32254" lon="-1.28618">
        <ele>125</ele>
        <time>2014-11-16T10:47:50.000Z</time>
      </trkpt>
      <trkpt lat="47.32257" lon="-1.2861">
        <ele>126</ele>
        <time>2014-11-16T10:47:52.000Z</time>
      </trkpt>
      <trkpt lat="47.32259" lon="-1.28601">
        <ele>126</ele>
        <time>2014-11-16T10:47:54.000Z</time>
      </trkpt>
      <trkpt lat="47.32262" lon="-1.28593">
        <ele>126</ele>
        <time>2014-11-16T10:47:56.000Z</time>
      </trkpt>
      <trkpt lat="47.32265" lon="-1.28586">
        <ele>125</ele>
        <time>2014-11-16T10:47:58.000Z</time>
      </trkpt>
      <trkpt lat="47.32265" lon="-1.28586">
        <ele>125</ele>
        <time>2014-11-16T10:48:01.000Z</time>
      </trkpt>
      <trkpt lat="47.32268" lon="-1.2857">
        <ele>126</ele>
        <time>2014-11-16T10:48:02.000Z</time>
      </trkpt>
      <trkpt lat="47.3227" lon="-1.28563">
        <ele>126</ele>
        <time>2014-11-16T10:48:05.000Z</time>
      </trkpt>
      <trkpt lat="47.32273" lon="-1.28554">
        <ele>125</ele>
        <time>2014-11-16T10:48:06.000Z</time>
      </trkpt>
      <trkpt lat="47.32275" lon="-1.28546">
        <ele>125</ele>
        <time>2014-11-16T10:48:09.000Z</time>
      </trkpt>
      <trkpt lat="47.32277" lon="-1.28539">
        <ele>125</ele>
        <time>2014-11-16T10:48:10.000Z</time>
      </trkpt>
      <trkpt lat="47.3228" lon="-1.28531">
        <ele>123</ele>
        <time>2014-11-16T10:48:12.000Z</time>
      </trkpt>
      <trkpt lat="47.3228" lon="-1.28531">
        <ele>123</ele>
        <time>2014-11-16T10:48:14.000Z</time>
      </trkpt>
      <trkpt lat="47.32284" lon="-1.28517">
        <ele>123</ele>
        <time>2014-11-16T10:48:16.000Z</time>
      </trkpt>
      <trkpt lat="47.32284" lon="-1.28517">
        <ele>123</ele>
        <time>2014-11-16T10:48:18.000Z</time>
      </trkpt>
      <trkpt lat="47.32289" lon="-1.28503">
        <ele>123</ele>
        <time>2014-11-16T10:48:20.000Z</time>
      </trkpt>
      <trkpt lat="47.32294" lon="-1.28489">
        <ele>124</ele>
        <time>2014-11-16T10:48:24.000Z</time>
      </trkpt>
      <trkpt lat="47.32299" lon="-1.28474">
        <ele>124</ele>
        <time>2014-11-16T10:48:28.000Z</time>
      </trkpt>
      <trkpt lat="47.32301" lon="-1.28465">
        <ele>123</ele>
        <time>2014-11-16T10:48:30.000Z</time>
      </trkpt>
      <trkpt lat="47.32302" lon="-1.28456">
        <ele>122</ele>
        <time>2014-11-16T10:48:32.000Z</time>
      </trkpt>
      <trkpt lat="47.32303" lon="-1.28448">
        <ele>123</ele>
        <time>2014-11-16T10:48:34.000Z</time>
      </trkpt>
      <trkpt lat="47.32303" lon="-1.28439">
        <ele>121</ele>
        <time>2014-11-16T10:48:37.000Z</time>
      </trkpt>
      <trkpt lat="47.32304" lon="-1.28431">
        <ele>122</ele>
        <time>2014-11-16T10:48:38.000Z</time>
      </trkpt>
      <trkpt lat="47.32305" lon="-1.28422">
        <ele>122</ele>
        <time>2014-11-16T10:48:41.000Z</time>
      </trkpt>
      <trkpt lat="47.32307" lon="-1.28413">
        <ele>122</ele>
        <time>2014-11-16T10:48:42.000Z</time>
      </trkpt>
      <trkpt lat="47.32309" lon="-1.28404">
        <ele>122</ele>
        <time>2014-11-16T10:48:44.000Z</time>
      </trkpt>
      <trkpt lat="47.32312" lon="-1.28395">
        <ele>124</ele>
        <time>2014-11-16T10:48:46.000Z</time>
      </trkpt>
      <trkpt lat="47.32315" lon="-1.28386">
        <ele>125</ele>
        <time>2014-11-16T10:48:48.000Z</time>
      </trkpt>
      <trkpt lat="47.32317" lon="-1.28377">
        <ele>123</ele>
        <time>2014-11-16T10:48:50.000Z</time>
      </trkpt>
      <trkpt lat="47.32315" lon="-1.28368">
        <ele>124</ele>
        <time>2014-11-16T10:48:52.000Z</time>
      </trkpt>
      <trkpt lat="47.32314" lon="-1.28358">
        <ele>123</ele>
        <time>2014-11-16T10:48:54.000Z</time>
      </trkpt>
      <trkpt lat="47.32312" lon="-1.28348">
        <ele>123</ele>
        <time>2014-11-16T10:48:57.000Z</time>
      </trkpt>
      <trkpt lat="47.32311" lon="-1.28338">
        <ele>123</ele>
        <time>2014-11-16T10:48:58.000Z</time>
      </trkpt>
      <trkpt lat="47.32312" lon="-1.28328">
        <ele>124</ele>
        <time>2014-11-16T10:49:00.000Z</time>
      </trkpt>
      <trkpt lat="47.32313" lon="-1.2832">
        <ele>123</ele>
        <time>2014-11-16T10:49:03.000Z</time>
      </trkpt>
      <trkpt lat="47.32313" lon="-1.2832">
        <ele>123</ele>
        <time>2014-11-16T10:49:05.000Z</time>
      </trkpt>
      <trkpt lat="47.32313" lon="-1.2832">
        <ele>123</ele>
        <time>2014-11-16T10:49:07.000Z</time>
      </trkpt>
      <trkpt lat="47.32313" lon="-1.2832">
        <ele>123</ele>
        <time>2014-11-16T10:49:08.000Z</time>
      </trkpt>
      <trkpt lat="47.3232" lon="-1.28319">
        <ele>122</ele>
        <time>2014-11-16T10:49:10.000Z</time>
      </trkpt>
      <trkpt lat="47.32325" lon="-1.28327">
        <ele>122</ele>
        <time>2014-11-16T10:49:13.000Z</time>
      </trkpt>
      <trkpt lat="47.32334" lon="-1.28334">
        <ele>121</ele>
        <time>2014-11-16T10:49:14.000Z</time>
      </trkpt>
      <trkpt lat="47.32346" lon="-1.28341">
        <ele>121</ele>
        <time>2014-11-16T10:49:16.000Z</time>
      </trkpt>
      <trkpt lat="47.32354" lon="-1.28343">
        <ele>122</ele>
        <time>2014-11-16T10:49:18.000Z</time>
      </trkpt>
      <trkpt lat="47.32361" lon="-1.28349">
        <ele>121</ele>
        <time>2014-11-16T10:49:20.000Z</time>
      </trkpt>
      <trkpt lat="47.32368" lon="-1.28357">
        <ele>120</ele>
        <time>2014-11-16T10:49:22.000Z</time>
      </trkpt>
      <trkpt lat="47.32376" lon="-1.28363">
        <ele>119</ele>
        <time>2014-11-16T10:49:25.000Z</time>
      </trkpt>
      <trkpt lat="47.32384" lon="-1.28371">
        <ele>118</ele>
        <time>2014-11-16T10:49:27.000Z</time>
      </trkpt>
      <trkpt lat="47.32393" lon="-1.28379">
        <ele>118</ele>
        <time>2014-11-16T10:49:28.000Z</time>
      </trkpt>
      <trkpt lat="47.32401" lon="-1.28387">
        <ele>118</ele>
        <time>2014-11-16T10:49:30.000Z</time>
      </trkpt>
      <trkpt lat="47.32411" lon="-1.28395">
        <ele>118</ele>
        <time>2014-11-16T10:49:32.000Z</time>
      </trkpt>
      <trkpt lat="47.3242" lon="-1.28403">
        <ele>118</ele>
        <time>2014-11-16T10:49:35.000Z</time>
      </trkpt>
      <trkpt lat="47.3243" lon="-1.28411">
        <ele>116</ele>
        <time>2014-11-16T10:49:36.000Z</time>
      </trkpt>
      <trkpt lat="47.32439" lon="-1.28419">
        <ele>116</ele>
        <time>2014-11-16T10:49:39.000Z</time>
      </trkpt>
      <trkpt lat="47.32449" lon="-1.28426">
        <ele>115</ele>
        <time>2014-11-16T10:49:40.000Z</time>
      </trkpt>
      <trkpt lat="47.32461" lon="-1.28432">
        <ele>115</ele>
        <time>2014-11-16T10:49:42.000Z</time>
      </trkpt>
      <trkpt lat="47.32472" lon="-1.28438">
        <ele>115</ele>
        <time>2014-11-16T10:49:44.000Z</time>
      </trkpt>
      <trkpt lat="47.32484" lon="-1.28447">
        <ele>114</ele>
        <time>2014-11-16T10:49:46.000Z</time>
      </trkpt>
      <trkpt lat="47.32494" lon="-1.28455">
        <ele>114</ele>
        <time>2014-11-16T10:49:48.000Z</time>
      </trkpt>
      <trkpt lat="47.32505" lon="-1.28467">
        <ele>113</ele>
        <time>2014-11-16T10:49:51.000Z</time>
      </trkpt>
      <trkpt lat="47.32515" lon="-1.28478">
        <ele>113</ele>
        <time>2014-11-16T10:49:52.000Z</time>
      </trkpt>
      <trkpt lat="47.32524" lon="-1.28489">
        <ele>112</ele>
        <time>2014-11-16T10:49:54.000Z</time>
      </trkpt>
      <trkpt lat="47.32534" lon="-1.28499">
        <ele>112</ele>
        <time>2014-11-16T10:49:56.000Z</time>
      </trkpt>
      <trkpt lat="47.32544" lon="-1.2851">
        <ele>111</ele>
        <time>2014-11-16T10:49:58.000Z</time>
      </trkpt>
      <trkpt lat="47.32556" lon="-1.28517">
        <ele>110</ele>
        <time>2014-11-16T10:50:00.000Z</time>
      </trkpt>
      <trkpt lat="47.32566" lon="-1.28519">
        <ele>111</ele>
        <time>2014-11-16T10:50:02.000Z</time>
      </trkpt>
      <trkpt lat="47.32579" lon="-1.28521">
        <ele>111</ele>
        <time>2014-11-16T10:50:04.000Z</time>
      </trkpt>
      <trkpt lat="47.32592" lon="-1.28529">
        <ele>111</ele>
        <time>2014-11-16T10:50:06.000Z</time>
      </trkpt>
      <trkpt lat="47.32602" lon="-1.28539">
        <ele>110</ele>
        <time>2014-11-16T10:50:08.000Z</time>
      </trkpt>
      <trkpt lat="47.32613" lon="-1.28548">
        <ele>110</ele>
        <time>2014-11-16T10:50:10.000Z</time>
      </trkpt>
      <trkpt lat="47.32623" lon="-1.2856">
        <ele>111</ele>
        <time>2014-11-16T10:50:12.000Z</time>
      </trkpt>
      <trkpt lat="47.32635" lon="-1.28571">
        <ele>110</ele>
        <time>2014-11-16T10:50:14.000Z</time>
      </trkpt>
      <trkpt lat="47.32645" lon="-1.28583">
        <ele>109</ele>
        <time>2014-11-16T10:50:16.000Z</time>
      </trkpt>
      <trkpt lat="47.32655" lon="-1.28595">
        <ele>109</ele>
        <time>2014-11-16T10:50:18.000Z</time>
      </trkpt>
      <trkpt lat="47.32666" lon="-1.28606">
        <ele>109</ele>
        <time>2014-11-16T10:50:20.000Z</time>
      </trkpt>
      <trkpt lat="47.32675" lon="-1.28619">
        <ele>109</ele>
        <time>2014-11-16T10:50:22.000Z</time>
      </trkpt>
      <trkpt lat="47.32685" lon="-1.28631">
        <ele>108</ele>
        <time>2014-11-16T10:50:24.000Z</time>
      </trkpt>
      <trkpt lat="47.32697" lon="-1.28644">
        <ele>108</ele>
        <time>2014-11-16T10:50:26.000Z</time>
      </trkpt>
      <trkpt lat="47.32707" lon="-1.28657">
        <ele>108</ele>
        <time>2014-11-16T10:50:28.000Z</time>
      </trkpt>
      <trkpt lat="47.32718" lon="-1.2867">
        <ele>106</ele>
        <time>2014-11-16T10:50:30.000Z</time>
      </trkpt>
      <trkpt lat="47.32728" lon="-1.28683">
        <ele>106</ele>
        <time>2014-11-16T10:50:32.000Z</time>
      </trkpt>
      <trkpt lat="47.3274" lon="-1.28696">
        <ele>105</ele>
        <time>2014-11-16T10:50:34.000Z</time>
      </trkpt>
      <trkpt lat="47.3275" lon="-1.28711">
        <ele>106</ele>
        <time>2014-11-16T10:50:36.000Z</time>
      </trkpt>
      <trkpt lat="47.32761" lon="-1.28726">
        <ele>105</ele>
        <time>2014-11-16T10:50:38.000Z</time>
      </trkpt>
      <trkpt lat="47.32773" lon="-1.2874">
        <ele>103</ele>
        <time>2014-11-16T10:50:40.000Z</time>
      </trkpt>
      <trkpt lat="47.32785" lon="-1.28755">
        <ele>104</ele>
        <time>2014-11-16T10:50:42.000Z</time>
      </trkpt>
      <trkpt lat="47.32796" lon="-1.28766">
        <ele>103</ele>
        <time>2014-11-16T10:50:47.000Z</time>
      </trkpt>
      <trkpt lat="47.32797" lon="-1.28756">
        <ele>104</ele>
        <time>2014-11-16T10:50:50.000Z</time>
      </trkpt>
      <trkpt lat="47.32806" lon="-1.28744">
        <ele>105</ele>
        <time>2014-11-16T10:50:54.000Z</time>
      </trkpt>
      <trkpt lat="47.32811" lon="-1.28735">
        <ele>105</ele>
        <time>2014-11-16T10:50:56.000Z</time>
      </trkpt>
      <trkpt lat="47.32819" lon="-1.28724">
        <ele>105</ele>
        <time>2014-11-16T10:50:58.000Z</time>
      </trkpt>
      <trkpt lat="47.32826" lon="-1.28715">
        <ele>105</ele>
        <time>2014-11-16T10:51:00.000Z</time>
      </trkpt>
      <trkpt lat="47.32832" lon="-1.28705">
        <ele>103</ele>
        <time>2014-11-16T10:51:03.000Z</time>
      </trkpt>
      <trkpt lat="47.32832" lon="-1.28693">
        <ele>103</ele>
        <time>2014-11-16T10:51:04.000Z</time>
      </trkpt>
      <trkpt lat="47.32826" lon="-1.28683">
        <ele>104</ele>
        <time>2014-11-16T10:51:07.000Z</time>
      </trkpt>
      <trkpt lat="47.32821" lon="-1.28674">
        <ele>106</ele>
        <time>2014-11-16T10:51:08.000Z</time>
      </trkpt>
      <trkpt lat="47.32814" lon="-1.28662">
        <ele>108</ele>
        <time>2014-11-16T10:51:11.000Z</time>
      </trkpt>
      <trkpt lat="47.32809" lon="-1.28651">
        <ele>109</ele>
        <time>2014-11-16T10:51:13.000Z</time>
      </trkpt>
      <trkpt lat="47.32804" lon="-1.2864">
        <ele>109</ele>
        <time>2014-11-16T10:51:14.000Z</time>
      </trkpt>
      <trkpt lat="47.32799" lon="-1.28628">
        <ele>109</ele>
        <time>2014-11-16T10:51:17.000Z</time>
      </trkpt>
      <trkpt lat="47.32792" lon="-1.28617">
        <ele>109</ele>
        <time>2014-11-16T10:51:18.000Z</time>
      </trkpt>
      <trkpt lat="47.32788" lon="-1.28604">
        <ele>111</ele>
        <time>2014-11-16T10:51:20.000Z</time>
      </trkpt>
      <trkpt lat="47.32783" lon="-1.28592">
        <ele>111</ele>
        <time>2014-11-16T10:51:22.000Z</time>
      </trkpt>
      <trkpt lat="47.32778" lon="-1.2858">
        <ele>113</ele>
        <time>2014-11-16T10:51:24.000Z</time>
      </trkpt>
      <trkpt lat="47.32773" lon="-1.28569">
        <ele>113</ele>
        <time>2014-11-16T10:51:26.000Z</time>
      </trkpt>
      <trkpt lat="47.3277" lon="-1.28557">
        <ele>112</ele>
        <time>2014-11-16T10:51:28.000Z</time>
      </trkpt>
      <trkpt lat="47.32768" lon="-1.28544">
        <ele>113</ele>
        <time>2014-11-16T10:51:30.000Z</time>
      </trkpt>
      <trkpt lat="47.32767" lon="-1.28532">
        <ele>114</ele>
        <time>2014-11-16T10:51:32.000Z</time>
      </trkpt>
      <trkpt lat="47.32766" lon="-1.28518">
        <ele>115</ele>
        <time>2014-11-16T10:51:34.000Z</time>
      </trkpt>
      <trkpt lat="47.32766" lon="-1.28505">
        <ele>115</ele>
        <time>2014-11-16T10:51:36.000Z</time>
      </trkpt>
      <trkpt lat="47.32766" lon="-1.28492">
        <ele>116</ele>
        <time>2014-11-16T10:51:39.000Z</time>
      </trkpt>
      <trkpt lat="47.32767" lon="-1.2848">
        <ele>116</ele>
        <time>2014-11-16T10:51:40.000Z</time>
      </trkpt>
      <trkpt lat="47.32769" lon="-1.28467">
        <ele>115</ele>
        <time>2014-11-16T10:51:43.000Z</time>
      </trkpt>
      <trkpt lat="47.3277" lon="-1.28456">
        <ele>116</ele>
        <time>2014-11-16T10:51:44.000Z</time>
      </trkpt>
      <trkpt lat="47.32771" lon="-1.28445">
        <ele>117</ele>
        <time>2014-11-16T10:51:47.000Z</time>
      </trkpt>
      <trkpt lat="47.32769" lon="-1.28434">
        <ele>117</ele>
        <time>2014-11-16T10:51:48.000Z</time>
      </trkpt>
      <trkpt lat="47.3277" lon="-1.28422">
        <ele>117</ele>
        <time>2014-11-16T10:51:50.000Z</time>
      </trkpt>
      <trkpt lat="47.3277" lon="-1.28411">
        <ele>118</ele>
        <time>2014-11-16T10:51:53.000Z</time>
      </trkpt>
      <trkpt lat="47.32771" lon="-1.284">
        <ele>118</ele>
        <time>2014-11-16T10:51:54.000Z</time>
      </trkpt>
      <trkpt lat="47.32773" lon="-1.28388">
        <ele>118</ele>
        <time>2014-11-16T10:51:56.000Z</time>
      </trkpt>
      <trkpt lat="47.32777" lon="-1.28377">
        <ele>118</ele>
        <time>2014-11-16T10:51:58.000Z</time>
      </trkpt>
      <trkpt lat="47.32781" lon="-1.28367">
        <ele>119</ele>
        <time>2014-11-16T10:52:00.000Z</time>
      </trkpt>
      <trkpt lat="47.32785" lon="-1.28358">
        <ele>120</ele>
        <time>2014-11-16T10:52:02.000Z</time>
      </trkpt>
      <trkpt lat="47.32791" lon="-1.28347">
        <ele>121</ele>
        <time>2014-11-16T10:52:04.000Z</time>
      </trkpt>
      <trkpt lat="47.32795" lon="-1.28337">
        <ele>121</ele>
        <time>2014-11-16T10:52:06.000Z</time>
      </trkpt>
      <trkpt lat="47.32798" lon="-1.28327">
        <ele>121</ele>
        <time>2014-11-16T10:52:08.000Z</time>
      </trkpt>
      <trkpt lat="47.328" lon="-1.28315">
        <ele>121</ele>
        <time>2014-11-16T10:52:10.000Z</time>
      </trkpt>
      <trkpt lat="47.32803" lon="-1.28302">
        <ele>122</ele>
        <time>2014-11-16T10:52:12.000Z</time>
      </trkpt>
      <trkpt lat="47.32804" lon="-1.28289">
        <ele>122</ele>
        <time>2014-11-16T10:52:14.000Z</time>
      </trkpt>
      <trkpt lat="47.32805" lon="-1.28277">
        <ele>123</ele>
        <time>2014-11-16T10:52:16.000Z</time>
      </trkpt>
      <trkpt lat="47.32808" lon="-1.28264">
        <ele>123</ele>
        <time>2014-11-16T10:52:18.000Z</time>
      </trkpt>
      <trkpt lat="47.32809" lon="-1.28251">
        <ele>122</ele>
        <time>2014-11-16T10:52:20.000Z</time>
      </trkpt>
      <trkpt lat="47.32808" lon="-1.2824">
        <ele>122</ele>
        <time>2014-11-16T10:52:23.000Z</time>
      </trkpt>
      <trkpt lat="47.32804" lon="-1.28229">
        <ele>122</ele>
        <time>2014-11-16T10:52:24.000Z</time>
      </trkpt>
      <trkpt lat="47.32803" lon="-1.28218">
        <ele>122</ele>
        <time>2014-11-16T10:52:27.000Z</time>
      </trkpt>
      <trkpt lat="47.32803" lon="-1.28218">
        <ele>122</ele>
        <time>2014-11-16T10:52:29.000Z</time>
      </trkpt>
      <trkpt lat="47.32803" lon="-1.28218">
        <ele>122</ele>
        <time>2014-11-16T10:52:30.000Z</time>
      </trkpt>
      <trkpt lat="47.32807" lon="-1.2822">
        <ele>122</ele>
        <time>2014-11-16T10:52:32.000Z</time>
      </trkpt>
      <trkpt lat="47.32813" lon="-1.28223">
        <ele>123</ele>
        <time>2014-11-16T10:52:34.000Z</time>
      </trkpt>
      <trkpt lat="47.32819" lon="-1.28226">
        <ele>123</ele>
        <time>2014-11-16T10:52:36.000Z</time>
      </trkpt>
      <trkpt lat="47.32825" lon="-1.28228">
        <ele>121</ele>
        <time>2014-11-16T10:52:39.000Z</time>
      </trkpt>
      <trkpt lat="47.32831" lon="-1.28231">
        <ele>121</ele>
        <time>2014-11-16T10:52:40.000Z</time>
      </trkpt>
      <trkpt lat="47.32844" lon="-1.28238">
        <ele>121</ele>
        <time>2014-11-16T10:52:42.000Z</time>
      </trkpt>
      <trkpt lat="47.3285" lon="-1.28241">
        <ele>120</ele>
        <time>2014-11-16T10:52:44.000Z</time>
      </trkpt>
      <trkpt lat="47.32857" lon="-1.28244">
        <ele>120</ele>
        <time>2014-11-16T10:52:46.000Z</time>
      </trkpt>
      <trkpt lat="47.32864" lon="-1.28247">
        <ele>120</ele>
        <time>2014-11-16T10:52:48.000Z</time>
      </trkpt>
      <trkpt lat="47.32872" lon="-1.28251">
        <ele>121</ele>
        <time>2014-11-16T10:52:50.000Z</time>
      </trkpt>
      <trkpt lat="47.32878" lon="-1.28256">
        <ele>119</ele>
        <time>2014-11-16T10:52:52.000Z</time>
      </trkpt>
      <trkpt lat="47.32885" lon="-1.2826">
        <ele>119</ele>
        <time>2014-11-16T10:52:54.000Z</time>
      </trkpt>
      <trkpt lat="47.32892" lon="-1.28265">
        <ele>119</ele>
        <time>2014-11-16T10:52:56.000Z</time>
      </trkpt>
      <trkpt lat="47.32898" lon="-1.28269">
        <ele>119</ele>
        <time>2014-11-16T10:52:58.000Z</time>
      </trkpt>
      <trkpt lat="47.32905" lon="-1.28274">
        <ele>118</ele>
        <time>2014-11-16T10:53:00.000Z</time>
      </trkpt>
      <trkpt lat="47.32912" lon="-1.28279">
        <ele>118</ele>
        <time>2014-11-16T10:53:02.000Z</time>
      </trkpt>
      <trkpt lat="47.32919" lon="-1.28285">
        <ele>118</ele>
        <time>2014-11-16T10:53:04.000Z</time>
      </trkpt>
      <trkpt lat="47.32927" lon="-1.28291">
        <ele>117</ele>
        <time>2014-11-16T10:53:06.000Z</time>
      </trkpt>
      <trkpt lat="47.32935" lon="-1.28296">
        <ele>116</ele>
        <time>2014-11-16T10:53:08.000Z</time>
      </trkpt>
      <trkpt lat="47.32943" lon="-1.28302">
        <ele>116</ele>
        <time>2014-11-16T10:53:10.000Z</time>
      </trkpt>
      <trkpt lat="47.3295" lon="-1.28307">
        <ele>116</ele>
        <time>2014-11-16T10:53:12.000Z</time>
      </trkpt>
      <trkpt lat="47.32958" lon="-1.28313">
        <ele>117</ele>
        <time>2014-11-16T10:53:14.000Z</time>
      </trkpt>
      <trkpt lat="47.32967" lon="-1.28318">
        <ele>117</ele>
        <time>2014-11-16T10:53:16.000Z</time>
      </trkpt>
      <trkpt lat="47.32976" lon="-1.28322">
        <ele>116</ele>
        <time>2014-11-16T10:53:19.000Z</time>
      </trkpt>
      <trkpt lat="47.32986" lon="-1.28328">
        <ele>117</ele>
        <time>2014-11-16T10:53:20.000Z</time>
      </trkpt>
      <trkpt lat="47.32996" lon="-1.28333">
        <ele>115</ele>
        <time>2014-11-16T10:53:22.000Z</time>
      </trkpt>
      <trkpt lat="47.33007" lon="-1.28342">
        <ele>115</ele>
        <time>2014-11-16T10:53:24.000Z</time>
      </trkpt>
      <trkpt lat="47.33018" lon="-1.2835">
        <ele>115</ele>
        <time>2014-11-16T10:53:27.000Z</time>
      </trkpt>
      <trkpt lat="47.33028" lon="-1.2836">
        <ele>114</ele>
        <time>2014-11-16T10:53:29.000Z</time>
      </trkpt>
      <trkpt lat="47.3304" lon="-1.28374">
        <ele>113</ele>
        <time>2014-11-16T10:53:31.000Z</time>
      </trkpt>
      <trkpt lat="47.3305" lon="-1.2839">
        <ele>111</ele>
        <time>2014-11-16T10:53:33.000Z</time>
      </trkpt>
      <trkpt lat="47.33058" lon="-1.28406">
        <ele>111</ele>
        <time>2014-11-16T10:53:35.000Z</time>
      </trkpt>
      <trkpt lat="47.33065" lon="-1.28421">
        <ele>112</ele>
        <time>2014-11-16T10:53:37.000Z</time>
      </trkpt>
      <trkpt lat="47.33072" lon="-1.28437">
        <ele>111</ele>
        <time>2014-11-16T10:53:38.000Z</time>
      </trkpt>
      <trkpt lat="47.33081" lon="-1.28453">
        <ele>111</ele>
        <time>2014-11-16T10:53:41.000Z</time>
      </trkpt>
      <trkpt lat="47.33091" lon="-1.28465">
        <ele>108</ele>
        <time>2014-11-16T10:53:42.000Z</time>
      </trkpt>
      <trkpt lat="47.331" lon="-1.28479">
        <ele>106</ele>
        <time>2014-11-16T10:53:44.000Z</time>
      </trkpt>
      <trkpt lat="47.33109" lon="-1.2849">
        <ele>106</ele>
        <time>2014-11-16T10:53:46.000Z</time>
      </trkpt>
      <trkpt lat="47.33118" lon="-1.28496">
        <ele>105</ele>
        <time>2014-11-16T10:53:48.000Z</time>
      </trkpt>
      <trkpt lat="47.33118" lon="-1.28496">
        <ele>105</ele>
        <time>2014-11-16T10:53:50.000Z</time>
      </trkpt>
      <trkpt lat="47.33125" lon="-1.28506">
        <ele>106</ele>
        <time>2014-11-16T10:53:52.000Z</time>
      </trkpt>
      <trkpt lat="47.33124" lon="-1.28515">
        <ele>106</ele>
        <time>2014-11-16T10:53:54.000Z</time>
      </trkpt>
      <trkpt lat="47.33121" lon="-1.28525">
        <ele>108</ele>
        <time>2014-11-16T10:53:57.000Z</time>
      </trkpt>
      <trkpt lat="47.33121" lon="-1.28525">
        <ele>108</ele>
        <time>2014-11-16T10:53:59.000Z</time>
      </trkpt>
      <trkpt lat="47.33138" lon="-1.2852">
        <ele>107</ele>
        <time>2014-11-16T10:54:01.000Z</time>
      </trkpt>
      <trkpt lat="47.33146" lon="-1.28512">
        <ele>106</ele>
        <time>2014-11-16T10:54:04.000Z</time>
      </trkpt>
      <trkpt lat="47.33156" lon="-1.28514">
        <ele>106</ele>
        <time>2014-11-16T10:54:05.000Z</time>
      </trkpt>
      <trkpt lat="47.33168" lon="-1.28522">
        <ele>104</ele>
        <time>2014-11-16T10:54:07.000Z</time>
      </trkpt>
      <trkpt lat="47.33181" lon="-1.28536">
        <ele>101</ele>
        <time>2014-11-16T10:54:10.000Z</time>
      </trkpt>
      <trkpt lat="47.33195" lon="-1.28552">
        <ele>100</ele>
        <time>2014-11-16T10:54:11.000Z</time>
      </trkpt>
      <trkpt lat="47.3321" lon="-1.2857">
        <ele>100</ele>
        <time>2014-11-16T10:54:14.000Z</time>
      </trkpt>
      <trkpt lat="47.33223" lon="-1.28585">
        <ele>99</ele>
        <time>2014-11-16T10:54:15.000Z</time>
      </trkpt>
      <trkpt lat="47.33237" lon="-1.28602">
        <ele>96</ele>
        <time>2014-11-16T10:54:17.000Z</time>
      </trkpt>
      <trkpt lat="47.3325" lon="-1.28617">
        <ele>94</ele>
        <time>2014-11-16T10:54:20.000Z</time>
      </trkpt>
      <trkpt lat="47.33262" lon="-1.28632">
        <ele>92</ele>
        <time>2014-11-16T10:54:22.000Z</time>
      </trkpt>
      <trkpt lat="47.33272" lon="-1.28646">
        <ele>90</ele>
        <time>2014-11-16T10:54:23.000Z</time>
      </trkpt>
      <trkpt lat="47.33285" lon="-1.28658">
        <ele>88</ele>
        <time>2014-11-16T10:54:25.000Z</time>
      </trkpt>
      <trkpt lat="47.33297" lon="-1.2867">
        <ele>85</ele>
        <time>2014-11-16T10:54:27.000Z</time>
      </trkpt>
      <trkpt lat="47.33311" lon="-1.28681">
        <ele>84</ele>
        <time>2014-11-16T10:54:29.000Z</time>
      </trkpt>
      <trkpt lat="47.33324" lon="-1.28689">
        <ele>82</ele>
        <time>2014-11-16T10:54:32.000Z</time>
      </trkpt>
      <trkpt lat="47.33335" lon="-1.28692">
        <ele>81</ele>
        <time>2014-11-16T10:54:34.000Z</time>
      </trkpt>
      <trkpt lat="47.3334" lon="-1.28687">
        <ele>81</ele>
        <time>2014-11-16T10:54:36.000Z</time>
      </trkpt>
      <trkpt lat="47.33347" lon="-1.28689">
        <ele>80</ele>
        <time>2014-11-16T10:54:38.000Z</time>
      </trkpt>
      <trkpt lat="47.33353" lon="-1.2869">
        <ele>80</ele>
        <time>2014-11-16T10:54:40.000Z</time>
      </trkpt>
      <trkpt lat="47.33353" lon="-1.2869">
        <ele>80</ele>
        <time>2014-11-16T10:54:42.000Z</time>
      </trkpt>
      <trkpt lat="47.33353" lon="-1.2869">
        <ele>80</ele>
        <time>2014-11-16T10:54:44.000Z</time>
      </trkpt>
      <trkpt lat="47.33357" lon="-1.28683">
        <ele>79</ele>
        <time>2014-11-16T10:54:46.000Z</time>
      </trkpt>
      <trkpt lat="47.33357" lon="-1.28683">
        <ele>79</ele>
        <time>2014-11-16T10:54:48.000Z</time>
      </trkpt>
      <trkpt lat="47.33357" lon="-1.28683">
        <ele>79</ele>
        <time>2014-11-16T10:54:50.000Z</time>
      </trkpt>
      <trkpt lat="47.33362" lon="-1.28671">
        <ele>78</ele>
        <time>2014-11-16T10:54:52.000Z</time>
      </trkpt>
      <trkpt lat="47.33368" lon="-1.28662">
        <ele>79</ele>
        <time>2014-11-16T10:54:56.000Z</time>
      </trkpt>
      <trkpt lat="47.33375" lon="-1.28661">
        <ele>77</ele>
        <time>2014-11-16T10:55:01.000Z</time>
      </trkpt>
      <trkpt lat="47.33375" lon="-1.28661">
        <ele>77</ele>
        <time>2014-11-16T10:55:02.000Z</time>
      </trkpt>
      <trkpt lat="47.33381" lon="-1.28667">
        <ele>73</ele>
        <time>2014-11-16T10:55:04.000Z</time>
      </trkpt>
      <trkpt lat="47.33381" lon="-1.28667">
        <ele>73</ele>
        <time>2014-11-16T10:55:06.000Z</time>
      </trkpt>
      <trkpt lat="47.33382" lon="-1.28676">
        <ele>75</ele>
        <time>2014-11-16T10:55:08.000Z</time>
      </trkpt>
      <trkpt lat="47.33382" lon="-1.28676">
        <ele>75</ele>
        <time>2014-11-16T10:55:10.000Z</time>
      </trkpt>
      <trkpt lat="47.33382" lon="-1.28676">
        <ele>75</ele>
        <time>2014-11-16T10:55:12.000Z</time>
      </trkpt>
      <trkpt lat="47.33382" lon="-1.28676">
        <ele>75</ele>
        <time>2014-11-16T10:55:14.000Z</time>
      </trkpt>
      <trkpt lat="47.33382" lon="-1.28676">
        <ele>75</ele>
        <time>2014-11-16T10:55:16.000Z</time>
      </trkpt>
      <trkpt lat="47.33382" lon="-1.28676">
        <ele>75</ele>
        <time>2014-11-16T10:55:18.000Z</time>
      </trkpt>
      <trkpt lat="47.33382" lon="-1.28676">
        <ele>75</ele>
        <time>2014-11-16T10:55:20.000Z</time>
      </trkpt>
      <trkpt lat="47.33382" lon="-1.28676">
        <ele>75</ele>
        <time>2014-11-16T10:55:22.000Z</time>
      </trkpt>
      <trkpt lat="47.33382" lon="-1.28676">
        <ele>75</ele>
        <time>2014-11-16T10:55:24.000Z</time>
      </trkpt>
      <trkpt lat="47.33382" lon="-1.28676">
        <ele>75</ele>
        <time>2014-11-16T10:55:27.000Z</time>
      </trkpt>
      <trkpt lat="47.33382" lon="-1.28676">
        <ele>75</ele>
        <time>2014-11-16T10:55:28.000Z</time>
      </trkpt>
      <trkpt lat="47.33382" lon="-1.28676">
        <ele>75</ele>
        <time>2014-11-16T10:55:30.000Z</time>
      </trkpt>
      <trkpt lat="47.33382" lon="-1.28676">
        <ele>75</ele>
        <time>2014-11-16T10:55:32.000Z</time>
      </trkpt>
      <trkpt lat="47.33382" lon="-1.28676">
        <ele>75</ele>
        <time>2014-11-16T10:55:34.000Z</time>
      </trkpt>
      <trkpt lat="47.33382" lon="-1.28676">
        <ele>75</ele>
        <time>2014-11-16T10:55:36.000Z</time>
      </trkpt>
      <trkpt lat="47.33382" lon="-1.28676">
        <ele>75</ele>
        <time>2014-11-16T10:55:38.000Z</time>
      </trkpt>
      <trkpt lat="47.33382" lon="-1.28676">
        <ele>75</ele>
        <time>2014-11-16T10:55:41.000Z</time>
      </trkpt>
      <trkpt lat="47.33382" lon="-1.28676">
        <ele>75</ele>
        <time>2014-11-16T10:55:42.000Z</time>
      </trkpt>
      <trkpt lat="47.33382" lon="-1.28676">
        <ele>75</ele>
        <time>2014-11-16T10:55:44.000Z</time>
      </trkpt>
      <trkpt lat="47.33386" lon="-1.28689">
        <ele>81</ele>
        <time>2014-11-16T10:56:25.000Z</time>
      </trkpt>
      <trkpt lat="47.33388" lon="-1.28698">
        <ele>80</ele>
        <time>2014-11-16T10:56:27.000Z</time>
      </trkpt>
      <trkpt lat="47.33389" lon="-1.28705">
        <ele>81</ele>
        <time>2014-11-16T10:56:30.000Z</time>
      </trkpt>
      <trkpt lat="47.3339" lon="-1.2871">
        <ele>81</ele>
        <time>2014-11-16T10:56:31.000Z</time>
      </trkpt>
      <trkpt lat="47.3339" lon="-1.2871">
        <ele>81</ele>
        <time>2014-11-16T10:56:34.000Z</time>
      </trkpt>
      <trkpt lat="47.3339" lon="-1.2871">
        <ele>81</ele>
        <time>2014-11-16T10:56:36.000Z</time>
      </trkpt>
      <trkpt lat="47.33392" lon="-1.28714">
        <ele>83</ele>
        <time>2014-11-16T10:56:38.000Z</time>
      </trkpt>
      <trkpt lat="47.33393" lon="-1.28718">
        <ele>83</ele>
        <time>2014-11-16T10:56:39.000Z</time>
      </trkpt>
      <trkpt lat="47.33395" lon="-1.28723">
        <ele>80</ele>
        <time>2014-11-16T10:56:41.000Z</time>
      </trkpt>
      <trkpt lat="47.33398" lon="-1.2873">
        <ele>77</ele>
        <time>2014-11-16T10:56:44.000Z</time>
      </trkpt>
      <trkpt lat="47.33402" lon="-1.28736">
        <ele>77</ele>
        <time>2014-11-16T10:56:45.000Z</time>
      </trkpt>
      <trkpt lat="47.33408" lon="-1.28747">
        <ele>74</ele>
        <time>2014-11-16T10:56:48.000Z</time>
      </trkpt>
      <trkpt lat="47.33408" lon="-1.28747">
        <ele>74</ele>
        <time>2014-11-16T10:56:50.000Z</time>
      </trkpt>
      <trkpt lat="47.33413" lon="-1.28752">
        <ele>71</ele>
        <time>2014-11-16T10:56:52.000Z</time>
      </trkpt>
      <trkpt lat="47.33414" lon="-1.28768">
        <ele>64</ele>
        <time>2014-11-16T10:56:56.000Z</time>
      </trkpt>
      <trkpt lat="47.33414" lon="-1.28777">
        <ele>62</ele>
        <time>2014-11-16T10:56:57.000Z</time>
      </trkpt>
      <trkpt lat="47.33414" lon="-1.28777">
        <ele>62</ele>
        <time>2014-11-16T10:56:59.000Z</time>
      </trkpt>
      <trkpt lat="47.33415" lon="-1.28786">
        <ele>62</ele>
        <time>2014-11-16T10:57:01.000Z</time>
      </trkpt>
      <trkpt lat="47.33415" lon="-1.28786">
        <ele>62</ele>
        <time>2014-11-16T10:57:03.000Z</time>
      </trkpt>
      <trkpt lat="47.33415" lon="-1.28786">
        <ele>62</ele>
        <time>2014-11-16T10:57:05.000Z</time>
      </trkpt>
      <trkpt lat="47.33415" lon="-1.28786">
        <ele>62</ele>
        <time>2014-11-16T10:57:07.000Z</time>
      </trkpt>
      <trkpt lat="47.33415" lon="-1.28786">
        <ele>62</ele>
        <time>2014-11-16T10:57:09.000Z</time>
      </trkpt>
      <trkpt lat="47.33415" lon="-1.28786">
        <ele>62</ele>
        <time>2014-11-16T10:57:11.000Z</time>
      </trkpt>
      <trkpt lat="47.33415" lon="-1.28786">
        <ele>62</ele>
        <time>2014-11-16T10:57:14.000Z</time>
      </trkpt>
      <trkpt lat="47.33415" lon="-1.28786">
        <ele>62</ele>
        <time>2014-11-16T10:57:15.000Z</time>
      </trkpt>
      <trkpt lat="47.33415" lon="-1.28786">
        <ele>62</ele>
        <time>2014-11-16T10:57:17.000Z</time>
      </trkpt>
      <trkpt lat="47.33415" lon="-1.28786">
        <ele>62</ele>
        <time>2014-11-16T10:57:19.000Z</time>
      </trkpt>
      <trkpt lat="47.33415" lon="-1.28786">
        <ele>62</ele>
        <time>2014-11-16T10:57:21.000Z</time>
      </trkpt>
      <trkpt lat="47.33415" lon="-1.28786">
        <ele>62</ele>
        <time>2014-11-16T10:57:23.000Z</time>
      </trkpt>
      <trkpt lat="47.33415" lon="-1.28786">
        <ele>62</ele>
        <time>2014-11-16T10:57:25.000Z</time>
      </trkpt>
      <trkpt lat="47.33426" lon="-1.28777">
        <ele>55</ele>
        <time>2014-11-16T10:57:31.000Z</time>
      </trkpt>
      <trkpt lat="47.3343" lon="-1.28769">
        <ele>54</ele>
        <time>2014-11-16T10:57:35.000Z</time>
      </trkpt>
      <trkpt lat="47.3343" lon="-1.28769">
        <ele>54</ele>
        <time>2014-11-16T10:57:37.000Z</time>
      </trkpt>
      <trkpt lat="47.33436" lon="-1.28761">
        <ele>54</ele>
        <time>2014-11-16T10:57:40.000Z</time>
      </trkpt>
      <trkpt lat="47.33444" lon="-1.28753">
        <ele>54</ele>
        <time>2014-11-16T10:57:43.000Z</time>
      </trkpt>
      <trkpt lat="47.33451" lon="-1.2874">
        <ele>53</ele>
        <time>2014-11-16T10:57:47.000Z</time>
      </trkpt>
      <trkpt lat="47.33453" lon="-1.28728">
        <ele>54</ele>
        <time>2014-11-16T10:57:51.000Z</time>
      </trkpt>
      <trkpt lat="47.33453" lon="-1.28728">
        <ele>54</ele>
        <time>2014-11-16T10:57:53.000Z</time>
      </trkpt>
      <trkpt lat="47.33453" lon="-1.28728">
        <ele>54</ele>
        <time>2014-11-16T10:57:56.000Z</time>
      </trkpt>
      <trkpt lat="47.33456" lon="-1.28719">
        <ele>55</ele>
        <time>2014-11-16T10:57:57.000Z</time>
      </trkpt>
      <trkpt lat="47.33456" lon="-1.28719">
        <ele>55</ele>
        <time>2014-11-16T10:57:59.000Z</time>
      </trkpt>
      <trkpt lat="47.33456" lon="-1.28719">
        <ele>55</ele>
        <time>2014-11-16T10:58:02.000Z</time>
      </trkpt>
      <trkpt lat="47.33457" lon="-1.28707">
        <ele>62</ele>
        <time>2014-11-16T10:58:03.000Z</time>
      </trkpt>
      <trkpt lat="47.33457" lon="-1.28707">
        <ele>62</ele>
        <time>2014-11-16T10:58:07.000Z</time>
      </trkpt>
      <trkpt lat="47.33457" lon="-1.28707">
        <ele>62</ele>
        <time>2014-11-16T10:58:09.000Z</time>
      </trkpt>
      <trkpt lat="47.33459" lon="-1.28698">
        <ele>62</ele>
        <time>2014-11-16T10:58:12.000Z</time>
      </trkpt>
      <trkpt lat="47.33461" lon="-1.28693">
        <ele>64</ele>
        <time>2014-11-16T10:58:16.000Z</time>
      </trkpt>
      <trkpt lat="47.33462" lon="-1.28688">
        <ele>64</ele>
        <time>2014-11-16T10:58:18.000Z</time>
      </trkpt>
      <trkpt lat="47.33463" lon="-1.28683">
        <ele>64</ele>
        <time>2014-11-16T10:58:19.000Z</time>
      </trkpt>
      <trkpt lat="47.33464" lon="-1.28678">
        <ele>64</ele>
        <time>2014-11-16T10:58:21.000Z</time>
      </trkpt>
      <trkpt lat="47.33466" lon="-1.28673">
        <ele>66</ele>
        <time>2014-11-16T10:58:23.000Z</time>
      </trkpt>
      <trkpt lat="47.33469" lon="-1.28662">
        <ele>65</ele>
        <time>2014-11-16T10:58:26.000Z</time>
      </trkpt>
      <trkpt lat="47.33472" lon="-1.28651">
        <ele>65</ele>
        <time>2014-11-16T10:58:29.000Z</time>
      </trkpt>
      <trkpt lat="47.33475" lon="-1.28641">
        <ele>66</ele>
        <time>2014-11-16T10:58:33.000Z</time>
      </trkpt>
      <trkpt lat="47.33477" lon="-1.2863">
        <ele>65</ele>
        <time>2014-11-16T10:58:37.000Z</time>
      </trkpt>
      <trkpt lat="47.33477" lon="-1.2863">
        <ele>65</ele>
        <time>2014-11-16T10:58:39.000Z</time>
      </trkpt>
      <trkpt lat="47.33477" lon="-1.2863">
        <ele>65</ele>
        <time>2014-11-16T10:58:41.000Z</time>
      </trkpt>
      <trkpt lat="47.33477" lon="-1.2863">
        <ele>65</ele>
        <time>2014-11-16T10:58:43.000Z</time>
      </trkpt>
      <trkpt lat="47.33477" lon="-1.2863">
        <ele>65</ele>
        <time>2014-11-16T10:58:45.000Z</time>
      </trkpt>
      <trkpt lat="47.3348" lon="-1.28621">
        <ele>66</ele>
        <time>2014-11-16T10:58:47.000Z</time>
      </trkpt>
      <trkpt lat="47.3348" lon="-1.28621">
        <ele>66</ele>
        <time>2014-11-16T10:58:50.000Z</time>
      </trkpt>
      <trkpt lat="47.3348" lon="-1.28621">
        <ele>66</ele>
        <time>2014-11-16T10:58:51.000Z</time>
      </trkpt>
      <trkpt lat="47.3348" lon="-1.28621">
        <ele>66</ele>
        <time>2014-11-16T10:58:53.000Z</time>
      </trkpt>
      <trkpt lat="47.33481" lon="-1.28612">
        <ele>70</ele>
        <time>2014-11-16T10:58:57.000Z</time>
      </trkpt>
      <trkpt lat="47.33482" lon="-1.28604">
        <ele>69</ele>
        <time>2014-11-16T10:59:01.000Z</time>
      </trkpt>
      <trkpt lat="47.33484" lon="-1.28593">
        <ele>70</ele>
        <time>2014-11-16T10:59:05.000Z</time>
      </trkpt>
      <trkpt lat="47.33488" lon="-1.28579">
        <ele>68</ele>
        <time>2014-11-16T10:59:10.000Z</time>
      </trkpt>
      <trkpt lat="47.33492" lon="-1.28565">
        <ele>68</ele>
        <time>2014-11-16T10:59:13.000Z</time>
      </trkpt>
      <trkpt lat="47.33497" lon="-1.28551">
        <ele>64</ele>
        <time>2014-11-16T10:59:18.000Z</time>
      </trkpt>
      <trkpt lat="47.33497" lon="-1.28551">
        <ele>64</ele>
        <time>2014-11-16T10:59:19.000Z</time>
      </trkpt>
      <trkpt lat="47.33498" lon="-1.28539">
        <ele>63</ele>
        <time>2014-11-16T10:59:21.000Z</time>
      </trkpt>
      <trkpt lat="47.33498" lon="-1.28539">
        <ele>63</ele>
        <time>2014-11-16T10:59:24.000Z</time>
      </trkpt>
      <trkpt lat="47.33502" lon="-1.28527">
        <ele>65</ele>
        <time>2014-11-16T10:59:26.000Z</time>
      </trkpt>
      <trkpt lat="47.33502" lon="-1.28527">
        <ele>65</ele>
        <time>2014-11-16T10:59:27.000Z</time>
      </trkpt>
      <trkpt lat="47.33507" lon="-1.28513">
        <ele>67</ele>
        <time>2014-11-16T10:59:29.000Z</time>
      </trkpt>
      <trkpt lat="47.33514" lon="-1.28497">
        <ele>66</ele>
        <time>2014-11-16T10:59:34.000Z</time>
      </trkpt>
      <trkpt lat="47.3352" lon="-1.28482">
        <ele>66</ele>
        <time>2014-11-16T10:59:37.000Z</time>
      </trkpt>
      <trkpt lat="47.3352" lon="-1.28482">
        <ele>66</ele>
        <time>2014-11-16T10:59:39.000Z</time>
      </trkpt>
      <trkpt lat="47.3352" lon="-1.28472">
        <ele>66</ele>
        <time>2014-11-16T10:59:41.000Z</time>
      </trkpt>
      <trkpt lat="47.3352" lon="-1.28472">
        <ele>66</ele>
        <time>2014-11-16T10:59:43.000Z</time>
      </trkpt>
      <trkpt lat="47.33523" lon="-1.28461">
        <ele>69</ele>
        <time>2014-11-16T10:59:45.000Z</time>
      </trkpt>
      <trkpt lat="47.33523" lon="-1.28461">
        <ele>69</ele>
        <time>2014-11-16T10:59:48.000Z</time>
      </trkpt>
      <trkpt lat="47.33529" lon="-1.2845">
        <ele>75</ele>
        <time>2014-11-16T10:59:49.000Z</time>
      </trkpt>
      <trkpt lat="47.33532" lon="-1.28438">
        <ele>74</ele>
        <time>2014-11-16T10:59:54.000Z</time>
      </trkpt>
      <trkpt lat="47.33535" lon="-1.28425">
        <ele>73</ele>
        <time>2014-11-16T10:59:57.000Z</time>
      </trkpt>
      <trkpt lat="47.33535" lon="-1.28425">
        <ele>73</ele>
        <time>2014-11-16T10:59:59.000Z</time>
      </trkpt>
      <trkpt lat="47.33533" lon="-1.28416">
        <ele>67</ele>
        <time>2014-11-16T11:00:01.000Z</time>
      </trkpt>
      <trkpt lat="47.33533" lon="-1.28416">
        <ele>67</ele>
        <time>2014-11-16T11:00:03.000Z</time>
      </trkpt>
      <trkpt lat="47.33532" lon="-1.28406">
        <ele>67</ele>
        <time>2014-11-16T11:00:06.000Z</time>
      </trkpt>
      <trkpt lat="47.33534" lon="-1.28399">
        <ele>66</ele>
        <time>2014-11-16T11:00:07.000Z</time>
      </trkpt>
      <trkpt lat="47.33539" lon="-1.28391">
        <ele>64</ele>
        <time>2014-11-16T11:00:11.000Z</time>
      </trkpt>
      <trkpt lat="47.33539" lon="-1.28391">
        <ele>64</ele>
        <time>2014-11-16T11:00:14.000Z</time>
      </trkpt>
      <trkpt lat="47.33539" lon="-1.28391">
        <ele>64</ele>
        <time>2014-11-16T11:00:15.000Z</time>
      </trkpt>
      <trkpt lat="47.33542" lon="-1.28384">
        <ele>64</ele>
        <time>2014-11-16T11:00:17.000Z</time>
      </trkpt>
      <trkpt lat="47.33544" lon="-1.28375">
        <ele>64</ele>
        <time>2014-11-16T11:00:19.000Z</time>
      </trkpt>
      <trkpt lat="47.33546" lon="-1.28364">
        <ele>64</ele>
        <time>2014-11-16T11:00:21.000Z</time>
      </trkpt>
      <trkpt lat="47.33546" lon="-1.28345">
        <ele>67</ele>
        <time>2014-11-16T11:00:24.000Z</time>
      </trkpt>
      <trkpt lat="47.33547" lon="-1.28329">
        <ele>67</ele>
        <time>2014-11-16T11:00:26.000Z</time>
      </trkpt>
      <trkpt lat="47.33547" lon="-1.28303">
        <ele>68</ele>
        <time>2014-11-16T11:00:29.000Z</time>
      </trkpt>
      <trkpt lat="47.33547" lon="-1.28303">
        <ele>68</ele>
        <time>2014-11-16T11:00:30.000Z</time>
      </trkpt>
      <trkpt lat="47.33548" lon="-1.28288">
        <ele>67</ele>
        <time>2014-11-16T11:00:32.000Z</time>
      </trkpt>
      <trkpt lat="47.33548" lon="-1.28288">
        <ele>67</ele>
        <time>2014-11-16T11:00:34.000Z</time>
      </trkpt>
      <trkpt lat="47.33553" lon="-1.28272">
        <ele>64</ele>
        <time>2014-11-16T11:00:37.000Z</time>
      </trkpt>
      <trkpt lat="47.33556" lon="-1.28264">
        <ele>64</ele>
        <time>2014-11-16T11:00:39.000Z</time>
      </trkpt>
      <trkpt lat="47.33558" lon="-1.28255">
        <ele>64</ele>
        <time>2014-11-16T11:00:41.000Z</time>
      </trkpt>
      <trkpt lat="47.33561" lon="-1.28246">
        <ele>65</ele>
        <time>2014-11-16T11:00:42.000Z</time>
      </trkpt>
      <trkpt lat="47.33563" lon="-1.28236">
        <ele>64</ele>
        <time>2014-11-16T11:00:45.000Z</time>
      </trkpt>
      <trkpt lat="47.33566" lon="-1.28226">
        <ele>64</ele>
        <time>2014-11-16T11:00:46.000Z</time>
      </trkpt>
      <trkpt lat="47.33568" lon="-1.28216">
        <ele>65</ele>
        <time>2014-11-16T11:00:48.000Z</time>
      </trkpt>
      <trkpt lat="47.33571" lon="-1.28207">
        <ele>65</ele>
        <time>2014-11-16T11:00:51.000Z</time>
      </trkpt>
      <trkpt lat="47.33575" lon="-1.28198">
        <ele>68</ele>
        <time>2014-11-16T11:00:52.000Z</time>
      </trkpt>
      <trkpt lat="47.33578" lon="-1.2819">
        <ele>68</ele>
        <time>2014-11-16T11:00:54.000Z</time>
      </trkpt>
      <trkpt lat="47.33578" lon="-1.2819">
        <ele>68</ele>
        <time>2014-11-16T11:00:56.000Z</time>
      </trkpt>
      <trkpt lat="47.33581" lon="-1.28175">
        <ele>67</ele>
        <time>2014-11-16T11:00:59.000Z</time>
      </trkpt>
      <trkpt lat="47.33583" lon="-1.28166">
        <ele>67</ele>
        <time>2014-11-16T11:01:01.000Z</time>
      </trkpt>
      <trkpt lat="47.33587" lon="-1.28158">
        <ele>68</ele>
        <time>2014-11-16T11:01:03.000Z</time>
      </trkpt>
      <trkpt lat="47.33587" lon="-1.28158">
        <ele>68</ele>
        <time>2014-11-16T11:01:04.000Z</time>
      </trkpt>
      <trkpt lat="47.33593" lon="-1.28145">
        <ele>69</ele>
        <time>2014-11-16T11:01:06.000Z</time>
      </trkpt>
      <trkpt lat="47.33596" lon="-1.28138">
        <ele>70</ele>
        <time>2014-11-16T11:01:08.000Z</time>
      </trkpt>
      <trkpt lat="47.33596" lon="-1.28138">
        <ele>70</ele>
        <time>2014-11-16T11:01:10.000Z</time>
      </trkpt>
      <trkpt lat="47.33602" lon="-1.28125">
        <ele>72</ele>
        <time>2014-11-16T11:01:12.000Z</time>
      </trkpt>
      <trkpt lat="47.33604" lon="-1.28117">
        <ele>72</ele>
        <time>2014-11-16T11:01:14.000Z</time>
      </trkpt>
      <trkpt lat="47.33607" lon="-1.28108">
        <ele>71</ele>
        <time>2014-11-16T11:01:16.000Z</time>
      </trkpt>
      <trkpt lat="47.33611" lon="-1.28099">
        <ele>71</ele>
        <time>2014-11-16T11:01:18.000Z</time>
      </trkpt>
      <trkpt lat="47.33614" lon="-1.2809">
        <ele>71</ele>
        <time>2014-11-16T11:01:20.000Z</time>
      </trkpt>
      <trkpt lat="47.33617" lon="-1.28081">
        <ele>71</ele>
        <time>2014-11-16T11:01:22.000Z</time>
      </trkpt>
      <trkpt lat="47.33621" lon="-1.28073">
        <ele>70</ele>
        <time>2014-11-16T11:01:25.000Z</time>
      </trkpt>
      <trkpt lat="47.33624" lon="-1.28063">
        <ele>67</ele>
        <time>2014-11-16T11:01:26.000Z</time>
      </trkpt>
      <trkpt lat="47.33628" lon="-1.28054">
        <ele>66</ele>
        <time>2014-11-16T11:01:28.000Z</time>
      </trkpt>
      <trkpt lat="47.33631" lon="-1.28044">
        <ele>65</ele>
        <time>2014-11-16T11:01:30.000Z</time>
      </trkpt>
      <trkpt lat="47.33634" lon="-1.28035">
        <ele>65</ele>
        <time>2014-11-16T11:01:33.000Z</time>
      </trkpt>
      <trkpt lat="47.33638" lon="-1.28025">
        <ele>64</ele>
        <time>2014-11-16T11:01:35.000Z</time>
      </trkpt>
      <trkpt lat="47.33642" lon="-1.28014">
        <ele>65</ele>
        <time>2014-11-16T11:01:37.000Z</time>
      </trkpt>
      <trkpt lat="47.33646" lon="-1.28004">
        <ele>64</ele>
        <time>2014-11-16T11:01:39.000Z</time>
      </trkpt>
      <trkpt lat="47.3365" lon="-1.27995">
        <ele>64</ele>
        <time>2014-11-16T11:01:41.000Z</time>
      </trkpt>
      <trkpt lat="47.33654" lon="-1.27986">
        <ele>64</ele>
        <time>2014-11-16T11:01:42.000Z</time>
      </trkpt>
      <trkpt lat="47.33657" lon="-1.27979">
        <ele>63</ele>
        <time>2014-11-16T11:01:44.000Z</time>
      </trkpt>
      <trkpt lat="47.33661" lon="-1.2797">
        <ele>62</ele>
        <time>2014-11-16T11:01:46.000Z</time>
      </trkpt>
      <trkpt lat="47.33665" lon="-1.27962">
        <ele>62</ele>
        <time>2014-11-16T11:01:49.000Z</time>
      </trkpt>
      <trkpt lat="47.33668" lon="-1.27953">
        <ele>61</ele>
        <time>2014-11-16T11:01:51.000Z</time>
      </trkpt>
      <trkpt lat="47.33671" lon="-1.27945">
        <ele>61</ele>
        <time>2014-11-16T11:01:52.000Z</time>
      </trkpt>
      <trkpt lat="47.33673" lon="-1.27938">
        <ele>61</ele>
        <time>2014-11-16T11:01:54.000Z</time>
      </trkpt>
      <trkpt lat="47.33677" lon="-1.27931">
        <ele>62</ele>
        <time>2014-11-16T11:01:56.000Z</time>
      </trkpt>
      <trkpt lat="47.3368" lon="-1.27924">
        <ele>63</ele>
        <time>2014-11-16T11:01:58.000Z</time>
      </trkpt>
      <trkpt lat="47.33684" lon="-1.27917">
        <ele>61</ele>
        <time>2014-11-16T11:02:01.000Z</time>
      </trkpt>
      <trkpt lat="47.33691" lon="-1.27904">
        <ele>62</ele>
        <time>2014-11-16T11:02:04.000Z</time>
      </trkpt>
      <trkpt lat="47.33694" lon="-1.27896">
        <ele>62</ele>
        <time>2014-11-16T11:02:06.000Z</time>
      </trkpt>
      <trkpt lat="47.33694" lon="-1.27896">
        <ele>62</ele>
        <time>2014-11-16T11:02:08.000Z</time>
      </trkpt>
      <trkpt lat="47.33699" lon="-1.27882">
        <ele>60</ele>
        <time>2014-11-16T11:02:10.000Z</time>
      </trkpt>
      <trkpt lat="47.33699" lon="-1.27882">
        <ele>60</ele>
        <time>2014-11-16T11:02:12.000Z</time>
      </trkpt>
      <trkpt lat="47.33704" lon="-1.27868">
        <ele>60</ele>
        <time>2014-11-16T11:02:14.000Z</time>
      </trkpt>
      <trkpt lat="47.33709" lon="-1.27854">
        <ele>61</ele>
        <time>2014-11-16T11:02:19.000Z</time>
      </trkpt>
      <trkpt lat="47.33713" lon="-1.27847">
        <ele>59</ele>
        <time>2014-11-16T11:02:20.000Z</time>
      </trkpt>
      <trkpt lat="47.33716" lon="-1.27839">
        <ele>60</ele>
        <time>2014-11-16T11:02:23.000Z</time>
      </trkpt>
      <trkpt lat="47.33719" lon="-1.27831">
        <ele>60</ele>
        <time>2014-11-16T11:02:24.000Z</time>
      </trkpt>
      <trkpt lat="47.33719" lon="-1.27831">
        <ele>60</ele>
        <time>2014-11-16T11:02:27.000Z</time>
      </trkpt>
      <trkpt lat="47.33724" lon="-1.27817">
        <ele>60</ele>
        <time>2014-11-16T11:02:29.000Z</time>
      </trkpt>
      <trkpt lat="47.33727" lon="-1.2781">
        <ele>59</ele>
        <time>2014-11-16T11:02:30.000Z</time>
      </trkpt>
      <trkpt lat="47.3373" lon="-1.27802">
        <ele>59</ele>
        <time>2014-11-16T11:02:32.000Z</time>
      </trkpt>
      <trkpt lat="47.33733" lon="-1.27794">
        <ele>60</ele>
        <time>2014-11-16T11:02:34.000Z</time>
      </trkpt>
      <trkpt lat="47.33736" lon="-1.27786">
        <ele>59</ele>
        <time>2014-11-16T11:02:36.000Z</time>
      </trkpt>
      <trkpt lat="47.33739" lon="-1.27778">
        <ele>59</ele>
        <time>2014-11-16T11:02:38.000Z</time>
      </trkpt>
      <trkpt lat="47.33742" lon="-1.27769">
        <ele>59</ele>
        <time>2014-11-16T11:02:40.000Z</time>
      </trkpt>
      <trkpt lat="47.33742" lon="-1.27769">
        <ele>59</ele>
        <time>2014-11-16T11:02:43.000Z</time>
      </trkpt>
      <trkpt lat="47.33749" lon="-1.27759">
        <ele>60</ele>
        <time>2014-11-16T11:02:44.000Z</time>
      </trkpt>
      <trkpt lat="47.33755" lon="-1.27759">
        <ele>60</ele>
        <time>2014-11-16T11:02:47.000Z</time>
      </trkpt>
      <trkpt lat="47.33763" lon="-1.2776">
        <ele>59</ele>
        <time>2014-11-16T11:02:48.000Z</time>
      </trkpt>
      <trkpt lat="47.33771" lon="-1.27762">
        <ele>59</ele>
        <time>2014-11-16T11:02:50.000Z</time>
      </trkpt>
      <trkpt lat="47.33782" lon="-1.27767">
        <ele>57</ele>
        <time>2014-11-16T11:02:53.000Z</time>
      </trkpt>
      <trkpt lat="47.33792" lon="-1.2777">
        <ele>56</ele>
        <time>2014-11-16T11:02:55.000Z</time>
      </trkpt>
      <trkpt lat="47.338" lon="-1.27773">
        <ele>56</ele>
        <time>2014-11-16T11:02:56.000Z</time>
      </trkpt>
      <trkpt lat="47.33808" lon="-1.27775">
        <ele>57</ele>
        <time>2014-11-16T11:02:59.000Z</time>
      </trkpt>
      <trkpt lat="47.33815" lon="-1.27778">
        <ele>57</ele>
        <time>2014-11-16T11:03:00.000Z</time>
      </trkpt>
      <trkpt lat="47.33823" lon="-1.27782">
        <ele>57</ele>
        <time>2014-11-16T11:03:02.000Z</time>
      </trkpt>
      <trkpt lat="47.33831" lon="-1.27784">
        <ele>58</ele>
        <time>2014-11-16T11:03:04.000Z</time>
      </trkpt>
      <trkpt lat="47.33839" lon="-1.27785">
        <ele>59</ele>
        <time>2014-11-16T11:03:07.000Z</time>
      </trkpt>
      <trkpt lat="47.33846" lon="-1.27786">
        <ele>59</ele>
        <time>2014-11-16T11:03:08.000Z</time>
      </trkpt>
      <trkpt lat="47.33852" lon="-1.27788">
        <ele>58</ele>
        <time>2014-11-16T11:03:11.000Z</time>
      </trkpt>
      <trkpt lat="47.33859" lon="-1.27791">
        <ele>59</ele>
        <time>2014-11-16T11:03:12.000Z</time>
      </trkpt>
      <trkpt lat="47.33868" lon="-1.27794">
        <ele>58</ele>
        <time>2014-11-16T11:03:14.000Z</time>
      </trkpt>
      <trkpt lat="47.33875" lon="-1.27797">
        <ele>58</ele>
        <time>2014-11-16T11:03:16.000Z</time>
      </trkpt>
      <trkpt lat="47.33875" lon="-1.27797">
        <ele>58</ele>
        <time>2014-11-16T11:03:18.000Z</time>
      </trkpt>
      <trkpt lat="47.33879" lon="-1.27811">
        <ele>55</ele>
        <time>2014-11-16T11:03:21.000Z</time>
      </trkpt>
      <trkpt lat="47.33878" lon="-1.27823">
        <ele>55</ele>
        <time>2014-11-16T11:03:22.000Z</time>
      </trkpt>
      <trkpt lat="47.33876" lon="-1.27841">
        <ele>55</ele>
        <time>2014-11-16T11:03:25.000Z</time>
      </trkpt>
      <trkpt lat="47.33875" lon="-1.27856">
        <ele>57</ele>
        <time>2014-11-16T11:03:27.000Z</time>
      </trkpt>
      <trkpt lat="47.33874" lon="-1.27869">
        <ele>57</ele>
        <time>2014-11-16T11:03:29.000Z</time>
      </trkpt>
      <trkpt lat="47.33872" lon="-1.27882">
        <ele>56</ele>
        <time>2014-11-16T11:03:30.000Z</time>
      </trkpt>
      <trkpt lat="47.33875" lon="-1.27895">
        <ele>59</ele>
        <time>2014-11-16T11:03:32.000Z</time>
      </trkpt>
      <trkpt lat="47.33875" lon="-1.27909">
        <ele>58</ele>
        <time>2014-11-16T11:03:35.000Z</time>
      </trkpt>
      <trkpt lat="47.33874" lon="-1.27924">
        <ele>59</ele>
        <time>2014-11-16T11:03:36.000Z</time>
      </trkpt>
      <trkpt lat="47.33874" lon="-1.27938">
        <ele>58</ele>
        <time>2014-11-16T11:03:38.000Z</time>
      </trkpt>
      <trkpt lat="47.33875" lon="-1.27954">
        <ele>58</ele>
        <time>2014-11-16T11:03:40.000Z</time>
      </trkpt>
      <trkpt lat="47.33876" lon="-1.27971">
        <ele>58</ele>
        <time>2014-11-16T11:03:43.000Z</time>
      </trkpt>
      <trkpt lat="47.33874" lon="-1.27987">
        <ele>59</ele>
        <time>2014-11-16T11:03:44.000Z</time>
      </trkpt>
      <trkpt lat="47.33874" lon="-1.28">
        <ele>57</ele>
        <time>2014-11-16T11:03:47.000Z</time>
      </trkpt>
      <trkpt lat="47.33873" lon="-1.28018">
        <ele>58</ele>
        <time>2014-11-16T11:03:49.000Z</time>
      </trkpt>
      <trkpt lat="47.33872" lon="-1.28035">
        <ele>56</ele>
        <time>2014-11-16T11:03:51.000Z</time>
      </trkpt>
      <trkpt lat="47.3387" lon="-1.28048">
        <ele>55</ele>
        <time>2014-11-16T11:03:53.000Z</time>
      </trkpt>
      <trkpt lat="47.33869" lon="-1.28065">
        <ele>54</ele>
        <time>2014-11-16T11:03:54.000Z</time>
      </trkpt>
      <trkpt lat="47.33867" lon="-1.28079">
        <ele>53</ele>
        <time>2014-11-16T11:03:57.000Z</time>
      </trkpt>
      <trkpt lat="47.33864" lon="-1.28094">
        <ele>54</ele>
        <time>2014-11-16T11:03:59.000Z</time>
      </trkpt>
      <trkpt lat="47.33863" lon="-1.28109">
        <ele>53</ele>
        <time>2014-11-16T11:04:01.000Z</time>
      </trkpt>
      <trkpt lat="47.33861" lon="-1.28124">
        <ele>53</ele>
        <time>2014-11-16T11:04:03.000Z</time>
      </trkpt>
      <trkpt lat="47.33858" lon="-1.28138">
        <ele>53</ele>
        <time>2014-11-16T11:04:04.000Z</time>
      </trkpt>
      <trkpt lat="47.33857" lon="-1.28153">
        <ele>52</ele>
        <time>2014-11-16T11:04:07.000Z</time>
      </trkpt>
      <trkpt lat="47.33855" lon="-1.28166">
        <ele>53</ele>
        <time>2014-11-16T11:04:09.000Z</time>
      </trkpt>
      <trkpt lat="47.33851" lon="-1.28181">
        <ele>51</ele>
        <time>2014-11-16T11:04:11.000Z</time>
      </trkpt>
      <trkpt lat="47.33849" lon="-1.28196">
        <ele>51</ele>
        <time>2014-11-16T11:04:12.000Z</time>
      </trkpt>
      <trkpt lat="47.33847" lon="-1.28209">
        <ele>52</ele>
        <time>2014-11-16T11:04:15.000Z</time>
      </trkpt>
      <trkpt lat="47.33844" lon="-1.28224">
        <ele>51</ele>
        <time>2014-11-16T11:04:16.000Z</time>
      </trkpt>
      <trkpt lat="47.33841" lon="-1.28237">
        <ele>51</ele>
        <time>2014-11-16T11:04:18.000Z</time>
      </trkpt>
      <trkpt lat="47.33839" lon="-1.28251">
        <ele>51</ele>
        <time>2014-11-16T11:04:20.000Z</time>
      </trkpt>
      <trkpt lat="47.33836" lon="-1.28266">
        <ele>51</ele>
        <time>2014-11-16T11:04:22.000Z</time>
      </trkpt>
      <trkpt lat="47.33834" lon="-1.28283">
        <ele>51</ele>
        <time>2014-11-16T11:04:25.000Z</time>
      </trkpt>
      <trkpt lat="47.33831" lon="-1.28294">
        <ele>49</ele>
        <time>2014-11-16T11:04:26.000Z</time>
      </trkpt>
      <trkpt lat="47.33829" lon="-1.28308">
        <ele>49</ele>
        <time>2014-11-16T11:04:28.000Z</time>
      </trkpt>
      <trkpt lat="47.33826" lon="-1.28322">
        <ele>50</ele>
        <time>2014-11-16T11:04:31.000Z</time>
      </trkpt>
      <trkpt lat="47.33824" lon="-1.28336">
        <ele>51</ele>
        <time>2014-11-16T11:04:32.000Z</time>
      </trkpt>
      <trkpt lat="47.33823" lon="-1.28348">
        <ele>51</ele>
        <time>2014-11-16T11:04:35.000Z</time>
      </trkpt>
      <trkpt lat="47.3382" lon="-1.28363">
        <ele>51</ele>
        <time>2014-11-16T11:04:36.000Z</time>
      </trkpt>
      <trkpt lat="47.33818" lon="-1.28376">
        <ele>50</ele>
        <time>2014-11-16T11:04:39.000Z</time>
      </trkpt>
      <trkpt lat="47.33818" lon="-1.28391">
        <ele>50</ele>
        <time>2014-11-16T11:04:40.000Z</time>
      </trkpt>
      <trkpt lat="47.33813" lon="-1.28403">
        <ele>49</ele>
        <time>2014-11-16T11:04:43.000Z</time>
      </trkpt>
      <trkpt lat="47.33812" lon="-1.28418">
        <ele>48</ele>
        <time>2014-11-16T11:04:44.000Z</time>
      </trkpt>
      <trkpt lat="47.3381" lon="-1.28432">
        <ele>48</ele>
        <time>2014-11-16T11:04:46.000Z</time>
      </trkpt>
      <trkpt lat="47.33809" lon="-1.28447">
        <ele>49</ele>
        <time>2014-11-16T11:04:48.000Z</time>
      </trkpt>
      <trkpt lat="47.33809" lon="-1.28462">
        <ele>49</ele>
        <time>2014-11-16T11:04:51.000Z</time>
      </trkpt>
      <trkpt lat="47.33806" lon="-1.28475">
        <ele>49</ele>
        <time>2014-11-16T11:04:52.000Z</time>
      </trkpt>
      <trkpt lat="47.33805" lon="-1.28489">
        <ele>48</ele>
        <time>2014-11-16T11:04:55.000Z</time>
      </trkpt>
      <trkpt lat="47.33805" lon="-1.28501">
        <ele>47</ele>
        <time>2014-11-16T11:04:56.000Z</time>
      </trkpt>
      <trkpt lat="47.33805" lon="-1.28513">
        <ele>44</ele>
        <time>2014-11-16T11:04:58.000Z</time>
      </trkpt>
      <trkpt lat="47.33803" lon="-1.28526">
        <ele>43</ele>
        <time>2014-11-16T11:05:00.000Z</time>
      </trkpt>
      <trkpt lat="47.33803" lon="-1.28537">
        <ele>43</ele>
        <time>2014-11-16T11:05:02.000Z</time>
      </trkpt>
      <trkpt lat="47.33805" lon="-1.2855">
        <ele>41</ele>
        <time>2014-11-16T11:05:05.000Z</time>
      </trkpt>
      <trkpt lat="47.33814" lon="-1.28562">
        <ele>42</ele>
        <time>2014-11-16T11:05:06.000Z</time>
      </trkpt>
      <trkpt lat="47.33818" lon="-1.28576">
        <ele>44</ele>
        <time>2014-11-16T11:05:08.000Z</time>
      </trkpt>
      <trkpt lat="47.33813" lon="-1.28585">
        <ele>47</ele>
        <time>2014-11-16T11:05:10.000Z</time>
      </trkpt>
      <trkpt lat="47.33806" lon="-1.28591">
        <ele>50</ele>
        <time>2014-11-16T11:05:13.000Z</time>
      </trkpt>
      <trkpt lat="47.33801" lon="-1.28603">
        <ele>51</ele>
        <time>2014-11-16T11:05:14.000Z</time>
      </trkpt>
      <trkpt lat="47.33795" lon="-1.28611">
        <ele>55</ele>
        <time>2014-11-16T11:05:16.000Z</time>
      </trkpt>
      <trkpt lat="47.33792" lon="-1.28624">
        <ele>56</ele>
        <time>2014-11-16T11:05:18.000Z</time>
      </trkpt>
      <trkpt lat="47.33794" lon="-1.28639">
        <ele>58</ele>
        <time>2014-11-16T11:05:21.000Z</time>
      </trkpt>
      <trkpt lat="47.33794" lon="-1.28654">
        <ele>60</ele>
        <time>2014-11-16T11:05:22.000Z</time>
      </trkpt>
      <trkpt lat="47.33792" lon="-1.28668">
        <ele>62</ele>
        <time>2014-11-16T11:05:24.000Z</time>
      </trkpt>
      <trkpt lat="47.33788" lon="-1.2868">
        <ele>63</ele>
        <time>2014-11-16T11:05:26.000Z</time>
      </trkpt>
      <trkpt lat="47.33784" lon="-1.28695">
        <ele>62</ele>
        <time>2014-11-16T11:05:29.000Z</time>
      </trkpt>
      <trkpt lat="47.33781" lon="-1.2871">
        <ele>62</ele>
        <time>2014-11-16T11:05:31.000Z</time>
      </trkpt>
      <trkpt lat="47.33782" lon="-1.28727">
        <ele>60</ele>
        <time>2014-11-16T11:05:33.000Z</time>
      </trkpt>
      <trkpt lat="47.33781" lon="-1.28745">
        <ele>60</ele>
        <time>2014-11-16T11:05:35.000Z</time>
      </trkpt>
      <trkpt lat="47.33781" lon="-1.28761">
        <ele>60</ele>
        <time>2014-11-16T11:05:37.000Z</time>
      </trkpt>
      <trkpt lat="47.3378" lon="-1.28776">
        <ele>62</ele>
        <time>2014-11-16T11:05:39.000Z</time>
      </trkpt>
      <trkpt lat="47.33778" lon="-1.28791">
        <ele>62</ele>
        <time>2014-11-16T11:05:40.000Z</time>
      </trkpt>
      <trkpt lat="47.33776" lon="-1.28803">
        <ele>61</ele>
        <time>2014-11-16T11:05:42.000Z</time>
      </trkpt>
      <trkpt lat="47.33775" lon="-1.2882">
        <ele>61</ele>
        <time>2014-11-16T11:05:45.000Z</time>
      </trkpt>
      <trkpt lat="47.33774" lon="-1.28838">
        <ele>59</ele>
        <time>2014-11-16T11:05:47.000Z</time>
      </trkpt>
      <trkpt lat="47.33775" lon="-1.28858">
        <ele>60</ele>
        <time>2014-11-16T11:05:48.000Z</time>
      </trkpt>
      <trkpt lat="47.33777" lon="-1.28872">
        <ele>58</ele>
        <time>2014-11-16T11:05:50.000Z</time>
      </trkpt>
      <trkpt lat="47.33775" lon="-1.28888">
        <ele>59</ele>
        <time>2014-11-16T11:05:53.000Z</time>
      </trkpt>
      <trkpt lat="47.33768" lon="-1.28902">
        <ele>59</ele>
        <time>2014-11-16T11:05:54.000Z</time>
      </trkpt>
      <trkpt lat="47.33763" lon="-1.28913">
        <ele>62</ele>
        <time>2014-11-16T11:05:57.000Z</time>
      </trkpt>
      <trkpt lat="47.33763" lon="-1.28929">
        <ele>61</ele>
        <time>2014-11-16T11:05:59.000Z</time>
      </trkpt>
      <trkpt lat="47.33762" lon="-1.2894">
        <ele>61</ele>
        <time>2014-11-16T11:06:01.000Z</time>
      </trkpt>
      <trkpt lat="47.33757" lon="-1.28953">
        <ele>62</ele>
        <time>2014-11-16T11:06:03.000Z</time>
      </trkpt>
      <trkpt lat="47.3376" lon="-1.28971">
        <ele>62</ele>
        <time>2014-11-16T11:06:05.000Z</time>
      </trkpt>
      <trkpt lat="47.33755" lon="-1.28987">
        <ele>62</ele>
        <time>2014-11-16T11:06:07.000Z</time>
      </trkpt>
      <trkpt lat="47.33755" lon="-1.29005">
        <ele>61</ele>
        <time>2014-11-16T11:06:09.000Z</time>
      </trkpt>
      <trkpt lat="47.33754" lon="-1.29019">
        <ele>59</ele>
        <time>2014-11-16T11:06:10.000Z</time>
      </trkpt>
      <trkpt lat="47.33753" lon="-1.29034">
        <ele>58</ele>
        <time>2014-11-16T11:06:13.000Z</time>
      </trkpt>
      <trkpt lat="47.33751" lon="-1.29048">
        <ele>59</ele>
        <time>2014-11-16T11:06:14.000Z</time>
      </trkpt>
      <trkpt lat="47.33751" lon="-1.29063">
        <ele>58</ele>
        <time>2014-11-16T11:06:16.000Z</time>
      </trkpt>
      <trkpt lat="47.33749" lon="-1.29078">
        <ele>58</ele>
        <time>2014-11-16T11:06:19.000Z</time>
      </trkpt>
      <trkpt lat="47.33751" lon="-1.29093">
        <ele>57</ele>
        <time>2014-11-16T11:06:21.000Z</time>
      </trkpt>
      <trkpt lat="47.33751" lon="-1.29108">
        <ele>56</ele>
        <time>2014-11-16T11:06:23.000Z</time>
      </trkpt>
      <trkpt lat="47.33751" lon="-1.29125">
        <ele>55</ele>
        <time>2014-11-16T11:06:24.000Z</time>
      </trkpt>
      <trkpt lat="47.33751" lon="-1.2914">
        <ele>55</ele>
        <time>2014-11-16T11:06:27.000Z</time>
      </trkpt>
      <trkpt lat="47.3375" lon="-1.29155">
        <ele>53</ele>
        <time>2014-11-16T11:06:28.000Z</time>
      </trkpt>
      <trkpt lat="47.33745" lon="-1.2917">
        <ele>54</ele>
        <time>2014-11-16T11:06:30.000Z</time>
      </trkpt>
      <trkpt lat="47.33742" lon="-1.29186">
        <ele>54</ele>
        <time>2014-11-16T11:06:32.000Z</time>
      </trkpt>
      <trkpt lat="47.33738" lon="-1.29198">
        <ele>53</ele>
        <time>2014-11-16T11:06:35.000Z</time>
      </trkpt>
      <trkpt lat="47.33735" lon="-1.29212">
        <ele>52</ele>
        <time>2014-11-16T11:06:37.000Z</time>
      </trkpt>
      <trkpt lat="47.33733" lon="-1.29228">
        <ele>53</ele>
        <time>2014-11-16T11:06:39.000Z</time>
      </trkpt>
      <trkpt lat="47.3373" lon="-1.29244">
        <ele>52</ele>
        <time>2014-11-16T11:06:41.000Z</time>
      </trkpt>
      <trkpt lat="47.33727" lon="-1.29259">
        <ele>51</ele>
        <time>2014-11-16T11:06:43.000Z</time>
      </trkpt>
      <trkpt lat="47.33722" lon="-1.29272">
        <ele>50</ele>
        <time>2014-11-16T11:06:44.000Z</time>
      </trkpt>
      <trkpt lat="47.33717" lon="-1.29287">
        <ele>52</ele>
        <time>2014-11-16T11:06:46.000Z</time>
      </trkpt>
      <trkpt lat="47.33713" lon="-1.29299">
        <ele>53</ele>
        <time>2014-11-16T11:06:49.000Z</time>
      </trkpt>
      <trkpt lat="47.33709" lon="-1.29312">
        <ele>53</ele>
        <time>2014-11-16T11:06:51.000Z</time>
      </trkpt>
      <trkpt lat="47.33704" lon="-1.29327">
        <ele>53</ele>
        <time>2014-11-16T11:06:53.000Z</time>
      </trkpt>
      <trkpt lat="47.337" lon="-1.29341">
        <ele>52</ele>
        <time>2014-11-16T11:06:55.000Z</time>
      </trkpt>
      <trkpt lat="47.33696" lon="-1.29354">
        <ele>53</ele>
        <time>2014-11-16T11:06:57.000Z</time>
      </trkpt>
      <trkpt lat="47.33691" lon="-1.2937">
        <ele>53</ele>
        <time>2014-11-16T11:06:58.000Z</time>
      </trkpt>
      <trkpt lat="47.33686" lon="-1.29385">
        <ele>54</ele>
        <time>2014-11-16T11:07:01.000Z</time>
      </trkpt>
      <trkpt lat="47.33681" lon="-1.294">
        <ele>54</ele>
        <time>2014-11-16T11:07:03.000Z</time>
      </trkpt>
      <trkpt lat="47.33676" lon="-1.29413">
        <ele>55</ele>
        <time>2014-11-16T11:07:05.000Z</time>
      </trkpt>
      <trkpt lat="47.33671" lon="-1.29427">
        <ele>55</ele>
        <time>2014-11-16T11:07:07.000Z</time>
      </trkpt>
      <trkpt lat="47.33667" lon="-1.29439">
        <ele>58</ele>
        <time>2014-11-16T11:07:09.000Z</time>
      </trkpt>
      <trkpt lat="47.33662" lon="-1.29451">
        <ele>58</ele>
        <time>2014-11-16T11:07:11.000Z</time>
      </trkpt>
      <trkpt lat="47.33657" lon="-1.29463">
        <ele>57</ele>
        <time>2014-11-16T11:07:13.000Z</time>
      </trkpt>
      <trkpt lat="47.33655" lon="-1.29478">
        <ele>57</ele>
        <time>2014-11-16T11:07:15.000Z</time>
      </trkpt>
      <trkpt lat="47.33652" lon="-1.29494">
        <ele>56</ele>
        <time>2014-11-16T11:07:16.000Z</time>
      </trkpt>
      <trkpt lat="47.3365" lon="-1.29508">
        <ele>57</ele>
        <time>2014-11-16T11:07:18.000Z</time>
      </trkpt>
      <trkpt lat="47.33648" lon="-1.29522">
        <ele>57</ele>
        <time>2014-11-16T11:07:21.000Z</time>
      </trkpt>
      <trkpt lat="47.33644" lon="-1.29534">
        <ele>57</ele>
        <time>2014-11-16T11:07:23.000Z</time>
      </trkpt>
      <trkpt lat="47.33637" lon="-1.29546">
        <ele>57</ele>
        <time>2014-11-16T11:07:25.000Z</time>
      </trkpt>
      <trkpt lat="47.33629" lon="-1.29549">
        <ele>55</ele>
        <time>2014-11-16T11:07:27.000Z</time>
      </trkpt>
      <trkpt lat="47.33621" lon="-1.29548">
        <ele>56</ele>
        <time>2014-11-16T11:07:28.000Z</time>
      </trkpt>
      <trkpt lat="47.33613" lon="-1.29542">
        <ele>57</ele>
        <time>2014-11-16T11:07:31.000Z</time>
      </trkpt>
      <trkpt lat="47.33605" lon="-1.29537">
        <ele>56</ele>
        <time>2014-11-16T11:07:33.000Z</time>
      </trkpt>
      <trkpt lat="47.33597" lon="-1.29532">
        <ele>58</ele>
        <time>2014-11-16T11:07:35.000Z</time>
      </trkpt>
      <trkpt lat="47.33589" lon="-1.29524">
        <ele>58</ele>
        <time>2014-11-16T11:07:37.000Z</time>
      </trkpt>
      <trkpt lat="47.3358" lon="-1.29516">
        <ele>57</ele>
        <time>2014-11-16T11:07:38.000Z</time>
      </trkpt>
      <trkpt lat="47.33572" lon="-1.29507">
        <ele>57</ele>
        <time>2014-11-16T11:07:41.000Z</time>
      </trkpt>
      <trkpt lat="47.33562" lon="-1.29496">
        <ele>56</ele>
        <time>2014-11-16T11:07:43.000Z</time>
      </trkpt>
      <trkpt lat="47.33553" lon="-1.29488">
        <ele>56</ele>
        <time>2014-11-16T11:07:44.000Z</time>
      </trkpt>
      <trkpt lat="47.33543" lon="-1.29481">
        <ele>56</ele>
        <time>2014-11-16T11:07:46.000Z</time>
      </trkpt>
      <trkpt lat="47.33534" lon="-1.29474">
        <ele>56</ele>
        <time>2014-11-16T11:07:48.000Z</time>
      </trkpt>
      <trkpt lat="47.33524" lon="-1.29468">
        <ele>56</ele>
        <time>2014-11-16T11:07:51.000Z</time>
      </trkpt>
      <trkpt lat="47.33515" lon="-1.29458">
        <ele>56</ele>
        <time>2014-11-16T11:07:53.000Z</time>
      </trkpt>
      <trkpt lat="47.33506" lon="-1.2945">
        <ele>57</ele>
        <time>2014-11-16T11:07:54.000Z</time>
      </trkpt>
      <trkpt lat="47.33499" lon="-1.29446">
        <ele>57</ele>
        <time>2014-11-16T11:07:56.000Z</time>
      </trkpt>
      <trkpt lat="47.33492" lon="-1.2944">
        <ele>57</ele>
        <time>2014-11-16T11:07:59.000Z</time>
      </trkpt>
      <trkpt lat="47.33485" lon="-1.29435">
        <ele>58</ele>
        <time>2014-11-16T11:08:00.000Z</time>
      </trkpt>
      <trkpt lat="47.33477" lon="-1.29429">
        <ele>58</ele>
        <time>2014-11-16T11:08:03.000Z</time>
      </trkpt>
      <trkpt lat="47.33469" lon="-1.29421">
        <ele>58</ele>
        <time>2014-11-16T11:08:05.000Z</time>
      </trkpt>
      <trkpt lat="47.33462" lon="-1.29415">
        <ele>57</ele>
        <time>2014-11-16T11:08:07.000Z</time>
      </trkpt>
      <trkpt lat="47.33453" lon="-1.29409">
        <ele>57</ele>
        <time>2014-11-16T11:08:09.000Z</time>
      </trkpt>
      <trkpt lat="47.33445" lon="-1.29402">
        <ele>57</ele>
        <time>2014-11-16T11:08:10.000Z</time>
      </trkpt>
      <trkpt lat="47.33436" lon="-1.29394">
        <ele>57</ele>
        <time>2014-11-16T11:08:13.000Z</time>
      </trkpt>
      <trkpt lat="47.33427" lon="-1.2939">
        <ele>55</ele>
        <time>2014-11-16T11:08:14.000Z</time>
      </trkpt>
      <trkpt lat="47.3342" lon="-1.29384">
        <ele>56</ele>
        <time>2014-11-16T11:08:16.000Z</time>
      </trkpt>
      <trkpt lat="47.33412" lon="-1.29379">
        <ele>57</ele>
        <time>2014-11-16T11:08:18.000Z</time>
      </trkpt>
      <trkpt lat="47.33407" lon="-1.29369">
        <ele>55</ele>
        <time>2014-11-16T11:08:20.000Z</time>
      </trkpt>
      <trkpt lat="47.33406" lon="-1.29358">
        <ele>56</ele>
        <time>2014-11-16T11:08:22.000Z</time>
      </trkpt>
      <trkpt lat="47.33403" lon="-1.29346">
        <ele>56</ele>
        <time>2014-11-16T11:08:24.000Z</time>
      </trkpt>
      <trkpt lat="47.33398" lon="-1.29334">
        <ele>56</ele>
        <time>2014-11-16T11:08:27.000Z</time>
      </trkpt>
      <trkpt lat="47.33392" lon="-1.29323">
        <ele>57</ele>
        <time>2014-11-16T11:08:29.000Z</time>
      </trkpt>
      <trkpt lat="47.33387" lon="-1.29315">
        <ele>56</ele>
        <time>2014-11-16T11:08:31.000Z</time>
      </trkpt>
      <trkpt lat="47.33383" lon="-1.29306">
        <ele>56</ele>
        <time>2014-11-16T11:08:33.000Z</time>
      </trkpt>
      <trkpt lat="47.33376" lon="-1.29295">
        <ele>55</ele>
        <time>2014-11-16T11:08:35.000Z</time>
      </trkpt>
      <trkpt lat="47.33369" lon="-1.29283">
        <ele>54</ele>
        <time>2014-11-16T11:08:37.000Z</time>
      </trkpt>
      <trkpt lat="47.33363" lon="-1.29273">
        <ele>54</ele>
        <time>2014-11-16T11:08:39.000Z</time>
      </trkpt>
      <trkpt lat="47.33356" lon="-1.29262">
        <ele>54</ele>
        <time>2014-11-16T11:08:41.000Z</time>
      </trkpt>
      <trkpt lat="47.33349" lon="-1.29252">
        <ele>54</ele>
        <time>2014-11-16T11:08:43.000Z</time>
      </trkpt>
      <trkpt lat="47.33342" lon="-1.29242">
        <ele>52</ele>
        <time>2014-11-16T11:08:45.000Z</time>
      </trkpt>
      <trkpt lat="47.33333" lon="-1.29234">
        <ele>52</ele>
        <time>2014-11-16T11:08:47.000Z</time>
      </trkpt>
      <trkpt lat="47.33323" lon="-1.29227">
        <ele>52</ele>
        <time>2014-11-16T11:08:48.000Z</time>
      </trkpt>
      <trkpt lat="47.33313" lon="-1.29221">
        <ele>52</ele>
        <time>2014-11-16T11:08:51.000Z</time>
      </trkpt>
      <trkpt lat="47.33303" lon="-1.29213">
        <ele>52</ele>
        <time>2014-11-16T11:08:53.000Z</time>
      </trkpt>
      <trkpt lat="47.33293" lon="-1.29205">
        <ele>53</ele>
        <time>2014-11-16T11:08:55.000Z</time>
      </trkpt>
      <trkpt lat="47.33282" lon="-1.29198">
        <ele>52</ele>
        <time>2014-11-16T11:08:56.000Z</time>
      </trkpt>
      <trkpt lat="47.33271" lon="-1.29192">
        <ele>53</ele>
        <time>2014-11-16T11:08:58.000Z</time>
      </trkpt>
      <trkpt lat="47.33261" lon="-1.29185">
        <ele>54</ele>
        <time>2014-11-16T11:09:01.000Z</time>
      </trkpt>
      <trkpt lat="47.33251" lon="-1.29178">
        <ele>54</ele>
        <time>2014-11-16T11:09:02.000Z</time>
      </trkpt>
      <trkpt lat="47.33242" lon="-1.29173">
        <ele>54</ele>
        <time>2014-11-16T11:09:05.000Z</time>
      </trkpt>
      <trkpt lat="47.33235" lon="-1.29168">
        <ele>55</ele>
        <time>2014-11-16T11:09:06.000Z</time>
      </trkpt>
      <trkpt lat="47.33227" lon="-1.29163">
        <ele>57</ele>
        <time>2014-11-16T11:09:08.000Z</time>
      </trkpt>
      <trkpt lat="47.33221" lon="-1.29159">
        <ele>57</ele>
        <time>2014-11-16T11:09:11.000Z</time>
      </trkpt>
      <trkpt lat="47.33216" lon="-1.29156">
        <ele>59</ele>
        <time>2014-11-16T11:09:13.000Z</time>
      </trkpt>
      <trkpt lat="47.33216" lon="-1.29156">
        <ele>59</ele>
        <time>2014-11-16T11:09:14.000Z</time>
      </trkpt>
      <trkpt lat="47.33205" lon="-1.2915">
        <ele>59</ele>
        <time>2014-11-16T11:09:17.000Z</time>
      </trkpt>
      <trkpt lat="47.33199" lon="-1.29148">
        <ele>58</ele>
        <time>2014-11-16T11:09:18.000Z</time>
      </trkpt>
      <trkpt lat="47.33199" lon="-1.29148">
        <ele>58</ele>
        <time>2014-11-16T11:09:21.000Z</time>
      </trkpt>
      <trkpt lat="47.33188" lon="-1.29152">
        <ele>58</ele>
        <time>2014-11-16T11:09:23.000Z</time>
      </trkpt>
      <trkpt lat="47.33183" lon="-1.29158">
        <ele>58</ele>
        <time>2014-11-16T11:09:25.000Z</time>
      </trkpt>
      <trkpt lat="47.33177" lon="-1.29165">
        <ele>58</ele>
        <time>2014-11-16T11:09:26.000Z</time>
      </trkpt>
      <trkpt lat="47.33172" lon="-1.29174">
        <ele>58</ele>
        <time>2014-11-16T11:09:29.000Z</time>
      </trkpt>
      <trkpt lat="47.33168" lon="-1.29185">
        <ele>57</ele>
        <time>2014-11-16T11:09:31.000Z</time>
      </trkpt>
      <trkpt lat="47.33167" lon="-1.29198">
        <ele>56</ele>
        <time>2014-11-16T11:09:32.000Z</time>
      </trkpt>
      <trkpt lat="47.33167" lon="-1.29211">
        <ele>55</ele>
        <time>2014-11-16T11:09:35.000Z</time>
      </trkpt>
      <trkpt lat="47.33165" lon="-1.29223">
        <ele>55</ele>
        <time>2014-11-16T11:09:36.000Z</time>
      </trkpt>
      <trkpt lat="47.3316" lon="-1.29232">
        <ele>56</ele>
        <time>2014-11-16T11:09:39.000Z</time>
      </trkpt>
      <trkpt lat="47.33154" lon="-1.29238">
        <ele>56</ele>
        <time>2014-11-16T11:09:41.000Z</time>
      </trkpt>
      <trkpt lat="47.33149" lon="-1.29245">
        <ele>56</ele>
        <time>2014-11-16T11:09:42.000Z</time>
      </trkpt>
      <trkpt lat="47.33146" lon="-1.29252">
        <ele>55</ele>
        <time>2014-11-16T11:09:44.000Z</time>
      </trkpt>
      <trkpt lat="47.33142" lon="-1.29259">
        <ele>55</ele>
        <time>2014-11-16T11:09:46.000Z</time>
      </trkpt>
      <trkpt lat="47.33138" lon="-1.29266">
        <ele>56</ele>
        <time>2014-11-16T11:09:48.000Z</time>
      </trkpt>
      <trkpt lat="47.33135" lon="-1.29272">
        <ele>58</ele>
        <time>2014-11-16T11:09:51.000Z</time>
      </trkpt>
      <trkpt lat="47.33131" lon="-1.2928">
        <ele>56</ele>
        <time>2014-11-16T11:09:52.000Z</time>
      </trkpt>
      <trkpt lat="47.33129" lon="-1.29288">
        <ele>55</ele>
        <time>2014-11-16T11:09:55.000Z</time>
      </trkpt>
      <trkpt lat="47.33129" lon="-1.29288">
        <ele>55</ele>
        <time>2014-11-16T11:09:56.000Z</time>
      </trkpt>
      <trkpt lat="47.33127" lon="-1.293">
        <ele>56</ele>
        <time>2014-11-16T11:09:59.000Z</time>
      </trkpt>
      <trkpt lat="47.33127" lon="-1.293">
        <ele>56</ele>
        <time>2014-11-16T11:10:00.000Z</time>
      </trkpt>
      <trkpt lat="47.33127" lon="-1.293">
        <ele>56</ele>
        <time>2014-11-16T11:10:03.000Z</time>
      </trkpt>
      <trkpt lat="47.33127" lon="-1.293">
        <ele>56</ele>
        <time>2014-11-16T11:10:04.000Z</time>
      </trkpt>
      <trkpt lat="47.33127" lon="-1.293">
        <ele>56</ele>
        <time>2014-11-16T11:10:07.000Z</time>
      </trkpt>
      <trkpt lat="47.33127" lon="-1.293">
        <ele>56</ele>
        <time>2014-11-16T11:10:09.000Z</time>
      </trkpt>
      <trkpt lat="47.33127" lon="-1.293">
        <ele>56</ele>
        <time>2014-11-16T11:10:11.000Z</time>
      </trkpt>
      <trkpt lat="47.33127" lon="-1.293">
        <ele>56</ele>
        <time>2014-11-16T11:10:12.000Z</time>
      </trkpt>
      <trkpt lat="47.33127" lon="-1.293">
        <ele>56</ele>
        <time>2014-11-16T11:10:15.000Z</time>
      </trkpt>
      <trkpt lat="47.33127" lon="-1.293">
        <ele>56</ele>
        <time>2014-11-16T11:10:17.000Z</time>
      </trkpt>
      <trkpt lat="47.33127" lon="-1.293">
        <ele>56</ele>
        <time>2014-11-16T11:10:18.000Z</time>
      </trkpt>
      <trkpt lat="47.33127" lon="-1.293">
        <ele>56</ele>
        <time>2014-11-16T11:10:20.000Z</time>
      </trkpt>
      <trkpt lat="47.33127" lon="-1.293">
        <ele>56</ele>
        <time>2014-11-16T11:10:22.000Z</time>
      </trkpt>
      <trkpt lat="47.33127" lon="-1.293">
        <ele>56</ele>
        <time>2014-11-16T11:10:25.000Z</time>
      </trkpt>
      <trkpt lat="47.33125" lon="-1.29303">
        <ele>55</ele>
        <time>2014-11-16T11:10:38.000Z</time>
      </trkpt>
      <trkpt lat="47.33125" lon="-1.29303">
        <ele>55</ele>
        <time>2014-11-16T11:10:40.000Z</time>
      </trkpt>
      <trkpt lat="47.33125" lon="-1.29303">
        <ele>55</ele>
        <time>2014-11-16T11:10:43.000Z</time>
      </trkpt>
      <trkpt lat="47.33122" lon="-1.29306">
        <ele>57</ele>
        <time>2014-11-16T11:10:45.000Z</time>
      </trkpt>
      <trkpt lat="47.33119" lon="-1.29308">
        <ele>58</ele>
        <time>2014-11-16T11:10:47.000Z</time>
      </trkpt>
      <trkpt lat="47.33117" lon="-1.29311">
        <ele>62</ele>
        <time>2014-11-16T11:10:51.000Z</time>
      </trkpt>
      <trkpt lat="47.33117" lon="-1.29311">
        <ele>62</ele>
        <time>2014-11-16T11:10:52.000Z</time>
      </trkpt>
      <trkpt lat="47.33117" lon="-1.29311">
        <ele>62</ele>
        <time>2014-11-16T11:10:55.000Z</time>
      </trkpt>
      <trkpt lat="47.33114" lon="-1.29313">
        <ele>63</ele>
        <time>2014-11-16T11:10:57.000Z</time>
      </trkpt>
      <trkpt lat="47.3311" lon="-1.29316">
        <ele>64</ele>
        <time>2014-11-16T11:11:00.000Z</time>
      </trkpt>
      <trkpt lat="47.33107" lon="-1.29317">
        <ele>63</ele>
        <time>2014-11-16T11:11:02.000Z</time>
      </trkpt>
      <trkpt lat="47.33105" lon="-1.2932">
        <ele>63</ele>
        <time>2014-11-16T11:11:06.000Z</time>
      </trkpt>
      <trkpt lat="47.33105" lon="-1.2932">
        <ele>63</ele>
        <time>2014-11-16T11:11:09.000Z</time>
      </trkpt>
      <trkpt lat="47.33102" lon="-1.29322">
        <ele>65</ele>
        <time>2014-11-16T11:11:10.000Z</time>
      </trkpt>
      <trkpt lat="47.33102" lon="-1.29322">
        <ele>65</ele>
        <time>2014-11-16T11:11:13.000Z</time>
      </trkpt>
      <trkpt lat="47.33102" lon="-1.29322">
        <ele>65</ele>
        <time>2014-11-16T11:11:15.000Z</time>
      </trkpt>
      <trkpt lat="47.33099" lon="-1.29324">
        <ele>68</ele>
        <time>2014-11-16T11:11:16.000Z</time>
      </trkpt>
      <trkpt lat="47.33096" lon="-1.29324">
        <ele>70</ele>
        <time>2014-11-16T11:11:21.000Z</time>
      </trkpt>
      <trkpt lat="47.33092" lon="-1.29325">
        <ele>70</ele>
        <time>2014-11-16T11:11:24.000Z</time>
      </trkpt>
      <trkpt lat="47.33092" lon="-1.29325">
        <ele>70</ele>
        <time>2014-11-16T11:11:27.000Z</time>
      </trkpt>
      <trkpt lat="47.33088" lon="-1.29326">
        <ele>71</ele>
        <time>2014-11-16T11:11:28.000Z</time>
      </trkpt>
      <trkpt lat="47.33085" lon="-1.29328">
        <ele>70</ele>
        <time>2014-11-16T11:11:32.000Z</time>
      </trkpt>
      <trkpt lat="47.33083" lon="-1.2933">
        <ele>71</ele>
        <time>2014-11-16T11:11:35.000Z</time>
      </trkpt>
      <trkpt lat="47.33083" lon="-1.2933">
        <ele>71</ele>
        <time>2014-11-16T11:11:37.000Z</time>
      </trkpt>
      <trkpt lat="47.33083" lon="-1.2933">
        <ele>71</ele>
        <time>2014-11-16T11:11:39.000Z</time>
      </trkpt>
      <trkpt lat="47.3308" lon="-1.29332">
        <ele>70</ele>
        <time>2014-11-16T11:11:41.000Z</time>
      </trkpt>
      <trkpt lat="47.3308" lon="-1.29332">
        <ele>70</ele>
        <time>2014-11-16T11:11:46.000Z</time>
      </trkpt>
      <trkpt lat="47.3308" lon="-1.29332">
        <ele>70</ele>
        <time>2014-11-16T11:11:48.000Z</time>
      </trkpt>
      <trkpt lat="47.3308" lon="-1.29332">
        <ele>70</ele>
        <time>2014-11-16T11:11:50.000Z</time>
      </trkpt>
      <trkpt lat="47.3308" lon="-1.29332">
        <ele>70</ele>
        <time>2014-11-16T11:11:53.000Z</time>
      </trkpt>
      <trkpt lat="47.33073" lon="-1.29333">
        <ele>76</ele>
        <time>2014-11-16T11:12:04.000Z</time>
      </trkpt>
      <trkpt lat="47.33068" lon="-1.29334">
        <ele>77</ele>
        <time>2014-11-16T11:12:07.000Z</time>
      </trkpt>
      <trkpt lat="47.33065" lon="-1.29335">
        <ele>78</ele>
        <time>2014-11-16T11:12:09.000Z</time>
      </trkpt>
      <trkpt lat="47.33062" lon="-1.29336">
        <ele>77</ele>
        <time>2014-11-16T11:12:10.000Z</time>
      </trkpt>
      <trkpt lat="47.33059" lon="-1.29336">
        <ele>77</ele>
        <time>2014-11-16T11:12:13.000Z</time>
      </trkpt>
      <trkpt lat="47.33051" lon="-1.29335">
        <ele>79</ele>
        <time>2014-11-16T11:12:16.000Z</time>
      </trkpt>
      <trkpt lat="47.33044" lon="-1.29335">
        <ele>79</ele>
        <time>2014-11-16T11:12:21.000Z</time>
      </trkpt>
      <trkpt lat="47.33038" lon="-1.29335">
        <ele>79</ele>
        <time>2014-11-16T11:12:25.000Z</time>
      </trkpt>
      <trkpt lat="47.33038" lon="-1.29335">
        <ele>79</ele>
        <time>2014-11-16T11:12:27.000Z</time>
      </trkpt>
      <trkpt lat="47.33038" lon="-1.29335">
        <ele>79</ele>
        <time>2014-11-16T11:12:28.000Z</time>
      </trkpt>
      <trkpt lat="47.33038" lon="-1.29335">
        <ele>79</ele>
        <time>2014-11-16T11:12:30.000Z</time>
      </trkpt>
      <trkpt lat="47.33038" lon="-1.29335">
        <ele>79</ele>
        <time>2014-11-16T11:12:33.000Z</time>
      </trkpt>
      <trkpt lat="47.33038" lon="-1.29335">
        <ele>79</ele>
        <time>2014-11-16T11:12:35.000Z</time>
      </trkpt>
      <trkpt lat="47.33032" lon="-1.29339">
        <ele>78</ele>
        <time>2014-11-16T11:12:36.000Z</time>
      </trkpt>
      <trkpt lat="47.33027" lon="-1.29346">
        <ele>78</ele>
        <time>2014-11-16T11:12:41.000Z</time>
      </trkpt>
      <trkpt lat="47.33019" lon="-1.29352">
        <ele>78</ele>
        <time>2014-11-16T11:12:45.000Z</time>
      </trkpt>
      <trkpt lat="47.33009" lon="-1.29355">
        <ele>82</ele>
        <time>2014-11-16T11:12:48.000Z</time>
      </trkpt>
      <trkpt lat="47.32998" lon="-1.29357">
        <ele>84</ele>
        <time>2014-11-16T11:12:52.000Z</time>
      </trkpt>
      <trkpt lat="47.32989" lon="-1.29359">
        <ele>85</ele>
        <time>2014-11-16T11:12:57.000Z</time>
      </trkpt>
      <trkpt lat="47.32989" lon="-1.29359">
        <ele>85</ele>
        <time>2014-11-16T11:12:59.000Z</time>
      </trkpt>
      <trkpt lat="47.3298" lon="-1.29362">
        <ele>85</ele>
        <time>2014-11-16T11:13:00.000Z</time>
      </trkpt>
      <trkpt lat="47.3298" lon="-1.29362">
        <ele>85</ele>
        <time>2014-11-16T11:13:03.000Z</time>
      </trkpt>
      <trkpt lat="47.32973" lon="-1.29355">
        <ele>82</ele>
        <time>2014-11-16T11:13:05.000Z</time>
      </trkpt>
      <trkpt lat="47.32973" lon="-1.29355">
        <ele>82</ele>
        <time>2014-11-16T11:13:06.000Z</time>
      </trkpt>
      <trkpt lat="47.32966" lon="-1.29343">
        <ele>84</ele>
        <time>2014-11-16T11:13:08.000Z</time>
      </trkpt>
      <trkpt lat="47.3296" lon="-1.29332">
        <ele>85</ele>
        <time>2014-11-16T11:13:12.000Z</time>
      </trkpt>
      <trkpt lat="47.3296" lon="-1.29332">
        <ele>85</ele>
        <time>2014-11-16T11:13:15.000Z</time>
      </trkpt>
      <trkpt lat="47.32954" lon="-1.29323">
        <ele>85</ele>
        <time>2014-11-16T11:13:17.000Z</time>
      </trkpt>
      <trkpt lat="47.32954" lon="-1.29323">
        <ele>85</ele>
        <time>2014-11-16T11:13:18.000Z</time>
      </trkpt>
      <trkpt lat="47.32948" lon="-1.29314">
        <ele>86</ele>
        <time>2014-11-16T11:13:20.000Z</time>
      </trkpt>
      <trkpt lat="47.32942" lon="-1.29305">
        <ele>86</ele>
        <time>2014-11-16T11:13:25.000Z</time>
      </trkpt>
      <trkpt lat="47.32942" lon="-1.29305">
        <ele>86</ele>
        <time>2014-11-16T11:13:27.000Z</time>
      </trkpt>
      <trkpt lat="47.32936" lon="-1.29303">
        <ele>88</ele>
        <time>2014-11-16T11:13:29.000Z</time>
      </trkpt>
      <trkpt lat="47.32936" lon="-1.29303">
        <ele>88</ele>
        <time>2014-11-16T11:13:31.000Z</time>
      </trkpt>
      <trkpt lat="47.32927" lon="-1.29302">
        <ele>88</ele>
        <time>2014-11-16T11:13:32.000Z</time>
      </trkpt>
      <trkpt lat="47.32918" lon="-1.293">
        <ele>88</ele>
        <time>2014-11-16T11:13:37.000Z</time>
      </trkpt>
      <trkpt lat="47.3291" lon="-1.29294">
        <ele>88</ele>
        <time>2014-11-16T11:13:40.000Z</time>
      </trkpt>
      <trkpt lat="47.3291" lon="-1.29294">
        <ele>88</ele>
        <time>2014-11-16T11:13:42.000Z</time>
      </trkpt>
      <trkpt lat="47.32903" lon="-1.29287">
        <ele>89</ele>
        <time>2014-11-16T11:13:45.000Z</time>
      </trkpt>
      <trkpt lat="47.32895" lon="-1.2928">
        <ele>89</ele>
        <time>2014-11-16T11:13:48.000Z</time>
      </trkpt>
      <trkpt lat="47.32887" lon="-1.29273">
        <ele>89</ele>
        <time>2014-11-16T11:13:53.000Z</time>
      </trkpt>
      <trkpt lat="47.32878" lon="-1.29269">
        <ele>91</ele>
        <time>2014-11-16T11:13:56.000Z</time>
      </trkpt>
      <trkpt lat="47.3287" lon="-1.29272">
        <ele>90</ele>
        <time>2014-11-16T11:14:01.000Z</time>
      </trkpt>
      <trkpt lat="47.3287" lon="-1.29272">
        <ele>90</ele>
        <time>2014-11-16T11:14:03.000Z</time>
      </trkpt>
      <trkpt lat="47.32872" lon="-1.29279">
        <ele>90</ele>
        <time>2014-11-16T11:14:04.000Z</time>
      </trkpt>
      <trkpt lat="47.32873" lon="-1.29286">
        <ele>90</ele>
        <time>2014-11-16T11:14:06.000Z</time>
      </trkpt>
      <trkpt lat="47.32875" lon="-1.29293">
        <ele>90</ele>
        <time>2014-11-16T11:14:09.000Z</time>
      </trkpt>
      <trkpt lat="47.32877" lon="-1.293">
        <ele>90</ele>
        <time>2014-11-16T11:14:10.000Z</time>
      </trkpt>
      <trkpt lat="47.32879" lon="-1.29306">
        <ele>90</ele>
        <time>2014-11-16T11:14:12.000Z</time>
      </trkpt>
      <trkpt lat="47.32883" lon="-1.29318">
        <ele>90</ele>
        <time>2014-11-16T11:14:14.000Z</time>
      </trkpt>
      <trkpt lat="47.32883" lon="-1.29318">
        <ele>90</ele>
        <time>2014-11-16T11:14:17.000Z</time>
      </trkpt>
      <trkpt lat="47.32887" lon="-1.29333">
        <ele>86</ele>
        <time>2014-11-16T11:14:19.000Z</time>
      </trkpt>
      <trkpt lat="47.32885" lon="-1.29342">
        <ele>86</ele>
        <time>2014-11-16T11:14:21.000Z</time>
      </trkpt>
      <trkpt lat="47.32878" lon="-1.29348">
        <ele>86</ele>
        <time>2014-11-16T11:14:22.000Z</time>
      </trkpt>
      <trkpt lat="47.32871" lon="-1.2935">
        <ele>86</ele>
        <time>2014-11-16T11:14:24.000Z</time>
      </trkpt>
      <trkpt lat="47.32864" lon="-1.29352">
        <ele>86</ele>
        <time>2014-11-16T11:14:27.000Z</time>
      </trkpt>
      <trkpt lat="47.32856" lon="-1.29353">
        <ele>85</ele>
        <time>2014-11-16T11:14:29.000Z</time>
      </trkpt>
      <trkpt lat="47.32848" lon="-1.29355">
        <ele>87</ele>
        <time>2014-11-16T11:14:31.000Z</time>
      </trkpt>
      <trkpt lat="47.3284" lon="-1.29356">
        <ele>87</ele>
        <time>2014-11-16T11:14:33.000Z</time>
      </trkpt>
      <trkpt lat="47.32831" lon="-1.29357">
        <ele>86</ele>
        <time>2014-11-16T11:14:35.000Z</time>
      </trkpt>
      <trkpt lat="47.32822" lon="-1.29358">
        <ele>87</ele>
        <time>2014-11-16T11:14:37.000Z</time>
      </trkpt>
      <trkpt lat="47.32814" lon="-1.29357">
        <ele>89</ele>
        <time>2014-11-16T11:14:39.000Z</time>
      </trkpt>
      <trkpt lat="47.32808" lon="-1.29356">
        <ele>90</ele>
        <time>2014-11-16T11:14:41.000Z</time>
      </trkpt>
      <trkpt lat="47.32802" lon="-1.29357">
        <ele>90</ele>
        <time>2014-11-16T11:14:43.000Z</time>
      </trkpt>
      <trkpt lat="47.32795" lon="-1.29358">
        <ele>90</ele>
        <time>2014-11-16T11:14:44.000Z</time>
      </trkpt>
      <trkpt lat="47.32788" lon="-1.29361">
        <ele>90</ele>
        <time>2014-11-16T11:14:47.000Z</time>
      </trkpt>
      <trkpt lat="47.32781" lon="-1.29363">
        <ele>91</ele>
        <time>2014-11-16T11:14:49.000Z</time>
      </trkpt>
      <trkpt lat="47.32775" lon="-1.29365">
        <ele>91</ele>
        <time>2014-11-16T11:14:50.000Z</time>
      </trkpt>
      <trkpt lat="47.32775" lon="-1.29365">
        <ele>91</ele>
        <time>2014-11-16T11:14:53.000Z</time>
      </trkpt>
      <trkpt lat="47.32765" lon="-1.29367">
        <ele>91</ele>
        <time>2014-11-16T11:14:55.000Z</time>
      </trkpt>
      <trkpt lat="47.32765" lon="-1.29367">
        <ele>91</ele>
        <time>2014-11-16T11:14:57.000Z</time>
      </trkpt>
      <trkpt lat="47.32754" lon="-1.2937">
        <ele>91</ele>
        <time>2014-11-16T11:14:59.000Z</time>
      </trkpt>
      <trkpt lat="47.32748" lon="-1.29371">
        <ele>91</ele>
        <time>2014-11-16T11:15:00.000Z</time>
      </trkpt>
      <trkpt lat="47.32748" lon="-1.29371">
        <ele>91</ele>
        <time>2014-11-16T11:15:03.000Z</time>
      </trkpt>
      <trkpt lat="47.32737" lon="-1.29372">
        <ele>91</ele>
        <time>2014-11-16T11:15:05.000Z</time>
      </trkpt>
      <trkpt lat="47.32731" lon="-1.29372">
        <ele>91</ele>
        <time>2014-11-16T11:15:07.000Z</time>
      </trkpt>
      <trkpt lat="47.32725" lon="-1.29373">
        <ele>89</ele>
        <time>2014-11-16T11:15:09.000Z</time>
      </trkpt>
      <trkpt lat="47.32719" lon="-1.29379">
        <ele>88</ele>
        <time>2014-11-16T11:15:11.000Z</time>
      </trkpt>
      <trkpt lat="47.32717" lon="-1.29388">
        <ele>87</ele>
        <time>2014-11-16T11:15:13.000Z</time>
      </trkpt>
      <trkpt lat="47.32717" lon="-1.29399">
        <ele>84</ele>
        <time>2014-11-16T11:15:15.000Z</time>
      </trkpt>
      <trkpt lat="47.32717" lon="-1.29409">
        <ele>84</ele>
        <time>2014-11-16T11:15:17.000Z</time>
      </trkpt>
      <trkpt lat="47.32717" lon="-1.29409">
        <ele>84</ele>
        <time>2014-11-16T11:15:19.000Z</time>
      </trkpt>
      <trkpt lat="47.32711" lon="-1.29419">
        <ele>82</ele>
        <time>2014-11-16T11:15:21.000Z</time>
      </trkpt>
      <trkpt lat="47.32705" lon="-1.29421">
        <ele>82</ele>
        <time>2014-11-16T11:15:23.000Z</time>
      </trkpt>
      <trkpt lat="47.32699" lon="-1.29424">
        <ele>81</ele>
        <time>2014-11-16T11:15:24.000Z</time>
      </trkpt>
      <trkpt lat="47.32693" lon="-1.29427">
        <ele>81</ele>
        <time>2014-11-16T11:15:26.000Z</time>
      </trkpt>
      <trkpt lat="47.32687" lon="-1.29431">
        <ele>81</ele>
        <time>2014-11-16T11:15:29.000Z</time>
      </trkpt>
      <trkpt lat="47.32681" lon="-1.29434">
        <ele>80</ele>
        <time>2014-11-16T11:15:31.000Z</time>
      </trkpt>
      <trkpt lat="47.32674" lon="-1.29433">
        <ele>80</ele>
        <time>2014-11-16T11:15:33.000Z</time>
      </trkpt>
      <trkpt lat="47.32671" lon="-1.29425">
        <ele>82</ele>
        <time>2014-11-16T11:15:35.000Z</time>
      </trkpt>
      <trkpt lat="47.32669" lon="-1.29416">
        <ele>82</ele>
        <time>2014-11-16T11:15:37.000Z</time>
      </trkpt>
      <trkpt lat="47.32667" lon="-1.29407">
        <ele>82</ele>
        <time>2014-11-16T11:15:39.000Z</time>
      </trkpt>
      <trkpt lat="47.32664" lon="-1.29398">
        <ele>82</ele>
        <time>2014-11-16T11:15:40.000Z</time>
      </trkpt>
      <trkpt lat="47.32664" lon="-1.29398">
        <ele>82</ele>
        <time>2014-11-16T11:15:42.000Z</time>
      </trkpt>
      <trkpt lat="47.32659" lon="-1.29387">
        <ele>84</ele>
        <time>2014-11-16T11:15:45.000Z</time>
      </trkpt>
      <trkpt lat="47.32659" lon="-1.29387">
        <ele>84</ele>
        <time>2014-11-16T11:15:46.000Z</time>
      </trkpt>
      <trkpt lat="47.32652" lon="-1.29384">
        <ele>83</ele>
        <time>2014-11-16T11:15:48.000Z</time>
      </trkpt>
      <trkpt lat="47.32652" lon="-1.29384">
        <ele>83</ele>
        <time>2014-11-16T11:15:50.000Z</time>
      </trkpt>
      <trkpt lat="47.32641" lon="-1.29391">
        <ele>83</ele>
        <time>2014-11-16T11:15:52.000Z</time>
      </trkpt>
      <trkpt lat="47.32635" lon="-1.29396">
        <ele>84</ele>
        <time>2014-11-16T11:15:54.000Z</time>
      </trkpt>
      <trkpt lat="47.32629" lon="-1.29401">
        <ele>83</ele>
        <time>2014-11-16T11:15:56.000Z</time>
      </trkpt>
      <trkpt lat="47.32624" lon="-1.29404">
        <ele>84</ele>
        <time>2014-11-16T11:15:58.000Z</time>
      </trkpt>
      <trkpt lat="47.32624" lon="-1.29404">
        <ele>84</ele>
        <time>2014-11-16T11:16:00.000Z</time>
      </trkpt>
      <trkpt lat="47.32616" lon="-1.29398">
        <ele>84</ele>
        <time>2014-11-16T11:16:02.000Z</time>
      </trkpt>
      <trkpt lat="47.32616" lon="-1.29398">
        <ele>84</ele>
        <time>2014-11-16T11:16:05.000Z</time>
      </trkpt>
      <trkpt lat="47.32618" lon="-1.29384">
        <ele>84</ele>
        <time>2014-11-16T11:16:06.000Z</time>
      </trkpt>
      <trkpt lat="47.32618" lon="-1.29384">
        <ele>84</ele>
        <time>2014-11-16T11:16:09.000Z</time>
      </trkpt>
      <trkpt lat="47.32621" lon="-1.29374">
        <ele>83</ele>
        <time>2014-11-16T11:16:10.000Z</time>
      </trkpt>
      <trkpt lat="47.32621" lon="-1.29374">
        <ele>83</ele>
        <time>2014-11-16T11:16:12.000Z</time>
      </trkpt>
      <trkpt lat="47.32624" lon="-1.29364">
        <ele>83</ele>
        <time>2014-11-16T11:16:14.000Z</time>
      </trkpt>
      <trkpt lat="47.32624" lon="-1.29364">
        <ele>83</ele>
        <time>2014-11-16T11:16:16.000Z</time>
      </trkpt>
      <trkpt lat="47.32626" lon="-1.29354">
        <ele>85</ele>
        <time>2014-11-16T11:16:18.000Z</time>
      </trkpt>
      <trkpt lat="47.32626" lon="-1.29354">
        <ele>85</ele>
        <time>2014-11-16T11:16:20.000Z</time>
      </trkpt>
      <trkpt lat="47.32626" lon="-1.29344">
        <ele>85</ele>
        <time>2014-11-16T11:16:23.000Z</time>
      </trkpt>
      <trkpt lat="47.32626" lon="-1.29334">
        <ele>86</ele>
        <time>2014-11-16T11:16:26.000Z</time>
      </trkpt>
      <trkpt lat="47.32626" lon="-1.29322">
        <ele>86</ele>
        <time>2014-11-16T11:16:31.000Z</time>
      </trkpt>
      <trkpt lat="47.32626" lon="-1.29311">
        <ele>84</ele>
        <time>2014-11-16T11:16:35.000Z</time>
      </trkpt>
      <trkpt lat="47.32626" lon="-1.29311">
        <ele>84</ele>
        <time>2014-11-16T11:16:37.000Z</time>
      </trkpt>
      <trkpt lat="47.32627" lon="-1.293">
        <ele>86</ele>
        <time>2014-11-16T11:16:39.000Z</time>
      </trkpt>
      <trkpt lat="47.32627" lon="-1.293">
        <ele>86</ele>
        <time>2014-11-16T11:16:41.000Z</time>
      </trkpt>
      <trkpt lat="47.32628" lon="-1.29288">
        <ele>85</ele>
        <time>2014-11-16T11:16:42.000Z</time>
      </trkpt>
      <trkpt lat="47.3263" lon="-1.29276">
        <ele>86</ele>
        <time>2014-11-16T11:16:46.000Z</time>
      </trkpt>
      <trkpt lat="47.32632" lon="-1.29264">
        <ele>87</ele>
        <time>2014-11-16T11:16:50.000Z</time>
      </trkpt>
      <trkpt lat="47.32631" lon="-1.29252">
        <ele>89</ele>
        <time>2014-11-16T11:16:55.000Z</time>
      </trkpt>
      <trkpt lat="47.32631" lon="-1.29252">
        <ele>89</ele>
        <time>2014-11-16T11:16:57.000Z</time>
      </trkpt>
      <trkpt lat="47.32629" lon="-1.29242">
        <ele>91</ele>
        <time>2014-11-16T11:16:59.000Z</time>
      </trkpt>
      <trkpt lat="47.32629" lon="-1.29242">
        <ele>91</ele>
        <time>2014-11-16T11:17:01.000Z</time>
      </trkpt>
      <trkpt lat="47.32626" lon="-1.29232">
        <ele>92</ele>
        <time>2014-11-16T11:17:03.000Z</time>
      </trkpt>
      <trkpt lat="47.32626" lon="-1.29232">
        <ele>92</ele>
        <time>2014-11-16T11:17:05.000Z</time>
      </trkpt>
      <trkpt lat="47.32624" lon="-1.29224">
        <ele>94</ele>
        <time>2014-11-16T11:17:07.000Z</time>
      </trkpt>
      <trkpt lat="47.32624" lon="-1.29224">
        <ele>94</ele>
        <time>2014-11-16T11:17:08.000Z</time>
      </trkpt>
      <trkpt lat="47.32622" lon="-1.29215">
        <ele>95</ele>
        <time>2014-11-16T11:17:11.000Z</time>
      </trkpt>
      <trkpt lat="47.32622" lon="-1.29215">
        <ele>95</ele>
        <time>2014-11-16T11:17:13.000Z</time>
      </trkpt>
      <trkpt lat="47.3262" lon="-1.29206">
        <ele>95</ele>
        <time>2014-11-16T11:17:14.000Z</time>
      </trkpt>
      <trkpt lat="47.3262" lon="-1.29206">
        <ele>95</ele>
        <time>2014-11-16T11:17:17.000Z</time>
      </trkpt>
      <trkpt lat="47.32618" lon="-1.29197">
        <ele>96</ele>
        <time>2014-11-16T11:17:19.000Z</time>
      </trkpt>
      <trkpt lat="47.32618" lon="-1.29197">
        <ele>96</ele>
        <time>2014-11-16T11:17:21.000Z</time>
      </trkpt>
      <trkpt lat="47.32618" lon="-1.29188">
        <ele>96</ele>
        <time>2014-11-16T11:17:23.000Z</time>
      </trkpt>
      <trkpt lat="47.32618" lon="-1.29188">
        <ele>96</ele>
        <time>2014-11-16T11:17:25.000Z</time>
      </trkpt>
      <trkpt lat="47.32618" lon="-1.29188">
        <ele>96</ele>
        <time>2014-11-16T11:17:27.000Z</time>
      </trkpt>
      <trkpt lat="47.32616" lon="-1.29182">
        <ele>96</ele>
        <time>2014-11-16T11:17:29.000Z</time>
      </trkpt>
      <trkpt lat="47.32615" lon="-1.29177">
        <ele>97</ele>
        <time>2014-11-16T11:17:31.000Z</time>
      </trkpt>
      <trkpt lat="47.32615" lon="-1.29172">
        <ele>98</ele>
        <time>2014-11-16T11:17:33.000Z</time>
      </trkpt>
      <trkpt lat="47.32613" lon="-1.29168">
        <ele>98</ele>
        <time>2014-11-16T11:17:35.000Z</time>
      </trkpt>
      <trkpt lat="47.32613" lon="-1.29164">
        <ele>98</ele>
        <time>2014-11-16T11:17:37.000Z</time>
      </trkpt>
      <trkpt lat="47.32611" lon="-1.29156">
        <ele>97</ele>
        <time>2014-11-16T11:17:39.000Z</time>
      </trkpt>
      <trkpt lat="47.32605" lon="-1.29149">
        <ele>96</ele>
        <time>2014-11-16T11:17:45.000Z</time>
      </trkpt>
      <trkpt lat="47.32597" lon="-1.29155">
        <ele>98</ele>
        <time>2014-11-16T11:17:48.000Z</time>
      </trkpt>
      <trkpt lat="47.32587" lon="-1.29162">
        <ele>96</ele>
        <time>2014-11-16T11:17:52.000Z</time>
      </trkpt>
      <trkpt lat="47.32577" lon="-1.29169">
        <ele>96</ele>
        <time>2014-11-16T11:17:57.000Z</time>
      </trkpt>
      <trkpt lat="47.32571" lon="-1.29173">
        <ele>96</ele>
        <time>2014-11-16T11:17:59.000Z</time>
      </trkpt>
      <trkpt lat="47.32564" lon="-1.29176">
        <ele>97</ele>
        <time>2014-11-16T11:18:01.000Z</time>
      </trkpt>
      <trkpt lat="47.32557" lon="-1.29177">
        <ele>97</ele>
        <time>2014-11-16T11:18:03.000Z</time>
      </trkpt>
      <trkpt lat="47.3255" lon="-1.29173">
        <ele>97</ele>
        <time>2014-11-16T11:18:04.000Z</time>
      </trkpt>
      <trkpt lat="47.32544" lon="-1.29164">
        <ele>97</ele>
        <time>2014-11-16T11:18:07.000Z</time>
      </trkpt>
      <trkpt lat="47.32541" lon="-1.29155">
        <ele>97</ele>
        <time>2014-11-16T11:18:09.000Z</time>
      </trkpt>
      <trkpt lat="47.32541" lon="-1.29155">
        <ele>97</ele>
        <time>2014-11-16T11:18:11.000Z</time>
      </trkpt>
      <trkpt lat="47.32541" lon="-1.29155">
        <ele>97</ele>
        <time>2014-11-16T11:18:13.000Z</time>
      </trkpt>
      <trkpt lat="47.32547" lon="-1.29159">
        <ele>98</ele>
        <time>2014-11-16T11:18:17.000Z</time>
      </trkpt>
      <trkpt lat="47.32547" lon="-1.29159">
        <ele>98</ele>
        <time>2014-11-16T11:18:19.000Z</time>
      </trkpt>
      <trkpt lat="47.32547" lon="-1.29159">
        <ele>98</ele>
        <time>2014-11-16T11:18:21.000Z</time>
      </trkpt>
      <trkpt lat="47.32547" lon="-1.29159">
        <ele>98</ele>
        <time>2014-11-16T11:18:23.000Z</time>
      </trkpt>
      <trkpt lat="47.32547" lon="-1.29159">
        <ele>98</ele>
        <time>2014-11-16T11:18:24.000Z</time>
      </trkpt>
      <trkpt lat="47.32547" lon="-1.29159">
        <ele>98</ele>
        <time>2014-11-16T11:18:27.000Z</time>
      </trkpt>
      <trkpt lat="47.32547" lon="-1.29159">
        <ele>98</ele>
        <time>2014-11-16T11:18:28.000Z</time>
      </trkpt>
      <trkpt lat="47.32547" lon="-1.29159">
        <ele>98</ele>
        <time>2014-11-16T11:18:31.000Z</time>
      </trkpt>
      <trkpt lat="47.32547" lon="-1.29159">
        <ele>98</ele>
        <time>2014-11-16T11:18:33.000Z</time>
      </trkpt>
      <trkpt lat="47.32547" lon="-1.29159">
        <ele>98</ele>
        <time>2014-11-16T11:18:35.000Z</time>
      </trkpt>
      <trkpt lat="47.32547" lon="-1.29159">
        <ele>98</ele>
        <time>2014-11-16T11:18:36.000Z</time>
      </trkpt>
      <trkpt lat="47.32547" lon="-1.29159">
        <ele>98</ele>
        <time>2014-11-16T11:18:39.000Z</time>
      </trkpt>
      <trkpt lat="47.32547" lon="-1.29159">
        <ele>98</ele>
        <time>2014-11-16T11:18:41.000Z</time>
      </trkpt>
      <trkpt lat="47.3254" lon="-1.2915">
        <ele>103</ele>
        <time>2014-11-16T11:18:49.000Z</time>
      </trkpt>
      <trkpt lat="47.32537" lon="-1.29136">
        <ele>103</ele>
        <time>2014-11-16T11:18:52.000Z</time>
      </trkpt>
      <trkpt lat="47.32536" lon="-1.29122">
        <ele>103</ele>
        <time>2014-11-16T11:18:57.000Z</time>
      </trkpt>
      <trkpt lat="47.32533" lon="-1.29108">
        <ele>104</ele>
        <time>2014-11-16T11:19:01.000Z</time>
      </trkpt>
      <trkpt lat="47.32526" lon="-1.29097">
        <ele>105</ele>
        <time>2014-11-16T11:19:05.000Z</time>
      </trkpt>
      <trkpt lat="47.32526" lon="-1.29097">
        <ele>105</ele>
        <time>2014-11-16T11:19:06.000Z</time>
      </trkpt>
      <trkpt lat="47.32519" lon="-1.29091">
        <ele>107</ele>
        <time>2014-11-16T11:19:08.000Z</time>
      </trkpt>
      <trkpt lat="47.32519" lon="-1.29091">
        <ele>107</ele>
        <time>2014-11-16T11:19:10.000Z</time>
      </trkpt>
      <trkpt lat="47.32513" lon="-1.29085">
        <ele>107</ele>
        <time>2014-11-16T11:19:12.000Z</time>
      </trkpt>
      <trkpt lat="47.32509" lon="-1.29082">
        <ele>109</ele>
        <time>2014-11-16T11:19:17.000Z</time>
      </trkpt>
      <trkpt lat="47.32505" lon="-1.2908">
        <ele>110</ele>
        <time>2014-11-16T11:19:19.000Z</time>
      </trkpt>
      <trkpt lat="47.32501" lon="-1.2908">
        <ele>109</ele>
        <time>2014-11-16T11:19:20.000Z</time>
      </trkpt>
      <trkpt lat="47.32497" lon="-1.29082">
        <ele>108</ele>
        <time>2014-11-16T11:19:22.000Z</time>
      </trkpt>
      <trkpt lat="47.32492" lon="-1.29087">
        <ele>108</ele>
        <time>2014-11-16T11:19:25.000Z</time>
      </trkpt>
      <trkpt lat="47.32483" lon="-1.29099">
        <ele>107</ele>
        <time>2014-11-16T11:19:27.000Z</time>
      </trkpt>
      <trkpt lat="47.32477" lon="-1.29104">
        <ele>107</ele>
        <time>2014-11-16T11:19:28.000Z</time>
      </trkpt>
      <trkpt lat="47.32477" lon="-1.29104">
        <ele>107</ele>
        <time>2014-11-16T11:19:31.000Z</time>
      </trkpt>
      <trkpt lat="47.32477" lon="-1.29104">
        <ele>107</ele>
        <time>2014-11-16T11:19:33.000Z</time>
      </trkpt>
      <trkpt lat="47.32477" lon="-1.29104">
        <ele>107</ele>
        <time>2014-11-16T11:19:35.000Z</time>
      </trkpt>
      <trkpt lat="47.32477" lon="-1.29104">
        <ele>107</ele>
        <time>2014-11-16T11:19:37.000Z</time>
      </trkpt>
      <trkpt lat="47.32477" lon="-1.29104">
        <ele>107</ele>
        <time>2014-11-16T11:19:38.000Z</time>
      </trkpt>
      <trkpt lat="47.32477" lon="-1.29104">
        <ele>107</ele>
        <time>2014-11-16T11:19:40.000Z</time>
      </trkpt>
      <trkpt lat="47.32477" lon="-1.29104">
        <ele>107</ele>
        <time>2014-11-16T11:19:42.000Z</time>
      </trkpt>
      <trkpt lat="47.32477" lon="-1.29104">
        <ele>107</ele>
        <time>2014-11-16T11:19:44.000Z</time>
      </trkpt>
      <trkpt lat="47.32468" lon="-1.29103">
        <ele>108</ele>
        <time>2014-11-16T11:19:51.000Z</time>
      </trkpt>
      <trkpt lat="47.32465" lon="-1.29091">
        <ele>106</ele>
        <time>2014-11-16T11:19:55.000Z</time>
      </trkpt>
      <trkpt lat="47.32458" lon="-1.29081">
        <ele>107</ele>
        <time>2014-11-16T11:19:59.000Z</time>
      </trkpt>
      <trkpt lat="47.32451" lon="-1.29083">
        <ele>107</ele>
        <time>2014-11-16T11:20:00.000Z</time>
      </trkpt>
      <trkpt lat="47.32445" lon="-1.29087">
        <ele>105</ele>
        <time>2014-11-16T11:20:02.000Z</time>
      </trkpt>
      <trkpt lat="47.32439" lon="-1.2909">
        <ele>106</ele>
        <time>2014-11-16T11:20:05.000Z</time>
      </trkpt>
      <trkpt lat="47.32433" lon="-1.29093">
        <ele>106</ele>
        <time>2014-11-16T11:20:07.000Z</time>
      </trkpt>
      <trkpt lat="47.32427" lon="-1.29096">
        <ele>106</ele>
        <time>2014-11-16T11:20:09.000Z</time>
      </trkpt>
      <trkpt lat="47.3242" lon="-1.29099">
        <ele>108</ele>
        <time>2014-11-16T11:20:11.000Z</time>
      </trkpt>
      <trkpt lat="47.32412" lon="-1.29101">
        <ele>108</ele>
        <time>2014-11-16T11:20:13.000Z</time>
      </trkpt>
      <trkpt lat="47.32404" lon="-1.29103">
        <ele>108</ele>
        <time>2014-11-16T11:20:15.000Z</time>
      </trkpt>
      <trkpt lat="47.32396" lon="-1.29105">
        <ele>109</ele>
        <time>2014-11-16T11:20:17.000Z</time>
      </trkpt>
      <trkpt lat="47.32388" lon="-1.29105">
        <ele>111</ele>
        <time>2014-11-16T11:20:19.000Z</time>
      </trkpt>
      <trkpt lat="47.32381" lon="-1.29106">
        <ele>111</ele>
        <time>2014-11-16T11:20:21.000Z</time>
      </trkpt>
      <trkpt lat="47.32373" lon="-1.29106">
        <ele>112</ele>
        <time>2014-11-16T11:20:23.000Z</time>
      </trkpt>
      <trkpt lat="47.32366" lon="-1.29107">
        <ele>112</ele>
        <time>2014-11-16T11:20:24.000Z</time>
      </trkpt>
      <trkpt lat="47.3236" lon="-1.29108">
        <ele>112</ele>
        <time>2014-11-16T11:20:26.000Z</time>
      </trkpt>
      <trkpt lat="47.3236" lon="-1.29108">
        <ele>112</ele>
        <time>2014-11-16T11:20:28.000Z</time>
      </trkpt>
      <trkpt lat="47.32349" lon="-1.29109">
        <ele>111</ele>
        <time>2014-11-16T11:20:30.000Z</time>
      </trkpt>
      <trkpt lat="47.32342" lon="-1.29109">
        <ele>111</ele>
        <time>2014-11-16T11:20:32.000Z</time>
      </trkpt>
      <trkpt lat="47.32335" lon="-1.2911">
        <ele>113</ele>
        <time>2014-11-16T11:20:34.000Z</time>
      </trkpt>
      <trkpt lat="47.32328" lon="-1.2911">
        <ele>113</ele>
        <time>2014-11-16T11:20:37.000Z</time>
      </trkpt>
      <trkpt lat="47.32321" lon="-1.29111">
        <ele>112</ele>
        <time>2014-11-16T11:20:39.000Z</time>
      </trkpt>
      <trkpt lat="47.32314" lon="-1.29113">
        <ele>112</ele>
        <time>2014-11-16T11:20:40.000Z</time>
      </trkpt>
      <trkpt lat="47.32307" lon="-1.29114">
        <ele>111</ele>
        <time>2014-11-16T11:20:43.000Z</time>
      </trkpt>
      <trkpt lat="47.32307" lon="-1.29114">
        <ele>111</ele>
        <time>2014-11-16T11:20:45.000Z</time>
      </trkpt>
      <trkpt lat="47.32296" lon="-1.29119">
        <ele>110</ele>
        <time>2014-11-16T11:20:47.000Z</time>
      </trkpt>
      <trkpt lat="47.32289" lon="-1.29121">
        <ele>111</ele>
        <time>2014-11-16T11:20:49.000Z</time>
      </trkpt>
      <trkpt lat="47.32282" lon="-1.29122">
        <ele>111</ele>
        <time>2014-11-16T11:20:50.000Z</time>
      </trkpt>
      <trkpt lat="47.32275" lon="-1.29123">
        <ele>109</ele>
        <time>2014-11-16T11:20:53.000Z</time>
      </trkpt>
      <trkpt lat="47.32267" lon="-1.29122">
        <ele>109</ele>
        <time>2014-11-16T11:20:54.000Z</time>
      </trkpt>
      <trkpt lat="47.32261" lon="-1.2912">
        <ele>109</ele>
        <time>2014-11-16T11:20:56.000Z</time>
      </trkpt>
      <trkpt lat="47.32254" lon="-1.29121">
        <ele>109</ele>
        <time>2014-11-16T11:20:58.000Z</time>
      </trkpt>
      <trkpt lat="47.32245" lon="-1.2913">
        <ele>108</ele>
        <time>2014-11-16T11:21:00.000Z</time>
      </trkpt>
      <trkpt lat="47.32237" lon="-1.29136">
        <ele>108</ele>
        <time>2014-11-16T11:21:02.000Z</time>
      </trkpt>
      <trkpt lat="47.32228" lon="-1.29142">
        <ele>107</ele>
        <time>2014-11-16T11:21:04.000Z</time>
      </trkpt>
      <trkpt lat="47.32222" lon="-1.29148">
        <ele>107</ele>
        <time>2014-11-16T11:21:07.000Z</time>
      </trkpt>
      <trkpt lat="47.32215" lon="-1.29155">
        <ele>106</ele>
        <time>2014-11-16T11:21:09.000Z</time>
      </trkpt>
      <trkpt lat="47.32207" lon="-1.29161">
        <ele>106</ele>
        <time>2014-11-16T11:21:11.000Z</time>
      </trkpt>
      <trkpt lat="47.322" lon="-1.29167">
        <ele>105</ele>
        <time>2014-11-16T11:21:13.000Z</time>
      </trkpt>
      <trkpt lat="47.32193" lon="-1.29173">
        <ele>104</ele>
        <time>2014-11-16T11:21:15.000Z</time>
      </trkpt>
      <trkpt lat="47.32188" lon="-1.29173">
        <ele>104</ele>
        <time>2014-11-16T11:21:17.000Z</time>
      </trkpt>
      <trkpt lat="47.32188" lon="-1.29173">
        <ele>104</ele>
        <time>2014-11-16T11:21:19.000Z</time>
      </trkpt>
      <trkpt lat="47.32183" lon="-1.29161">
        <ele>105</ele>
        <time>2014-11-16T11:21:21.000Z</time>
      </trkpt>
      <trkpt lat="47.32183" lon="-1.29161">
        <ele>105</ele>
        <time>2014-11-16T11:21:23.000Z</time>
      </trkpt>
      <trkpt lat="47.32179" lon="-1.29148">
        <ele>105</ele>
        <time>2014-11-16T11:21:25.000Z</time>
      </trkpt>
      <trkpt lat="47.32175" lon="-1.29134">
        <ele>104</ele>
        <time>2014-11-16T11:21:29.000Z</time>
      </trkpt>
      <trkpt lat="47.32174" lon="-1.29125">
        <ele>103</ele>
        <time>2014-11-16T11:21:31.000Z</time>
      </trkpt>
      <trkpt lat="47.32174" lon="-1.29116">
        <ele>104</ele>
        <time>2014-11-16T11:21:33.000Z</time>
      </trkpt>
      <trkpt lat="47.32173" lon="-1.29106">
        <ele>104</ele>
        <time>2014-11-16T11:21:35.000Z</time>
      </trkpt>
      <trkpt lat="47.32172" lon="-1.29097">
        <ele>105</ele>
        <time>2014-11-16T11:21:37.000Z</time>
      </trkpt>
      <trkpt lat="47.32172" lon="-1.29088">
        <ele>106</ele>
        <time>2014-11-16T11:21:39.000Z</time>
      </trkpt>
      <trkpt lat="47.32172" lon="-1.29088">
        <ele>106</ele>
        <time>2014-11-16T11:21:41.000Z</time>
      </trkpt>
      <trkpt lat="47.32171" lon="-1.29072">
        <ele>107</ele>
        <time>2014-11-16T11:21:42.000Z</time>
      </trkpt>
      <trkpt lat="47.32171" lon="-1.29072">
        <ele>107</ele>
        <time>2014-11-16T11:21:44.000Z</time>
      </trkpt>
      <trkpt lat="47.3217" lon="-1.29059">
        <ele>109</ele>
        <time>2014-11-16T11:21:46.000Z</time>
      </trkpt>
      <trkpt lat="47.3217" lon="-1.29059">
        <ele>109</ele>
        <time>2014-11-16T11:21:49.000Z</time>
      </trkpt>
      <trkpt lat="47.32169" lon="-1.29047">
        <ele>109</ele>
        <time>2014-11-16T11:21:50.000Z</time>
      </trkpt>
      <trkpt lat="47.32169" lon="-1.29047">
        <ele>109</ele>
        <time>2014-11-16T11:21:52.000Z</time>
      </trkpt>
      <trkpt lat="47.32169" lon="-1.29035">
        <ele>108</ele>
        <time>2014-11-16T11:21:54.000Z</time>
      </trkpt>
      <trkpt lat="47.32169" lon="-1.29035">
        <ele>108</ele>
        <time>2014-11-16T11:21:57.000Z</time>
      </trkpt>
      <trkpt lat="47.32172" lon="-1.29024">
        <ele>108</ele>
        <time>2014-11-16T11:21:59.000Z</time>
      </trkpt>
      <trkpt lat="47.32172" lon="-1.29024">
        <ele>108</ele>
        <time>2014-11-16T11:22:01.000Z</time>
      </trkpt>
      <trkpt lat="47.32171" lon="-1.29014">
        <ele>108</ele>
        <time>2014-11-16T11:22:03.000Z</time>
      </trkpt>
      <trkpt lat="47.3216" lon="-1.29017">
        <ele>107</ele>
        <time>2014-11-16T11:22:07.000Z</time>
      </trkpt>
      <trkpt lat="47.32153" lon="-1.29021">
        <ele>106</ele>
        <time>2014-11-16T11:22:09.000Z</time>
      </trkpt>
      <trkpt lat="47.32145" lon="-1.29025">
        <ele>106</ele>
        <time>2014-11-16T11:22:11.000Z</time>
      </trkpt>
      <trkpt lat="47.32137" lon="-1.2903">
        <ele>105</ele>
        <time>2014-11-16T11:22:12.000Z</time>
      </trkpt>
      <trkpt lat="47.3213" lon="-1.29035">
        <ele>106</ele>
        <time>2014-11-16T11:22:15.000Z</time>
      </trkpt>
      <trkpt lat="47.32124" lon="-1.29038">
        <ele>107</ele>
        <time>2014-11-16T11:22:17.000Z</time>
      </trkpt>
      <trkpt lat="47.32124" lon="-1.29038">
        <ele>107</ele>
        <time>2014-11-16T11:22:19.000Z</time>
      </trkpt>
      <trkpt lat="47.32117" lon="-1.2905">
        <ele>106</ele>
        <time>2014-11-16T11:22:20.000Z</time>
      </trkpt>
      <trkpt lat="47.32117" lon="-1.2905">
        <ele>106</ele>
        <time>2014-11-16T11:22:22.000Z</time>
      </trkpt>
      <trkpt lat="47.32113" lon="-1.29066">
        <ele>106</ele>
        <time>2014-11-16T11:22:24.000Z</time>
      </trkpt>
      <trkpt lat="47.3211" lon="-1.29076">
        <ele>107</ele>
        <time>2014-11-16T11:22:26.000Z</time>
      </trkpt>
      <trkpt lat="47.32106" lon="-1.29089">
        <ele>108</ele>
        <time>2014-11-16T11:22:28.000Z</time>
      </trkpt>
      <trkpt lat="47.32102" lon="-1.29101">
        <ele>110</ele>
        <time>2014-11-16T11:22:30.000Z</time>
      </trkpt>
      <trkpt lat="47.32098" lon="-1.29112">
        <ele>111</ele>
        <time>2014-11-16T11:22:32.000Z</time>
      </trkpt>
      <trkpt lat="47.32094" lon="-1.29121">
        <ele>110</ele>
        <time>2014-11-16T11:22:34.000Z</time>
      </trkpt>
      <trkpt lat="47.3209" lon="-1.29128">
        <ele>111</ele>
        <time>2014-11-16T11:22:36.000Z</time>
      </trkpt>
      <trkpt lat="47.32085" lon="-1.29135">
        <ele>110</ele>
        <time>2014-11-16T11:22:38.000Z</time>
      </trkpt>
      <trkpt lat="47.32079" lon="-1.2914">
        <ele>110</ele>
        <time>2014-11-16T11:22:40.000Z</time>
      </trkpt>
      <trkpt lat="47.32072" lon="-1.29142">
        <ele>111</ele>
        <time>2014-11-16T11:22:42.000Z</time>
      </trkpt>
      <trkpt lat="47.32066" lon="-1.29143">
        <ele>110</ele>
        <time>2014-11-16T11:22:44.000Z</time>
      </trkpt>
      <trkpt lat="47.32059" lon="-1.29145">
        <ele>110</ele>
        <time>2014-11-16T11:22:46.000Z</time>
      </trkpt>
      <trkpt lat="47.32052" lon="-1.29146">
        <ele>108</ele>
        <time>2014-11-16T11:22:48.000Z</time>
      </trkpt>
      <trkpt lat="47.32045" lon="-1.29148">
        <ele>109</ele>
        <time>2014-11-16T11:22:51.000Z</time>
      </trkpt>
      <trkpt lat="47.32038" lon="-1.29151">
        <ele>109</ele>
        <time>2014-11-16T11:22:53.000Z</time>
      </trkpt>
      <trkpt lat="47.32031" lon="-1.29153">
        <ele>108</ele>
        <time>2014-11-16T11:22:54.000Z</time>
      </trkpt>
      <trkpt lat="47.32024" lon="-1.29153">
        <ele>107</ele>
        <time>2014-11-16T11:22:57.000Z</time>
      </trkpt>
      <trkpt lat="47.32016" lon="-1.29153">
        <ele>107</ele>
        <time>2014-11-16T11:22:59.000Z</time>
      </trkpt>
      <trkpt lat="47.3201" lon="-1.29153">
        <ele>107</ele>
        <time>2014-11-16T11:23:00.000Z</time>
      </trkpt>
      <trkpt lat="47.32003" lon="-1.29152">
        <ele>109</ele>
        <time>2014-11-16T11:23:03.000Z</time>
      </trkpt>
      <trkpt lat="47.31998" lon="-1.29151">
        <ele>110</ele>
        <time>2014-11-16T11:23:05.000Z</time>
      </trkpt>
      <trkpt lat="47.31998" lon="-1.29151">
        <ele>110</ele>
        <time>2014-11-16T11:23:07.000Z</time>
      </trkpt>
      <trkpt lat="47.31986" lon="-1.29152">
        <ele>112</ele>
        <time>2014-11-16T11:23:08.000Z</time>
      </trkpt>
      <trkpt lat="47.31981" lon="-1.29154">
        <ele>111</ele>
        <time>2014-11-16T11:23:10.000Z</time>
      </trkpt>
      <trkpt lat="47.31981" lon="-1.29154">
        <ele>111</ele>
        <time>2014-11-16T11:23:13.000Z</time>
      </trkpt>
      <trkpt lat="47.31971" lon="-1.29161">
        <ele>111</ele>
        <time>2014-11-16T11:23:15.000Z</time>
      </trkpt>
      <trkpt lat="47.31966" lon="-1.29166">
        <ele>111</ele>
        <time>2014-11-16T11:23:17.000Z</time>
      </trkpt>
      <trkpt lat="47.31956" lon="-1.29174">
        <ele>111</ele>
        <time>2014-11-16T11:23:21.000Z</time>
      </trkpt>
      <trkpt lat="47.31956" lon="-1.29174">
        <ele>111</ele>
        <time>2014-11-16T11:23:23.000Z</time>
      </trkpt>
      <trkpt lat="47.31952" lon="-1.29177">
        <ele>110</ele>
        <time>2014-11-16T11:23:24.000Z</time>
      </trkpt>
      <trkpt lat="47.31946" lon="-1.29179">
        <ele>109</ele>
        <time>2014-11-16T11:23:27.000Z</time>
      </trkpt>
      <trkpt lat="47.31941" lon="-1.29182">
        <ele>108</ele>
        <time>2014-11-16T11:23:29.000Z</time>
      </trkpt>
      <trkpt lat="47.31936" lon="-1.29186">
        <ele>108</ele>
        <time>2014-11-16T11:23:30.000Z</time>
      </trkpt>
      <trkpt lat="47.31932" lon="-1.29191">
        <ele>109</ele>
        <time>2014-11-16T11:23:33.000Z</time>
      </trkpt>
      <trkpt lat="47.31927" lon="-1.29206">
        <ele>109</ele>
        <time>2014-11-16T11:23:35.000Z</time>
      </trkpt>
      <trkpt lat="47.31926" lon="-1.29217">
        <ele>110</ele>
        <time>2014-11-16T11:23:36.000Z</time>
      </trkpt>
      <trkpt lat="47.31924" lon="-1.29228">
        <ele>109</ele>
        <time>2014-11-16T11:23:39.000Z</time>
      </trkpt>
      <trkpt lat="47.31922" lon="-1.2924">
        <ele>110</ele>
        <time>2014-11-16T11:23:41.000Z</time>
      </trkpt>
      <trkpt lat="47.31919" lon="-1.29251">
        <ele>109</ele>
        <time>2014-11-16T11:23:43.000Z</time>
      </trkpt>
      <trkpt lat="47.31916" lon="-1.29263">
        <ele>108</ele>
        <time>2014-11-16T11:23:45.000Z</time>
      </trkpt>
      <trkpt lat="47.31913" lon="-1.29276">
        <ele>108</ele>
        <time>2014-11-16T11:23:47.000Z</time>
      </trkpt>
      <trkpt lat="47.31911" lon="-1.29289">
        <ele>108</ele>
        <time>2014-11-16T11:23:49.000Z</time>
      </trkpt>
      <trkpt lat="47.31908" lon="-1.29302">
        <ele>110</ele>
        <time>2014-11-16T11:23:51.000Z</time>
      </trkpt>
      <trkpt lat="47.31905" lon="-1.29317">
        <ele>110</ele>
        <time>2014-11-16T11:23:53.000Z</time>
      </trkpt>
      <trkpt lat="47.31903" lon="-1.29331">
        <ele>110</ele>
        <time>2014-11-16T11:23:55.000Z</time>
      </trkpt>
      <trkpt lat="47.31902" lon="-1.29347">
        <ele>109</ele>
        <time>2014-11-16T11:23:57.000Z</time>
      </trkpt>
      <trkpt lat="47.319" lon="-1.2936">
        <ele>109</ele>
        <time>2014-11-16T11:23:59.000Z</time>
      </trkpt>
      <trkpt lat="47.31897" lon="-1.29372">
        <ele>108</ele>
        <time>2014-11-16T11:24:01.000Z</time>
      </trkpt>
      <trkpt lat="47.31893" lon="-1.29384">
        <ele>108</ele>
        <time>2014-11-16T11:24:03.000Z</time>
      </trkpt>
      <trkpt lat="47.31889" lon="-1.29397">
        <ele>109</ele>
        <time>2014-11-16T11:24:05.000Z</time>
      </trkpt>
      <trkpt lat="47.31884" lon="-1.29409">
        <ele>109</ele>
        <time>2014-11-16T11:24:07.000Z</time>
      </trkpt>
      <trkpt lat="47.31878" lon="-1.2942">
        <ele>110</ele>
        <time>2014-11-16T11:24:09.000Z</time>
      </trkpt>
      <trkpt lat="47.31873" lon="-1.29431">
        <ele>108</ele>
        <time>2014-11-16T11:24:11.000Z</time>
      </trkpt>
      <trkpt lat="47.31867" lon="-1.29441">
        <ele>107</ele>
        <time>2014-11-16T11:24:13.000Z</time>
      </trkpt>
      <trkpt lat="47.31862" lon="-1.29453">
        <ele>106</ele>
        <time>2014-11-16T11:24:15.000Z</time>
      </trkpt>
      <trkpt lat="47.31856" lon="-1.29464">
        <ele>107</ele>
        <time>2014-11-16T11:24:17.000Z</time>
      </trkpt>
      <trkpt lat="47.31852" lon="-1.29475">
        <ele>107</ele>
        <time>2014-11-16T11:24:19.000Z</time>
      </trkpt>
      <trkpt lat="47.31847" lon="-1.29486">
        <ele>106</ele>
        <time>2014-11-16T11:24:21.000Z</time>
      </trkpt>
      <trkpt lat="47.31843" lon="-1.29496">
        <ele>106</ele>
        <time>2014-11-16T11:24:23.000Z</time>
      </trkpt>
      <trkpt lat="47.31839" lon="-1.29507">
        <ele>105</ele>
        <time>2014-11-16T11:24:24.000Z</time>
      </trkpt>
      <trkpt lat="47.31833" lon="-1.29517">
        <ele>106</ele>
        <time>2014-11-16T11:24:27.000Z</time>
      </trkpt>
      <trkpt lat="47.31826" lon="-1.29526">
        <ele>107</ele>
        <time>2014-11-16T11:24:29.000Z</time>
      </trkpt>
      <trkpt lat="47.31821" lon="-1.29537">
        <ele>105</ele>
        <time>2014-11-16T11:24:31.000Z</time>
      </trkpt>
      <trkpt lat="47.31816" lon="-1.29547">
        <ele>106</ele>
        <time>2014-11-16T11:24:33.000Z</time>
      </trkpt>
      <trkpt lat="47.31812" lon="-1.29559">
        <ele>106</ele>
        <time>2014-11-16T11:24:34.000Z</time>
      </trkpt>
      <trkpt lat="47.31807" lon="-1.29572">
        <ele>107</ele>
        <time>2014-11-16T11:24:36.000Z</time>
      </trkpt>
      <trkpt lat="47.31802" lon="-1.29583">
        <ele>109</ele>
        <time>2014-11-16T11:24:39.000Z</time>
      </trkpt>
      <trkpt lat="47.31797" lon="-1.29594">
        <ele>110</ele>
        <time>2014-11-16T11:24:41.000Z</time>
      </trkpt>
      <trkpt lat="47.31794" lon="-1.29604">
        <ele>110</ele>
        <time>2014-11-16T11:24:43.000Z</time>
      </trkpt>
      <trkpt lat="47.31792" lon="-1.29616">
        <ele>110</ele>
        <time>2014-11-16T11:24:44.000Z</time>
      </trkpt>
      <trkpt lat="47.31786" lon="-1.29629">
        <ele>108</ele>
        <time>2014-11-16T11:24:46.000Z</time>
      </trkpt>
      <trkpt lat="47.31784" lon="-1.29643">
        <ele>108</ele>
        <time>2014-11-16T11:24:49.000Z</time>
      </trkpt>
      <trkpt lat="47.31782" lon="-1.29657">
        <ele>108</ele>
        <time>2014-11-16T11:24:50.000Z</time>
      </trkpt>
      <trkpt lat="47.31778" lon="-1.29669">
        <ele>109</ele>
        <time>2014-11-16T11:24:52.000Z</time>
      </trkpt>
      <trkpt lat="47.31775" lon="-1.29683">
        <ele>110</ele>
        <time>2014-11-16T11:24:55.000Z</time>
      </trkpt>
      <trkpt lat="47.31773" lon="-1.29697">
        <ele>109</ele>
        <time>2014-11-16T11:24:57.000Z</time>
      </trkpt>
      <trkpt lat="47.31769" lon="-1.29709">
        <ele>109</ele>
        <time>2014-11-16T11:24:59.000Z</time>
      </trkpt>
      <trkpt lat="47.31765" lon="-1.29721">
        <ele>109</ele>
        <time>2014-11-16T11:25:01.000Z</time>
      </trkpt>
      <trkpt lat="47.31763" lon="-1.29736">
        <ele>108</ele>
        <time>2014-11-16T11:25:03.000Z</time>
      </trkpt>
      <trkpt lat="47.3176" lon="-1.29751">
        <ele>107</ele>
        <time>2014-11-16T11:25:05.000Z</time>
      </trkpt>
      <trkpt lat="47.31756" lon="-1.29766">
        <ele>106</ele>
        <time>2014-11-16T11:25:07.000Z</time>
      </trkpt>
      <trkpt lat="47.31754" lon="-1.29781">
        <ele>106</ele>
        <time>2014-11-16T11:25:09.000Z</time>
      </trkpt>
      <trkpt lat="47.31752" lon="-1.29798">
        <ele>106</ele>
        <time>2014-11-16T11:25:11.000Z</time>
      </trkpt>
      <trkpt lat="47.3175" lon="-1.29813">
        <ele>105</ele>
        <time>2014-11-16T11:25:13.000Z</time>
      </trkpt>
      <trkpt lat="47.31747" lon="-1.29825">
        <ele>106</ele>
        <time>2014-11-16T11:25:15.000Z</time>
      </trkpt>
      <trkpt lat="47.31744" lon="-1.2984">
        <ele>104</ele>
        <time>2014-11-16T11:25:17.000Z</time>
      </trkpt>
      <trkpt lat="47.3174" lon="-1.29853">
        <ele>105</ele>
        <time>2014-11-16T11:25:19.000Z</time>
      </trkpt>
      <trkpt lat="47.31736" lon="-1.29865">
        <ele>106</ele>
        <time>2014-11-16T11:25:21.000Z</time>
      </trkpt>
      <trkpt lat="47.3173" lon="-1.29877">
        <ele>107</ele>
        <time>2014-11-16T11:25:23.000Z</time>
      </trkpt>
      <trkpt lat="47.31726" lon="-1.29888">
        <ele>105</ele>
        <time>2014-11-16T11:25:25.000Z</time>
      </trkpt>
      <trkpt lat="47.3172" lon="-1.29899">
        <ele>105</ele>
        <time>2014-11-16T11:25:27.000Z</time>
      </trkpt>
      <trkpt lat="47.31714" lon="-1.29908">
        <ele>105</ele>
        <time>2014-11-16T11:25:29.000Z</time>
      </trkpt>
      <trkpt lat="47.31705" lon="-1.29914">
        <ele>107</ele>
        <time>2014-11-16T11:25:31.000Z</time>
      </trkpt>
      <trkpt lat="47.31696" lon="-1.29921">
        <ele>107</ele>
        <time>2014-11-16T11:25:32.000Z</time>
      </trkpt>
      <trkpt lat="47.31688" lon="-1.29929">
        <ele>107</ele>
        <time>2014-11-16T11:25:35.000Z</time>
      </trkpt>
      <trkpt lat="47.31681" lon="-1.29938">
        <ele>106</ele>
        <time>2014-11-16T11:25:37.000Z</time>
      </trkpt>
      <trkpt lat="47.31675" lon="-1.29946">
        <ele>106</ele>
        <time>2014-11-16T11:25:39.000Z</time>
      </trkpt>
      <trkpt lat="47.31668" lon="-1.29954">
        <ele>107</ele>
        <time>2014-11-16T11:25:41.000Z</time>
      </trkpt>
      <trkpt lat="47.31661" lon="-1.2996">
        <ele>106</ele>
        <time>2014-11-16T11:25:43.000Z</time>
      </trkpt>
      <trkpt lat="47.31654" lon="-1.29965">
        <ele>107</ele>
        <time>2014-11-16T11:25:44.000Z</time>
      </trkpt>
      <trkpt lat="47.31647" lon="-1.29971">
        <ele>107</ele>
        <time>2014-11-16T11:25:46.000Z</time>
      </trkpt>
      <trkpt lat="47.31641" lon="-1.29977">
        <ele>106</ele>
        <time>2014-11-16T11:25:48.000Z</time>
      </trkpt>
      <trkpt lat="47.31635" lon="-1.29982">
        <ele>106</ele>
        <time>2014-11-16T11:25:51.000Z</time>
      </trkpt>
      <trkpt lat="47.31628" lon="-1.29987">
        <ele>106</ele>
        <time>2014-11-16T11:25:53.000Z</time>
      </trkpt>
      <trkpt lat="47.31621" lon="-1.29991">
        <ele>107</ele>
        <time>2014-11-16T11:25:54.000Z</time>
      </trkpt>
      <trkpt lat="47.31615" lon="-1.29995">
        <ele>109</ele>
        <time>2014-11-16T11:25:56.000Z</time>
      </trkpt>
      <trkpt lat="47.31609" lon="-1.29998">
        <ele>110</ele>
        <time>2014-11-16T11:25:58.000Z</time>
      </trkpt>
      <trkpt lat="47.31604" lon="-1.30002">
        <ele>111</ele>
        <time>2014-11-16T11:26:01.000Z</time>
      </trkpt>
      <trkpt lat="47.31599" lon="-1.30006">
        <ele>110</ele>
        <time>2014-11-16T11:26:03.000Z</time>
      </trkpt>
      <trkpt lat="47.31593" lon="-1.30011">
        <ele>110</ele>
        <time>2014-11-16T11:26:05.000Z</time>
      </trkpt>
      <trkpt lat="47.31587" lon="-1.30015">
        <ele>111</ele>
        <time>2014-11-16T11:26:07.000Z</time>
      </trkpt>
      <trkpt lat="47.31582" lon="-1.30019">
        <ele>110</ele>
        <time>2014-11-16T11:26:08.000Z</time>
      </trkpt>
      <trkpt lat="47.31582" lon="-1.30019">
        <ele>110</ele>
        <time>2014-11-16T11:26:11.000Z</time>
      </trkpt>
      <trkpt lat="47.31573" lon="-1.30027">
        <ele>113</ele>
        <time>2014-11-16T11:26:12.000Z</time>
      </trkpt>
      <trkpt lat="47.31568" lon="-1.30032">
        <ele>113</ele>
        <time>2014-11-16T11:26:15.000Z</time>
      </trkpt>
      <trkpt lat="47.31568" lon="-1.30032">
        <ele>113</ele>
        <time>2014-11-16T11:26:16.000Z</time>
      </trkpt>
      <trkpt lat="47.31559" lon="-1.30041">
        <ele>113</ele>
        <time>2014-11-16T11:26:18.000Z</time>
      </trkpt>
      <trkpt lat="47.31559" lon="-1.30041">
        <ele>113</ele>
        <time>2014-11-16T11:26:20.000Z</time>
      </trkpt>
      <trkpt lat="47.31551" lon="-1.30049">
        <ele>113</ele>
        <time>2014-11-16T11:26:22.000Z</time>
      </trkpt>
      <trkpt lat="47.31551" lon="-1.30049">
        <ele>113</ele>
        <time>2014-11-16T11:26:24.000Z</time>
      </trkpt>
      <trkpt lat="47.31548" lon="-1.30064">
        <ele>113</ele>
        <time>2014-11-16T11:26:26.000Z</time>
      </trkpt>
      <trkpt lat="47.31546" lon="-1.30073">
        <ele>112</ele>
        <time>2014-11-16T11:26:29.000Z</time>
      </trkpt>
      <trkpt lat="47.31544" lon="-1.30081">
        <ele>111</ele>
        <time>2014-11-16T11:26:31.000Z</time>
      </trkpt>
      <trkpt lat="47.31543" lon="-1.30089">
        <ele>111</ele>
        <time>2014-11-16T11:26:33.000Z</time>
      </trkpt>
      <trkpt lat="47.3154" lon="-1.30097">
        <ele>113</ele>
        <time>2014-11-16T11:26:35.000Z</time>
      </trkpt>
      <trkpt lat="47.31536" lon="-1.30104">
        <ele>114</ele>
        <time>2014-11-16T11:26:37.000Z</time>
      </trkpt>
      <trkpt lat="47.31533" lon="-1.30111">
        <ele>114</ele>
        <time>2014-11-16T11:26:39.000Z</time>
      </trkpt>
      <trkpt lat="47.31531" lon="-1.30118">
        <ele>114</ele>
        <time>2014-11-16T11:26:41.000Z</time>
      </trkpt>
      <trkpt lat="47.31529" lon="-1.30127">
        <ele>113</ele>
        <time>2014-11-16T11:26:43.000Z</time>
      </trkpt>
      <trkpt lat="47.31528" lon="-1.30135">
        <ele>113</ele>
        <time>2014-11-16T11:26:45.000Z</time>
      </trkpt>
      <trkpt lat="47.31527" lon="-1.30143">
        <ele>113</ele>
        <time>2014-11-16T11:26:46.000Z</time>
      </trkpt>
      <trkpt lat="47.31528" lon="-1.3016">
        <ele>112</ele>
        <time>2014-11-16T11:26:51.000Z</time>
      </trkpt>
      <trkpt lat="47.31529" lon="-1.30168">
        <ele>111</ele>
        <time>2014-11-16T11:26:53.000Z</time>
      </trkpt>
      <trkpt lat="47.3153" lon="-1.30178">
        <ele>112</ele>
        <time>2014-11-16T11:26:54.000Z</time>
      </trkpt>
      <trkpt lat="47.31532" lon="-1.30188">
        <ele>111</ele>
        <time>2014-11-16T11:26:57.000Z</time>
      </trkpt>
      <trkpt lat="47.31534" lon="-1.30198">
        <ele>112</ele>
        <time>2014-11-16T11:26:59.000Z</time>
      </trkpt>
      <trkpt lat="47.31535" lon="-1.30209">
        <ele>110</ele>
        <time>2014-11-16T11:27:01.000Z</time>
      </trkpt>
      <trkpt lat="47.31536" lon="-1.3022">
        <ele>111</ele>
        <time>2014-11-16T11:27:03.000Z</time>
      </trkpt>
      <trkpt lat="47.31537" lon="-1.30229">
        <ele>111</ele>
        <time>2014-11-16T11:27:05.000Z</time>
      </trkpt>
      <trkpt lat="47.3154" lon="-1.30237">
        <ele>111</ele>
        <time>2014-11-16T11:27:07.000Z</time>
      </trkpt>
      <trkpt lat="47.31545" lon="-1.3024">
        <ele>110</ele>
        <time>2014-11-16T11:27:09.000Z</time>
      </trkpt>
      <trkpt lat="47.31553" lon="-1.3024">
        <ele>110</ele>
        <time>2014-11-16T11:27:11.000Z</time>
      </trkpt>
      <trkpt lat="47.3156" lon="-1.30239">
        <ele>109</ele>
        <time>2014-11-16T11:27:13.000Z</time>
      </trkpt>
      <trkpt lat="47.31567" lon="-1.30239">
        <ele>110</ele>
        <time>2014-11-16T11:27:14.000Z</time>
      </trkpt>
      <trkpt lat="47.31575" lon="-1.3024">
        <ele>109</ele>
        <time>2014-11-16T11:27:17.000Z</time>
      </trkpt>
      <trkpt lat="47.31583" lon="-1.30242">
        <ele>109</ele>
        <time>2014-11-16T11:27:18.000Z</time>
      </trkpt>
      <trkpt lat="47.31591" lon="-1.30245">
        <ele>109</ele>
        <time>2014-11-16T11:27:21.000Z</time>
      </trkpt>
      <trkpt lat="47.31599" lon="-1.30248">
        <ele>108</ele>
        <time>2014-11-16T11:27:23.000Z</time>
      </trkpt>
      <trkpt lat="47.31605" lon="-1.3025">
        <ele>108</ele>
        <time>2014-11-16T11:27:25.000Z</time>
      </trkpt>
      <trkpt lat="47.31605" lon="-1.3025">
        <ele>108</ele>
        <time>2014-11-16T11:27:27.000Z</time>
      </trkpt>
      <trkpt lat="47.31605" lon="-1.3025">
        <ele>108</ele>
        <time>2014-11-16T11:27:29.000Z</time>
      </trkpt>
      <trkpt lat="47.3161" lon="-1.30259">
        <ele>108</ele>
        <time>2014-11-16T11:27:31.000Z</time>
      </trkpt>
      <trkpt lat="47.3161" lon="-1.30259">
        <ele>108</ele>
        <time>2014-11-16T11:27:33.000Z</time>
      </trkpt>
      <trkpt lat="47.31608" lon="-1.30268">
        <ele>107</ele>
        <time>2014-11-16T11:27:35.000Z</time>
      </trkpt>
      <trkpt lat="47.31605" lon="-1.30275">
        <ele>106</ele>
        <time>2014-11-16T11:27:37.000Z</time>
      </trkpt>
      <trkpt lat="47.31602" lon="-1.30282">
        <ele>108</ele>
        <time>2014-11-16T11:27:39.000Z</time>
      </trkpt>
      <trkpt lat="47.31598" lon="-1.30291">
        <ele>107</ele>
        <time>2014-11-16T11:27:41.000Z</time>
      </trkpt>
      <trkpt lat="47.31594" lon="-1.30301">
        <ele>106</ele>
        <time>2014-11-16T11:27:42.000Z</time>
      </trkpt>
      <trkpt lat="47.3159" lon="-1.30311">
        <ele>107</ele>
        <time>2014-11-16T11:27:44.000Z</time>
      </trkpt>
      <trkpt lat="47.31586" lon="-1.30322">
        <ele>107</ele>
        <time>2014-11-16T11:27:46.000Z</time>
      </trkpt>
      <trkpt lat="47.3158" lon="-1.30335">
        <ele>107</ele>
        <time>2014-11-16T11:27:48.000Z</time>
      </trkpt>
      <trkpt lat="47.31575" lon="-1.30347">
        <ele>107</ele>
        <time>2014-11-16T11:27:51.000Z</time>
      </trkpt>
      <trkpt lat="47.3157" lon="-1.30359">
        <ele>108</ele>
        <time>2014-11-16T11:27:52.000Z</time>
      </trkpt>
      <trkpt lat="47.31567" lon="-1.30371">
        <ele>108</ele>
        <time>2014-11-16T11:27:55.000Z</time>
      </trkpt>
      <trkpt lat="47.31561" lon="-1.30382">
        <ele>108</ele>
        <time>2014-11-16T11:27:57.000Z</time>
      </trkpt>
      <trkpt lat="47.31557" lon="-1.30395">
        <ele>107</ele>
        <time>2014-11-16T11:27:59.000Z</time>
      </trkpt>
      <trkpt lat="47.31552" lon="-1.30409">
        <ele>108</ele>
        <time>2014-11-16T11:28:01.000Z</time>
      </trkpt>
      <trkpt lat="47.31547" lon="-1.30423">
        <ele>106</ele>
        <time>2014-11-16T11:28:03.000Z</time>
      </trkpt>
      <trkpt lat="47.31543" lon="-1.30436">
        <ele>108</ele>
        <time>2014-11-16T11:28:05.000Z</time>
      </trkpt>
      <trkpt lat="47.31537" lon="-1.30451">
        <ele>106</ele>
        <time>2014-11-16T11:28:07.000Z</time>
      </trkpt>
      <trkpt lat="47.31532" lon="-1.30464">
        <ele>105</ele>
        <time>2014-11-16T11:28:09.000Z</time>
      </trkpt>
      <trkpt lat="47.31528" lon="-1.30478">
        <ele>105</ele>
        <time>2014-11-16T11:28:11.000Z</time>
      </trkpt>
      <trkpt lat="47.31522" lon="-1.30492">
        <ele>105</ele>
        <time>2014-11-16T11:28:13.000Z</time>
      </trkpt>
      <trkpt lat="47.31518" lon="-1.30507">
        <ele>106</ele>
        <time>2014-11-16T11:28:15.000Z</time>
      </trkpt>
      <trkpt lat="47.31512" lon="-1.30521">
        <ele>106</ele>
        <time>2014-11-16T11:28:17.000Z</time>
      </trkpt>
      <trkpt lat="47.31507" lon="-1.30536">
        <ele>107</ele>
        <time>2014-11-16T11:28:18.000Z</time>
      </trkpt>
      <trkpt lat="47.31501" lon="-1.30552">
        <ele>106</ele>
        <time>2014-11-16T11:28:21.000Z</time>
      </trkpt>
      <trkpt lat="47.31495" lon="-1.30568">
        <ele>105</ele>
        <time>2014-11-16T11:28:23.000Z</time>
      </trkpt>
      <trkpt lat="47.3149" lon="-1.30582">
        <ele>104</ele>
        <time>2014-11-16T11:28:25.000Z</time>
      </trkpt>
      <trkpt lat="47.31482" lon="-1.30597">
        <ele>101</ele>
        <time>2014-11-16T11:28:27.000Z</time>
      </trkpt>
      <trkpt lat="47.31476" lon="-1.30613">
        <ele>100</ele>
        <time>2014-11-16T11:28:29.000Z</time>
      </trkpt>
      <trkpt lat="47.3147" lon="-1.30629">
        <ele>101</ele>
        <time>2014-11-16T11:28:31.000Z</time>
      </trkpt>
      <trkpt lat="47.31464" lon="-1.30645">
        <ele>101</ele>
        <time>2014-11-16T11:28:33.000Z</time>
      </trkpt>
      <trkpt lat="47.31458" lon="-1.30662">
        <ele>101</ele>
        <time>2014-11-16T11:28:35.000Z</time>
      </trkpt>
      <trkpt lat="47.31451" lon="-1.30679">
        <ele>99</ele>
        <time>2014-11-16T11:28:37.000Z</time>
      </trkpt>
      <trkpt lat="47.31445" lon="-1.30695">
        <ele>100</ele>
        <time>2014-11-16T11:28:39.000Z</time>
      </trkpt>
      <trkpt lat="47.3144" lon="-1.30714">
        <ele>98</ele>
        <time>2014-11-16T11:28:41.000Z</time>
      </trkpt>
      <trkpt lat="47.31433" lon="-1.30731">
        <ele>98</ele>
        <time>2014-11-16T11:28:42.000Z</time>
      </trkpt>
      <trkpt lat="47.31428" lon="-1.30749">
        <ele>96</ele>
        <time>2014-11-16T11:28:44.000Z</time>
      </trkpt>
      <trkpt lat="47.31422" lon="-1.30765">
        <ele>96</ele>
        <time>2014-11-16T11:28:46.000Z</time>
      </trkpt>
      <trkpt lat="47.31416" lon="-1.30781">
        <ele>97</ele>
        <time>2014-11-16T11:28:48.000Z</time>
      </trkpt>
      <trkpt lat="47.31409" lon="-1.30798">
        <ele>98</ele>
        <time>2014-11-16T11:28:51.000Z</time>
      </trkpt>
      <trkpt lat="47.314" lon="-1.30813">
        <ele>99</ele>
        <time>2014-11-16T11:28:53.000Z</time>
      </trkpt>
      <trkpt lat="47.3139" lon="-1.30827">
        <ele>98</ele>
        <time>2014-11-16T11:28:54.000Z</time>
      </trkpt>
      <trkpt lat="47.31379" lon="-1.30839">
        <ele>98</ele>
        <time>2014-11-16T11:28:57.000Z</time>
      </trkpt>
      <trkpt lat="47.31365" lon="-1.30848">
        <ele>98</ele>
        <time>2014-11-16T11:28:59.000Z</time>
      </trkpt>
      <trkpt lat="47.31351" lon="-1.30855">
        <ele>98</ele>
        <time>2014-11-16T11:29:01.000Z</time>
      </trkpt>
      <trkpt lat="47.31336" lon="-1.30858">
        <ele>97</ele>
        <time>2014-11-16T11:29:03.000Z</time>
      </trkpt>
      <trkpt lat="47.31319" lon="-1.30857">
        <ele>96</ele>
        <time>2014-11-16T11:29:05.000Z</time>
      </trkpt>
      <trkpt lat="47.31303" lon="-1.30855">
        <ele>96</ele>
        <time>2014-11-16T11:29:07.000Z</time>
      </trkpt>
      <trkpt lat="47.31286" lon="-1.30852">
        <ele>96</ele>
        <time>2014-11-16T11:29:09.000Z</time>
      </trkpt>
      <trkpt lat="47.31269" lon="-1.30848">
        <ele>95</ele>
        <time>2014-11-16T11:29:11.000Z</time>
      </trkpt>
      <trkpt lat="47.31252" lon="-1.30847">
        <ele>95</ele>
        <time>2014-11-16T11:29:13.000Z</time>
      </trkpt>
      <trkpt lat="47.31236" lon="-1.30852">
        <ele>96</ele>
        <time>2014-11-16T11:29:15.000Z</time>
      </trkpt>
      <trkpt lat="47.3122" lon="-1.30863">
        <ele>94</ele>
        <time>2014-11-16T11:29:17.000Z</time>
      </trkpt>
      <trkpt lat="47.31206" lon="-1.30878">
        <ele>93</ele>
        <time>2014-11-16T11:29:19.000Z</time>
      </trkpt>
      <trkpt lat="47.31195" lon="-1.30901">
        <ele>91</ele>
        <time>2014-11-16T11:29:21.000Z</time>
      </trkpt>
      <trkpt lat="47.31191" lon="-1.30927">
        <ele>91</ele>
        <time>2014-11-16T11:29:23.000Z</time>
      </trkpt>
      <trkpt lat="47.31192" lon="-1.30954">
        <ele>92</ele>
        <time>2014-11-16T11:29:24.000Z</time>
      </trkpt>
      <trkpt lat="47.31197" lon="-1.3098">
        <ele>92</ele>
        <time>2014-11-16T11:29:27.000Z</time>
      </trkpt>
      <trkpt lat="47.31205" lon="-1.31002">
        <ele>92</ele>
        <time>2014-11-16T11:29:29.000Z</time>
      </trkpt>
      <trkpt lat="47.31216" lon="-1.31021">
        <ele>90</ele>
        <time>2014-11-16T11:29:30.000Z</time>
      </trkpt>
      <trkpt lat="47.31227" lon="-1.31036">
        <ele>90</ele>
        <time>2014-11-16T11:29:32.000Z</time>
      </trkpt>
      <trkpt lat="47.31237" lon="-1.3105">
        <ele>92</ele>
        <time>2014-11-16T11:29:35.000Z</time>
      </trkpt>
      <trkpt lat="47.31245" lon="-1.31063">
        <ele>93</ele>
        <time>2014-11-16T11:29:37.000Z</time>
      </trkpt>
      <trkpt lat="47.31254" lon="-1.31076">
        <ele>92</ele>
        <time>2014-11-16T11:29:39.000Z</time>
      </trkpt>
      <trkpt lat="47.31261" lon="-1.31087">
        <ele>92</ele>
        <time>2014-11-16T11:29:41.000Z</time>
      </trkpt>
      <trkpt lat="47.31268" lon="-1.31098">
        <ele>91</ele>
        <time>2014-11-16T11:29:43.000Z</time>
      </trkpt>
      <trkpt lat="47.31273" lon="-1.31111">
        <ele>92</ele>
        <time>2014-11-16T11:29:45.000Z</time>
      </trkpt>
      <trkpt lat="47.31276" lon="-1.31124">
        <ele>94</ele>
        <time>2014-11-16T11:29:47.000Z</time>
      </trkpt>
      <trkpt lat="47.31279" lon="-1.31136">
        <ele>94</ele>
        <time>2014-11-16T11:29:48.000Z</time>
      </trkpt>
      <trkpt lat="47.31279" lon="-1.31136">
        <ele>94</ele>
        <time>2014-11-16T11:29:49.000Z</time>
      </trkpt>
      <trkpt lat="47.3128" lon="-1.31157">
        <ele>94</ele>
        <time>2014-11-16T11:29:51.000Z</time>
      </trkpt>
      <trkpt lat="47.3128" lon="-1.3117">
        <ele>96</ele>
        <time>2014-11-16T11:29:53.000Z</time>
      </trkpt>
      <trkpt lat="47.31281" lon="-1.31184">
        <ele>96</ele>
        <time>2014-11-16T11:29:55.000Z</time>
      </trkpt>
      <trkpt lat="47.31281" lon="-1.31199">
        <ele>97</ele>
        <time>2014-11-16T11:29:57.000Z</time>
      </trkpt>
      <trkpt lat="47.31281" lon="-1.31212">
        <ele>97</ele>
        <time>2014-11-16T11:29:59.000Z</time>
      </trkpt>
      <trkpt lat="47.31281" lon="-1.31225">
        <ele>95</ele>
        <time>2014-11-16T11:30:02.000Z</time>
      </trkpt>
      <trkpt lat="47.31281" lon="-1.31238">
        <ele>95</ele>
        <time>2014-11-16T11:30:04.000Z</time>
      </trkpt>
      <trkpt lat="47.31281" lon="-1.31251">
        <ele>93</ele>
        <time>2014-11-16T11:30:06.000Z</time>
      </trkpt>
      <trkpt lat="47.31281" lon="-1.31264">
        <ele>91</ele>
        <time>2014-11-16T11:30:08.000Z</time>
      </trkpt>
      <trkpt lat="47.31281" lon="-1.31278">
        <ele>91</ele>
        <time>2014-11-16T11:30:10.000Z</time>
      </trkpt>
      <trkpt lat="47.31281" lon="-1.3129">
        <ele>92</ele>
        <time>2014-11-16T11:30:12.000Z</time>
      </trkpt>
      <trkpt lat="47.31281" lon="-1.31303">
        <ele>92</ele>
        <time>2014-11-16T11:30:14.000Z</time>
      </trkpt>
      <trkpt lat="47.31282" lon="-1.31316">
        <ele>94</ele>
        <time>2014-11-16T11:30:16.000Z</time>
      </trkpt>
      <trkpt lat="47.31282" lon="-1.31327">
        <ele>95</ele>
        <time>2014-11-16T11:30:18.000Z</time>
      </trkpt>
      <trkpt lat="47.31282" lon="-1.31339">
        <ele>96</ele>
        <time>2014-11-16T11:30:20.000Z</time>
      </trkpt>
      <trkpt lat="47.31282" lon="-1.31351">
        <ele>97</ele>
        <time>2014-11-16T11:30:22.000Z</time>
      </trkpt>
      <trkpt lat="47.31283" lon="-1.31363">
        <ele>97</ele>
        <time>2014-11-16T11:30:23.000Z</time>
      </trkpt>
      <trkpt lat="47.31283" lon="-1.31375">
        <ele>96</ele>
        <time>2014-11-16T11:30:25.000Z</time>
      </trkpt>
      <trkpt lat="47.31284" lon="-1.31386">
        <ele>97</ele>
        <time>2014-11-16T11:30:27.000Z</time>
      </trkpt>
      <trkpt lat="47.31284" lon="-1.31398">
        <ele>98</ele>
        <time>2014-11-16T11:30:29.000Z</time>
      </trkpt>
      <trkpt lat="47.31284" lon="-1.31409">
        <ele>97</ele>
        <time>2014-11-16T11:30:32.000Z</time>
      </trkpt>
      <trkpt lat="47.31284" lon="-1.3142">
        <ele>98</ele>
        <time>2014-11-16T11:30:34.000Z</time>
      </trkpt>
      <trkpt lat="47.31284" lon="-1.31431">
        <ele>98</ele>
        <time>2014-11-16T11:30:36.000Z</time>
      </trkpt>
      <trkpt lat="47.31285" lon="-1.31441">
        <ele>98</ele>
        <time>2014-11-16T11:30:37.000Z</time>
      </trkpt>
      <trkpt lat="47.31285" lon="-1.31452">
        <ele>98</ele>
        <time>2014-11-16T11:30:39.000Z</time>
      </trkpt>
      <trkpt lat="47.31285" lon="-1.31463">
        <ele>97</ele>
        <time>2014-11-16T11:30:41.000Z</time>
      </trkpt>
      <trkpt lat="47.31286" lon="-1.31472">
        <ele>98</ele>
        <time>2014-11-16T11:30:43.000Z</time>
      </trkpt>
      <trkpt lat="47.31286" lon="-1.31482">
        <ele>97</ele>
        <time>2014-11-16T11:30:45.000Z</time>
      </trkpt>
      <trkpt lat="47.31287" lon="-1.31492">
        <ele>98</ele>
        <time>2014-11-16T11:30:47.000Z</time>
      </trkpt>
      <trkpt lat="47.31288" lon="-1.31502">
        <ele>97</ele>
        <time>2014-11-16T11:30:49.000Z</time>
      </trkpt>
      <trkpt lat="47.31288" lon="-1.31513">
        <ele>99</ele>
        <time>2014-11-16T11:30:51.000Z</time>
      </trkpt>
      <trkpt lat="47.31288" lon="-1.31524">
        <ele>99</ele>
        <time>2014-11-16T11:30:53.000Z</time>
      </trkpt>
      <trkpt lat="47.31288" lon="-1.31533">
        <ele>100</ele>
        <time>2014-11-16T11:30:56.000Z</time>
      </trkpt>
      <trkpt lat="47.31287" lon="-1.31543">
        <ele>101</ele>
        <time>2014-11-16T11:30:58.000Z</time>
      </trkpt>
      <trkpt lat="47.31288" lon="-1.31553">
        <ele>102</ele>
        <time>2014-11-16T11:31:00.000Z</time>
      </trkpt>
      <trkpt lat="47.31289" lon="-1.31563">
        <ele>102</ele>
        <time>2014-11-16T11:31:02.000Z</time>
      </trkpt>
      <trkpt lat="47.31289" lon="-1.31572">
        <ele>104</ele>
        <time>2014-11-16T11:31:04.000Z</time>
      </trkpt>
      <trkpt lat="47.3129" lon="-1.31582">
        <ele>104</ele>
        <time>2014-11-16T11:31:06.000Z</time>
      </trkpt>
      <trkpt lat="47.3129" lon="-1.31591">
        <ele>106</ele>
        <time>2014-11-16T11:31:08.000Z</time>
      </trkpt>
      <trkpt lat="47.3129" lon="-1.316">
        <ele>106</ele>
        <time>2014-11-16T11:31:10.000Z</time>
      </trkpt>
      <trkpt lat="47.3129" lon="-1.31609">
        <ele>106</ele>
        <time>2014-11-16T11:31:12.000Z</time>
      </trkpt>
      <trkpt lat="47.31289" lon="-1.31618">
        <ele>107</ele>
        <time>2014-11-16T11:31:14.000Z</time>
      </trkpt>
      <trkpt lat="47.31289" lon="-1.31627">
        <ele>107</ele>
        <time>2014-11-16T11:31:16.000Z</time>
      </trkpt>
      <trkpt lat="47.31289" lon="-1.31637">
        <ele>107</ele>
        <time>2014-11-16T11:31:18.000Z</time>
      </trkpt>
      <trkpt lat="47.3129" lon="-1.31646">
        <ele>107</ele>
        <time>2014-11-16T11:31:20.000Z</time>
      </trkpt>
      <trkpt lat="47.3129" lon="-1.31657">
        <ele>107</ele>
        <time>2014-11-16T11:31:22.000Z</time>
      </trkpt>
      <trkpt lat="47.3129" lon="-1.31666">
        <ele>107</ele>
        <time>2014-11-16T11:31:24.000Z</time>
      </trkpt>
      <trkpt lat="47.31291" lon="-1.31676">
        <ele>107</ele>
        <time>2014-11-16T11:31:26.000Z</time>
      </trkpt>
      <trkpt lat="47.3129" lon="-1.31685">
        <ele>109</ele>
        <time>2014-11-16T11:31:28.000Z</time>
      </trkpt>
      <trkpt lat="47.31288" lon="-1.31693">
        <ele>110</ele>
        <time>2014-11-16T11:31:30.000Z</time>
      </trkpt>
      <trkpt lat="47.31283" lon="-1.31699">
        <ele>110</ele>
        <time>2014-11-16T11:31:32.000Z</time>
      </trkpt>
      <trkpt lat="47.31277" lon="-1.31701">
        <ele>110</ele>
        <time>2014-11-16T11:31:34.000Z</time>
      </trkpt>
      <trkpt lat="47.31271" lon="-1.31703">
        <ele>109</ele>
        <time>2014-11-16T11:31:36.000Z</time>
      </trkpt>
      <trkpt lat="47.31265" lon="-1.31707">
        <ele>108</ele>
        <time>2014-11-16T11:31:38.000Z</time>
      </trkpt>
      <trkpt lat="47.31259" lon="-1.31712">
        <ele>107</ele>
        <time>2014-11-16T11:31:40.000Z</time>
      </trkpt>
      <trkpt lat="47.31254" lon="-1.31717">
        <ele>108</ele>
        <time>2014-11-16T11:31:42.000Z</time>
      </trkpt>
      <trkpt lat="47.31248" lon="-1.31723">
        <ele>107</ele>
        <time>2014-11-16T11:31:44.000Z</time>
      </trkpt>
      <trkpt lat="47.31243" lon="-1.3173">
        <ele>105</ele>
        <time>2014-11-16T11:31:46.000Z</time>
      </trkpt>
      <trkpt lat="47.31237" lon="-1.31736">
        <ele>105</ele>
        <time>2014-11-16T11:31:48.000Z</time>
      </trkpt>
      <trkpt lat="47.31232" lon="-1.31741">
        <ele>106</ele>
        <time>2014-11-16T11:31:50.000Z</time>
      </trkpt>
      <trkpt lat="47.31227" lon="-1.31746">
        <ele>106</ele>
        <time>2014-11-16T11:31:52.000Z</time>
      </trkpt>
      <trkpt lat="47.31221" lon="-1.31751">
        <ele>105</ele>
        <time>2014-11-16T11:31:54.000Z</time>
      </trkpt>
      <trkpt lat="47.31216" lon="-1.31756">
        <ele>104</ele>
        <time>2014-11-16T11:31:56.000Z</time>
      </trkpt>
      <trkpt lat="47.31211" lon="-1.31761">
        <ele>104</ele>
        <time>2014-11-16T11:31:58.000Z</time>
      </trkpt>
      <trkpt lat="47.31211" lon="-1.31761">
        <ele>104</ele>
        <time>2014-11-16T11:32:00.000Z</time>
      </trkpt>
      <trkpt lat="47.312" lon="-1.31767">
        <ele>106</ele>
        <time>2014-11-16T11:32:01.000Z</time>
      </trkpt>
      <trkpt lat="47.31194" lon="-1.31768">
        <ele>104</ele>
        <time>2014-11-16T11:32:04.000Z</time>
      </trkpt>
      <trkpt lat="47.31187" lon="-1.3177">
        <ele>105</ele>
        <time>2014-11-16T11:32:06.000Z</time>
      </trkpt>
      <trkpt lat="47.31181" lon="-1.31772">
        <ele>105</ele>
        <time>2014-11-16T11:32:08.000Z</time>
      </trkpt>
      <trkpt lat="47.31176" lon="-1.31776">
        <ele>105</ele>
        <time>2014-11-16T11:32:10.000Z</time>
      </trkpt>
      <trkpt lat="47.31171" lon="-1.31779">
        <ele>105</ele>
        <time>2014-11-16T11:32:12.000Z</time>
      </trkpt>
      <trkpt lat="47.31165" lon="-1.31781">
        <ele>107</ele>
        <time>2014-11-16T11:32:14.000Z</time>
      </trkpt>
      <trkpt lat="47.31159" lon="-1.31784">
        <ele>106</ele>
        <time>2014-11-16T11:32:16.000Z</time>
      </trkpt>
      <trkpt lat="47.31153" lon="-1.31787">
        <ele>104</ele>
        <time>2014-11-16T11:32:18.000Z</time>
      </trkpt>
      <trkpt lat="47.31148" lon="-1.31792">
        <ele>106</ele>
        <time>2014-11-16T11:32:20.000Z</time>
      </trkpt>
      <trkpt lat="47.31148" lon="-1.31792">
        <ele>106</ele>
        <time>2014-11-16T11:32:22.000Z</time>
      </trkpt>
      <trkpt lat="47.3114" lon="-1.31802">
        <ele>108</ele>
        <time>2014-11-16T11:32:24.000Z</time>
      </trkpt>
      <trkpt lat="47.3114" lon="-1.31802">
        <ele>108</ele>
        <time>2014-11-16T11:32:26.000Z</time>
      </trkpt>
      <trkpt lat="47.31134" lon="-1.31815">
        <ele>108</ele>
        <time>2014-11-16T11:32:27.000Z</time>
      </trkpt>
      <trkpt lat="47.31134" lon="-1.31815">
        <ele>108</ele>
        <time>2014-11-16T11:32:30.000Z</time>
      </trkpt>
      <trkpt lat="47.31129" lon="-1.31827">
        <ele>109</ele>
        <time>2014-11-16T11:32:32.000Z</time>
      </trkpt>
      <trkpt lat="47.31129" lon="-1.31827">
        <ele>109</ele>
        <time>2014-11-16T11:32:34.000Z</time>
      </trkpt>
      <trkpt lat="47.31123" lon="-1.31839">
        <ele>110</ele>
        <time>2014-11-16T11:32:36.000Z</time>
      </trkpt>
      <trkpt lat="47.31116" lon="-1.31852">
        <ele>111</ele>
        <time>2014-11-16T11:32:40.000Z</time>
      </trkpt>
      <trkpt lat="47.31113" lon="-1.31859">
        <ele>111</ele>
        <time>2014-11-16T11:32:42.000Z</time>
      </trkpt>
      <trkpt lat="47.3111" lon="-1.31866">
        <ele>112</ele>
        <time>2014-11-16T11:32:43.000Z</time>
      </trkpt>
      <trkpt lat="47.31107" lon="-1.31873">
        <ele>113</ele>
        <time>2014-11-16T11:32:46.000Z</time>
      </trkpt>
      <trkpt lat="47.31103" lon="-1.3188">
        <ele>111</ele>
        <time>2014-11-16T11:32:47.000Z</time>
      </trkpt>
      <trkpt lat="47.31099" lon="-1.31886">
        <ele>111</ele>
        <time>2014-11-16T11:32:50.000Z</time>
      </trkpt>
      <trkpt lat="47.31099" lon="-1.31886">
        <ele>111</ele>
        <time>2014-11-16T11:32:52.000Z</time>
      </trkpt>
      <trkpt lat="47.31094" lon="-1.319">
        <ele>111</ele>
        <time>2014-11-16T11:32:53.000Z</time>
      </trkpt>
      <trkpt lat="47.31094" lon="-1.319">
        <ele>111</ele>
        <time>2014-11-16T11:32:56.000Z</time>
      </trkpt>
      <trkpt lat="47.31102" lon="-1.31912">
        <ele>113</ele>
        <time>2014-11-16T11:32:58.000Z</time>
      </trkpt>
      <trkpt lat="47.31108" lon="-1.31916">
        <ele>113</ele>
        <time>2014-11-16T11:32:59.000Z</time>
      </trkpt>
      <trkpt lat="47.31114" lon="-1.31921">
        <ele>114</ele>
        <time>2014-11-16T11:33:01.000Z</time>
      </trkpt>
      <trkpt lat="47.31118" lon="-1.31928">
        <ele>114</ele>
        <time>2014-11-16T11:33:03.000Z</time>
      </trkpt>
      <trkpt lat="47.31121" lon="-1.31936">
        <ele>113</ele>
        <time>2014-11-16T11:33:05.000Z</time>
      </trkpt>
      <trkpt lat="47.31122" lon="-1.31945">
        <ele>113</ele>
        <time>2014-11-16T11:33:08.000Z</time>
      </trkpt>
      <trkpt lat="47.31124" lon="-1.31953">
        <ele>113</ele>
        <time>2014-11-16T11:33:10.000Z</time>
      </trkpt>
      <trkpt lat="47.31124" lon="-1.31953">
        <ele>113</ele>
        <time>2014-11-16T11:33:12.000Z</time>
      </trkpt>
      <trkpt lat="47.3113" lon="-1.31966">
        <ele>113</ele>
        <time>2014-11-16T11:33:13.000Z</time>
      </trkpt>
      <trkpt lat="47.3113" lon="-1.31966">
        <ele>113</ele>
        <time>2014-11-16T11:33:16.000Z</time>
      </trkpt>
      <trkpt lat="47.31136" lon="-1.31978">
        <ele>113</ele>
        <time>2014-11-16T11:33:17.000Z</time>
      </trkpt>
      <trkpt lat="47.31139" lon="-1.31994">
        <ele>114</ele>
        <time>2014-11-16T11:33:22.000Z</time>
      </trkpt>
      <trkpt lat="47.31145" lon="-1.32006">
        <ele>114</ele>
        <time>2014-11-16T11:33:25.000Z</time>
      </trkpt>
      <trkpt lat="47.31145" lon="-1.32006">
        <ele>114</ele>
        <time>2014-11-16T11:33:27.000Z</time>
      </trkpt>
      <trkpt lat="47.31152" lon="-1.32017">
        <ele>113</ele>
        <time>2014-11-16T11:33:30.000Z</time>
      </trkpt>
      <trkpt lat="47.31152" lon="-1.32017">
        <ele>113</ele>
        <time>2014-11-16T11:33:32.000Z</time>
      </trkpt>
      <trkpt lat="47.31152" lon="-1.32017">
        <ele>113</ele>
        <time>2014-11-16T11:33:33.000Z</time>
      </trkpt>
      <trkpt lat="47.31157" lon="-1.32025">
        <ele>114</ele>
        <time>2014-11-16T11:33:36.000Z</time>
      </trkpt>
      <trkpt lat="47.31157" lon="-1.32025">
        <ele>114</ele>
        <time>2014-11-16T11:33:38.000Z</time>
      </trkpt>
      <trkpt lat="47.31157" lon="-1.32025">
        <ele>114</ele>
        <time>2014-11-16T11:33:40.000Z</time>
      </trkpt>
      <trkpt lat="47.31163" lon="-1.32033">
        <ele>112</ele>
        <time>2014-11-16T11:33:42.000Z</time>
      </trkpt>
      <trkpt lat="47.3117" lon="-1.32042">
        <ele>112</ele>
        <time>2014-11-16T11:33:46.000Z</time>
      </trkpt>
      <trkpt lat="47.31175" lon="-1.32046">
        <ele>112</ele>
        <time>2014-11-16T11:33:50.000Z</time>
      </trkpt>
      <trkpt lat="47.31175" lon="-1.32046">
        <ele>112</ele>
        <time>2014-11-16T11:33:52.000Z</time>
      </trkpt>
      <trkpt lat="47.31175" lon="-1.32046">
        <ele>112</ele>
        <time>2014-11-16T11:33:53.000Z</time>
      </trkpt>
      <trkpt lat="47.31171" lon="-1.32044">
        <ele>113</ele>
        <time>2014-11-16T11:33:55.000Z</time>
      </trkpt>
      <trkpt lat="47.31169" lon="-1.32039">
        <ele>113</ele>
        <time>2014-11-16T11:33:58.000Z</time>
      </trkpt>
      <trkpt lat="47.31166" lon="-1.32033">
        <ele>114</ele>
        <time>2014-11-16T11:34:00.000Z</time>
      </trkpt>
      <trkpt lat="47.31162" lon="-1.32028">
        <ele>112</ele>
        <time>2014-11-16T11:34:02.000Z</time>
      </trkpt>
      <trkpt lat="47.31159" lon="-1.32023">
        <ele>114</ele>
        <time>2014-11-16T11:34:04.000Z</time>
      </trkpt>
      <trkpt lat="47.31155" lon="-1.32013">
        <ele>114</ele>
        <time>2014-11-16T11:34:06.000Z</time>
      </trkpt>
      <trkpt lat="47.31155" lon="-1.32013">
        <ele>114</ele>
        <time>2014-11-16T11:34:08.000Z</time>
      </trkpt>
      <trkpt lat="47.31158" lon="-1.32004">
        <ele>113</ele>
        <time>2014-11-16T11:34:10.000Z</time>
      </trkpt>
      <trkpt lat="47.31158" lon="-1.32004">
        <ele>113</ele>
        <time>2014-11-16T11:34:12.000Z</time>
      </trkpt>
      <trkpt lat="47.31158" lon="-1.32004">
        <ele>113</ele>
        <time>2014-11-16T11:34:14.000Z</time>
      </trkpt>
      <trkpt lat="47.31158" lon="-1.32004">
        <ele>113</ele>
        <time>2014-11-16T11:34:16.000Z</time>
      </trkpt>
      <trkpt lat="47.31158" lon="-1.32004">
        <ele>113</ele>
        <time>2014-11-16T11:34:17.000Z</time>
      </trkpt>
      <trkpt lat="47.31158" lon="-1.32004">
        <ele>113</ele>
        <time>2014-11-16T11:34:19.000Z</time>
      </trkpt>
      <trkpt lat="47.31158" lon="-1.32004">
        <ele>113</ele>
        <time>2014-11-16T11:34:22.000Z</time>
      </trkpt>
      <trkpt lat="47.31158" lon="-1.32004">
        <ele>113</ele>
        <time>2014-11-16T11:34:24.000Z</time>
      </trkpt>
      <trkpt lat="47.31158" lon="-1.32004">
        <ele>113</ele>
        <time>2014-11-16T11:34:26.000Z</time>
      </trkpt>
      <trkpt lat="47.31158" lon="-1.32004">
        <ele>113</ele>
        <time>2014-11-16T11:34:27.000Z</time>
      </trkpt>
      <trkpt lat="47.31158" lon="-1.32004">
        <ele>113</ele>
        <time>2014-11-16T11:34:29.000Z</time>
      </trkpt>
      <trkpt lat="47.31158" lon="-1.32004">
        <ele>113</ele>
        <time>2014-11-16T11:34:32.000Z</time>
      </trkpt>
      <trkpt lat="47.31158" lon="-1.32004">
        <ele>113</ele>
        <time>2014-11-16T11:34:34.000Z</time>
      </trkpt>
      <trkpt lat="47.31158" lon="-1.32004">
        <ele>113</ele>
        <time>2014-11-16T11:34:36.000Z</time>
      </trkpt>
      <trkpt lat="47.31158" lon="-1.32004">
        <ele>113</ele>
        <time>2014-11-16T11:34:37.000Z</time>
      </trkpt>
      <trkpt lat="47.31158" lon="-1.32004">
        <ele>113</ele>
        <time>2014-11-16T11:34:40.000Z</time>
      </trkpt>
      <trkpt lat="47.31158" lon="-1.32004">
        <ele>113</ele>
        <time>2014-11-16T11:34:42.000Z</time>
      </trkpt>
      <trkpt lat="47.31158" lon="-1.32004">
        <ele>113</ele>
        <time>2014-11-16T11:34:43.000Z</time>
      </trkpt>
      <trkpt lat="47.31158" lon="-1.32004">
        <ele>113</ele>
        <time>2014-11-16T11:34:46.000Z</time>
      </trkpt>
      <trkpt lat="47.31158" lon="-1.32004">
        <ele>113</ele>
        <time>2014-11-16T11:34:48.000Z</time>
      </trkpt>
      <trkpt lat="47.31158" lon="-1.32004">
        <ele>113</ele>
        <time>2014-11-16T11:34:50.000Z</time>
      </trkpt>
      <trkpt lat="47.31158" lon="-1.32004">
        <ele>113</ele>
        <time>2014-11-16T11:34:51.000Z</time>
      </trkpt>
      <trkpt lat="47.31158" lon="-1.32004">
        <ele>113</ele>
        <time>2014-11-16T11:34:54.000Z</time>
      </trkpt>
      <trkpt lat="47.31158" lon="-1.32004">
        <ele>113</ele>
        <time>2014-11-16T11:34:55.000Z</time>
      </trkpt>
      <trkpt lat="47.31158" lon="-1.32004">
        <ele>113</ele>
        <time>2014-11-16T11:35:10.000Z</time>
      </trkpt>
    </trkseg>
  </trk>
</gpx>